<?xml version='1.0' encoding='UTF-8'?><gpx version="1.1" creator="JPX - https://github.com/jenetics/jpx" xmlns="http://www.topografix.com/GPX/1/1"><trk><trkseg><trkpt lat="41.6837827" lon="2.0608418"><ele>513.0</ele><time>2026-04-25T10:08:39.441Z</time></trkpt><trkpt lat="41.6836743" lon="2.060904"><ele>513.0</ele><time>2026-04-25T10:08:41.441Z</time></trkpt><trkpt lat="41.6836181" lon="2.0609559"><ele>513.0</ele><time>2026-04-25T10:08:42.441Z</time></trkpt><trkpt lat="41.6835675" lon="2.0610076"><ele>513.0</ele><time>2026-04-25T10:08:43.441Z</time></trkpt><trkpt lat="41.6835171" lon="2.0610728"><ele>513.0</ele><time>2026-04-25T10:08:44.441Z</time></trkpt><trkpt lat="41.6834617" lon="2.0611439"><ele>513.0</ele><time>2026-04-25T10:08:45.441Z</time></trkpt><trkpt lat="41.6834035" lon="2.0612126"><ele>512.6666666666666</ele><time>2026-04-25T10:08:46.441Z</time></trkpt><trkpt lat="41.6833429" lon="2.0612868"><ele>512.3333333333334</ele><time>2026-04-25T10:08:47.441Z</time></trkpt><trkpt lat="41.683272" lon="2.0613602"><ele>512.0</ele><time>2026-04-25T10:08:48.44Z</time></trkpt><trkpt lat="41.6832059" lon="2.0614236"><ele>511.6666666666667</ele><time>2026-04-25T10:08:49.44Z</time></trkpt><trkpt lat="41.683145" lon="2.0614837"><ele>511.33333333333337</ele><time>2026-04-25T10:08:50.441Z</time></trkpt><trkpt lat="41.6830771" lon="2.0615469"><ele>511.0</ele><time>2026-04-25T10:08:51.441Z</time></trkpt><trkpt lat="41.6829991" lon="2.0616232"><ele>510.33333333333337</ele><time>2026-04-25T10:08:52.441Z</time></trkpt><trkpt lat="41.6829171" lon="2.0617034"><ele>509.6666666666667</ele><time>2026-04-25T10:08:53.441Z</time></trkpt><trkpt lat="41.6828416" lon="2.0617835"><ele>509.0</ele><time>2026-04-25T10:08:54.441Z</time></trkpt><trkpt lat="41.6827765" lon="2.0618541"><ele>508.33333333333337</ele><time>2026-04-25T10:08:55.441Z</time></trkpt><trkpt lat="41.6827111" lon="2.0619188"><ele>507.6666666666667</ele><time>2026-04-25T10:08:56.441Z</time></trkpt><trkpt lat="41.6826466" lon="2.0619867"><ele>507.0</ele><time>2026-04-25T10:08:57.441Z</time></trkpt><trkpt lat="41.6825795" lon="2.0620478"><ele>506.0</ele><time>2026-04-25T10:08:58.441Z</time></trkpt><trkpt lat="41.6825134" lon="2.0621026"><ele>505.0</ele><time>2026-04-25T10:08:59.441Z</time></trkpt><trkpt lat="41.6824473" lon="2.0621445"><ele>504.0</ele><time>2026-04-25T10:09:00.441Z</time></trkpt><trkpt lat="41.6823843" lon="2.062183"><ele>503.0</ele><time>2026-04-25T10:09:01.441Z</time></trkpt><trkpt lat="41.6823072" lon="2.0622446"><ele>502.0</ele><time>2026-04-25T10:09:03.441Z</time></trkpt><trkpt lat="41.682282" lon="2.062342"><ele>501.0</ele><time>2026-04-25T10:09:07.441Z</time></trkpt><trkpt lat="41.6823137" lon="2.06245"><ele>500.4</ele><time>2026-04-25T10:09:09.441Z</time></trkpt><trkpt lat="41.6823864" lon="2.0625424"><ele>499.8</ele><time>2026-04-25T10:09:11.44Z</time></trkpt><trkpt lat="41.6824527" lon="2.0625954"><ele>499.19999999999993</ele><time>2026-04-25T10:09:13.44Z</time></trkpt><trkpt lat="41.6825336" lon="2.0626176"><ele>498.59999999999997</ele><time>2026-04-25T10:10:47.44Z</time></trkpt><trkpt lat="41.6826496" lon="2.0626604"><ele>498.0</ele><time>2026-04-25T10:10:49.44Z</time></trkpt><trkpt lat="41.6827519" lon="2.0627326"><ele>498.8333333333333</ele><time>2026-04-25T10:10:51.44Z</time></trkpt><trkpt lat="41.6828271" lon="2.0627865"><ele>499.66666666666663</ele><time>2026-04-25T10:10:53.44Z</time></trkpt><trkpt lat="41.6829167" lon="2.0628607"><ele>500.5</ele><time>2026-04-25T10:11:01.44Z</time></trkpt><trkpt lat="41.6829672" lon="2.0629294"><ele>501.3333333333333</ele><time>2026-04-25T10:11:02.44Z</time></trkpt><trkpt lat="41.6830285" lon="2.0629973"><ele>502.16666666666663</ele><time>2026-04-25T10:11:03.44Z</time></trkpt><trkpt lat="41.6830911" lon="2.0630731"><ele>503.0</ele><time>2026-04-25T10:11:04.44Z</time></trkpt><trkpt lat="41.6831414" lon="2.0631626"><ele>502.99999999999994</ele><time>2026-04-25T10:11:05.44Z</time></trkpt><trkpt lat="41.6831915" lon="2.0632428"><ele>503.0</ele><time>2026-04-25T10:11:06.44Z</time></trkpt><trkpt lat="41.6832432" lon="2.0633183"><ele>503.0</ele><time>2026-04-25T10:11:07.44Z</time></trkpt><trkpt lat="41.683281" lon="2.063398"><ele>503.0</ele><time>2026-04-25T10:11:08.439Z</time></trkpt><trkpt lat="41.6833039" lon="2.0634925"><ele>502.99999999999994</ele><time>2026-04-25T10:11:09.44Z</time></trkpt><trkpt lat="41.6833071" lon="2.0635921"><ele>503.0</ele><time>2026-04-25T10:11:10.44Z</time></trkpt><trkpt lat="41.6832998" lon="2.0636998"><ele>502.66666666666663</ele><time>2026-04-25T10:11:11.44Z</time></trkpt><trkpt lat="41.6832903" lon="2.0638209"><ele>502.3333333333333</ele><time>2026-04-25T10:11:12.44Z</time></trkpt><trkpt lat="41.6832844" lon="2.0639443"><ele>502.0</ele><time>2026-04-25T10:11:13.44Z</time></trkpt><trkpt lat="41.68329" lon="2.0640566"><ele>501.66666666666663</ele><time>2026-04-25T10:11:14.439Z</time></trkpt><trkpt lat="41.6832938" lon="2.0641739"><ele>501.3333333333333</ele><time>2026-04-25T10:11:15.439Z</time></trkpt><trkpt lat="41.6833028" lon="2.0642815"><ele>501.0</ele><time>2026-04-25T10:11:16.44Z</time></trkpt><trkpt lat="41.6833207" lon="2.0643777"><ele>501.0</ele><time>2026-04-25T10:11:17.439Z</time></trkpt><trkpt lat="41.6833464" lon="2.0644658"><ele>501.0</ele><time>2026-04-25T10:11:18.44Z</time></trkpt><trkpt lat="41.6833755" lon="2.0645518"><ele>501.0</ele><time>2026-04-25T10:11:19.439Z</time></trkpt><trkpt lat="41.6834134" lon="2.0646384"><ele>501.0</ele><time>2026-04-25T10:11:20.44Z</time></trkpt><trkpt lat="41.6834544" lon="2.064728"><ele>501.0</ele><time>2026-04-25T10:11:21.439Z</time></trkpt><trkpt lat="41.6834965" lon="2.064816"><ele>501.0</ele><time>2026-04-25T10:11:22.44Z</time></trkpt><trkpt lat="41.6835425" lon="2.0648967"><ele>501.0</ele><time>2026-04-25T10:11:23.439Z</time></trkpt><trkpt lat="41.6835947" lon="2.0649709"><ele>502.8333333333333</ele><time>2026-04-25T10:11:24.44Z</time></trkpt><trkpt lat="41.6836496" lon="2.0650408"><ele>504.66666666666663</ele><time>2026-04-25T10:11:25.44Z</time></trkpt><trkpt lat="41.6837158" lon="2.0651123"><ele>506.5</ele><time>2026-04-25T10:11:26.44Z</time></trkpt><trkpt lat="41.6837793" lon="2.0651986"><ele>508.3333333333333</ele><time>2026-04-25T10:11:27.44Z</time></trkpt><trkpt lat="41.683839" lon="2.0652825"><ele>510.16666666666663</ele><time>2026-04-25T10:11:28.44Z</time></trkpt><trkpt lat="41.6838908" lon="2.0653405"><ele>512.0</ele><time>2026-04-25T10:11:29.44Z</time></trkpt><trkpt lat="41.6840153" lon="2.0654083"><ele>512.0</ele><time>2026-04-25T10:11:31.44Z</time></trkpt><trkpt lat="41.6840803" lon="2.0654273"><ele>512.0</ele><time>2026-04-25T10:11:32.44Z</time></trkpt><trkpt lat="41.6841504" lon="2.0654567"><ele>512.0</ele><time>2026-04-25T10:11:33.44Z</time></trkpt><trkpt lat="41.6842687" lon="2.0655034"><ele>512.0</ele><time>2026-04-25T10:11:35.44Z</time></trkpt><trkpt lat="41.6843236" lon="2.0655469"><ele>512.0</ele><time>2026-04-25T10:11:36.44Z</time></trkpt><trkpt lat="41.6844136" lon="2.0656594"><ele>512.5</ele><time>2026-04-25T10:11:38.44Z</time></trkpt><trkpt lat="41.6845137" lon="2.06575"><ele>513.0</ele><time>2026-04-25T10:11:40.44Z</time></trkpt><trkpt lat="41.684578" lon="2.0657718"><ele>513.5</ele><time>2026-04-25T10:11:41.44Z</time></trkpt><trkpt lat="41.6846438" lon="2.0657769"><ele>514.0</ele><time>2026-04-25T10:11:42.44Z</time></trkpt><trkpt lat="41.6847187" lon="2.0657757"><ele>514.5</ele><time>2026-04-25T10:11:43.439Z</time></trkpt><trkpt lat="41.6847964" lon="2.0657721"><ele>515.0</ele><time>2026-04-25T10:11:44.445Z</time></trkpt><trkpt lat="41.6848813" lon="2.0657714"><ele>516.1666666666666</ele><time>2026-04-25T10:11:45.445Z</time></trkpt><trkpt lat="41.6849594" lon="2.0657978"><ele>517.3333333333333</ele><time>2026-04-25T10:11:46.445Z</time></trkpt><trkpt lat="41.6850301" lon="2.065846"><ele>518.5</ele><time>2026-04-25T10:11:47.444Z</time></trkpt><trkpt lat="41.6851075" lon="2.065906"><ele>519.6666666666666</ele><time>2026-04-25T10:11:48.445Z</time></trkpt><trkpt lat="41.6851732" lon="2.0659884"><ele>520.8333333333334</ele><time>2026-04-25T10:11:49.445Z</time></trkpt><trkpt lat="41.6852326" lon="2.0660805"><ele>522.0</ele><time>2026-04-25T10:11:50.444Z</time></trkpt><trkpt lat="41.6852774" lon="2.0661824"><ele>522.2</ele><time>2026-04-25T10:11:51.445Z</time></trkpt><trkpt lat="41.6853198" lon="2.0662868"><ele>522.4000000000001</ele><time>2026-04-25T10:11:52.445Z</time></trkpt><trkpt lat="41.6853691" lon="2.0663867"><ele>522.5999999999999</ele><time>2026-04-25T10:11:53.444Z</time></trkpt><trkpt lat="41.6854281" lon="2.0664773"><ele>522.8</ele><time>2026-04-25T10:11:54.445Z</time></trkpt><trkpt lat="41.6854986" lon="2.0665635"><ele>523.0</ele><time>2026-04-25T10:11:55.445Z</time></trkpt><trkpt lat="41.6855685" lon="2.066637"><ele>524.8333333333334</ele><time>2026-04-25T10:11:56.445Z</time></trkpt><trkpt lat="41.6856404" lon="2.066719"><ele>526.6666666666667</ele><time>2026-04-25T10:11:57.445Z</time></trkpt><trkpt lat="41.6857074" lon="2.0667991"><ele>528.5</ele><time>2026-04-25T10:11:58.444Z</time></trkpt><trkpt lat="41.6857726" lon="2.0668788"><ele>530.3333333333334</ele><time>2026-04-25T10:11:59.445Z</time></trkpt><trkpt lat="41.685836" lon="2.0669601"><ele>532.1666666666666</ele><time>2026-04-25T10:12:00.445Z</time></trkpt><trkpt lat="41.6858923" lon="2.0670419"><ele>534.0</ele><time>2026-04-25T10:12:01.445Z</time></trkpt><trkpt lat="41.6859436" lon="2.0671227"><ele>534.0</ele><time>2026-04-25T10:12:02.445Z</time></trkpt><trkpt lat="41.6859934" lon="2.0672095"><ele>534.0</ele><time>2026-04-25T10:12:03.445Z</time></trkpt><trkpt lat="41.6860393" lon="2.0673043"><ele>534.0</ele><time>2026-04-25T10:12:04.445Z</time></trkpt><trkpt lat="41.6860881" lon="2.067389"><ele>534.0</ele><time>2026-04-25T10:12:05.444Z</time></trkpt><trkpt lat="41.6861222" lon="2.0674691"><ele>534.0</ele><time>2026-04-25T10:12:06.445Z</time></trkpt><trkpt lat="41.6861864" lon="2.0675957"><ele>534.0</ele><time>2026-04-25T10:12:08.445Z</time></trkpt><trkpt lat="41.686289" lon="2.0676676"><ele>536.5</ele><time>2026-04-25T10:12:10.445Z</time></trkpt><trkpt lat="41.6863547" lon="2.0676822"><ele>539.0</ele><time>2026-04-25T10:12:11.445Z</time></trkpt><trkpt lat="41.6864312" lon="2.0676766"><ele>541.5</ele><time>2026-04-25T10:12:12.445Z</time></trkpt><trkpt lat="41.6865176" lon="2.067676"><ele>544.0</ele><time>2026-04-25T10:12:13.445Z</time></trkpt><trkpt lat="41.6866104" lon="2.067695"><ele>546.5</ele><time>2026-04-25T10:12:14.445Z</time></trkpt><trkpt lat="41.6867043" lon="2.067725"><ele>549.0</ele><time>2026-04-25T10:12:15.444Z</time></trkpt><trkpt lat="41.6867918" lon="2.0677559"><ele>549.0</ele><time>2026-04-25T10:12:16.445Z</time></trkpt><trkpt lat="41.6868724" lon="2.0677884"><ele>549.0</ele><time>2026-04-25T10:12:17.445Z</time></trkpt><trkpt lat="41.686941" lon="2.0678272"><ele>549.0</ele><time>2026-04-25T10:12:18.445Z</time></trkpt><trkpt lat="41.6870077" lon="2.0678855"><ele>549.0</ele><time>2026-04-25T10:12:19.445Z</time></trkpt><trkpt lat="41.6870822" lon="2.0679619"><ele>549.0</ele><time>2026-04-25T10:12:20.445Z</time></trkpt><trkpt lat="41.6871629" lon="2.0680338"><ele>549.0</ele><time>2026-04-25T10:12:21.445Z</time></trkpt><trkpt lat="41.6872401" lon="2.0681031"><ele>549.0</ele><time>2026-04-25T10:12:22.444Z</time></trkpt><trkpt lat="41.687308" lon="2.0681713"><ele>549.0</ele><time>2026-04-25T10:12:23.445Z</time></trkpt><trkpt lat="41.687369" lon="2.0682501"><ele>549.0</ele><time>2026-04-25T10:12:24.445Z</time></trkpt><trkpt lat="41.687422" lon="2.068338"><ele>549.0</ele><time>2026-04-25T10:12:25.445Z</time></trkpt><trkpt lat="41.6874644" lon="2.0684219"><ele>549.0</ele><time>2026-04-25T10:12:26.445Z</time></trkpt><trkpt lat="41.6875021" lon="2.0684986"><ele>549.0</ele><time>2026-04-25T10:12:27.444Z</time></trkpt><trkpt lat="41.687544" lon="2.0685752"><ele>550.3333333333334</ele><time>2026-04-25T10:12:28.445Z</time></trkpt><trkpt lat="41.6875808" lon="2.0686454"><ele>551.6666666666666</ele><time>2026-04-25T10:12:29.445Z</time></trkpt><trkpt lat="41.6876675" lon="2.0687416"><ele>553.0</ele><time>2026-04-25T10:12:31.445Z</time></trkpt><trkpt lat="41.6877307" lon="2.068783"><ele>554.3333333333333</ele><time>2026-04-25T10:12:32.445Z</time></trkpt><trkpt lat="41.6877966" lon="2.0688193"><ele>555.6666666666666</ele><time>2026-04-25T10:12:33.444Z</time></trkpt><trkpt lat="41.6878564" lon="2.0688627"><ele>557.0</ele><time>2026-04-25T10:12:34.445Z</time></trkpt><trkpt lat="41.6879163" lon="2.0689114"><ele>557.2857142857143</ele><time>2026-04-25T10:12:35.445Z</time></trkpt><trkpt lat="41.6879735" lon="2.0689526"><ele>557.5714285714286</ele><time>2026-04-25T10:12:36.445Z</time></trkpt><trkpt lat="41.6880344" lon="2.0689979"><ele>557.8571428571429</ele><time>2026-04-25T10:12:37.445Z</time></trkpt><trkpt lat="41.6880928" lon="2.0690456"><ele>558.1428571428571</ele><time>2026-04-25T10:12:38.444Z</time></trkpt><trkpt lat="41.6881567" lon="2.069095"><ele>558.4285714285714</ele><time>2026-04-25T10:12:39.445Z</time></trkpt><trkpt lat="41.6882201" lon="2.0691429"><ele>558.7142857142858</ele><time>2026-04-25T10:12:40.445Z</time></trkpt><trkpt lat="41.6882826" lon="2.0691971"><ele>559.0</ele><time>2026-04-25T10:12:41.445Z</time></trkpt><trkpt lat="41.6883383" lon="2.0692532"><ele>560.3333333333334</ele><time>2026-04-25T10:12:42.445Z</time></trkpt><trkpt lat="41.688397" lon="2.0693008"><ele>561.6666666666667</ele><time>2026-04-25T10:12:43.445Z</time></trkpt><trkpt lat="41.6884662" lon="2.0693339"><ele>563.0</ele><time>2026-04-25T10:12:44.445Z</time></trkpt><trkpt lat="41.6885262" lon="2.0693649"><ele>564.3333333333334</ele><time>2026-04-25T10:12:45.445Z</time></trkpt><trkpt lat="41.6885851" lon="2.0693954"><ele>565.6666666666666</ele><time>2026-04-25T10:12:46.445Z</time></trkpt><trkpt lat="41.6887047" lon="2.0694456"><ele>567.0</ele><time>2026-04-25T10:12:48.445Z</time></trkpt><trkpt lat="41.6887781" lon="2.0694574"><ele>568.5714285714286</ele><time>2026-04-25T10:12:49.445Z</time></trkpt><trkpt lat="41.6888584" lon="2.0694755"><ele>570.1428571428571</ele><time>2026-04-25T10:12:50.445Z</time></trkpt><trkpt lat="41.6889329" lon="2.0694703"><ele>571.7142857142858</ele><time>2026-04-25T10:12:51.445Z</time></trkpt><trkpt lat="41.6889948" lon="2.0694517"><ele>573.2857142857142</ele><time>2026-04-25T10:12:52.445Z</time></trkpt><trkpt lat="41.6890605" lon="2.06944"><ele>574.8571428571429</ele><time>2026-04-25T10:12:53.445Z</time></trkpt><trkpt lat="41.6891372" lon="2.0694476"><ele>576.4285714285714</ele><time>2026-04-25T10:12:54.445Z</time></trkpt><trkpt lat="41.6892132" lon="2.0694681"><ele>578.0</ele><time>2026-04-25T10:12:55.444Z</time></trkpt><trkpt lat="41.6892873" lon="2.0694985"><ele>578.0</ele><time>2026-04-25T10:12:56.444Z</time></trkpt><trkpt lat="41.6893526" lon="2.0695243"><ele>578.0</ele><time>2026-04-25T10:12:57.445Z</time></trkpt><trkpt lat="41.6894231" lon="2.0695394"><ele>578.0</ele><time>2026-04-25T10:12:58.445Z</time></trkpt><trkpt lat="41.6894923" lon="2.0695484"><ele>578.0</ele><time>2026-04-25T10:12:59.445Z</time></trkpt><trkpt lat="41.6895581" lon="2.069557"><ele>578.0</ele><time>2026-04-25T10:13:00.445Z</time></trkpt><trkpt lat="41.689624" lon="2.0695675"><ele>578.0</ele><time>2026-04-25T10:13:01.445Z</time></trkpt><trkpt lat="41.6896898" lon="2.0695789"><ele>578.0</ele><time>2026-04-25T10:13:02.445Z</time></trkpt><trkpt lat="41.6898143" lon="2.0696222"><ele>579.5714285714286</ele><time>2026-04-25T10:13:04.444Z</time></trkpt><trkpt lat="41.6898798" lon="2.0696648"><ele>581.1428571428571</ele><time>2026-04-25T10:13:05.444Z</time></trkpt><trkpt lat="41.6899374" lon="2.0697107"><ele>582.7142857142857</ele><time>2026-04-25T10:13:06.445Z</time></trkpt><trkpt lat="41.6900032" lon="2.0697667"><ele>584.2857142857142</ele><time>2026-04-25T10:13:07.445Z</time></trkpt><trkpt lat="41.6900704" lon="2.0698146"><ele>585.8571428571428</ele><time>2026-04-25T10:13:08.444Z</time></trkpt><trkpt lat="41.6901394" lon="2.0698412"><ele>587.4285714285714</ele><time>2026-04-25T10:13:09.445Z</time></trkpt><trkpt lat="41.690212" lon="2.0698697"><ele>589.0</ele><time>2026-04-25T10:13:10.445Z</time></trkpt><trkpt lat="41.6902825" lon="2.0698891"><ele>589.0</ele><time>2026-04-25T10:13:11.445Z</time></trkpt><trkpt lat="41.6903494" lon="2.0699064"><ele>589.0</ele><time>2026-04-25T10:13:12.444Z</time></trkpt><trkpt lat="41.690415" lon="2.0699179"><ele>589.0</ele><time>2026-04-25T10:13:13.444Z</time></trkpt><trkpt lat="41.6905217" lon="2.0699696"><ele>589.0</ele><time>2026-04-25T10:13:15.445Z</time></trkpt><trkpt lat="41.6906229" lon="2.0700461"><ele>589.0</ele><time>2026-04-25T10:13:17.445Z</time></trkpt><trkpt lat="41.6907205" lon="2.0700868"><ele>591.8333333333334</ele><time>2026-04-25T10:13:19.445Z</time></trkpt><trkpt lat="41.6907843" lon="2.0701022"><ele>594.6666666666667</ele><time>2026-04-25T10:13:20.445Z</time></trkpt><trkpt lat="41.6908549" lon="2.0701148"><ele>597.5</ele><time>2026-04-25T10:13:21.445Z</time></trkpt><trkpt lat="41.6909303" lon="2.0701301"><ele>600.3333333333334</ele><time>2026-04-25T10:13:22.445Z</time></trkpt><trkpt lat="41.6910094" lon="2.0701626"><ele>603.1666666666666</ele><time>2026-04-25T10:13:23.445Z</time></trkpt><trkpt lat="41.6910861" lon="2.0701967"><ele>606.0</ele><time>2026-04-25T10:13:24.445Z</time></trkpt><trkpt lat="41.6911665" lon="2.0702325"><ele>606.0</ele><time>2026-04-25T10:13:25.445Z</time></trkpt><trkpt lat="41.691251" lon="2.070261"><ele>606.0</ele><time>2026-04-25T10:13:26.445Z</time></trkpt><trkpt lat="41.6913243" lon="2.0702806"><ele>606.0</ele><time>2026-04-25T10:13:27.445Z</time></trkpt><trkpt lat="41.6913966" lon="2.07028"><ele>606.0</ele><time>2026-04-25T10:13:28.445Z</time></trkpt><trkpt lat="41.6914684" lon="2.0702809"><ele>606.0</ele><time>2026-04-25T10:13:29.445Z</time></trkpt><trkpt lat="41.6915374" lon="2.0702708"><ele>606.0</ele><time>2026-04-25T10:13:30.445Z</time></trkpt><trkpt lat="41.6916064" lon="2.0702714"><ele>606.0</ele><time>2026-04-25T10:13:31.445Z</time></trkpt><trkpt lat="41.6916712" lon="2.0702973"><ele>606.0</ele><time>2026-04-25T10:13:32.445Z</time></trkpt><trkpt lat="41.6917328" lon="2.0703483"><ele>606.0</ele><time>2026-04-25T10:13:33.445Z</time></trkpt><trkpt lat="41.6917885" lon="2.0704732"><ele>606.0</ele><time>2026-04-25T10:13:35.445Z</time></trkpt><trkpt lat="41.6917637" lon="2.0706437"><ele>606.0</ele><time>2026-04-25T10:13:37.445Z</time></trkpt><trkpt lat="41.6917319" lon="2.0707664"><ele>606.0</ele><time>2026-04-25T10:13:38.445Z</time></trkpt><trkpt lat="41.6917042" lon="2.0708876"><ele>609.1666666666666</ele><time>2026-04-25T10:13:39.445Z</time></trkpt><trkpt lat="41.6916914" lon="2.0710073"><ele>612.3333333333334</ele><time>2026-04-25T10:13:40.445Z</time></trkpt><trkpt lat="41.6916922" lon="2.071118"><ele>615.5</ele><time>2026-04-25T10:13:41.444Z</time></trkpt><trkpt lat="41.691694" lon="2.0712129"><ele>618.6666666666667</ele><time>2026-04-25T10:13:42.444Z</time></trkpt><trkpt lat="41.691682" lon="2.0712974"><ele>621.8333333333334</ele><time>2026-04-25T10:13:43.445Z</time></trkpt><trkpt lat="41.6916168" lon="2.0714293"><ele>625.0</ele><time>2026-04-25T10:13:45.445Z</time></trkpt><trkpt lat="41.6915658" lon="2.0714799"><ele>625.0</ele><time>2026-04-25T10:13:46.445Z</time></trkpt><trkpt lat="41.6914963" lon="2.0715257"><ele>625.0</ele><time>2026-04-25T10:13:47.445Z</time></trkpt><trkpt lat="41.6914281" lon="2.0715636"><ele>625.0</ele><time>2026-04-25T10:13:48.445Z</time></trkpt><trkpt lat="41.6913625" lon="2.0715971"><ele>625.0</ele><time>2026-04-25T10:13:49.445Z</time></trkpt><trkpt lat="41.6912921" lon="2.0716084"><ele>625.0</ele><time>2026-04-25T10:13:50.444Z</time></trkpt><trkpt lat="41.6912133" lon="2.0716116"><ele>625.0</ele><time>2026-04-25T10:13:51.444Z</time></trkpt><trkpt lat="41.6911298" lon="2.071608"><ele>626.5</ele><time>2026-04-25T10:13:52.445Z</time></trkpt><trkpt lat="41.6910383" lon="2.0716178"><ele>628.0</ele><time>2026-04-25T10:13:53.445Z</time></trkpt><trkpt lat="41.6909458" lon="2.0716362"><ele>629.5</ele><time>2026-04-25T10:13:54.445Z</time></trkpt><trkpt lat="41.6908626" lon="2.0716621"><ele>631.0</ele><time>2026-04-25T10:13:55.445Z</time></trkpt><trkpt lat="41.6907764" lon="2.0716884"><ele>632.5</ele><time>2026-04-25T10:13:56.444Z</time></trkpt><trkpt lat="41.6907044" lon="2.0717113"><ele>634.0</ele><time>2026-04-25T10:13:57.445Z</time></trkpt><trkpt lat="41.6906259" lon="2.0718077"><ele>634.0</ele><time>2026-04-25T10:13:59.445Z</time></trkpt><trkpt lat="41.6905679" lon="2.0719772"><ele>634.0</ele><time>2026-04-25T10:14:01.444Z</time></trkpt><trkpt lat="41.6905523" lon="2.0720766"><ele>634.0</ele><time>2026-04-25T10:14:02.445Z</time></trkpt><trkpt lat="41.6905444" lon="2.072184"><ele>634.0</ele><time>2026-04-25T10:14:03.444Z</time></trkpt><trkpt lat="41.6905388" lon="2.0723007"><ele>634.0</ele><time>2026-04-25T10:14:04.445Z</time></trkpt><trkpt lat="41.6905274" lon="2.0724202"><ele>632.8</ele><time>2026-04-25T10:14:05.445Z</time></trkpt><trkpt lat="41.6905005" lon="2.0725496"><ele>631.5999999999999</ele><time>2026-04-25T10:14:06.445Z</time></trkpt><trkpt lat="41.6904761" lon="2.0726752"><ele>630.4</ele><time>2026-04-25T10:14:07.445Z</time></trkpt><trkpt lat="41.690454" lon="2.0728083"><ele>629.1999999999999</ele><time>2026-04-25T10:14:08.445Z</time></trkpt><trkpt lat="41.6904383" lon="2.0729467"><ele>628.0</ele><time>2026-04-25T10:14:09.445Z</time></trkpt><trkpt lat="41.6904281" lon="2.0730744"><ele>628.0</ele><time>2026-04-25T10:14:10.445Z</time></trkpt><trkpt lat="41.6904124" lon="2.0732005"><ele>628.0</ele><time>2026-04-25T10:14:11.445Z</time></trkpt><trkpt lat="41.6903975" lon="2.0733202"><ele>628.0</ele><time>2026-04-25T10:14:12.444Z</time></trkpt><trkpt lat="41.6903822" lon="2.0734442"><ele>628.0</ele><time>2026-04-25T10:14:13.444Z</time></trkpt><trkpt lat="41.6903864" lon="2.0735549"><ele>628.0</ele><time>2026-04-25T10:14:14.445Z</time></trkpt><trkpt lat="41.6904012" lon="2.0736645"><ele>628.0</ele><time>2026-04-25T10:14:15.445Z</time></trkpt><trkpt lat="41.6904384" lon="2.0737754"><ele>628.1666666666667</ele><time>2026-04-25T10:14:16.445Z</time></trkpt><trkpt lat="41.690482" lon="2.0738843"><ele>628.3333333333334</ele><time>2026-04-25T10:14:17.445Z</time></trkpt><trkpt lat="41.6905153" lon="2.0739874"><ele>628.5</ele><time>2026-04-25T10:14:18.445Z</time></trkpt><trkpt lat="41.6905263" lon="2.0740871"><ele>628.6666666666666</ele><time>2026-04-25T10:14:19.445Z</time></trkpt><trkpt lat="41.6905187" lon="2.0741948"><ele>628.8333333333333</ele><time>2026-04-25T10:14:20.444Z</time></trkpt><trkpt lat="41.690509" lon="2.0742981"><ele>629.0</ele><time>2026-04-25T10:14:21.445Z</time></trkpt><trkpt lat="41.6904999" lon="2.074411"><ele>630.6666666666666</ele><time>2026-04-25T10:14:22.444Z</time></trkpt><trkpt lat="41.690509" lon="2.0745279"><ele>632.3333333333333</ele><time>2026-04-25T10:14:23.444Z</time></trkpt><trkpt lat="41.6905327" lon="2.0746255"><ele>634.0</ele><time>2026-04-25T10:14:24.445Z</time></trkpt><trkpt lat="41.690562" lon="2.0747225"><ele>635.6666666666666</ele><time>2026-04-25T10:14:25.445Z</time></trkpt><trkpt lat="41.690597" lon="2.0748447"><ele>637.3333333333334</ele><time>2026-04-25T10:14:26.445Z</time></trkpt><trkpt lat="41.6906296" lon="2.0749716"><ele>639.0</ele><time>2026-04-25T10:14:27.445Z</time></trkpt><trkpt lat="41.6906547" lon="2.0750999"><ele>641.8</ele><time>2026-04-25T10:14:28.445Z</time></trkpt><trkpt lat="41.6906725" lon="2.0752269"><ele>644.5999999999999</ele><time>2026-04-25T10:14:29.445Z</time></trkpt><trkpt lat="41.6906874" lon="2.0753424"><ele>647.4</ele><time>2026-04-25T10:14:30.445Z</time></trkpt><trkpt lat="41.6906975" lon="2.075469"><ele>650.1999999999999</ele><time>2026-04-25T10:14:31.445Z</time></trkpt><trkpt lat="41.6907043" lon="2.0756103"><ele>653.0</ele><time>2026-04-25T10:14:32.445Z</time></trkpt><trkpt lat="41.6907118" lon="2.075753"><ele>654.8</ele><time>2026-04-25T10:14:33.445Z</time></trkpt><trkpt lat="41.6907245" lon="2.0758954"><ele>656.5999999999999</ele><time>2026-04-25T10:14:34.445Z</time></trkpt><trkpt lat="41.6907271" lon="2.0760268"><ele>658.4000000000001</ele><time>2026-04-25T10:14:35.445Z</time></trkpt><trkpt lat="41.6907238" lon="2.0761523"><ele>660.2</ele><time>2026-04-25T10:14:36.445Z</time></trkpt><trkpt lat="41.6907105" lon="2.0762721"><ele>662.0</ele><time>2026-04-25T10:14:37.445Z</time></trkpt><trkpt lat="41.6907073" lon="2.0763688"><ele>662.0</ele><time>2026-04-25T10:14:38.445Z</time></trkpt><trkpt lat="41.6907165" lon="2.0765067"><ele>662.0</ele><time>2026-04-25T10:14:40.444Z</time></trkpt><trkpt lat="41.6906918" lon="2.0766585"><ele>662.0</ele><time>2026-04-25T10:14:42.445Z</time></trkpt><trkpt lat="41.6906493" lon="2.076736"><ele>662.0</ele><time>2026-04-25T10:14:43.445Z</time></trkpt><trkpt lat="41.6905967" lon="2.0768179"><ele>662.0</ele><time>2026-04-25T10:14:44.445Z</time></trkpt><trkpt lat="41.6905485" lon="2.0769079"><ele>663.0</ele><time>2026-04-25T10:14:45.445Z</time></trkpt><trkpt lat="41.6905177" lon="2.0770152"><ele>664.0</ele><time>2026-04-25T10:14:46.445Z</time></trkpt><trkpt lat="41.6904988" lon="2.077124"><ele>665.0</ele><time>2026-04-25T10:14:47.445Z</time></trkpt><trkpt lat="41.6905021" lon="2.0772516"><ele>666.0</ele><time>2026-04-25T10:14:48.445Z</time></trkpt><trkpt lat="41.6905232" lon="2.077394"><ele>667.0</ele><time>2026-04-25T10:14:49.444Z</time></trkpt><trkpt lat="41.6905529" lon="2.0775411"><ele>668.0</ele><time>2026-04-25T10:14:50.445Z</time></trkpt><trkpt lat="41.69059" lon="2.0776834"><ele>669.0</ele><time>2026-04-25T10:14:51.445Z</time></trkpt><trkpt lat="41.6906268" lon="2.0778164"><ele>670.0</ele><time>2026-04-25T10:14:52.445Z</time></trkpt><trkpt lat="41.6906788" lon="2.0779459"><ele>671.0</ele><time>2026-04-25T10:14:53.445Z</time></trkpt><trkpt lat="41.6908154" lon="2.0781672"><ele>671.0</ele><time>2026-04-25T10:14:55.445Z</time></trkpt><trkpt lat="41.6908742" lon="2.078244"><ele>671.0</ele><time>2026-04-25T10:14:56.445Z</time></trkpt><trkpt lat="41.6909188" lon="2.0783198"><ele>671.0</ele><time>2026-04-25T10:14:57.444Z</time></trkpt><trkpt lat="41.6909515" lon="2.0784075"><ele>671.0</ele><time>2026-04-25T10:14:58.444Z</time></trkpt><trkpt lat="41.6909715" lon="2.0784925"><ele>671.0</ele><time>2026-04-25T10:14:59.445Z</time></trkpt><trkpt lat="41.6909908" lon="2.0785839"><ele>671.0</ele><time>2026-04-25T10:15:00.445Z</time></trkpt><trkpt lat="41.6909944" lon="2.0786743"><ele>671.0</ele><time>2026-04-25T10:15:01.445Z</time></trkpt><trkpt lat="41.690997" lon="2.0787643"><ele>672.5999999999999</ele><time>2026-04-25T10:15:02.445Z</time></trkpt><trkpt lat="41.6909385" lon="2.0789145"><ele>674.2</ele><time>2026-04-25T10:15:04.445Z</time></trkpt><trkpt lat="41.6908939" lon="2.0789917"><ele>675.8</ele><time>2026-04-25T10:15:05.445Z</time></trkpt><trkpt lat="41.6908551" lon="2.0790744"><ele>677.4000000000001</ele><time>2026-04-25T10:15:06.445Z</time></trkpt><trkpt lat="41.6908422" lon="2.0792291"><ele>679.0</ele><time>2026-04-25T10:15:08.445Z</time></trkpt><trkpt lat="41.6908584" lon="2.0793136"><ele>679.5</ele><time>2026-04-25T10:15:09.445Z</time></trkpt><trkpt lat="41.6908903" lon="2.0794146"><ele>680.0</ele><time>2026-04-25T10:15:10.445Z</time></trkpt><trkpt lat="41.6909242" lon="2.0795244"><ele>680.5</ele><time>2026-04-25T10:15:11.445Z</time></trkpt><trkpt lat="41.6909534" lon="2.0796375"><ele>681.0</ele><time>2026-04-25T10:15:12.445Z</time></trkpt><trkpt lat="41.6909677" lon="2.0797507"><ele>681.5</ele><time>2026-04-25T10:15:13.445Z</time></trkpt><trkpt lat="41.6909809" lon="2.0798539"><ele>682.0</ele><time>2026-04-25T10:15:14.444Z</time></trkpt><trkpt lat="41.6909999" lon="2.0799485"><ele>682.0</ele><time>2026-04-25T10:15:15.445Z</time></trkpt><trkpt lat="41.6910496" lon="2.0800512"><ele>682.0</ele><time>2026-04-25T10:15:16.445Z</time></trkpt><trkpt lat="41.6911261" lon="2.080157"><ele>682.0</ele><time>2026-04-25T10:15:17.445Z</time></trkpt><trkpt lat="41.6911964" lon="2.0802486"><ele>682.0</ele><time>2026-04-25T10:15:18.445Z</time></trkpt><trkpt lat="41.6912577" lon="2.0803526"><ele>682.0</ele><time>2026-04-25T10:15:19.445Z</time></trkpt><trkpt lat="41.6913207" lon="2.0804524"><ele>681.8</ele><time>2026-04-25T10:15:20.445Z</time></trkpt><trkpt lat="41.6913929" lon="2.0805376"><ele>681.6</ele><time>2026-04-25T10:15:21.445Z</time></trkpt><trkpt lat="41.69147" lon="2.0806238"><ele>681.4</ele><time>2026-04-25T10:15:22.444Z</time></trkpt><trkpt lat="41.6915595" lon="2.080721"><ele>681.1999999999999</ele><time>2026-04-25T10:15:23.445Z</time></trkpt><trkpt lat="41.6916536" lon="2.0808226"><ele>681.0</ele><time>2026-04-25T10:15:24.445Z</time></trkpt><trkpt lat="41.6917419" lon="2.0809314"><ele>681.25</ele><time>2026-04-25T10:15:25.445Z</time></trkpt><trkpt lat="41.6918272" lon="2.0810645"><ele>681.5</ele><time>2026-04-25T10:15:26.445Z</time></trkpt><trkpt lat="41.691903" lon="2.0812036"><ele>681.75</ele><time>2026-04-25T10:15:27.444Z</time></trkpt><trkpt lat="41.6919787" lon="2.081334"><ele>682.0</ele><time>2026-04-25T10:15:28.445Z</time></trkpt><trkpt lat="41.6920353" lon="2.0814532"><ele>682.0</ele><time>2026-04-25T10:15:29.445Z</time></trkpt><trkpt lat="41.6920633" lon="2.0815731"><ele>682.0</ele><time>2026-04-25T10:15:30.445Z</time></trkpt><trkpt lat="41.6920782" lon="2.0816995"><ele>682.0</ele><time>2026-04-25T10:15:31.445Z</time></trkpt><trkpt lat="41.6920779" lon="2.0818275"><ele>682.0</ele><time>2026-04-25T10:15:32.444Z</time></trkpt><trkpt lat="41.6920698" lon="2.0819574"><ele>682.0</ele><time>2026-04-25T10:15:33.445Z</time></trkpt><trkpt lat="41.6920732" lon="2.0820666"><ele>683.6</ele><time>2026-04-25T10:15:34.445Z</time></trkpt><trkpt lat="41.6920948" lon="2.0821792"><ele>685.2</ele><time>2026-04-25T10:15:35.444Z</time></trkpt><trkpt lat="41.6921202" lon="2.0822978"><ele>686.8</ele><time>2026-04-25T10:15:36.445Z</time></trkpt><trkpt lat="41.6921506" lon="2.0824087"><ele>688.4</ele><time>2026-04-25T10:15:37.445Z</time></trkpt><trkpt lat="41.6921731" lon="2.0824886"><ele>690.0</ele><time>2026-04-25T10:15:38.445Z</time></trkpt><trkpt lat="41.6922376" lon="2.0826304"><ele>691.8333333333334</ele><time>2026-04-25T10:15:40.445Z</time></trkpt><trkpt lat="41.6922843" lon="2.0827112"><ele>693.6666666666666</ele><time>2026-04-25T10:15:41.444Z</time></trkpt><trkpt lat="41.6923346" lon="2.0827797"><ele>695.5</ele><time>2026-04-25T10:15:42.445Z</time></trkpt><trkpt lat="41.6923804" lon="2.0828429"><ele>697.3333333333333</ele><time>2026-04-25T10:15:43.445Z</time></trkpt><trkpt lat="41.6924335" lon="2.0829053"><ele>699.1666666666666</ele><time>2026-04-25T10:15:44.445Z</time></trkpt><trkpt lat="41.6924933" lon="2.0829687"><ele>701.0</ele><time>2026-04-25T10:15:45.445Z</time></trkpt><trkpt lat="41.6925548" lon="2.0830592"><ele>701.0</ele><time>2026-04-25T10:15:46.445Z</time></trkpt><trkpt lat="41.6926002" lon="2.0831525"><ele>701.0</ele><time>2026-04-25T10:15:47.445Z</time></trkpt><trkpt lat="41.6926328" lon="2.0832534"><ele>701.0</ele><time>2026-04-25T10:15:48.445Z</time></trkpt><trkpt lat="41.6926582" lon="2.0833613"><ele>701.0</ele><time>2026-04-25T10:15:49.445Z</time></trkpt><trkpt lat="41.6926822" lon="2.0834689"><ele>701.0</ele><time>2026-04-25T10:15:50.445Z</time></trkpt><trkpt lat="41.6927031" lon="2.0835635"><ele>701.0</ele><time>2026-04-25T10:15:51.445Z</time></trkpt><trkpt lat="41.6927453" lon="2.0836561"><ele>702.0</ele><time>2026-04-25T10:15:52.445Z</time></trkpt><trkpt lat="41.6927952" lon="2.0837378"><ele>703.0</ele><time>2026-04-25T10:15:53.445Z</time></trkpt><trkpt lat="41.692853" lon="2.0838136"><ele>704.0</ele><time>2026-04-25T10:15:54.445Z</time></trkpt><trkpt lat="41.6929306" lon="2.0838778"><ele>705.0</ele><time>2026-04-25T10:15:55.445Z</time></trkpt><trkpt lat="41.6930186" lon="2.0839378"><ele>706.0</ele><time>2026-04-25T10:15:56.444Z</time></trkpt><trkpt lat="41.6931001" lon="2.0839929"><ele>707.0</ele><time>2026-04-25T10:15:57.445Z</time></trkpt><trkpt lat="41.6931766" lon="2.0840373"><ele>707.0</ele><time>2026-04-25T10:15:58.445Z</time></trkpt><trkpt lat="41.693239" lon="2.0840793"><ele>707.0</ele><time>2026-04-25T10:15:59.444Z</time></trkpt><trkpt lat="41.6932946" lon="2.0841189"><ele>707.0</ele><time>2026-04-25T10:16:00.445Z</time></trkpt><trkpt lat="41.6933513" lon="2.0841613"><ele>707.0</ele><time>2026-04-25T10:16:01.445Z</time></trkpt><trkpt lat="41.6934103" lon="2.0842149"><ele>707.0</ele><time>2026-04-25T10:16:02.445Z</time></trkpt><trkpt lat="41.6934717" lon="2.0842815"><ele>707.0</ele><time>2026-04-25T10:16:03.445Z</time></trkpt><trkpt lat="41.6935497" lon="2.0843597"><ele>707.0</ele><time>2026-04-25T10:16:04.445Z</time></trkpt><trkpt lat="41.693633" lon="2.084423"><ele>706.8333333333333</ele><time>2026-04-25T10:16:05.445Z</time></trkpt><trkpt lat="41.693703" lon="2.0844786"><ele>706.6666666666666</ele><time>2026-04-25T10:16:06.444Z</time></trkpt><trkpt lat="41.6937593" lon="2.0845299"><ele>706.5</ele><time>2026-04-25T10:16:07.445Z</time></trkpt><trkpt lat="41.6938493" lon="2.0846398"><ele>706.3333333333334</ele><time>2026-04-25T10:16:09.445Z</time></trkpt><trkpt lat="41.6938978" lon="2.084705"><ele>706.1666666666667</ele><time>2026-04-25T10:16:10.444Z</time></trkpt><trkpt lat="41.6939358" lon="2.0847794"><ele>706.0</ele><time>2026-04-25T10:16:11.445Z</time></trkpt><trkpt lat="41.6939758" lon="2.0848697"><ele>709.1666666666667</ele><time>2026-04-25T10:16:12.445Z</time></trkpt><trkpt lat="41.6940215" lon="2.0849483"><ele>712.3333333333334</ele><time>2026-04-25T10:16:13.445Z</time></trkpt><trkpt lat="41.6941105" lon="2.0850514"><ele>715.5</ele><time>2026-04-25T10:16:15.445Z</time></trkpt><trkpt lat="41.6941764" lon="2.0850774"><ele>718.6666666666666</ele><time>2026-04-25T10:16:16.445Z</time></trkpt><trkpt lat="41.6942479" lon="2.0851153"><ele>721.8333333333333</ele><time>2026-04-25T10:16:17.444Z</time></trkpt><trkpt lat="41.6943094" lon="2.0851707"><ele>725.0</ele><time>2026-04-25T10:16:18.445Z</time></trkpt><trkpt lat="41.6943653" lon="2.0852264"><ele>724.6</ele><time>2026-04-25T10:16:19.445Z</time></trkpt><trkpt lat="41.6944216" lon="2.0853054"><ele>724.2</ele><time>2026-04-25T10:16:20.445Z</time></trkpt><trkpt lat="41.6944783" lon="2.0853989"><ele>723.8</ele><time>2026-04-25T10:16:21.445Z</time></trkpt><trkpt lat="41.6945324" lon="2.0855024"><ele>723.4</ele><time>2026-04-25T10:16:22.444Z</time></trkpt><trkpt lat="41.6945833" lon="2.0856059"><ele>723.0</ele><time>2026-04-25T10:16:23.445Z</time></trkpt><trkpt lat="41.6946291" lon="2.0857183"><ele>727.5999999999999</ele><time>2026-04-25T10:16:24.445Z</time></trkpt><trkpt lat="41.6946686" lon="2.0858339"><ele>732.1999999999999</ele><time>2026-04-25T10:16:25.445Z</time></trkpt><trkpt lat="41.6947061" lon="2.085963"><ele>736.8</ele><time>2026-04-25T10:16:26.445Z</time></trkpt><trkpt lat="41.6947317" lon="2.0860925"><ele>741.4</ele><time>2026-04-25T10:16:27.445Z</time></trkpt><trkpt lat="41.6947483" lon="2.0862184"><ele>746.0</ele><time>2026-04-25T10:16:28.445Z</time></trkpt><trkpt lat="41.6947729" lon="2.0863387"><ele>746.0</ele><time>2026-04-25T10:16:29.444Z</time></trkpt><trkpt lat="41.694787" lon="2.0864519"><ele>746.0</ele><time>2026-04-25T10:16:30.445Z</time></trkpt><trkpt lat="41.6947934" lon="2.0865508"><ele>746.0</ele><time>2026-04-25T10:16:31.445Z</time></trkpt><trkpt lat="41.6947967" lon="2.0866477"><ele>746.0</ele><time>2026-04-25T10:16:32.445Z</time></trkpt><trkpt lat="41.6948104" lon="2.086799"><ele>746.0</ele><time>2026-04-25T10:16:34.445Z</time></trkpt><trkpt lat="41.6948316" lon="2.0868982"><ele>746.0</ele><time>2026-04-25T10:16:36.445Z</time></trkpt><trkpt lat="41.6948861" lon="2.0869445"><ele>746.0</ele><time>2026-04-25T10:16:38.445Z</time></trkpt><trkpt lat="41.6949721" lon="2.0869159"><ele>746.0</ele><time>2026-04-25T10:16:41.445Z</time></trkpt><trkpt lat="41.6950274" lon="2.0867843"><ele>746.0</ele><time>2026-04-25T10:16:43.444Z</time></trkpt><trkpt lat="41.6950888" lon="2.0866926"><ele>746.0</ele><time>2026-04-25T10:16:44.445Z</time></trkpt><trkpt lat="41.6951652" lon="2.0865905"><ele>746.0</ele><time>2026-04-25T10:16:45.444Z</time></trkpt><trkpt lat="41.6952431" lon="2.086501"><ele>748.0</ele><time>2026-04-25T10:16:46.445Z</time></trkpt><trkpt lat="41.6953306" lon="2.0864133"><ele>750.0</ele><time>2026-04-25T10:16:47.445Z</time></trkpt><trkpt lat="41.6954185" lon="2.0863372"><ele>752.0</ele><time>2026-04-25T10:16:48.445Z</time></trkpt><trkpt lat="41.6955056" lon="2.086287"><ele>754.0</ele><time>2026-04-25T10:16:49.445Z</time></trkpt><trkpt lat="41.6956016" lon="2.0862513"><ele>756.0</ele><time>2026-04-25T10:16:50.445Z</time></trkpt><trkpt lat="41.6957192" lon="2.086219"><ele>756.0</ele><time>2026-04-25T10:16:51.445Z</time></trkpt><trkpt lat="41.6958334" lon="2.0861901"><ele>756.0</ele><time>2026-04-25T10:16:52.445Z</time></trkpt><trkpt lat="41.6959486" lon="2.0861665"><ele>756.0</ele><time>2026-04-25T10:16:53.445Z</time></trkpt><trkpt lat="41.6960662" lon="2.086173"><ele>756.0</ele><time>2026-04-25T10:16:54.445Z</time></trkpt><trkpt lat="41.696179" lon="2.0862022"><ele>759.1666666666666</ele><time>2026-04-25T10:16:55.445Z</time></trkpt><trkpt lat="41.6962808" lon="2.0862461"><ele>762.3333333333333</ele><time>2026-04-25T10:16:56.445Z</time></trkpt><trkpt lat="41.6963621" lon="2.0863036"><ele>765.5</ele><time>2026-04-25T10:16:57.445Z</time></trkpt><trkpt lat="41.6964229" lon="2.0863751"><ele>768.6666666666666</ele><time>2026-04-25T10:16:58.445Z</time></trkpt><trkpt lat="41.6964717" lon="2.0864641"><ele>771.8333333333333</ele><time>2026-04-25T10:16:59.445Z</time></trkpt><trkpt lat="41.6965279" lon="2.0865225"><ele>775.0</ele><time>2026-04-25T10:17:00.445Z</time></trkpt><trkpt lat="41.6965972" lon="2.0865386"><ele>775.0</ele><time>2026-04-25T10:17:01.445Z</time></trkpt><trkpt lat="41.6966684" lon="2.0865133"><ele>775.0</ele><time>2026-04-25T10:17:02.445Z</time></trkpt><trkpt lat="41.6967377" lon="2.0864526"><ele>775.0</ele><time>2026-04-25T10:17:03.445Z</time></trkpt><trkpt lat="41.6968058" lon="2.0863652"><ele>775.0</ele><time>2026-04-25T10:17:04.445Z</time></trkpt><trkpt lat="41.6968712" lon="2.0862497"><ele>775.0</ele><time>2026-04-25T10:17:05.445Z</time></trkpt><trkpt lat="41.6969393" lon="2.0861183"><ele>773.0</ele><time>2026-04-25T10:17:06.445Z</time></trkpt><trkpt lat="41.6970155" lon="2.0859958"><ele>771.0</ele><time>2026-04-25T10:17:07.444Z</time></trkpt><trkpt lat="41.6971017" lon="2.085888"><ele>769.0</ele><time>2026-04-25T10:17:08.445Z</time></trkpt><trkpt lat="41.6971911" lon="2.085813"><ele>767.0</ele><time>2026-04-25T10:17:09.445Z</time></trkpt><trkpt lat="41.6972917" lon="2.0857462"><ele>767.0</ele><time>2026-04-25T10:17:10.444Z</time></trkpt><trkpt lat="41.6973841" lon="2.0856672"><ele>767.0</ele><time>2026-04-25T10:17:11.444Z</time></trkpt><trkpt lat="41.6974683" lon="2.0855447"><ele>767.0</ele><time>2026-04-25T10:17:12.445Z</time></trkpt><trkpt lat="41.6975347" lon="2.0854162"><ele>767.0</ele><time>2026-04-25T10:17:13.445Z</time></trkpt><trkpt lat="41.6976011" lon="2.0852844"><ele>767.0</ele><time>2026-04-25T10:17:14.445Z</time></trkpt><trkpt lat="41.697667" lon="2.0851775"><ele>767.0</ele><time>2026-04-25T10:17:15.445Z</time></trkpt><trkpt lat="41.697756" lon="2.0850918"><ele>767.0</ele><time>2026-04-25T10:17:16.445Z</time></trkpt><trkpt lat="41.6978672" lon="2.0850013"><ele>767.0</ele><time>2026-04-25T10:17:17.445Z</time></trkpt><trkpt lat="41.6979887" lon="2.0849062"><ele>763.75</ele><time>2026-04-25T10:17:18.445Z</time></trkpt><trkpt lat="41.6981142" lon="2.0848201"><ele>760.5</ele><time>2026-04-25T10:17:19.445Z</time></trkpt><trkpt lat="41.6982426" lon="2.0847501"><ele>757.25</ele><time>2026-04-25T10:17:20.444Z</time></trkpt><trkpt lat="41.698382" lon="2.0847006"><ele>754.0</ele><time>2026-04-25T10:17:21.444Z</time></trkpt><trkpt lat="41.6985217" lon="2.0846586"><ele>754.0</ele><time>2026-04-25T10:17:22.445Z</time></trkpt><trkpt lat="41.6986594" lon="2.0846144"><ele>754.0</ele><time>2026-04-25T10:17:23.445Z</time></trkpt><trkpt lat="41.6987866" lon="2.0845673"><ele>754.0</ele><time>2026-04-25T10:17:24.445Z</time></trkpt><trkpt lat="41.6989019" lon="2.084524"><ele>754.0</ele><time>2026-04-25T10:17:25.445Z</time></trkpt><trkpt lat="41.6990122" lon="2.0844776"><ele>754.0</ele><time>2026-04-25T10:17:26.445Z</time></trkpt><trkpt lat="41.6991324" lon="2.0844419"><ele>754.0</ele><time>2026-04-25T10:17:27.445Z</time></trkpt><trkpt lat="41.6992601" lon="2.0844194"><ele>754.0</ele><time>2026-04-25T10:17:28.445Z</time></trkpt><trkpt lat="41.6993924" lon="2.0844126"><ele>754.0</ele><time>2026-04-25T10:17:29.445Z</time></trkpt><trkpt lat="41.6995215" lon="2.0844096"><ele>753.25</ele><time>2026-04-25T10:17:30.445Z</time></trkpt><trkpt lat="41.6996533" lon="2.0844147"><ele>752.5</ele><time>2026-04-25T10:17:31.445Z</time></trkpt><trkpt lat="41.6997877" lon="2.0844243"><ele>751.75</ele><time>2026-04-25T10:17:32.445Z</time></trkpt><trkpt lat="41.6999226" lon="2.0844363"><ele>751.0</ele><time>2026-04-25T10:17:33.445Z</time></trkpt><trkpt lat="41.700056" lon="2.0844444"><ele>751.0</ele><time>2026-04-25T10:17:34.445Z</time></trkpt><trkpt lat="41.7001817" lon="2.0844602"><ele>751.0</ele><time>2026-04-25T10:17:35.445Z</time></trkpt><trkpt lat="41.7003027" lon="2.0844678"><ele>751.0</ele><time>2026-04-25T10:17:36.445Z</time></trkpt><trkpt lat="41.7004235" lon="2.084473"><ele>751.0</ele><time>2026-04-25T10:17:37.445Z</time></trkpt><trkpt lat="41.7005485" lon="2.0844857"><ele>752.0</ele><time>2026-04-25T10:17:38.444Z</time></trkpt><trkpt lat="41.7006747" lon="2.0844968"><ele>753.0</ele><time>2026-04-25T10:17:39.445Z</time></trkpt><trkpt lat="41.7008051" lon="2.0845072"><ele>754.0</ele><time>2026-04-25T10:17:40.444Z</time></trkpt><trkpt lat="41.7009313" lon="2.0845175"><ele>755.0</ele><time>2026-04-25T10:17:41.445Z</time></trkpt><trkpt lat="41.7010463" lon="2.0845293"><ele>758.0</ele><time>2026-04-25T10:17:42.445Z</time></trkpt><trkpt lat="41.7011255" lon="2.0845336"><ele>761.0</ele><time>2026-04-25T10:17:43.445Z</time></trkpt><trkpt lat="41.7012078" lon="2.0845122"><ele>764.0</ele><time>2026-04-25T10:17:45.445Z</time></trkpt><trkpt lat="41.7012689" lon="2.0844479"><ele>767.0</ele><time>2026-04-25T10:17:47.445Z</time></trkpt><trkpt lat="41.7013408" lon="2.0843657"><ele>770.0</ele><time>2026-04-25T10:17:49.445Z</time></trkpt><trkpt lat="41.7014219" lon="2.0842467"><ele>770.0</ele><time>2026-04-25T10:17:51.445Z</time></trkpt><trkpt lat="41.7014869" lon="2.0841316"><ele>770.0</ele><time>2026-04-25T10:17:53.445Z</time></trkpt><trkpt lat="41.7015455" lon="2.0839905"><ele>770.0</ele><time>2026-04-25T10:17:55.445Z</time></trkpt><trkpt lat="41.7015655" lon="2.0839033"><ele>770.0</ele><time>2026-04-25T10:17:56.445Z</time></trkpt><trkpt lat="41.7016037" lon="2.0837526"><ele>770.0</ele><time>2026-04-25T10:17:58.445Z</time></trkpt><trkpt lat="41.7016389" lon="2.0836117"><ele>766.8333333333334</ele><time>2026-04-25T10:18:00.445Z</time></trkpt><trkpt lat="41.701663" lon="2.0834924"><ele>763.6666666666667</ele><time>2026-04-25T10:18:02.444Z</time></trkpt><trkpt lat="41.7017018" lon="2.0833908"><ele>760.5</ele><time>2026-04-25T10:18:04.445Z</time></trkpt><trkpt lat="41.7017649" lon="2.0833017"><ele>757.3333333333334</ele><time>2026-04-25T10:18:06.445Z</time></trkpt><trkpt lat="41.7018548" lon="2.083222"><ele>754.1666666666667</ele><time>2026-04-25T10:18:08.445Z</time></trkpt><trkpt lat="41.701914" lon="2.0831932"><ele>751.0</ele><time>2026-04-25T10:18:09.445Z</time></trkpt><trkpt lat="41.7019991" lon="2.0831656"><ele>749.3333333333334</ele><time>2026-04-25T10:18:10.445Z</time></trkpt><trkpt lat="41.7020819" lon="2.0831448"><ele>747.6666666666667</ele><time>2026-04-25T10:18:11.444Z</time></trkpt><trkpt lat="41.702163" lon="2.0831418"><ele>746.0</ele><time>2026-04-25T10:18:12.444Z</time></trkpt><trkpt lat="41.7022451" lon="2.0831412"><ele>744.3333333333334</ele><time>2026-04-25T10:18:13.444Z</time></trkpt><trkpt lat="41.7023218" lon="2.0831435"><ele>742.6666666666666</ele><time>2026-04-25T10:18:14.445Z</time></trkpt><trkpt lat="41.7023965" lon="2.0831505"><ele>741.0</ele><time>2026-04-25T10:18:15.444Z</time></trkpt><trkpt lat="41.7024787" lon="2.0831595"><ele>741.0</ele><time>2026-04-25T10:18:16.445Z</time></trkpt><trkpt lat="41.7025583" lon="2.0831614"><ele>741.0</ele><time>2026-04-25T10:18:17.445Z</time></trkpt><trkpt lat="41.702648" lon="2.0831875"><ele>741.0</ele><time>2026-04-25T10:18:19.445Z</time></trkpt><trkpt lat="41.7027095" lon="2.0832332"><ele>741.0</ele><time>2026-04-25T10:18:20.445Z</time></trkpt><trkpt lat="41.7027726" lon="2.0833025"><ele>741.0</ele><time>2026-04-25T10:18:21.444Z</time></trkpt><trkpt lat="41.7028373" lon="2.083367"><ele>741.0</ele><time>2026-04-25T10:18:22.445Z</time></trkpt><trkpt lat="41.7029656" lon="2.0834182"><ele>742.1666666666666</ele><time>2026-04-25T10:18:24.445Z</time></trkpt><trkpt lat="41.7030542" lon="2.0834261"><ele>743.3333333333334</ele><time>2026-04-25T10:18:25.448Z</time></trkpt><trkpt lat="41.7031331" lon="2.0834229"><ele>744.5</ele><time>2026-04-25T10:18:26.448Z</time></trkpt><trkpt lat="41.703259" lon="2.0834354"><ele>745.6666666666667</ele><time>2026-04-25T10:18:28.448Z</time></trkpt><trkpt lat="41.7033288" lon="2.0834573"><ele>746.8333333333334</ele><time>2026-04-25T10:18:29.447Z</time></trkpt><trkpt lat="41.7033968" lon="2.0834706"><ele>748.0</ele><time>2026-04-25T10:18:30.448Z</time></trkpt><trkpt lat="41.7034691" lon="2.083484"><ele>748.0</ele><time>2026-04-25T10:18:31.448Z</time></trkpt><trkpt lat="41.7035413" lon="2.083504"><ele>748.0</ele><time>2026-04-25T10:18:32.448Z</time></trkpt><trkpt lat="41.7036119" lon="2.083511"><ele>748.0</ele><time>2026-04-25T10:18:33.448Z</time></trkpt><trkpt lat="41.7036788" lon="2.0835214"><ele>748.0</ele><time>2026-04-25T10:18:34.447Z</time></trkpt><trkpt lat="41.7037445" lon="2.083534"><ele>748.0</ele><time>2026-04-25T10:18:35.448Z</time></trkpt><trkpt lat="41.7038213" lon="2.0835546"><ele>748.0</ele><time>2026-04-25T10:18:36.448Z</time></trkpt><trkpt lat="41.7038941" lon="2.0835868"><ele>748.0</ele><time>2026-04-25T10:18:37.448Z</time></trkpt><trkpt lat="41.7039693" lon="2.0836207"><ele>749.0</ele><time>2026-04-25T10:18:38.448Z</time></trkpt><trkpt lat="41.7040369" lon="2.0836617"><ele>750.0</ele><time>2026-04-25T10:18:39.448Z</time></trkpt><trkpt lat="41.7041304" lon="2.0837835"><ele>751.0</ele><time>2026-04-25T10:18:41.448Z</time></trkpt><trkpt lat="41.7041732" lon="2.0838773"><ele>752.0</ele><time>2026-04-25T10:18:42.448Z</time></trkpt><trkpt lat="41.7042062" lon="2.0839726"><ele>753.0</ele><time>2026-04-25T10:18:43.448Z</time></trkpt><trkpt lat="41.7042323" lon="2.0840598"><ele>754.0</ele><time>2026-04-25T10:18:44.448Z</time></trkpt><trkpt lat="41.7042564" lon="2.0841506"><ele>753.9999999999999</ele><time>2026-04-25T10:18:45.448Z</time></trkpt><trkpt lat="41.7042787" lon="2.0842406"><ele>754.0</ele><time>2026-04-25T10:18:46.448Z</time></trkpt><trkpt lat="41.7043085" lon="2.0843273"><ele>754.0</ele><time>2026-04-25T10:18:47.448Z</time></trkpt><trkpt lat="41.7043502" lon="2.0843993"><ele>754.0</ele><time>2026-04-25T10:18:48.448Z</time></trkpt><trkpt lat="41.7044099" lon="2.0844538"><ele>754.0</ele><time>2026-04-25T10:18:49.448Z</time></trkpt><trkpt lat="41.7044755" lon="2.0844858"><ele>753.9999999999999</ele><time>2026-04-25T10:18:50.448Z</time></trkpt><trkpt lat="41.7045425" lon="2.084492"><ele>754.0</ele><time>2026-04-25T10:18:51.448Z</time></trkpt><trkpt lat="41.7046262" lon="2.0844662"><ele>751.8333333333334</ele><time>2026-04-25T10:18:52.448Z</time></trkpt><trkpt lat="41.7047083" lon="2.0844541"><ele>749.6666666666667</ele><time>2026-04-25T10:18:53.447Z</time></trkpt><trkpt lat="41.7047781" lon="2.0844638"><ele>747.5</ele><time>2026-04-25T10:18:54.448Z</time></trkpt><trkpt lat="41.7048501" lon="2.0844885"><ele>745.3333333333334</ele><time>2026-04-25T10:18:55.447Z</time></trkpt><trkpt lat="41.704932" lon="2.08454"><ele>743.1666666666666</ele><time>2026-04-25T10:18:56.448Z</time></trkpt><trkpt lat="41.7050296" lon="2.0846203"><ele>741.0</ele><time>2026-04-25T10:18:57.448Z</time></trkpt><trkpt lat="41.7051275" lon="2.0846937"><ele>741.0</ele><time>2026-04-25T10:18:58.448Z</time></trkpt><trkpt lat="41.7052164" lon="2.0847462"><ele>741.0</ele><time>2026-04-25T10:18:59.448Z</time></trkpt><trkpt lat="41.7052952" lon="2.0847884"><ele>741.0</ele><time>2026-04-25T10:19:00.447Z</time></trkpt><trkpt lat="41.7053693" lon="2.0848159"><ele>741.0</ele><time>2026-04-25T10:19:01.447Z</time></trkpt><trkpt lat="41.705435" lon="2.0848463"><ele>741.0</ele><time>2026-04-25T10:19:02.448Z</time></trkpt><trkpt lat="41.7055059" lon="2.0848817"><ele>741.0</ele><time>2026-04-25T10:19:03.448Z</time></trkpt><trkpt lat="41.7055783" lon="2.0849236"><ele>740.4285714285714</ele><time>2026-04-25T10:19:04.448Z</time></trkpt><trkpt lat="41.7056591" lon="2.0849665"><ele>739.8571428571429</ele><time>2026-04-25T10:19:05.448Z</time></trkpt><trkpt lat="41.7057283" lon="2.0850039"><ele>739.2857142857143</ele><time>2026-04-25T10:19:06.448Z</time></trkpt><trkpt lat="41.7057948" lon="2.0850236"><ele>738.7142857142858</ele><time>2026-04-25T10:19:07.448Z</time></trkpt><trkpt lat="41.7058596" lon="2.0850262"><ele>738.1428571428571</ele><time>2026-04-25T10:19:08.448Z</time></trkpt><trkpt lat="41.7059228" lon="2.0849915"><ele>737.5714285714287</ele><time>2026-04-25T10:19:09.447Z</time></trkpt><trkpt lat="41.7059777" lon="2.0849368"><ele>737.0</ele><time>2026-04-25T10:19:10.448Z</time></trkpt><trkpt lat="41.7060175" lon="2.0848678"><ele>737.0</ele><time>2026-04-25T10:19:11.448Z</time></trkpt><trkpt lat="41.7060423" lon="2.0847804"><ele>737.0</ele><time>2026-04-25T10:19:12.448Z</time></trkpt><trkpt lat="41.7060667" lon="2.0846879"><ele>737.0</ele><time>2026-04-25T10:19:13.448Z</time></trkpt><trkpt lat="41.706076" lon="2.084596"><ele>737.0</ele><time>2026-04-25T10:19:14.448Z</time></trkpt><trkpt lat="41.7060667" lon="2.0844975"><ele>737.0</ele><time>2026-04-25T10:19:15.448Z</time></trkpt><trkpt lat="41.7060457" lon="2.0843852"><ele>737.0</ele><time>2026-04-25T10:19:16.448Z</time></trkpt><trkpt lat="41.7060304" lon="2.0842796"><ele>737.0000000000001</ele><time>2026-04-25T10:19:17.448Z</time></trkpt><trkpt lat="41.7060286" lon="2.0841847"><ele>737.0</ele><time>2026-04-25T10:19:18.448Z</time></trkpt><trkpt lat="41.7060354" lon="2.0841005"><ele>737.0</ele><time>2026-04-25T10:19:19.448Z</time></trkpt><trkpt lat="41.7060573" lon="2.0840122"><ele>737.0</ele><time>2026-04-25T10:19:20.448Z</time></trkpt><trkpt lat="41.7060983" lon="2.083928"><ele>737.0</ele><time>2026-04-25T10:19:21.447Z</time></trkpt><trkpt lat="41.7061519" lon="2.0838631"><ele>737.0000000000001</ele><time>2026-04-25T10:19:22.448Z</time></trkpt><trkpt lat="41.706213" lon="2.0838013"><ele>737.0</ele><time>2026-04-25T10:19:23.447Z</time></trkpt><trkpt lat="41.7062978" lon="2.0837526"><ele>737.2</ele><time>2026-04-25T10:19:24.447Z</time></trkpt><trkpt lat="41.7063905" lon="2.0837233"><ele>737.4000000000001</ele><time>2026-04-25T10:19:25.447Z</time></trkpt><trkpt lat="41.706467" lon="2.0836848"><ele>737.5999999999999</ele><time>2026-04-25T10:19:26.447Z</time></trkpt><trkpt lat="41.7065218" lon="2.0836328"><ele>737.8</ele><time>2026-04-25T10:19:27.447Z</time></trkpt><trkpt lat="41.7065956" lon="2.0835115"><ele>738.0</ele><time>2026-04-25T10:19:29.447Z</time></trkpt><trkpt lat="41.7066127" lon="2.0833654"><ele>738.0</ele><time>2026-04-25T10:19:31.447Z</time></trkpt><trkpt lat="41.7066033" lon="2.083281"><ele>738.0</ele><time>2026-04-25T10:19:32.446Z</time></trkpt><trkpt lat="41.706571" lon="2.0831957"><ele>738.0</ele><time>2026-04-25T10:19:33.447Z</time></trkpt><trkpt lat="41.7065204" lon="2.0831124"><ele>738.0</ele><time>2026-04-25T10:19:34.447Z</time></trkpt><trkpt lat="41.7064743" lon="2.0830303"><ele>738.0</ele><time>2026-04-25T10:19:35.447Z</time></trkpt><trkpt lat="41.7064241" lon="2.0829521"><ele>738.0</ele><time>2026-04-25T10:19:36.447Z</time></trkpt><trkpt lat="41.7063775" lon="2.0828829"><ele>738.0</ele><time>2026-04-25T10:19:37.447Z</time></trkpt><trkpt lat="41.7063374" lon="2.0828156"><ele>735.6666666666666</ele><time>2026-04-25T10:19:38.446Z</time></trkpt><trkpt lat="41.7062902" lon="2.0826885"><ele>733.3333333333334</ele><time>2026-04-25T10:19:40.446Z</time></trkpt><trkpt lat="41.7063091" lon="2.0825572"><ele>731.0</ele><time>2026-04-25T10:19:42.447Z</time></trkpt><trkpt lat="41.7063424" lon="2.0824747"><ele>728.6666666666667</ele><time>2026-04-25T10:19:43.447Z</time></trkpt><trkpt lat="41.706376" lon="2.0823929"><ele>726.3333333333334</ele><time>2026-04-25T10:19:44.447Z</time></trkpt><trkpt lat="41.7064159" lon="2.0823197"><ele>724.0</ele><time>2026-04-25T10:19:45.447Z</time></trkpt><trkpt lat="41.706508" lon="2.0822239"><ele>722.2</ele><time>2026-04-25T10:19:47.446Z</time></trkpt><trkpt lat="41.7066026" lon="2.0822025"><ele>720.4000000000001</ele><time>2026-04-25T10:19:49.447Z</time></trkpt><trkpt lat="41.7067102" lon="2.082231"><ele>718.6</ele><time>2026-04-25T10:19:51.447Z</time></trkpt><trkpt lat="41.7067963" lon="2.0822719"><ele>716.8</ele><time>2026-04-25T10:19:53.447Z</time></trkpt><trkpt lat="41.7068897" lon="2.0823517"><ele>715.0</ele><time>2026-04-25T10:19:55.447Z</time></trkpt><trkpt lat="41.7069955" lon="2.082432"><ele>715.0</ele><time>2026-04-25T10:19:57.447Z</time></trkpt><trkpt lat="41.7070623" lon="2.0824699"><ele>715.0</ele><time>2026-04-25T10:19:58.447Z</time></trkpt><trkpt lat="41.7071287" lon="2.0824976"><ele>715.0</ele><time>2026-04-25T10:19:59.447Z</time></trkpt><trkpt lat="41.7072426" lon="2.0825394"><ele>715.0</ele><time>2026-04-25T10:20:01.447Z</time></trkpt><trkpt lat="41.7073392" lon="2.082584"><ele>715.0</ele><time>2026-04-25T10:20:03.447Z</time></trkpt><trkpt lat="41.7074353" lon="2.0826382"><ele>715.0</ele><time>2026-04-25T10:20:05.447Z</time></trkpt><trkpt lat="41.7075378" lon="2.0826266"><ele>715.0</ele><time>2026-04-25T10:20:07.446Z</time></trkpt><trkpt lat="41.7076584" lon="2.0825475"><ele>715.0</ele><time>2026-04-25T10:20:09.447Z</time></trkpt><trkpt lat="41.7077207" lon="2.0825228"><ele>715.0</ele><time>2026-04-25T10:20:10.446Z</time></trkpt><trkpt lat="41.7078233" lon="2.0825118"><ele>715.0</ele><time>2026-04-25T10:20:12.447Z</time></trkpt><trkpt lat="41.7079535" lon="2.0825455"><ele>715.8333333333334</ele><time>2026-04-25T10:20:14.447Z</time></trkpt><trkpt lat="41.708023" lon="2.0825778"><ele>716.6666666666667</ele><time>2026-04-25T10:20:15.447Z</time></trkpt><trkpt lat="41.7080904" lon="2.0826091"><ele>717.5</ele><time>2026-04-25T10:20:16.446Z</time></trkpt><trkpt lat="41.7081571" lon="2.0826206"><ele>718.3333333333334</ele><time>2026-04-25T10:20:17.447Z</time></trkpt><trkpt lat="41.7082669" lon="2.0826186"><ele>719.1666666666666</ele><time>2026-04-25T10:20:19.447Z</time></trkpt><trkpt lat="41.708346" lon="2.0825676"><ele>720.0</ele><time>2026-04-25T10:20:21.447Z</time></trkpt><trkpt lat="41.7083567" lon="2.082448"><ele>721.0</ele><time>2026-04-25T10:20:23.447Z</time></trkpt><trkpt lat="41.7083185" lon="2.0823694"><ele>722.0</ele><time>2026-04-25T10:20:24.446Z</time></trkpt><trkpt lat="41.7082596" lon="2.0822858"><ele>723.0</ele><time>2026-04-25T10:20:25.447Z</time></trkpt><trkpt lat="41.7081924" lon="2.0821656"><ele>724.0</ele><time>2026-04-25T10:20:26.447Z</time></trkpt><trkpt lat="41.7081406" lon="2.0820526"><ele>725.0</ele><time>2026-04-25T10:20:27.447Z</time></trkpt><trkpt lat="41.708098" lon="2.0819544"><ele>725.0</ele><time>2026-04-25T10:20:28.447Z</time></trkpt><trkpt lat="41.7080645" lon="2.0818599"><ele>725.0</ele><time>2026-04-25T10:20:29.447Z</time></trkpt><trkpt lat="41.7080314" lon="2.0817758"><ele>725.0</ele><time>2026-04-25T10:20:30.446Z</time></trkpt><trkpt lat="41.7079995" lon="2.0816789"><ele>725.0</ele><time>2026-04-25T10:20:31.447Z</time></trkpt><trkpt lat="41.7079712" lon="2.0815654"><ele>725.0</ele><time>2026-04-25T10:20:32.447Z</time></trkpt><trkpt lat="41.7079421" lon="2.0814653"><ele>725.0</ele><time>2026-04-25T10:20:33.447Z</time></trkpt><trkpt lat="41.7079066" lon="2.0813885"><ele>727.1666666666666</ele><time>2026-04-25T10:20:34.447Z</time></trkpt><trkpt lat="41.7078479" lon="2.0813333"><ele>729.3333333333333</ele><time>2026-04-25T10:20:35.447Z</time></trkpt><trkpt lat="41.7077611" lon="2.0812821"><ele>731.5</ele><time>2026-04-25T10:20:36.447Z</time></trkpt><trkpt lat="41.7076731" lon="2.0812362"><ele>733.6666666666666</ele><time>2026-04-25T10:20:37.447Z</time></trkpt><trkpt lat="41.7076072" lon="2.0811784"><ele>735.8333333333334</ele><time>2026-04-25T10:20:38.447Z</time></trkpt><trkpt lat="41.7075413" lon="2.08112"><ele>738.0</ele><time>2026-04-25T10:20:39.447Z</time></trkpt><trkpt lat="41.7074828" lon="2.0810374"><ele>732.6666666666666</ele><time>2026-04-25T10:20:40.446Z</time></trkpt><trkpt lat="41.7074462" lon="2.0809568"><ele>727.3333333333334</ele><time>2026-04-25T10:20:41.447Z</time></trkpt><trkpt lat="41.7074189" lon="2.0808741"><ele>722.0</ele><time>2026-04-25T10:20:42.446Z</time></trkpt><trkpt lat="41.7074005" lon="2.0807193"><ele>716.6666666666667</ele><time>2026-04-25T10:20:44.447Z</time></trkpt><trkpt lat="41.7074171" lon="2.0806199"><ele>711.3333333333334</ele><time>2026-04-25T10:20:45.447Z</time></trkpt><trkpt lat="41.7074383" lon="2.080518"><ele>706.0</ele><time>2026-04-25T10:20:46.447Z</time></trkpt><trkpt lat="41.7074507" lon="2.0804135"><ele>706.0</ele><time>2026-04-25T10:20:47.446Z</time></trkpt><trkpt lat="41.7074522" lon="2.0802916"><ele>706.0</ele><time>2026-04-25T10:20:48.447Z</time></trkpt><trkpt lat="41.7074252" lon="2.0801597"><ele>706.0</ele><time>2026-04-25T10:20:49.447Z</time></trkpt><trkpt lat="41.707396" lon="2.0800379"><ele>706.0</ele><time>2026-04-25T10:20:50.447Z</time></trkpt><trkpt lat="41.707371" lon="2.0799233"><ele>706.0</ele><time>2026-04-25T10:20:51.447Z</time></trkpt><trkpt lat="41.7073542" lon="2.0797982"><ele>706.1666666666667</ele><time>2026-04-25T10:20:52.447Z</time></trkpt><trkpt lat="41.7073508" lon="2.0796653"><ele>706.3333333333334</ele><time>2026-04-25T10:20:53.446Z</time></trkpt><trkpt lat="41.7073489" lon="2.0795386"><ele>706.5</ele><time>2026-04-25T10:20:54.447Z</time></trkpt><trkpt lat="41.7073317" lon="2.0794332"><ele>706.6666666666666</ele><time>2026-04-25T10:20:55.446Z</time></trkpt><trkpt lat="41.7073014" lon="2.0793305"><ele>706.8333333333333</ele><time>2026-04-25T10:20:56.447Z</time></trkpt><trkpt lat="41.7072628" lon="2.0792235"><ele>707.0</ele><time>2026-04-25T10:20:57.447Z</time></trkpt><trkpt lat="41.7072216" lon="2.0791095"><ele>706.3333333333333</ele><time>2026-04-25T10:20:58.447Z</time></trkpt><trkpt lat="41.7071968" lon="2.0790052"><ele>705.6666666666666</ele><time>2026-04-25T10:20:59.447Z</time></trkpt><trkpt lat="41.7071926" lon="2.0789156"><ele>705.0</ele><time>2026-04-25T10:21:00.447Z</time></trkpt><trkpt lat="41.7072069" lon="2.0788181"><ele>704.3333333333334</ele><time>2026-04-25T10:21:01.447Z</time></trkpt><trkpt lat="41.707234" lon="2.0787003"><ele>703.6666666666667</ele><time>2026-04-25T10:21:02.447Z</time></trkpt><trkpt lat="41.7072657" lon="2.078586"><ele>703.0</ele><time>2026-04-25T10:21:03.447Z</time></trkpt><trkpt lat="41.7072885" lon="2.0784729"><ele>703.0</ele><time>2026-04-25T10:21:04.447Z</time></trkpt><trkpt lat="41.7072954" lon="2.0783451"><ele>703.0</ele><time>2026-04-25T10:21:05.447Z</time></trkpt><trkpt lat="41.7072918" lon="2.0782142"><ele>703.0</ele><time>2026-04-25T10:21:06.447Z</time></trkpt><trkpt lat="41.7072713" lon="2.0780954"><ele>703.0</ele><time>2026-04-25T10:21:07.447Z</time></trkpt><trkpt lat="41.7072534" lon="2.0779924"><ele>703.0</ele><time>2026-04-25T10:21:08.447Z</time></trkpt><trkpt lat="41.7072367" lon="2.0778403"><ele>702.8333333333334</ele><time>2026-04-25T10:21:10.447Z</time></trkpt><trkpt lat="41.7072453" lon="2.0777501"><ele>702.6666666666667</ele><time>2026-04-25T10:21:11.447Z</time></trkpt><trkpt lat="41.7072724" lon="2.0776468"><ele>702.5</ele><time>2026-04-25T10:21:12.447Z</time></trkpt><trkpt lat="41.7073125" lon="2.0775434"><ele>702.3333333333334</ele><time>2026-04-25T10:21:13.446Z</time></trkpt><trkpt lat="41.7073389" lon="2.0774563"><ele>702.1666666666666</ele><time>2026-04-25T10:21:14.447Z</time></trkpt><trkpt lat="41.707336" lon="2.0773014"><ele>702.0</ele><time>2026-04-25T10:21:16.447Z</time></trkpt><trkpt lat="41.707238" lon="2.0772126"><ele>702.0</ele><time>2026-04-25T10:21:18.447Z</time></trkpt><trkpt lat="41.7071627" lon="2.0772054"><ele>702.0</ele><time>2026-04-25T10:21:19.447Z</time></trkpt><trkpt lat="41.7070814" lon="2.077221"><ele>702.0</ele><time>2026-04-25T10:21:20.447Z</time></trkpt><trkpt lat="41.7069882" lon="2.0772506"><ele>702.0</ele><time>2026-04-25T10:21:21.447Z</time></trkpt><trkpt lat="41.7068898" lon="2.0772602"><ele>702.0</ele><time>2026-04-25T10:21:22.447Z</time></trkpt><trkpt lat="41.7067881" lon="2.0772614"><ele>702.0</ele><time>2026-04-25T10:21:23.447Z</time></trkpt><trkpt lat="41.7067035" lon="2.0772561"><ele>702.0</ele><time>2026-04-25T10:21:24.446Z</time></trkpt><trkpt lat="41.7066188" lon="2.0772247"><ele>702.0</ele><time>2026-04-25T10:21:25.447Z</time></trkpt><trkpt lat="41.7065344" lon="2.0771839"><ele>702.0</ele><time>2026-04-25T10:21:26.447Z</time></trkpt><trkpt lat="41.7064452" lon="2.0771395"><ele>702.0</ele><time>2026-04-25T10:21:27.447Z</time></trkpt><trkpt lat="41.7063587" lon="2.0771081"><ele>702.0</ele><time>2026-04-25T10:21:28.446Z</time></trkpt><trkpt lat="41.7062739" lon="2.0770889"><ele>702.0</ele><time>2026-04-25T10:21:29.447Z</time></trkpt><trkpt lat="41.7061956" lon="2.0770665"><ele>702.0</ele><time>2026-04-25T10:21:30.447Z</time></trkpt><trkpt lat="41.7061307" lon="2.0770266"><ele>702.0</ele><time>2026-04-25T10:21:31.447Z</time></trkpt><trkpt lat="41.7060607" lon="2.0769188"><ele>702.0</ele><time>2026-04-25T10:21:33.447Z</time></trkpt><trkpt lat="41.7060418" lon="2.0767557"><ele>702.0</ele><time>2026-04-25T10:21:35.446Z</time></trkpt><trkpt lat="41.7060484" lon="2.0766587"><ele>702.2857142857143</ele><time>2026-04-25T10:21:36.447Z</time></trkpt><trkpt lat="41.7060483" lon="2.0765564"><ele>702.5714285714286</ele><time>2026-04-25T10:21:37.447Z</time></trkpt><trkpt lat="41.7060588" lon="2.0764692"><ele>702.8571428571429</ele><time>2026-04-25T10:21:38.447Z</time></trkpt><trkpt lat="41.70607" lon="2.07638"><ele>703.1428571428571</ele><time>2026-04-25T10:21:39.447Z</time></trkpt><trkpt lat="41.7060905" lon="2.0762861"><ele>703.4285714285714</ele><time>2026-04-25T10:21:40.447Z</time></trkpt><trkpt lat="41.7061222" lon="2.0761931"><ele>703.7142857142858</ele><time>2026-04-25T10:21:41.447Z</time></trkpt><trkpt lat="41.706153" lon="2.0761038"><ele>704.0</ele><time>2026-04-25T10:21:42.446Z</time></trkpt><trkpt lat="41.7061745" lon="2.0760214"><ele>704.0</ele><time>2026-04-25T10:21:43.446Z</time></trkpt><trkpt lat="41.7061761" lon="2.0759263"><ele>704.0</ele><time>2026-04-25T10:21:44.447Z</time></trkpt><trkpt lat="41.7061643" lon="2.0758248"><ele>704.0</ele><time>2026-04-25T10:21:45.447Z</time></trkpt><trkpt lat="41.7061498" lon="2.0757205"><ele>704.0</ele><time>2026-04-25T10:21:46.447Z</time></trkpt><trkpt lat="41.7061413" lon="2.075625"><ele>704.0</ele><time>2026-04-25T10:21:47.447Z</time></trkpt><trkpt lat="41.7061503" lon="2.0755114"><ele>704.0</ele><time>2026-04-25T10:21:48.447Z</time></trkpt><trkpt lat="41.7061597" lon="2.0754041"><ele>703.8333333333333</ele><time>2026-04-25T10:21:49.447Z</time></trkpt><trkpt lat="41.7061614" lon="2.075299"><ele>703.6666666666666</ele><time>2026-04-25T10:21:50.447Z</time></trkpt><trkpt lat="41.7061571" lon="2.0752024"><ele>703.5</ele><time>2026-04-25T10:21:51.447Z</time></trkpt><trkpt lat="41.7061436" lon="2.0750947"><ele>703.3333333333334</ele><time>2026-04-25T10:21:52.447Z</time></trkpt><trkpt lat="41.7061206" lon="2.0749908"><ele>703.1666666666667</ele><time>2026-04-25T10:21:53.447Z</time></trkpt><trkpt lat="41.7060784" lon="2.0748934"><ele>703.0</ele><time>2026-04-25T10:21:54.447Z</time></trkpt><trkpt lat="41.7060134" lon="2.0747942"><ele>699.75</ele><time>2026-04-25T10:21:55.447Z</time></trkpt><trkpt lat="41.705935" lon="2.0746941"><ele>696.5</ele><time>2026-04-25T10:21:56.446Z</time></trkpt><trkpt lat="41.7058415" lon="2.0745945"><ele>693.25</ele><time>2026-04-25T10:21:57.447Z</time></trkpt><trkpt lat="41.7057323" lon="2.0744935"><ele>690.0</ele><time>2026-04-25T10:21:58.447Z</time></trkpt><trkpt lat="41.7056348" lon="2.0744095"><ele>690.0</ele><time>2026-04-25T10:21:59.447Z</time></trkpt><trkpt lat="41.7055565" lon="2.0743316"><ele>690.0</ele><time>2026-04-25T10:22:00.447Z</time></trkpt><trkpt lat="41.7054896" lon="2.0742655"><ele>690.0</ele><time>2026-04-25T10:22:01.447Z</time></trkpt><trkpt lat="41.7054261" lon="2.0741892"><ele>690.0</ele><time>2026-04-25T10:22:02.446Z</time></trkpt><trkpt lat="41.7053662" lon="2.0740801"><ele>690.0</ele><time>2026-04-25T10:22:03.447Z</time></trkpt><trkpt lat="41.7052957" lon="2.0739732"><ele>686.8</ele><time>2026-04-25T10:22:04.446Z</time></trkpt><trkpt lat="41.7052171" lon="2.0738725"><ele>683.6</ele><time>2026-04-25T10:22:05.447Z</time></trkpt><trkpt lat="41.7051441" lon="2.07378"><ele>680.4000000000001</ele><time>2026-04-25T10:22:06.447Z</time></trkpt><trkpt lat="41.7050904" lon="2.073703"><ele>677.2</ele><time>2026-04-25T10:22:07.446Z</time></trkpt><trkpt lat="41.7050298" lon="2.073573"><ele>674.0</ele><time>2026-04-25T10:22:09.447Z</time></trkpt><trkpt lat="41.7050304" lon="2.0734209"><ele>671.4000000000001</ele><time>2026-04-25T10:22:11.447Z</time></trkpt><trkpt lat="41.7050783" lon="2.0732632"><ele>668.8</ele><time>2026-04-25T10:22:13.447Z</time></trkpt><trkpt lat="41.7051237" lon="2.0731964"><ele>666.2</ele><time>2026-04-25T10:22:14.447Z</time></trkpt><trkpt lat="41.7051755" lon="2.0731479"><ele>663.5999999999999</ele><time>2026-04-25T10:22:15.447Z</time></trkpt><trkpt lat="41.7052881" lon="2.073087"><ele>661.0</ele><time>2026-04-25T10:22:17.447Z</time></trkpt><trkpt lat="41.7054231" lon="2.0731032"><ele>660.4</ele><time>2026-04-25T10:22:19.447Z</time></trkpt><trkpt lat="41.7055213" lon="2.0731255"><ele>659.8</ele><time>2026-04-25T10:22:20.446Z</time></trkpt><trkpt lat="41.705622" lon="2.0731486"><ele>659.1999999999999</ele><time>2026-04-25T10:22:21.447Z</time></trkpt><trkpt lat="41.7057214" lon="2.0731778"><ele>658.5999999999999</ele><time>2026-04-25T10:22:22.446Z</time></trkpt><trkpt lat="41.7058284" lon="2.0732062"><ele>658.0</ele><time>2026-04-25T10:22:23.447Z</time></trkpt><trkpt lat="41.7059292" lon="2.0732275"><ele>658.0</ele><time>2026-04-25T10:22:24.447Z</time></trkpt><trkpt lat="41.7060118" lon="2.0732488"><ele>658.0</ele><time>2026-04-25T10:22:25.447Z</time></trkpt><trkpt lat="41.7060892" lon="2.0732731"><ele>658.0</ele><time>2026-04-25T10:22:26.447Z</time></trkpt><trkpt lat="41.7061632" lon="2.0732898"><ele>658.0</ele><time>2026-04-25T10:22:27.447Z</time></trkpt><trkpt lat="41.7062373" lon="2.0733057"><ele>658.0</ele><time>2026-04-25T10:22:28.447Z</time></trkpt><trkpt lat="41.7063214" lon="2.0733268"><ele>658.0</ele><time>2026-04-25T10:22:29.447Z</time></trkpt><trkpt lat="41.7063984" lon="2.0733366"><ele>660.2</ele><time>2026-04-25T10:22:30.447Z</time></trkpt><trkpt lat="41.7064695" lon="2.0733176"><ele>662.4</ele><time>2026-04-25T10:22:31.447Z</time></trkpt><trkpt lat="41.7065517" lon="2.0732495"><ele>664.6</ele><time>2026-04-25T10:22:33.446Z</time></trkpt><trkpt lat="41.7066107" lon="2.0730806"><ele>666.8000000000001</ele><time>2026-04-25T10:22:35.446Z</time></trkpt><trkpt lat="41.7066361" lon="2.0729454"><ele>669.0</ele><time>2026-04-25T10:22:36.447Z</time></trkpt><trkpt lat="41.7066557" lon="2.0728203"><ele>669.0</ele><time>2026-04-25T10:22:37.447Z</time></trkpt><trkpt lat="41.7066676" lon="2.072694"><ele>669.0</ele><time>2026-04-25T10:22:38.446Z</time></trkpt><trkpt lat="41.7066829" lon="2.0725509"><ele>669.0</ele><time>2026-04-25T10:22:39.447Z</time></trkpt><trkpt lat="41.7066958" lon="2.0723973"><ele>669.0</ele><time>2026-04-25T10:22:40.447Z</time></trkpt><trkpt lat="41.7067127" lon="2.0722603"><ele>669.0</ele><time>2026-04-25T10:22:41.446Z</time></trkpt><trkpt lat="41.7067256" lon="2.072127"><ele>667.8000000000001</ele><time>2026-04-25T10:22:42.447Z</time></trkpt><trkpt lat="41.7067349" lon="2.0719875"><ele>666.6</ele><time>2026-04-25T10:22:43.447Z</time></trkpt><trkpt lat="41.7067344" lon="2.0718446"><ele>665.4</ele><time>2026-04-25T10:22:44.447Z</time></trkpt><trkpt lat="41.7067319" lon="2.0717074"><ele>664.2</ele><time>2026-04-25T10:22:45.446Z</time></trkpt><trkpt lat="41.7067199" lon="2.0715895"><ele>663.0</ele><time>2026-04-25T10:22:46.447Z</time></trkpt><trkpt lat="41.7067023" lon="2.071476"><ele>662.6666666666666</ele><time>2026-04-25T10:22:47.447Z</time></trkpt><trkpt lat="41.7066708" lon="2.0713743"><ele>662.3333333333334</ele><time>2026-04-25T10:22:48.447Z</time></trkpt><trkpt lat="41.7066307" lon="2.0712627"><ele>662.0</ele><time>2026-04-25T10:22:49.447Z</time></trkpt><trkpt lat="41.7065872" lon="2.0711446"><ele>661.6666666666667</ele><time>2026-04-25T10:22:50.447Z</time></trkpt><trkpt lat="41.7065396" lon="2.0710408"><ele>661.3333333333334</ele><time>2026-04-25T10:22:51.447Z</time></trkpt><trkpt lat="41.7064959" lon="2.0709434"><ele>661.0</ele><time>2026-04-25T10:22:52.447Z</time></trkpt><trkpt lat="41.7064457" lon="2.0708384"><ele>659.8333333333334</ele><time>2026-04-25T10:22:53.447Z</time></trkpt><trkpt lat="41.7063933" lon="2.0707364"><ele>658.6666666666667</ele><time>2026-04-25T10:22:54.447Z</time></trkpt><trkpt lat="41.706348" lon="2.0706237"><ele>657.5</ele><time>2026-04-25T10:22:55.446Z</time></trkpt><trkpt lat="41.7063078" lon="2.0705228"><ele>656.3333333333334</ele><time>2026-04-25T10:22:56.447Z</time></trkpt><trkpt lat="41.7062714" lon="2.0704371"><ele>655.1666666666666</ele><time>2026-04-25T10:22:57.447Z</time></trkpt><trkpt lat="41.7062455" lon="2.0703512"><ele>654.0</ele><time>2026-04-25T10:22:58.447Z</time></trkpt><trkpt lat="41.7062341" lon="2.0702662"><ele>654.0</ele><time>2026-04-25T10:22:59.446Z</time></trkpt><trkpt lat="41.7062616" lon="2.0701358"><ele>654.0</ele><time>2026-04-25T10:23:01.447Z</time></trkpt><trkpt lat="41.7063467" lon="2.0700386"><ele>654.0</ele><time>2026-04-25T10:23:03.447Z</time></trkpt><trkpt lat="41.7064654" lon="2.0700153"><ele>654.0</ele><time>2026-04-25T10:23:05.447Z</time></trkpt><trkpt lat="41.7065749" lon="2.0700737"><ele>654.0</ele><time>2026-04-25T10:23:07.447Z</time></trkpt><trkpt lat="41.7066309" lon="2.0701374"><ele>654.0</ele><time>2026-04-25T10:23:08.446Z</time></trkpt><trkpt lat="41.7066842" lon="2.0702023"><ele>654.0</ele><time>2026-04-25T10:23:09.447Z</time></trkpt><trkpt lat="41.7067553" lon="2.0703476"><ele>654.0</ele><time>2026-04-25T10:23:11.446Z</time></trkpt><trkpt lat="41.7067853" lon="2.0704317"><ele>654.0</ele><time>2026-04-25T10:23:12.447Z</time></trkpt><trkpt lat="41.7068134" lon="2.0705189"><ele>654.0</ele><time>2026-04-25T10:23:13.446Z</time></trkpt><trkpt lat="41.7068456" lon="2.0706125"><ele>654.0</ele><time>2026-04-25T10:23:14.447Z</time></trkpt><trkpt lat="41.7068778" lon="2.0707257"><ele>654.0</ele><time>2026-04-25T10:23:15.447Z</time></trkpt><trkpt lat="41.7069057" lon="2.070843"><ele>654.0</ele><time>2026-04-25T10:23:16.446Z</time></trkpt><trkpt lat="41.7069332" lon="2.0709684"><ele>654.0</ele><time>2026-04-25T10:23:17.447Z</time></trkpt><trkpt lat="41.7069627" lon="2.0710922"><ele>654.0</ele><time>2026-04-25T10:23:18.447Z</time></trkpt><trkpt lat="41.7069957" lon="2.0712099"><ele>654.8000000000001</ele><time>2026-04-25T10:23:19.447Z</time></trkpt><trkpt lat="41.7070406" lon="2.0713134"><ele>655.6</ele><time>2026-04-25T10:23:20.446Z</time></trkpt><trkpt lat="41.7070892" lon="2.0714196"><ele>656.4</ele><time>2026-04-25T10:23:21.446Z</time></trkpt><trkpt lat="41.70714" lon="2.0715187"><ele>657.2</ele><time>2026-04-25T10:23:22.447Z</time></trkpt><trkpt lat="41.707191" lon="2.0716165"><ele>658.0</ele><time>2026-04-25T10:23:23.446Z</time></trkpt><trkpt lat="41.7072414" lon="2.0717185"><ele>658.0</ele><time>2026-04-25T10:23:24.447Z</time></trkpt><trkpt lat="41.7072932" lon="2.0718201"><ele>658.0</ele><time>2026-04-25T10:23:25.447Z</time></trkpt><trkpt lat="41.7073376" lon="2.0719273"><ele>658.0</ele><time>2026-04-25T10:23:26.447Z</time></trkpt><trkpt lat="41.7073779" lon="2.0720439"><ele>658.0</ele><time>2026-04-25T10:23:27.447Z</time></trkpt><trkpt lat="41.7074109" lon="2.0721635"><ele>658.0</ele><time>2026-04-25T10:23:28.446Z</time></trkpt><trkpt lat="41.707433" lon="2.0722776"><ele>658.0</ele><time>2026-04-25T10:23:29.447Z</time></trkpt><trkpt lat="41.707457" lon="2.0723831"><ele>658.0</ele><time>2026-04-25T10:23:30.447Z</time></trkpt><trkpt lat="41.7074874" lon="2.0724767"><ele>658.0</ele><time>2026-04-25T10:23:31.446Z</time></trkpt><trkpt lat="41.7075405" lon="2.0725632"><ele>658.0</ele><time>2026-04-25T10:23:32.447Z</time></trkpt><trkpt lat="41.7076049" lon="2.0726509"><ele>658.0</ele><time>2026-04-25T10:23:33.447Z</time></trkpt><trkpt lat="41.7076805" lon="2.0727287"><ele>658.0</ele><time>2026-04-25T10:23:34.447Z</time></trkpt><trkpt lat="41.7077542" lon="2.0727901"><ele>657.1666666666667</ele><time>2026-04-25T10:23:35.447Z</time></trkpt><trkpt lat="41.7078231" lon="2.0728521"><ele>656.3333333333334</ele><time>2026-04-25T10:23:36.447Z</time></trkpt><trkpt lat="41.7078858" lon="2.072914"><ele>655.5</ele><time>2026-04-25T10:23:37.447Z</time></trkpt><trkpt lat="41.7079403" lon="2.0729816"><ele>654.6666666666666</ele><time>2026-04-25T10:23:38.447Z</time></trkpt><trkpt lat="41.7079796" lon="2.07307"><ele>653.8333333333333</ele><time>2026-04-25T10:23:39.447Z</time></trkpt><trkpt lat="41.7080071" lon="2.073173"><ele>653.0</ele><time>2026-04-25T10:23:40.447Z</time></trkpt><trkpt lat="41.7080183" lon="2.0732745"><ele>654.4285714285714</ele><time>2026-04-25T10:23:41.447Z</time></trkpt><trkpt lat="41.7080197" lon="2.0733877"><ele>655.8571428571429</ele><time>2026-04-25T10:23:42.447Z</time></trkpt><trkpt lat="41.7080195" lon="2.0734963"><ele>657.2857142857142</ele><time>2026-04-25T10:23:43.447Z</time></trkpt><trkpt lat="41.7080238" lon="2.0736009"><ele>658.7142857142858</ele><time>2026-04-25T10:23:44.447Z</time></trkpt><trkpt lat="41.7080415" lon="2.0736952"><ele>660.1428571428571</ele><time>2026-04-25T10:23:45.447Z</time></trkpt><trkpt lat="41.7080763" lon="2.0737711"><ele>661.5714285714286</ele><time>2026-04-25T10:23:46.447Z</time></trkpt><trkpt lat="41.7081227" lon="2.07383"><ele>663.0</ele><time>2026-04-25T10:23:47.447Z</time></trkpt><trkpt lat="41.7081867" lon="2.0738682"><ele>663.0</ele><time>2026-04-25T10:23:48.447Z</time></trkpt><trkpt lat="41.7082656" lon="2.0738745"><ele>663.0</ele><time>2026-04-25T10:23:49.447Z</time></trkpt><trkpt lat="41.7083491" lon="2.0738714"><ele>663.0</ele><time>2026-04-25T10:23:50.447Z</time></trkpt><trkpt lat="41.7084327" lon="2.0738595"><ele>663.0</ele><time>2026-04-25T10:23:51.447Z</time></trkpt><trkpt lat="41.7085012" lon="2.0738576"><ele>663.0</ele><time>2026-04-25T10:23:52.447Z</time></trkpt><trkpt lat="41.7086154" lon="2.0739103"><ele>663.0</ele><time>2026-04-25T10:23:54.447Z</time></trkpt><trkpt lat="41.7086697" lon="2.0739702"><ele>664.5</ele><time>2026-04-25T10:23:55.447Z</time></trkpt><trkpt lat="41.7087229" lon="2.0740408"><ele>666.0</ele><time>2026-04-25T10:23:56.447Z</time></trkpt><trkpt lat="41.7087855" lon="2.0741031"><ele>667.5</ele><time>2026-04-25T10:23:57.447Z</time></trkpt><trkpt lat="41.7088603" lon="2.0741345"><ele>669.0</ele><time>2026-04-25T10:23:58.446Z</time></trkpt><trkpt lat="41.7089431" lon="2.0741329"><ele>670.5</ele><time>2026-04-25T10:23:59.447Z</time></trkpt><trkpt lat="41.709019" lon="2.0741164"><ele>672.0</ele><time>2026-04-25T10:24:00.447Z</time></trkpt><trkpt lat="41.7090919" lon="2.0740995"><ele>672.0</ele><time>2026-04-25T10:24:01.447Z</time></trkpt><trkpt lat="41.7091591" lon="2.0740851"><ele>672.0</ele><time>2026-04-25T10:24:02.446Z</time></trkpt><trkpt lat="41.7092422" lon="2.0739962"><ele>672.0</ele><time>2026-04-25T10:24:04.447Z</time></trkpt><trkpt lat="41.7092622" lon="2.0739079"><ele>672.0</ele><time>2026-04-25T10:24:05.447Z</time></trkpt><trkpt lat="41.7092662" lon="2.0738001"><ele>672.0</ele><time>2026-04-25T10:24:06.447Z</time></trkpt><trkpt lat="41.7092707" lon="2.0736916"><ele>672.0</ele><time>2026-04-25T10:24:07.447Z</time></trkpt><trkpt lat="41.7092895" lon="2.0735875"><ele>672.0</ele><time>2026-04-25T10:24:08.447Z</time></trkpt><trkpt lat="41.7092927" lon="2.0734845"><ele>672.0</ele><time>2026-04-25T10:24:09.447Z</time></trkpt><trkpt lat="41.7092906" lon="2.0733918"><ele>672.0</ele><time>2026-04-25T10:24:10.447Z</time></trkpt><trkpt lat="41.7092623" lon="2.0733024"><ele>672.0</ele><time>2026-04-25T10:24:11.447Z</time></trkpt><trkpt lat="41.7092148" lon="2.073213"><ele>672.0</ele><time>2026-04-25T10:24:12.447Z</time></trkpt><trkpt lat="41.7091741" lon="2.0731401"><ele>672.0</ele><time>2026-04-25T10:24:13.447Z</time></trkpt><trkpt lat="41.7091339" lon="2.0730706"><ele>672.0</ele><time>2026-04-25T10:24:14.447Z</time></trkpt><trkpt lat="41.7090999" lon="2.0729237"><ele>671.5</ele><time>2026-04-25T10:24:16.447Z</time></trkpt><trkpt lat="41.7091257" lon="2.0727862"><ele>671.0</ele><time>2026-04-25T10:24:18.447Z</time></trkpt><trkpt lat="41.7091571" lon="2.0727115"><ele>670.5</ele><time>2026-04-25T10:24:19.447Z</time></trkpt><trkpt lat="41.709206" lon="2.0726185"><ele>670.0</ele><time>2026-04-25T10:24:20.447Z</time></trkpt><trkpt lat="41.7092581" lon="2.0725233"><ele>669.5</ele><time>2026-04-25T10:24:21.447Z</time></trkpt><trkpt lat="41.7093001" lon="2.0724382"><ele>669.0</ele><time>2026-04-25T10:24:22.447Z</time></trkpt><trkpt lat="41.7093363" lon="2.0723619"><ele>667.8333333333334</ele><time>2026-04-25T10:24:23.447Z</time></trkpt><trkpt lat="41.7093632" lon="2.0722843"><ele>666.6666666666666</ele><time>2026-04-25T10:24:24.446Z</time></trkpt><trkpt lat="41.7093791" lon="2.0721599"><ele>665.5</ele><time>2026-04-25T10:24:26.447Z</time></trkpt><trkpt lat="41.7093291" lon="2.072064"><ele>664.3333333333333</ele><time>2026-04-25T10:24:28.447Z</time></trkpt><trkpt lat="41.7092828" lon="2.0719836"><ele>663.1666666666666</ele><time>2026-04-25T10:24:30.447Z</time></trkpt><trkpt lat="41.7092917" lon="2.071896"><ele>662.0</ele><time>2026-04-25T10:24:32.447Z</time></trkpt><trkpt lat="41.7093638" lon="2.0719019"><ele>664.2</ele><time>2026-04-25T10:24:34.447Z</time></trkpt><trkpt lat="41.7094792" lon="2.0720026"><ele>666.4000000000001</ele><time>2026-04-25T10:24:36.447Z</time></trkpt><trkpt lat="41.7095495" lon="2.0720419"><ele>668.5999999999999</ele><time>2026-04-25T10:24:37.447Z</time></trkpt><trkpt lat="41.7096169" lon="2.0720715"><ele>670.8</ele><time>2026-04-25T10:24:38.446Z</time></trkpt><trkpt lat="41.7097257" lon="2.0720865"><ele>673.0</ele><time>2026-04-25T10:24:40.447Z</time></trkpt><trkpt lat="41.7098101" lon="2.0720118"><ele>673.0</ele><time>2026-04-25T10:24:42.447Z</time></trkpt><trkpt lat="41.7098548" lon="2.0718446"><ele>673.0</ele><time>2026-04-25T10:24:44.447Z</time></trkpt><trkpt lat="41.7098758" lon="2.0717449"><ele>673.0</ele><time>2026-04-25T10:24:45.447Z</time></trkpt><trkpt lat="41.7099113" lon="2.0716646"><ele>673.0</ele><time>2026-04-25T10:24:46.447Z</time></trkpt><trkpt lat="41.7099458" lon="2.0715901"><ele>673.0</ele><time>2026-04-25T10:24:47.447Z</time></trkpt><trkpt lat="41.709982" lon="2.0714465"><ele>672.5</ele><time>2026-04-25T10:24:49.446Z</time></trkpt><trkpt lat="41.7099827" lon="2.0713583"><ele>672.0</ele><time>2026-04-25T10:24:50.447Z</time></trkpt><trkpt lat="41.7099716" lon="2.0712698"><ele>671.5</ele><time>2026-04-25T10:24:51.447Z</time></trkpt><trkpt lat="41.7099462" lon="2.0711681"><ele>671.0</ele><time>2026-04-25T10:24:52.447Z</time></trkpt><trkpt lat="41.7099009" lon="2.0710638"><ele>670.5</ele><time>2026-04-25T10:24:53.447Z</time></trkpt><trkpt lat="41.7098424" lon="2.0709623"><ele>670.0</ele><time>2026-04-25T10:24:54.447Z</time></trkpt><trkpt lat="41.7097744" lon="2.0708517"><ele>668.25</ele><time>2026-04-25T10:24:55.447Z</time></trkpt><trkpt lat="41.7096979" lon="2.0707235"><ele>666.5</ele><time>2026-04-25T10:24:56.447Z</time></trkpt><trkpt lat="41.7096252" lon="2.0705921"><ele>664.75</ele><time>2026-04-25T10:24:57.447Z</time></trkpt><trkpt lat="41.7095585" lon="2.070477"><ele>663.0</ele><time>2026-04-25T10:24:58.447Z</time></trkpt><trkpt lat="41.7094988" lon="2.0703759"><ele>663.0</ele><time>2026-04-25T10:24:59.447Z</time></trkpt><trkpt lat="41.7094434" lon="2.0703041"><ele>663.0</ele><time>2026-04-25T10:25:00.446Z</time></trkpt><trkpt lat="41.7093937" lon="2.0702222"><ele>663.0</ele><time>2026-04-25T10:25:01.447Z</time></trkpt><trkpt lat="41.7093597" lon="2.0701389"><ele>663.0</ele><time>2026-04-25T10:25:02.446Z</time></trkpt><trkpt lat="41.7093362" lon="2.0699852"><ele>663.0</ele><time>2026-04-25T10:25:04.447Z</time></trkpt><trkpt lat="41.7093551" lon="2.0698218"><ele>660.0</ele><time>2026-04-25T10:25:06.453Z</time></trkpt><trkpt lat="41.7093926" lon="2.0697401"><ele>657.0</ele><time>2026-04-25T10:25:07.453Z</time></trkpt><trkpt lat="41.7094376" lon="2.0696636"><ele>654.0</ele><time>2026-04-25T10:25:08.452Z</time></trkpt><trkpt lat="41.7095203" lon="2.0695486"><ele>651.0</ele><time>2026-04-25T10:25:10.453Z</time></trkpt><trkpt lat="41.7096154" lon="2.0694485"><ele>648.0</ele><time>2026-04-25T10:25:12.452Z</time></trkpt><trkpt lat="41.7096746" lon="2.0694071"><ele>647.4</ele><time>2026-04-25T10:25:13.453Z</time></trkpt><trkpt lat="41.7097361" lon="2.0693748"><ele>646.8</ele><time>2026-04-25T10:25:14.452Z</time></trkpt><trkpt lat="41.7098271" lon="2.0693548"><ele>646.2</ele><time>2026-04-25T10:25:16.453Z</time></trkpt><trkpt lat="41.7099265" lon="2.0693693"><ele>645.6</ele><time>2026-04-25T10:25:18.453Z</time></trkpt><trkpt lat="41.7100403" lon="2.0693507"><ele>645.0</ele><time>2026-04-25T10:25:20.453Z</time></trkpt><trkpt lat="41.7101367" lon="2.0692701"><ele>645.0</ele><time>2026-04-25T10:25:22.453Z</time></trkpt><trkpt lat="41.7102302" lon="2.0691661"><ele>645.0</ele><time>2026-04-25T10:25:24.453Z</time></trkpt><trkpt lat="41.7103154" lon="2.0691217"><ele>645.0</ele><time>2026-04-25T10:25:26.453Z</time></trkpt><trkpt lat="41.7104036" lon="2.0691084"><ele>645.0</ele><time>2026-04-25T10:25:28.452Z</time></trkpt><trkpt lat="41.710499" lon="2.0691723"><ele>645.0</ele><time>2026-04-25T10:25:30.453Z</time></trkpt><trkpt lat="41.710563" lon="2.0692345"><ele>645.6666666666666</ele><time>2026-04-25T10:25:31.453Z</time></trkpt><trkpt lat="41.7106313" lon="2.0692989"><ele>646.3333333333334</ele><time>2026-04-25T10:25:32.453Z</time></trkpt><trkpt lat="41.7106897" lon="2.0693496"><ele>647.0</ele><time>2026-04-25T10:25:33.453Z</time></trkpt><trkpt lat="41.7107666" lon="2.069369"><ele>647.6666666666667</ele><time>2026-04-25T10:25:35.453Z</time></trkpt><trkpt lat="41.710842" lon="2.0692867"><ele>648.3333333333334</ele><time>2026-04-25T10:25:37.453Z</time></trkpt><trkpt lat="41.7108866" lon="2.0691751"><ele>649.0</ele><time>2026-04-25T10:25:39.453Z</time></trkpt><trkpt lat="41.7108756" lon="2.069018"><ele>650.4000000000001</ele><time>2026-04-25T10:25:41.453Z</time></trkpt><trkpt lat="41.7108662" lon="2.0689254"><ele>651.8</ele><time>2026-04-25T10:25:42.452Z</time></trkpt><trkpt lat="41.7108706" lon="2.0687653"><ele>653.2</ele><time>2026-04-25T10:25:44.453Z</time></trkpt><trkpt lat="41.7109229" lon="2.0686246"><ele>654.5999999999999</ele><time>2026-04-25T10:25:46.453Z</time></trkpt><trkpt lat="41.7110212" lon="2.0685186"><ele>656.0</ele><time>2026-04-25T10:25:48.453Z</time></trkpt><trkpt lat="41.7111132" lon="2.0684395"><ele>656.0</ele><time>2026-04-25T10:25:50.453Z</time></trkpt><trkpt lat="41.711147" lon="2.0683103"><ele>656.0</ele><time>2026-04-25T10:25:52.453Z</time></trkpt><trkpt lat="41.7111018" lon="2.0681888"><ele>656.0</ele><time>2026-04-25T10:25:54.453Z</time></trkpt><trkpt lat="41.7110454" lon="2.0681318"><ele>656.0</ele><time>2026-04-25T10:25:55.453Z</time></trkpt><trkpt lat="41.7109795" lon="2.0680829"><ele>656.0</ele><time>2026-04-25T10:25:56.453Z</time></trkpt><trkpt lat="41.7109199" lon="2.0680349"><ele>656.0</ele><time>2026-04-25T10:25:57.452Z</time></trkpt><trkpt lat="41.7108607" lon="2.0679392"><ele>655.5</ele><time>2026-04-25T10:25:59.453Z</time></trkpt><trkpt lat="41.7108699" lon="2.0678317"><ele>655.0</ele><time>2026-04-25T10:26:01.452Z</time></trkpt><trkpt lat="41.7109114" lon="2.067762"><ele>654.5</ele><time>2026-04-25T10:26:02.452Z</time></trkpt><trkpt lat="41.7109726" lon="2.0676938"><ele>654.0</ele><time>2026-04-25T10:26:03.453Z</time></trkpt><trkpt lat="41.7110495" lon="2.0676391"><ele>653.5</ele><time>2026-04-25T10:26:04.453Z</time></trkpt><trkpt lat="41.7111168" lon="2.0675947"><ele>653.0</ele><time>2026-04-25T10:26:05.453Z</time></trkpt><trkpt lat="41.7111909" lon="2.0675066"><ele>652.8333333333333</ele><time>2026-04-25T10:26:07.452Z</time></trkpt><trkpt lat="41.7111823" lon="2.0673772"><ele>652.6666666666666</ele><time>2026-04-25T10:26:09.453Z</time></trkpt><trkpt lat="41.7111054" lon="2.0672899"><ele>652.5</ele><time>2026-04-25T10:26:11.453Z</time></trkpt><trkpt lat="41.7110357" lon="2.0672849"><ele>652.3333333333334</ele><time>2026-04-25T10:26:12.453Z</time></trkpt><trkpt lat="41.7109518" lon="2.0672807"><ele>652.1666666666667</ele><time>2026-04-25T10:26:13.453Z</time></trkpt><trkpt lat="41.7108654" lon="2.0672623"><ele>652.0</ele><time>2026-04-25T10:26:14.453Z</time></trkpt><trkpt lat="41.7107737" lon="2.0672248"><ele>652.0</ele><time>2026-04-25T10:26:15.453Z</time></trkpt><trkpt lat="41.7106826" lon="2.0671878"><ele>652.0</ele><time>2026-04-25T10:26:16.453Z</time></trkpt><trkpt lat="41.7105833" lon="2.0671624"><ele>652.0</ele><time>2026-04-25T10:26:17.453Z</time></trkpt><trkpt lat="41.7104738" lon="2.0671469"><ele>652.0</ele><time>2026-04-25T10:26:18.453Z</time></trkpt><trkpt lat="41.710372" lon="2.0671284"><ele>652.0</ele><time>2026-04-25T10:26:19.453Z</time></trkpt><trkpt lat="41.7102781" lon="2.0671104"><ele>649.6</ele><time>2026-04-25T10:26:20.453Z</time></trkpt><trkpt lat="41.7101747" lon="2.0670668"><ele>647.2</ele><time>2026-04-25T10:26:21.453Z</time></trkpt><trkpt lat="41.7100679" lon="2.0670052"><ele>644.8</ele><time>2026-04-25T10:26:22.453Z</time></trkpt><trkpt lat="41.7099787" lon="2.0669461"><ele>642.4</ele><time>2026-04-25T10:26:23.453Z</time></trkpt><trkpt lat="41.7099094" lon="2.0668948"><ele>640.0</ele><time>2026-04-25T10:26:24.453Z</time></trkpt><trkpt lat="41.709829" lon="2.0667766"><ele>640.0</ele><time>2026-04-25T10:26:26.452Z</time></trkpt><trkpt lat="41.709807" lon="2.0666618"><ele>640.0</ele><time>2026-04-25T10:26:28.452Z</time></trkpt><trkpt lat="41.7098478" lon="2.0665203"><ele>640.0</ele><time>2026-04-25T10:26:30.453Z</time></trkpt><trkpt lat="41.7098855" lon="2.0664214"><ele>640.0</ele><time>2026-04-25T10:26:31.453Z</time></trkpt><trkpt lat="41.7099014" lon="2.0663089"><ele>640.0</ele><time>2026-04-25T10:26:32.453Z</time></trkpt><trkpt lat="41.7099115" lon="2.0661859"><ele>640.6</ele><time>2026-04-25T10:26:33.453Z</time></trkpt><trkpt lat="41.7099164" lon="2.0660581"><ele>641.2</ele><time>2026-04-25T10:26:34.452Z</time></trkpt><trkpt lat="41.7099283" lon="2.0659541"><ele>641.8</ele><time>2026-04-25T10:26:35.453Z</time></trkpt><trkpt lat="41.7099453" lon="2.0658626"><ele>642.4</ele><time>2026-04-25T10:26:36.453Z</time></trkpt><trkpt lat="41.7099025" lon="2.0657305"><ele>643.0</ele><time>2026-04-25T10:26:38.453Z</time></trkpt><trkpt lat="41.7097819" lon="2.0656626"><ele>641.8</ele><time>2026-04-25T10:26:40.453Z</time></trkpt><trkpt lat="41.7097013" lon="2.0656674"><ele>640.5999999999999</ele><time>2026-04-25T10:26:41.453Z</time></trkpt><trkpt lat="41.7096116" lon="2.0656948"><ele>639.4000000000001</ele><time>2026-04-25T10:26:42.452Z</time></trkpt><trkpt lat="41.7095268" lon="2.0657173"><ele>638.2</ele><time>2026-04-25T10:26:43.453Z</time></trkpt><trkpt lat="41.7094396" lon="2.0657326"><ele>637.0</ele><time>2026-04-25T10:26:44.453Z</time></trkpt><trkpt lat="41.7093355" lon="2.0657319"><ele>637.0</ele><time>2026-04-25T10:26:45.453Z</time></trkpt><trkpt lat="41.7092248" lon="2.0657239"><ele>637.0</ele><time>2026-04-25T10:26:46.453Z</time></trkpt><trkpt lat="41.7091107" lon="2.0657072"><ele>637.0</ele><time>2026-04-25T10:26:47.453Z</time></trkpt><trkpt lat="41.7089977" lon="2.065681"><ele>637.0</ele><time>2026-04-25T10:26:48.453Z</time></trkpt><trkpt lat="41.7089042" lon="2.0656614"><ele>637.0</ele><time>2026-04-25T10:26:49.453Z</time></trkpt><trkpt lat="41.7088213" lon="2.0656025"><ele>637.0</ele><time>2026-04-25T10:26:51.453Z</time></trkpt><trkpt lat="41.7088119" lon="2.0654855"><ele>637.0</ele><time>2026-04-25T10:26:53.453Z</time></trkpt><trkpt lat="41.7088599" lon="2.0653356"><ele>637.0</ele><time>2026-04-25T10:26:55.452Z</time></trkpt><trkpt lat="41.7089049" lon="2.0652704"><ele>637.0</ele><time>2026-04-25T10:26:56.453Z</time></trkpt><trkpt lat="41.7089668" lon="2.0651949"><ele>637.0</ele><time>2026-04-25T10:26:57.453Z</time></trkpt><trkpt lat="41.709033" lon="2.0651261"><ele>637.0</ele><time>2026-04-25T10:26:58.453Z</time></trkpt><trkpt lat="41.7091025" lon="2.0650801"><ele>637.0</ele><time>2026-04-25T10:26:59.453Z</time></trkpt><trkpt lat="41.7091766" lon="2.0650473"><ele>637.0</ele><time>2026-04-25T10:27:00.453Z</time></trkpt><trkpt lat="41.7092619" lon="2.0650146"><ele>637.0</ele><time>2026-04-25T10:27:01.452Z</time></trkpt><trkpt lat="41.7093422" lon="2.0649742"><ele>637.0</ele><time>2026-04-25T10:27:02.453Z</time></trkpt><trkpt lat="41.7094222" lon="2.064926"><ele>637.0</ele><time>2026-04-25T10:27:03.453Z</time></trkpt><trkpt lat="41.7094983" lon="2.0648529"><ele>637.0</ele><time>2026-04-25T10:27:04.453Z</time></trkpt><trkpt lat="41.7095741" lon="2.0647777"><ele>637.8</ele><time>2026-04-25T10:27:05.453Z</time></trkpt><trkpt lat="41.709645" lon="2.0647025"><ele>638.6</ele><time>2026-04-25T10:27:06.452Z</time></trkpt><trkpt lat="41.7097034" lon="2.0646429"><ele>639.4</ele><time>2026-04-25T10:27:07.453Z</time></trkpt><trkpt lat="41.7097948" lon="2.0645612"><ele>640.1999999999999</ele><time>2026-04-25T10:27:09.453Z</time></trkpt><trkpt lat="41.7098904" lon="2.0644714"><ele>641.0</ele><time>2026-04-25T10:27:11.452Z</time></trkpt><trkpt lat="41.7099265" lon="2.0644001"><ele>641.0</ele><time>2026-04-25T10:27:12.453Z</time></trkpt><trkpt lat="41.7099515" lon="2.0643159"><ele>641.0</ele><time>2026-04-25T10:27:13.453Z</time></trkpt><trkpt lat="41.7099873" lon="2.0641698"><ele>641.0</ele><time>2026-04-25T10:27:15.453Z</time></trkpt><trkpt lat="41.7100972" lon="2.0640361"><ele>641.0</ele><time>2026-04-25T10:27:17.453Z</time></trkpt><trkpt lat="41.7101592" lon="2.0639567"><ele>641.0</ele><time>2026-04-25T10:27:18.452Z</time></trkpt><trkpt lat="41.7102121" lon="2.0638862"><ele>644.5</ele><time>2026-04-25T10:27:19.453Z</time></trkpt><trkpt lat="41.7102628" lon="2.0638076"><ele>648.0</ele><time>2026-04-25T10:27:20.452Z</time></trkpt><trkpt lat="41.7103115" lon="2.0637099"><ele>651.5</ele><time>2026-04-25T10:27:21.453Z</time></trkpt><trkpt lat="41.7103481" lon="2.0636152"><ele>655.0</ele><time>2026-04-25T10:27:22.453Z</time></trkpt><trkpt lat="41.7103742" lon="2.0635241"><ele>658.5</ele><time>2026-04-25T10:27:23.453Z</time></trkpt><trkpt lat="41.7103881" lon="2.0634296"><ele>662.0</ele><time>2026-04-25T10:27:24.452Z</time></trkpt><trkpt lat="41.7104037" lon="2.0633294"><ele>663.1666666666666</ele><time>2026-04-25T10:27:25.453Z</time></trkpt><trkpt lat="41.7104169" lon="2.0632252"><ele>664.3333333333333</ele><time>2026-04-25T10:27:26.452Z</time></trkpt><trkpt lat="41.7104301" lon="2.0631168"><ele>665.5</ele><time>2026-04-25T10:27:27.453Z</time></trkpt><trkpt lat="41.7104229" lon="2.0630179"><ele>666.6666666666666</ele><time>2026-04-25T10:27:28.453Z</time></trkpt><trkpt lat="41.7104026" lon="2.0629332"><ele>667.8333333333334</ele><time>2026-04-25T10:27:29.453Z</time></trkpt><trkpt lat="41.7103201" lon="2.0627808"><ele>669.0</ele><time>2026-04-25T10:27:31.452Z</time></trkpt><trkpt lat="41.7102517" lon="2.0626947"><ele>666.2</ele><time>2026-04-25T10:27:32.453Z</time></trkpt><trkpt lat="41.7101893" lon="2.0625964"><ele>663.4000000000001</ele><time>2026-04-25T10:27:33.453Z</time></trkpt><trkpt lat="41.7101311" lon="2.0624958"><ele>660.6</ele><time>2026-04-25T10:27:34.453Z</time></trkpt><trkpt lat="41.710077" lon="2.0624109"><ele>657.8</ele><time>2026-04-25T10:27:35.453Z</time></trkpt><trkpt lat="41.7100052" lon="2.0623345"><ele>655.0</ele><time>2026-04-25T10:27:36.453Z</time></trkpt><trkpt lat="41.7099126" lon="2.0622767"><ele>655.0</ele><time>2026-04-25T10:27:37.453Z</time></trkpt><trkpt lat="41.7098233" lon="2.0622132"><ele>655.0</ele><time>2026-04-25T10:27:38.453Z</time></trkpt><trkpt lat="41.709747" lon="2.0621465"><ele>655.0</ele><time>2026-04-25T10:27:39.453Z</time></trkpt><trkpt lat="41.7096693" lon="2.062096"><ele>655.0</ele><time>2026-04-25T10:27:40.453Z</time></trkpt><trkpt lat="41.7095816" lon="2.0620622"><ele>655.0</ele><time>2026-04-25T10:27:41.453Z</time></trkpt><trkpt lat="41.7094939" lon="2.0620449"><ele>653.4</ele><time>2026-04-25T10:27:42.453Z</time></trkpt><trkpt lat="41.7094067" lon="2.0620434"><ele>651.8</ele><time>2026-04-25T10:27:43.452Z</time></trkpt><trkpt lat="41.7093175" lon="2.0620604"><ele>650.2</ele><time>2026-04-25T10:27:44.453Z</time></trkpt><trkpt lat="41.7092236" lon="2.062098"><ele>648.6</ele><time>2026-04-25T10:27:45.453Z</time></trkpt><trkpt lat="41.7091396" lon="2.062159"><ele>647.0</ele><time>2026-04-25T10:27:46.452Z</time></trkpt><trkpt lat="41.7090632" lon="2.0622144"><ele>647.0</ele><time>2026-04-25T10:27:47.453Z</time></trkpt><trkpt lat="41.7089514" lon="2.0622408"><ele>647.0</ele><time>2026-04-25T10:27:49.453Z</time></trkpt><trkpt lat="41.7088771" lon="2.0622162"><ele>647.0</ele><time>2026-04-25T10:27:50.453Z</time></trkpt><trkpt lat="41.708778" lon="2.0621783"><ele>647.0</ele><time>2026-04-25T10:27:51.453Z</time></trkpt><trkpt lat="41.7086837" lon="2.0621603"><ele>647.0</ele><time>2026-04-25T10:27:52.453Z</time></trkpt><trkpt lat="41.70859" lon="2.0621607"><ele>647.0</ele><time>2026-04-25T10:27:53.453Z</time></trkpt><trkpt lat="41.7085094" lon="2.0621725"><ele>647.0</ele><time>2026-04-25T10:27:54.453Z</time></trkpt><trkpt lat="41.7084235" lon="2.0622011"><ele>647.0</ele><time>2026-04-25T10:27:55.452Z</time></trkpt><trkpt lat="41.7083457" lon="2.0622185"><ele>647.0</ele><time>2026-04-25T10:27:56.452Z</time></trkpt><trkpt lat="41.7082216" lon="2.0621573"><ele>647.0</ele><time>2026-04-25T10:27:58.453Z</time></trkpt><trkpt lat="41.7081608" lon="2.0620931"><ele>647.0</ele><time>2026-04-25T10:27:59.453Z</time></trkpt><trkpt lat="41.7080976" lon="2.0620071"><ele>647.0</ele><time>2026-04-25T10:28:00.453Z</time></trkpt><trkpt lat="41.7080411" lon="2.0619204"><ele>647.0</ele><time>2026-04-25T10:28:01.453Z</time></trkpt><trkpt lat="41.7079991" lon="2.0618357"><ele>647.0</ele><time>2026-04-25T10:28:02.452Z</time></trkpt><trkpt lat="41.7079704" lon="2.0617396"><ele>647.0</ele><time>2026-04-25T10:28:03.453Z</time></trkpt><trkpt lat="41.7079572" lon="2.0616199"><ele>647.0</ele><time>2026-04-25T10:28:04.452Z</time></trkpt><trkpt lat="41.7079499" lon="2.0614977"><ele>646.5</ele><time>2026-04-25T10:28:05.453Z</time></trkpt><trkpt lat="41.7079342" lon="2.0613836"><ele>646.0</ele><time>2026-04-25T10:28:06.453Z</time></trkpt><trkpt lat="41.7078922" lon="2.0612862"><ele>645.5</ele><time>2026-04-25T10:28:07.452Z</time></trkpt><trkpt lat="41.7078394" lon="2.061187"><ele>645.0</ele><time>2026-04-25T10:28:08.453Z</time></trkpt><trkpt lat="41.7077902" lon="2.0611149"><ele>644.5</ele><time>2026-04-25T10:28:09.453Z</time></trkpt><trkpt lat="41.7076951" lon="2.0610371"><ele>644.0</ele><time>2026-04-25T10:28:11.453Z</time></trkpt><trkpt lat="41.7076313" lon="2.0610141"><ele>642.3333333333333</ele><time>2026-04-25T10:28:12.452Z</time></trkpt><trkpt lat="41.7075182" lon="2.060951"><ele>640.6666666666666</ele><time>2026-04-25T10:28:14.453Z</time></trkpt><trkpt lat="41.7074612" lon="2.0608754"><ele>639.0</ele><time>2026-04-25T10:28:15.453Z</time></trkpt><trkpt lat="41.7074098" lon="2.0608025"><ele>637.3333333333334</ele><time>2026-04-25T10:28:16.453Z</time></trkpt><trkpt lat="41.7073472" lon="2.0607559"><ele>635.6666666666667</ele><time>2026-04-25T10:28:18.453Z</time></trkpt><trkpt lat="41.7072826" lon="2.0608194"><ele>634.0</ele><time>2026-04-25T10:28:21.453Z</time></trkpt><trkpt lat="41.7072992" lon="2.0609413"><ele>634.0</ele><time>2026-04-25T10:28:24.452Z</time></trkpt><trkpt lat="41.7073412" lon="2.0610162"><ele>634.0</ele><time>2026-04-25T10:28:25.453Z</time></trkpt><trkpt lat="41.7073887" lon="2.061094"><ele>634.0</ele><time>2026-04-25T10:28:26.452Z</time></trkpt><trkpt lat="41.7074449" lon="2.0611877"><ele>634.0</ele><time>2026-04-25T10:28:28.453Z</time></trkpt><trkpt lat="41.7074357" lon="2.0612822"><ele>634.0</ele><time>2026-04-25T10:28:30.453Z</time></trkpt><trkpt lat="41.7073634" lon="2.061353"><ele>634.0</ele><time>2026-04-25T10:28:32.452Z</time></trkpt><trkpt lat="41.7072436" lon="2.0613978"><ele>634.0</ele><time>2026-04-25T10:28:34.452Z</time></trkpt><trkpt lat="41.7071714" lon="2.0614247"><ele>634.0</ele><time>2026-04-25T10:28:35.453Z</time></trkpt><trkpt lat="41.7071035" lon="2.0614561"><ele>634.0</ele><time>2026-04-25T10:28:36.453Z</time></trkpt><trkpt lat="41.7069854" lon="2.0615188"><ele>634.0</ele><time>2026-04-25T10:28:38.453Z</time></trkpt><trkpt lat="41.7069249" lon="2.0615712"><ele>634.0</ele><time>2026-04-25T10:28:39.453Z</time></trkpt><trkpt lat="41.7068567" lon="2.0616365"><ele>634.0</ele><time>2026-04-25T10:28:40.452Z</time></trkpt><trkpt lat="41.7067753" lon="2.0617077"><ele>631.8333333333334</ele><time>2026-04-25T10:28:41.452Z</time></trkpt><trkpt lat="41.7066954" lon="2.0617809"><ele>629.6666666666667</ele><time>2026-04-25T10:28:42.453Z</time></trkpt><trkpt lat="41.7066171" lon="2.0618406"><ele>627.5</ele><time>2026-04-25T10:28:43.452Z</time></trkpt><trkpt lat="41.7065368" lon="2.0618902"><ele>625.3333333333334</ele><time>2026-04-25T10:28:44.452Z</time></trkpt><trkpt lat="41.7064586" lon="2.0619358"><ele>623.1666666666666</ele><time>2026-04-25T10:28:45.453Z</time></trkpt><trkpt lat="41.7064021" lon="2.0619737"><ele>621.0</ele><time>2026-04-25T10:28:46.453Z</time></trkpt><trkpt lat="41.7063362" lon="2.0619853"><ele>621.0</ele><time>2026-04-25T10:28:48.453Z</time></trkpt><trkpt lat="41.7062387" lon="2.0619702"><ele>621.0</ele><time>2026-04-25T10:28:50.452Z</time></trkpt><trkpt lat="41.706117" lon="2.0619387"><ele>621.0</ele><time>2026-04-25T10:28:52.453Z</time></trkpt><trkpt lat="41.7059997" lon="2.0619047"><ele>621.0</ele><time>2026-04-25T10:28:54.453Z</time></trkpt><trkpt lat="41.7058775" lon="2.0619246"><ele>619.6666666666666</ele><time>2026-04-25T10:28:56.452Z</time></trkpt><trkpt lat="41.7058144" lon="2.061958"><ele>618.3333333333334</ele><time>2026-04-25T10:28:57.453Z</time></trkpt><trkpt lat="41.7057569" lon="2.0620169"><ele>617.0</ele><time>2026-04-25T10:28:58.453Z</time></trkpt><trkpt lat="41.7056926" lon="2.0621043"><ele>615.6666666666667</ele><time>2026-04-25T10:28:59.453Z</time></trkpt><trkpt lat="41.7056287" lon="2.0621958"><ele>614.3333333333334</ele><time>2026-04-25T10:29:00.453Z</time></trkpt><trkpt lat="41.7055516" lon="2.0622674"><ele>613.0</ele><time>2026-04-25T10:29:01.453Z</time></trkpt><trkpt lat="41.7054788" lon="2.0623135"><ele>613.0</ele><time>2026-04-25T10:29:02.453Z</time></trkpt><trkpt lat="41.7054036" lon="2.062343"><ele>613.0</ele><time>2026-04-25T10:29:03.453Z</time></trkpt><trkpt lat="41.7053082" lon="2.06235"><ele>613.0</ele><time>2026-04-25T10:29:04.453Z</time></trkpt><trkpt lat="41.7052172" lon="2.0623423"><ele>613.0</ele><time>2026-04-25T10:29:05.453Z</time></trkpt><trkpt lat="41.7051441" lon="2.0623399"><ele>613.0</ele><time>2026-04-25T10:29:06.452Z</time></trkpt><trkpt lat="41.7050771" lon="2.0623539"><ele>613.0</ele><time>2026-04-25T10:29:07.453Z</time></trkpt><trkpt lat="41.704995" lon="2.0623949"><ele>612.6</ele><time>2026-04-25T10:29:08.453Z</time></trkpt><trkpt lat="41.7049097" lon="2.0624499"><ele>612.1999999999999</ele><time>2026-04-25T10:29:09.453Z</time></trkpt><trkpt lat="41.7048131" lon="2.0625052"><ele>611.8</ele><time>2026-04-25T10:29:10.453Z</time></trkpt><trkpt lat="41.7047072" lon="2.0625476"><ele>611.4</ele><time>2026-04-25T10:29:11.453Z</time></trkpt><trkpt lat="41.7046002" lon="2.0625851"><ele>611.0</ele><time>2026-04-25T10:29:12.452Z</time></trkpt><trkpt lat="41.7044955" lon="2.0626204"><ele>610.2</ele><time>2026-04-25T10:29:13.452Z</time></trkpt><trkpt lat="41.7043949" lon="2.0626446"><ele>609.4000000000001</ele><time>2026-04-25T10:29:14.453Z</time></trkpt><trkpt lat="41.7042882" lon="2.0626554"><ele>608.6</ele><time>2026-04-25T10:29:15.453Z</time></trkpt><trkpt lat="41.7041798" lon="2.0626572"><ele>607.8000000000001</ele><time>2026-04-25T10:29:16.453Z</time></trkpt><trkpt lat="41.7040689" lon="2.0626632"><ele>607.0</ele><time>2026-04-25T10:29:17.453Z</time></trkpt><trkpt lat="41.7039519" lon="2.0626694"><ele>607.0</ele><time>2026-04-25T10:29:18.452Z</time></trkpt><trkpt lat="41.7038348" lon="2.0626791"><ele>607.0</ele><time>2026-04-25T10:29:19.453Z</time></trkpt><trkpt lat="41.7037303" lon="2.0626955"><ele>607.0</ele><time>2026-04-25T10:29:20.453Z</time></trkpt><trkpt lat="41.7036163" lon="2.0627305"><ele>607.0</ele><time>2026-04-25T10:29:21.453Z</time></trkpt><trkpt lat="41.703514" lon="2.0627746"><ele>607.0</ele><time>2026-04-25T10:29:22.452Z</time></trkpt><trkpt lat="41.7034263" lon="2.0628268"><ele>605.6666666666667</ele><time>2026-04-25T10:29:23.453Z</time></trkpt><trkpt lat="41.7033531" lon="2.062869"><ele>604.3333333333334</ele><time>2026-04-25T10:29:24.453Z</time></trkpt><trkpt lat="41.7032537" lon="2.0629095"><ele>603.0</ele><time>2026-04-25T10:29:26.453Z</time></trkpt><trkpt lat="41.7031899" lon="2.0628969"><ele>601.6666666666666</ele><time>2026-04-25T10:29:27.453Z</time></trkpt><trkpt lat="41.7031298" lon="2.0628606"><ele>600.3333333333333</ele><time>2026-04-25T10:29:28.453Z</time></trkpt><trkpt lat="41.70305" lon="2.0628552"><ele>599.0</ele><time>2026-04-25T10:29:30.453Z</time></trkpt><trkpt lat="41.7029593" lon="2.0628989"><ele>599.0</ele><time>2026-04-25T10:29:32.453Z</time></trkpt><trkpt lat="41.7028991" lon="2.0629453"><ele>599.0</ele><time>2026-04-25T10:29:33.453Z</time></trkpt><trkpt lat="41.7028329" lon="2.0630013"><ele>599.0</ele><time>2026-04-25T10:29:34.453Z</time></trkpt><trkpt lat="41.7027583" lon="2.0630557"><ele>599.0</ele><time>2026-04-25T10:29:35.452Z</time></trkpt><trkpt lat="41.7026711" lon="2.0630946"><ele>599.0</ele><time>2026-04-25T10:29:36.453Z</time></trkpt><trkpt lat="41.7025887" lon="2.0631278"><ele>599.0</ele><time>2026-04-25T10:29:37.453Z</time></trkpt><trkpt lat="41.7025045" lon="2.0631555"><ele>597.3333333333333</ele><time>2026-04-25T10:29:38.453Z</time></trkpt><trkpt lat="41.7024355" lon="2.0631717"><ele>595.6666666666666</ele><time>2026-04-25T10:29:39.452Z</time></trkpt><trkpt lat="41.7023682" lon="2.0631732"><ele>594.0</ele><time>2026-04-25T10:29:40.453Z</time></trkpt><trkpt lat="41.7022539" lon="2.0631579"><ele>592.3333333333334</ele><time>2026-04-25T10:29:42.453Z</time></trkpt><trkpt lat="41.7021856" lon="2.0630685"><ele>590.6666666666667</ele><time>2026-04-25T10:29:44.453Z</time></trkpt><trkpt lat="41.7021922" lon="2.0629432"><ele>589.0</ele><time>2026-04-25T10:29:46.453Z</time></trkpt><trkpt lat="41.7022306" lon="2.062837"><ele>589.0</ele><time>2026-04-25T10:29:47.453Z</time></trkpt><trkpt lat="41.7022826" lon="2.0627468"><ele>589.0</ele><time>2026-04-25T10:29:48.452Z</time></trkpt><trkpt lat="41.7023235" lon="2.0626596"><ele>589.0</ele><time>2026-04-25T10:29:49.453Z</time></trkpt><trkpt lat="41.7023642" lon="2.0625822"><ele>589.0</ele><time>2026-04-25T10:29:50.453Z</time></trkpt><trkpt lat="41.7023972" lon="2.0625062"><ele>589.0</ele><time>2026-04-25T10:29:51.452Z</time></trkpt><trkpt lat="41.7024523" lon="2.0623743"><ele>589.0</ele><time>2026-04-25T10:29:53.452Z</time></trkpt><trkpt lat="41.7024779" lon="2.0622795"><ele>587.6666666666667</ele><time>2026-04-25T10:29:56.453Z</time></trkpt><trkpt lat="41.7023967" lon="2.0622151"><ele>586.3333333333334</ele><time>2026-04-25T10:29:59.453Z</time></trkpt><trkpt lat="41.7023083" lon="2.0622569"><ele>585.0</ele><time>2026-04-25T10:30:01.453Z</time></trkpt><trkpt lat="41.7022049" lon="2.0623138"><ele>583.6666666666666</ele><time>2026-04-25T10:30:03.453Z</time></trkpt><trkpt lat="41.7021433" lon="2.0623345"><ele>582.3333333333333</ele><time>2026-04-25T10:30:04.452Z</time></trkpt><trkpt lat="41.7020769" lon="2.0623659"><ele>581.0</ele><time>2026-04-25T10:30:05.453Z</time></trkpt><trkpt lat="41.7020168" lon="2.0623952"><ele>581.0</ele><time>2026-04-25T10:30:06.453Z</time></trkpt><trkpt lat="41.7019564" lon="2.0624219"><ele>581.0</ele><time>2026-04-25T10:30:07.453Z</time></trkpt><trkpt lat="41.7018376" lon="2.0624398"><ele>581.0</ele><time>2026-04-25T10:30:09.453Z</time></trkpt><trkpt lat="41.7017181" lon="2.0624627"><ele>581.0</ele><time>2026-04-25T10:30:11.453Z</time></trkpt><trkpt lat="41.7016507" lon="2.0624562"><ele>581.0</ele><time>2026-04-25T10:30:12.453Z</time></trkpt><trkpt lat="41.7015399" lon="2.0624127"><ele>580.0</ele><time>2026-04-25T10:30:14.453Z</time></trkpt><trkpt lat="41.7014756" lon="2.0623218"><ele>579.0</ele><time>2026-04-25T10:30:16.452Z</time></trkpt><trkpt lat="41.7014712" lon="2.0621947"><ele>578.0</ele><time>2026-04-25T10:30:18.453Z</time></trkpt><trkpt lat="41.7015603" lon="2.0620792"><ele>577.0</ele><time>2026-04-25T10:30:20.453Z</time></trkpt><trkpt lat="41.7016227" lon="2.0620514"><ele>576.0</ele><time>2026-04-25T10:30:21.453Z</time></trkpt><trkpt lat="41.701667" lon="2.0619789"><ele>575.0</ele><time>2026-04-25T10:30:24.453Z</time></trkpt><trkpt lat="41.7015826" lon="2.0618899"><ele>575.0</ele><time>2026-04-25T10:30:26.453Z</time></trkpt><trkpt lat="41.7015149" lon="2.061859"><ele>575.0</ele><time>2026-04-25T10:30:27.453Z</time></trkpt><trkpt lat="41.7014543" lon="2.0618244"><ele>575.0</ele><time>2026-04-25T10:30:28.453Z</time></trkpt><trkpt lat="41.7013909" lon="2.0617982"><ele>575.0</ele><time>2026-04-25T10:30:29.453Z</time></trkpt><trkpt lat="41.7013256" lon="2.0617798"><ele>575.0</ele><time>2026-04-25T10:30:30.453Z</time></trkpt><trkpt lat="41.7012438" lon="2.061786"><ele>575.0</ele><time>2026-04-25T10:30:31.453Z</time></trkpt><trkpt lat="41.7011385" lon="2.0618064"><ele>573.75</ele><time>2026-04-25T10:30:32.453Z</time></trkpt><trkpt lat="41.7010277" lon="2.0618378"><ele>572.5</ele><time>2026-04-25T10:30:33.453Z</time></trkpt><trkpt lat="41.7009125" lon="2.0618675"><ele>571.25</ele><time>2026-04-25T10:30:34.453Z</time></trkpt><trkpt lat="41.7007985" lon="2.0618905"><ele>570.0</ele><time>2026-04-25T10:30:35.453Z</time></trkpt><trkpt lat="41.7006838" lon="2.0619006"><ele>570.0</ele><time>2026-04-25T10:30:36.453Z</time></trkpt><trkpt lat="41.7005655" lon="2.0619128"><ele>570.0</ele><time>2026-04-25T10:30:37.453Z</time></trkpt><trkpt lat="41.7004552" lon="2.0619177"><ele>570.0</ele><time>2026-04-25T10:30:38.453Z</time></trkpt><trkpt lat="41.7003541" lon="2.0619169"><ele>570.0</ele><time>2026-04-25T10:30:39.452Z</time></trkpt><trkpt lat="41.7002683" lon="2.0619145"><ele>570.0</ele><time>2026-04-25T10:30:40.453Z</time></trkpt><trkpt lat="41.7002005" lon="2.0619154"><ele>568.8333333333334</ele><time>2026-04-25T10:30:41.453Z</time></trkpt><trkpt lat="41.7000877" lon="2.0619269"><ele>567.6666666666666</ele><time>2026-04-25T10:30:43.453Z</time></trkpt><trkpt lat="41.6999704" lon="2.0619365"><ele>566.5</ele><time>2026-04-25T10:30:45.453Z</time></trkpt><trkpt lat="41.6999047" lon="2.0619478"><ele>565.3333333333333</ele><time>2026-04-25T10:30:46.452Z</time></trkpt><trkpt lat="41.6998376" lon="2.0619575"><ele>564.1666666666666</ele><time>2026-04-25T10:30:47.453Z</time></trkpt><trkpt lat="41.6997762" lon="2.0619796"><ele>563.0</ele><time>2026-04-25T10:30:48.453Z</time></trkpt><trkpt lat="41.699704" lon="2.0620045"><ele>563.0</ele><time>2026-04-25T10:30:49.453Z</time></trkpt><trkpt lat="41.69962" lon="2.0620483"><ele>563.0</ele><time>2026-04-25T10:30:50.453Z</time></trkpt><trkpt lat="41.6995378" lon="2.0620888"><ele>563.0</ele><time>2026-04-25T10:30:51.453Z</time></trkpt><trkpt lat="41.6994597" lon="2.062123"><ele>563.0</ele><time>2026-04-25T10:30:52.453Z</time></trkpt><trkpt lat="41.6993908" lon="2.0621548"><ele>563.0</ele><time>2026-04-25T10:30:53.453Z</time></trkpt><trkpt lat="41.6993263" lon="2.0621909"><ele>563.0</ele><time>2026-04-25T10:30:54.453Z</time></trkpt><trkpt lat="41.6992646" lon="2.0622612"><ele>561.8</ele><time>2026-04-25T10:30:55.453Z</time></trkpt><trkpt lat="41.6991883" lon="2.062346"><ele>560.5999999999999</ele><time>2026-04-25T10:30:56.453Z</time></trkpt><trkpt lat="41.6991069" lon="2.0624455"><ele>559.4000000000001</ele><time>2026-04-25T10:30:57.453Z</time></trkpt><trkpt lat="41.6990135" lon="2.0625338"><ele>558.2</ele><time>2026-04-25T10:30:58.453Z</time></trkpt><trkpt lat="41.6989184" lon="2.0626129"><ele>557.0</ele><time>2026-04-25T10:30:59.453Z</time></trkpt><trkpt lat="41.6988232" lon="2.0626761"><ele>556.5</ele><time>2026-04-25T10:31:00.453Z</time></trkpt><trkpt lat="41.6987336" lon="2.0627426"><ele>556.0</ele><time>2026-04-25T10:31:01.453Z</time></trkpt><trkpt lat="41.6986545" lon="2.0628017"><ele>555.5</ele><time>2026-04-25T10:31:02.453Z</time></trkpt><trkpt lat="41.6985915" lon="2.062838"><ele>555.0</ele><time>2026-04-25T10:31:03.453Z</time></trkpt><trkpt lat="41.6984946" lon="2.0628611"><ele>554.5</ele><time>2026-04-25T10:31:05.453Z</time></trkpt><trkpt lat="41.6984278" lon="2.0628068"><ele>554.0</ele><time>2026-04-25T10:31:06.453Z</time></trkpt><trkpt lat="41.6983646" lon="2.0627236"><ele>552.4</ele><time>2026-04-25T10:31:07.453Z</time></trkpt><trkpt lat="41.698307" lon="2.0626402"><ele>550.8</ele><time>2026-04-25T10:31:08.453Z</time></trkpt><trkpt lat="41.6981858" lon="2.062599"><ele>549.2</ele><time>2026-04-25T10:31:10.453Z</time></trkpt><trkpt lat="41.6981111" lon="2.0626157"><ele>547.6</ele><time>2026-04-25T10:31:11.453Z</time></trkpt><trkpt lat="41.6980202" lon="2.0626553"><ele>546.0</ele><time>2026-04-25T10:31:12.453Z</time></trkpt><trkpt lat="41.6979277" lon="2.062711"><ele>546.0</ele><time>2026-04-25T10:31:13.453Z</time></trkpt><trkpt lat="41.6978468" lon="2.0627553"><ele>546.0</ele><time>2026-04-25T10:31:14.452Z</time></trkpt><trkpt lat="41.6977638" lon="2.0627885"><ele>546.0</ele><time>2026-04-25T10:31:15.453Z</time></trkpt><trkpt lat="41.697678" lon="2.0627914"><ele>546.0</ele><time>2026-04-25T10:31:16.453Z</time></trkpt><trkpt lat="41.6975928" lon="2.0627701"><ele>546.0</ele><time>2026-04-25T10:31:17.453Z</time></trkpt><trkpt lat="41.6975033" lon="2.0627495"><ele>546.0</ele><time>2026-04-25T10:31:18.453Z</time></trkpt><trkpt lat="41.6974039" lon="2.0627466"><ele>545.2</ele><time>2026-04-25T10:31:19.453Z</time></trkpt><trkpt lat="41.6973068" lon="2.0627637"><ele>544.4000000000001</ele><time>2026-04-25T10:31:20.453Z</time></trkpt><trkpt lat="41.6972097" lon="2.0627852"><ele>543.6</ele><time>2026-04-25T10:31:21.453Z</time></trkpt><trkpt lat="41.6971201" lon="2.0628104"><ele>542.8000000000001</ele><time>2026-04-25T10:31:22.453Z</time></trkpt><trkpt lat="41.697021" lon="2.0628345"><ele>542.0</ele><time>2026-04-25T10:31:23.453Z</time></trkpt><trkpt lat="41.6969119" lon="2.0628466"><ele>541.75</ele><time>2026-04-25T10:31:24.453Z</time></trkpt><trkpt lat="41.6967941" lon="2.062857"><ele>541.5</ele><time>2026-04-25T10:31:25.453Z</time></trkpt><trkpt lat="41.6966674" lon="2.0628497"><ele>541.25</ele><time>2026-04-25T10:31:26.453Z</time></trkpt><trkpt lat="41.6965286" lon="2.0628259"><ele>541.0</ele><time>2026-04-25T10:31:27.453Z</time></trkpt><trkpt lat="41.6963916" lon="2.0628026"><ele>541.0</ele><time>2026-04-25T10:31:28.453Z</time></trkpt><trkpt lat="41.6962633" lon="2.0627779"><ele>541.0</ele><time>2026-04-25T10:31:29.452Z</time></trkpt><trkpt lat="41.6961318" lon="2.0627619"><ele>541.0</ele><time>2026-04-25T10:31:30.453Z</time></trkpt><trkpt lat="41.6960013" lon="2.0627516"><ele>541.0</ele><time>2026-04-25T10:31:31.453Z</time></trkpt><trkpt lat="41.695883" lon="2.0627308"><ele>539.25</ele><time>2026-04-25T10:31:32.453Z</time></trkpt><trkpt lat="41.695765" lon="2.0627103"><ele>537.5</ele><time>2026-04-25T10:31:33.453Z</time></trkpt><trkpt lat="41.6956458" lon="2.0627048"><ele>535.75</ele><time>2026-04-25T10:31:34.453Z</time></trkpt><trkpt lat="41.6955251" lon="2.0627066"><ele>534.0</ele><time>2026-04-25T10:31:35.452Z</time></trkpt><trkpt lat="41.6954059" lon="2.0627158"><ele>534.0</ele><time>2026-04-25T10:31:36.453Z</time></trkpt><trkpt lat="41.6952888" lon="2.0627327"><ele>534.0</ele><time>2026-04-25T10:31:37.453Z</time></trkpt><trkpt lat="41.6951779" lon="2.0627385"><ele>534.0</ele><time>2026-04-25T10:31:38.453Z</time></trkpt><trkpt lat="41.6950618" lon="2.0627467"><ele>534.0</ele><time>2026-04-25T10:31:39.453Z</time></trkpt><trkpt lat="41.6949433" lon="2.0627556"><ele>532.8</ele><time>2026-04-25T10:31:40.452Z</time></trkpt><trkpt lat="41.6948373" lon="2.062751"><ele>531.5999999999999</ele><time>2026-04-25T10:31:41.453Z</time></trkpt><trkpt lat="41.6947283" lon="2.0627376"><ele>530.4</ele><time>2026-04-25T10:31:42.453Z</time></trkpt><trkpt lat="41.6946137" lon="2.0627101"><ele>529.1999999999999</ele><time>2026-04-25T10:31:43.453Z</time></trkpt><trkpt lat="41.6944996" lon="2.0626848"><ele>528.0</ele><time>2026-04-25T10:31:44.452Z</time></trkpt><trkpt lat="41.6943909" lon="2.0626703"><ele>527.6</ele><time>2026-04-25T10:31:45.453Z</time></trkpt><trkpt lat="41.6942906" lon="2.0626671"><ele>527.1999999999999</ele><time>2026-04-25T10:31:46.458Z</time></trkpt><trkpt lat="41.6941847" lon="2.0626895"><ele>526.8</ele><time>2026-04-25T10:31:47.458Z</time></trkpt><trkpt lat="41.6940725" lon="2.0627304"><ele>526.4</ele><time>2026-04-25T10:31:48.458Z</time></trkpt><trkpt lat="41.693967" lon="2.062773"><ele>526.0</ele><time>2026-04-25T10:31:49.458Z</time></trkpt><trkpt lat="41.6938747" lon="2.0628035"><ele>526.0</ele><time>2026-04-25T10:31:50.458Z</time></trkpt><trkpt lat="41.6937978" lon="2.0628147"><ele>526.0</ele><time>2026-04-25T10:31:51.458Z</time></trkpt><trkpt lat="41.6937331" lon="2.0628089"><ele>526.0</ele><time>2026-04-25T10:31:52.458Z</time></trkpt><trkpt lat="41.693671" lon="2.0627795"><ele>526.0</ele><time>2026-04-25T10:31:53.458Z</time></trkpt><trkpt lat="41.6936056" lon="2.0627186"><ele>526.0</ele><time>2026-04-25T10:31:54.458Z</time></trkpt><trkpt lat="41.6935237" lon="2.0626545"><ele>526.0</ele><time>2026-04-25T10:31:55.458Z</time></trkpt><trkpt lat="41.6934376" lon="2.0625992"><ele>525.5</ele><time>2026-04-25T10:31:56.458Z</time></trkpt><trkpt lat="41.6933528" lon="2.0625495"><ele>525.0</ele><time>2026-04-25T10:31:57.458Z</time></trkpt><trkpt lat="41.6932736" lon="2.0625019"><ele>524.5</ele><time>2026-04-25T10:31:58.458Z</time></trkpt><trkpt lat="41.6932075" lon="2.0624417"><ele>524.0</ele><time>2026-04-25T10:31:59.457Z</time></trkpt><trkpt lat="41.6931597" lon="2.0623595"><ele>523.5</ele><time>2026-04-25T10:32:00.457Z</time></trkpt><trkpt lat="41.6931113" lon="2.0622467"><ele>523.0</ele><time>2026-04-25T10:32:01.457Z</time></trkpt><trkpt lat="41.6930736" lon="2.0621324"><ele>523.0</ele><time>2026-04-25T10:32:02.458Z</time></trkpt><trkpt lat="41.69303" lon="2.0620215"><ele>523.0</ele><time>2026-04-25T10:32:03.458Z</time></trkpt><trkpt lat="41.6929676" lon="2.0619167"><ele>523.0</ele><time>2026-04-25T10:32:04.458Z</time></trkpt><trkpt lat="41.6928892" lon="2.0618104"><ele>523.0</ele><time>2026-04-25T10:32:05.458Z</time></trkpt><trkpt lat="41.6928104" lon="2.0617025"><ele>523.0</ele><time>2026-04-25T10:32:06.458Z</time></trkpt><trkpt lat="41.6927463" lon="2.0615953"><ele>523.8</ele><time>2026-04-25T10:32:07.457Z</time></trkpt><trkpt lat="41.6926826" lon="2.0614989"><ele>524.5999999999999</ele><time>2026-04-25T10:32:08.458Z</time></trkpt><trkpt lat="41.6926178" lon="2.0614161"><ele>525.4000000000001</ele><time>2026-04-25T10:32:09.458Z</time></trkpt><trkpt lat="41.6925439" lon="2.0613463"><ele>526.2</ele><time>2026-04-25T10:32:10.458Z</time></trkpt><trkpt lat="41.6924563" lon="2.0612955"><ele>527.0</ele><time>2026-04-25T10:32:11.458Z</time></trkpt><trkpt lat="41.6923489" lon="2.0612637"><ele>527.0</ele><time>2026-04-25T10:32:12.458Z</time></trkpt><trkpt lat="41.6922263" lon="2.0612345"><ele>527.0</ele><time>2026-04-25T10:32:13.458Z</time></trkpt><trkpt lat="41.6920959" lon="2.0612146"><ele>527.0</ele><time>2026-04-25T10:32:14.458Z</time></trkpt><trkpt lat="41.6919545" lon="2.0612021"><ele>527.0</ele><time>2026-04-25T10:32:15.458Z</time></trkpt><trkpt lat="41.691803" lon="2.0611932"><ele>527.25</ele><time>2026-04-25T10:32:16.458Z</time></trkpt><trkpt lat="41.6916604" lon="2.0611889"><ele>527.5</ele><time>2026-04-25T10:32:17.458Z</time></trkpt><trkpt lat="41.6915435" lon="2.0611774"><ele>527.75</ele><time>2026-04-25T10:32:18.457Z</time></trkpt><trkpt lat="41.6914347" lon="2.0611626"><ele>528.0</ele><time>2026-04-25T10:32:19.458Z</time></trkpt><trkpt lat="41.6913529" lon="2.0611468"><ele>528.0</ele><time>2026-04-25T10:32:20.458Z</time></trkpt><trkpt lat="41.6912717" lon="2.0611402"><ele>528.0</ele><time>2026-04-25T10:32:21.457Z</time></trkpt><trkpt lat="41.6911778" lon="2.0611082"><ele>528.0</ele><time>2026-04-25T10:32:22.457Z</time></trkpt><trkpt lat="41.6910726" lon="2.0610653"><ele>528.0</ele><time>2026-04-25T10:32:23.458Z</time></trkpt><trkpt lat="41.6909831" lon="2.0610195"><ele>528.0</ele><time>2026-04-25T10:32:24.458Z</time></trkpt><trkpt lat="41.6909081" lon="2.060968"><ele>529.1999999999999</ele><time>2026-04-25T10:32:25.458Z</time></trkpt><trkpt lat="41.6908357" lon="2.0608957"><ele>530.4</ele><time>2026-04-25T10:32:26.457Z</time></trkpt><trkpt lat="41.6907636" lon="2.0608122"><ele>531.5999999999999</ele><time>2026-04-25T10:32:27.457Z</time></trkpt><trkpt lat="41.6906751" lon="2.0607471"><ele>532.8</ele><time>2026-04-25T10:32:28.458Z</time></trkpt><trkpt lat="41.6905808" lon="2.0606818"><ele>534.0</ele><time>2026-04-25T10:32:29.458Z</time></trkpt><trkpt lat="41.6904932" lon="2.0606115"><ele>534.0</ele><time>2026-04-25T10:32:30.458Z</time></trkpt><trkpt lat="41.6904028" lon="2.0605171"><ele>534.0</ele><time>2026-04-25T10:32:31.458Z</time></trkpt><trkpt lat="41.6903083" lon="2.0604325"><ele>534.0</ele><time>2026-04-25T10:32:32.458Z</time></trkpt><trkpt lat="41.6902043" lon="2.0603498"><ele>534.0</ele><time>2026-04-25T10:32:33.458Z</time></trkpt><trkpt lat="41.6901007" lon="2.0602699"><ele>533.2</ele><time>2026-04-25T10:32:34.458Z</time></trkpt><trkpt lat="41.6900115" lon="2.060184"><ele>532.4</ele><time>2026-04-25T10:32:35.458Z</time></trkpt><trkpt lat="41.6899384" lon="2.0600886"><ele>531.6</ele><time>2026-04-25T10:32:36.458Z</time></trkpt><trkpt lat="41.6898663" lon="2.0599763"><ele>530.8</ele><time>2026-04-25T10:32:37.458Z</time></trkpt><trkpt lat="41.6897981" lon="2.0598627"><ele>530.0</ele><time>2026-04-25T10:32:38.457Z</time></trkpt><trkpt lat="41.689723" lon="2.0597723"><ele>530.0</ele><time>2026-04-25T10:32:39.458Z</time></trkpt><trkpt lat="41.6896421" lon="2.0596769"><ele>530.0</ele><time>2026-04-25T10:32:40.457Z</time></trkpt><trkpt lat="41.6895547" lon="2.059569"><ele>530.0</ele><time>2026-04-25T10:32:41.458Z</time></trkpt><trkpt lat="41.6894615" lon="2.0594688"><ele>530.0</ele><time>2026-04-25T10:32:42.458Z</time></trkpt><trkpt lat="41.6893722" lon="2.0593838"><ele>526.25</ele><time>2026-04-25T10:32:43.458Z</time></trkpt><trkpt lat="41.6892663" lon="2.0593065"><ele>522.5</ele><time>2026-04-25T10:32:44.458Z</time></trkpt><trkpt lat="41.689141" lon="2.0592489"><ele>518.75</ele><time>2026-04-25T10:32:45.458Z</time></trkpt><trkpt lat="41.689007" lon="2.0591992"><ele>515.0</ele><time>2026-04-25T10:32:46.458Z</time></trkpt><trkpt lat="41.6888781" lon="2.059145"><ele>514.25</ele><time>2026-04-25T10:32:47.458Z</time></trkpt><trkpt lat="41.6887639" lon="2.0590933"><ele>513.5</ele><time>2026-04-25T10:32:48.458Z</time></trkpt><trkpt lat="41.6886547" lon="2.0590382"><ele>512.75</ele><time>2026-04-25T10:32:49.458Z</time></trkpt><trkpt lat="41.6885538" lon="2.0589724"><ele>512.0</ele><time>2026-04-25T10:32:50.458Z</time></trkpt><trkpt lat="41.6884507" lon="2.0588956"><ele>512.0</ele><time>2026-04-25T10:32:51.458Z</time></trkpt><trkpt lat="41.6883437" lon="2.0588166"><ele>512.0</ele><time>2026-04-25T10:32:52.458Z</time></trkpt><trkpt lat="41.6882438" lon="2.0587406"><ele>512.0</ele><time>2026-04-25T10:32:53.458Z</time></trkpt><trkpt lat="41.6881544" lon="2.0586638"><ele>512.0</ele><time>2026-04-25T10:32:54.457Z</time></trkpt><trkpt lat="41.6880883" lon="2.0585946"><ele>512.0</ele><time>2026-04-25T10:32:55.458Z</time></trkpt><trkpt lat="41.6880361" lon="2.0585279"><ele>511.99999999999994</ele><time>2026-04-25T10:32:56.458Z</time></trkpt><trkpt lat="41.6880012" lon="2.0584449"><ele>512.0</ele><time>2026-04-25T10:32:57.458Z</time></trkpt><trkpt lat="41.6879801" lon="2.0583457"><ele>512.0</ele><time>2026-04-25T10:32:58.458Z</time></trkpt><trkpt lat="41.6879737" lon="2.0582393"><ele>512.0</ele><time>2026-04-25T10:32:59.458Z</time></trkpt><trkpt lat="41.6879869" lon="2.0581423"><ele>511.99999999999994</ele><time>2026-04-25T10:33:00.458Z</time></trkpt><trkpt lat="41.6880232" lon="2.0580378"><ele>512.0</ele><time>2026-04-25T10:33:01.458Z</time></trkpt><trkpt lat="41.6880903" lon="2.0579324"><ele>510.0</ele><time>2026-04-25T10:33:02.457Z</time></trkpt><trkpt lat="41.6881675" lon="2.0578225"><ele>508.00000000000006</ele><time>2026-04-25T10:33:03.458Z</time></trkpt><trkpt lat="41.6882456" lon="2.0577291"><ele>506.00000000000006</ele><time>2026-04-25T10:33:04.458Z</time></trkpt><trkpt lat="41.6882981" lon="2.0576646"><ele>504.0</ele><time>2026-04-25T10:33:05.458Z</time></trkpt><trkpt lat="41.6883365" lon="2.057571"><ele>502.0</ele><time>2026-04-25T10:33:07.458Z</time></trkpt><trkpt lat="41.688246" lon="2.057513"><ele>502.00000000000006</ele><time>2026-04-25T10:33:10.458Z</time></trkpt><trkpt lat="41.6881857" lon="2.0575389"><ele>502.0</ele><time>2026-04-25T10:33:11.458Z</time></trkpt><trkpt lat="41.6880986" lon="2.057593"><ele>502.0</ele><time>2026-04-25T10:33:12.457Z</time></trkpt><trkpt lat="41.6880226" lon="2.057655"><ele>502.0</ele><time>2026-04-25T10:33:13.458Z</time></trkpt><trkpt lat="41.687947" lon="2.0576947"><ele>502.00000000000006</ele><time>2026-04-25T10:33:14.458Z</time></trkpt><trkpt lat="41.6878729" lon="2.0577105"><ele>502.0</ele><time>2026-04-25T10:33:15.458Z</time></trkpt><trkpt lat="41.6877947" lon="2.0577007"><ele>500.1666666666667</ele><time>2026-04-25T10:33:16.458Z</time></trkpt><trkpt lat="41.6877169" lon="2.0576654"><ele>498.33333333333337</ele><time>2026-04-25T10:33:17.458Z</time></trkpt><trkpt lat="41.6876235" lon="2.0576094"><ele>496.5</ele><time>2026-04-25T10:33:18.457Z</time></trkpt><trkpt lat="41.6875292" lon="2.0575681"><ele>494.66666666666663</ele><time>2026-04-25T10:33:19.458Z</time></trkpt><trkpt lat="41.6874488" lon="2.0575379"><ele>492.8333333333333</ele><time>2026-04-25T10:33:20.458Z</time></trkpt><trkpt lat="41.6873681" lon="2.0575162"><ele>491.0</ele><time>2026-04-25T10:33:21.458Z</time></trkpt><trkpt lat="41.6872918" lon="2.0574823"><ele>489.49999999999994</ele><time>2026-04-25T10:33:22.458Z</time></trkpt><trkpt lat="41.687211" lon="2.0574458"><ele>488.0</ele><time>2026-04-25T10:33:23.458Z</time></trkpt><trkpt lat="41.6871192" lon="2.0574119"><ele>486.5</ele><time>2026-04-25T10:33:24.458Z</time></trkpt><trkpt lat="41.6870257" lon="2.0573997"><ele>485.0</ele><time>2026-04-25T10:33:25.458Z</time></trkpt><trkpt lat="41.6869369" lon="2.0573894"><ele>483.49999999999994</ele><time>2026-04-25T10:33:26.458Z</time></trkpt><trkpt lat="41.6868574" lon="2.0573873"><ele>482.0</ele><time>2026-04-25T10:33:27.458Z</time></trkpt><trkpt lat="41.6867758" lon="2.0574099"><ele>482.3333333333333</ele><time>2026-04-25T10:33:28.458Z</time></trkpt><trkpt lat="41.686697" lon="2.0574473"><ele>482.66666666666663</ele><time>2026-04-25T10:33:29.458Z</time></trkpt><trkpt lat="41.6866198" lon="2.0574909"><ele>483.0</ele><time>2026-04-25T10:33:30.457Z</time></trkpt><trkpt lat="41.6865405" lon="2.0575292"><ele>483.33333333333337</ele><time>2026-04-25T10:33:31.458Z</time></trkpt><trkpt lat="41.686468" lon="2.0575477"><ele>483.6666666666667</ele><time>2026-04-25T10:33:32.458Z</time></trkpt><trkpt lat="41.6863934" lon="2.0575497"><ele>484.0</ele><time>2026-04-25T10:33:33.458Z</time></trkpt><trkpt lat="41.6863148" lon="2.0575421"><ele>484.0</ele><time>2026-04-25T10:33:34.457Z</time></trkpt><trkpt lat="41.686235" lon="2.0575438"><ele>484.0</ele><time>2026-04-25T10:33:35.457Z</time></trkpt><trkpt lat="41.6861645" lon="2.057552"><ele>484.0</ele><time>2026-04-25T10:33:36.458Z</time></trkpt><trkpt lat="41.6860513" lon="2.0575961"><ele>484.0</ele><time>2026-04-25T10:33:38.458Z</time></trkpt><trkpt lat="41.6859591" lon="2.0575999"><ele>484.0</ele><time>2026-04-25T10:33:40.458Z</time></trkpt><trkpt lat="41.6858643" lon="2.0575447"><ele>483.0</ele><time>2026-04-25T10:33:42.458Z</time></trkpt><trkpt lat="41.6857813" lon="2.0575499"><ele>482.0</ele><time>2026-04-25T10:33:45.457Z</time></trkpt><trkpt lat="41.6857035" lon="2.0576209"><ele>481.0</ele><time>2026-04-25T10:33:47.458Z</time></trkpt><trkpt lat="41.6856211" lon="2.0576514"><ele>480.0</ele><time>2026-04-25T10:33:49.458Z</time></trkpt><trkpt lat="41.6855337" lon="2.0576337"><ele>479.0</ele><time>2026-04-25T10:33:51.458Z</time></trkpt><trkpt lat="41.6854328" lon="2.0575312"><ele>479.0</ele><time>2026-04-25T10:33:53.458Z</time></trkpt><trkpt lat="41.6853841" lon="2.0574739"><ele>479.0</ele><time>2026-04-25T10:33:54.458Z</time></trkpt><trkpt lat="41.6853214" lon="2.0573979"><ele>479.0</ele><time>2026-04-25T10:33:55.458Z</time></trkpt><trkpt lat="41.6852383" lon="2.0573189"><ele>479.0</ele><time>2026-04-25T10:33:56.458Z</time></trkpt><trkpt lat="41.6851533" lon="2.0572366"><ele>479.0</ele><time>2026-04-25T10:33:57.457Z</time></trkpt><trkpt lat="41.6850663" lon="2.0571457"><ele>478.99999999999994</ele><time>2026-04-25T10:33:58.458Z</time></trkpt><trkpt lat="41.6849919" lon="2.057056"><ele>479.0</ele><time>2026-04-25T10:33:59.457Z</time></trkpt><trkpt lat="41.6849273" lon="2.0569915"><ele>479.0</ele><time>2026-04-25T10:34:00.458Z</time></trkpt><trkpt lat="41.6848705" lon="2.0569505"><ele>479.0</ele><time>2026-04-25T10:34:01.457Z</time></trkpt><trkpt lat="41.6847995" lon="2.0569477"><ele>478.99999999999994</ele><time>2026-04-25T10:34:02.458Z</time></trkpt><trkpt lat="41.6847206" lon="2.0569604"><ele>479.0</ele><time>2026-04-25T10:34:03.458Z</time></trkpt><trkpt lat="41.6846136" lon="2.0569782"><ele>479.0</ele><time>2026-04-25T10:34:04.458Z</time></trkpt><trkpt lat="41.6845009" lon="2.0569962"><ele>479.0</ele><time>2026-04-25T10:34:05.458Z</time></trkpt><trkpt lat="41.6843878" lon="2.0570141"><ele>479.0</ele><time>2026-04-25T10:34:06.458Z</time></trkpt><trkpt lat="41.6842813" lon="2.0570251"><ele>479.0</ele><time>2026-04-25T10:34:07.458Z</time></trkpt><trkpt lat="41.684177" lon="2.0570362"><ele>479.0</ele><time>2026-04-25T10:34:08.457Z</time></trkpt><trkpt lat="41.684076" lon="2.0570464"><ele>479.16666666666663</ele><time>2026-04-25T10:34:09.458Z</time></trkpt><trkpt lat="41.6839753" lon="2.0570511"><ele>479.3333333333333</ele><time>2026-04-25T10:34:10.457Z</time></trkpt><trkpt lat="41.6838922" lon="2.0570569"><ele>479.5</ele><time>2026-04-25T10:34:11.457Z</time></trkpt><trkpt lat="41.68381" lon="2.0570641"><ele>479.66666666666663</ele><time>2026-04-25T10:34:12.458Z</time></trkpt><trkpt lat="41.6837362" lon="2.057072"><ele>479.8333333333333</ele><time>2026-04-25T10:34:13.458Z</time></trkpt><trkpt lat="41.6836299" lon="2.0570841"><ele>480.0</ele><time>2026-04-25T10:34:15.458Z</time></trkpt><trkpt lat="41.6835602" lon="2.0570855"><ele>479.6</ele><time>2026-04-25T10:34:39.458Z</time></trkpt><trkpt lat="41.6834975" lon="2.0570941"><ele>479.2</ele><time>2026-04-25T10:34:41.458Z</time></trkpt><trkpt lat="41.6833929" lon="2.0571133"><ele>478.79999999999995</ele><time>2026-04-25T10:34:44.457Z</time></trkpt><trkpt lat="41.6832814" lon="2.0571254"><ele>478.4</ele><time>2026-04-25T10:34:46.458Z</time></trkpt><trkpt lat="41.6832038" lon="2.0571385"><ele>478.0</ele><time>2026-04-25T10:34:48.458Z</time></trkpt><trkpt lat="41.6830984" lon="2.0571746"><ele>478.00000000000006</ele><time>2026-04-25T10:34:50.458Z</time></trkpt><trkpt lat="41.6830084" lon="2.0572044"><ele>478.0</ele><time>2026-04-25T10:34:52.457Z</time></trkpt><trkpt lat="41.6829285" lon="2.0572601"><ele>478.0</ele><time>2026-04-25T10:34:54.458Z</time></trkpt><trkpt lat="41.6828514" lon="2.0573377"><ele>478.0</ele><time>2026-04-25T10:34:56.458Z</time></trkpt><trkpt lat="41.6827922" lon="2.0573799"><ele>478.00000000000006</ele><time>2026-04-25T10:34:58.458Z</time></trkpt><trkpt lat="41.6828554" lon="2.0573786"><ele>478.0</ele><time>2026-04-25T10:35:20.457Z</time></trkpt><trkpt lat="41.682955" lon="2.0573269"><ele>478.0</ele><time>2026-04-25T10:35:22.458Z</time></trkpt><trkpt lat="41.6830742" lon="2.0573184"><ele>477.99999999999994</ele><time>2026-04-25T10:35:24.458Z</time></trkpt><trkpt lat="41.6831814" lon="2.057339"><ele>477.99999999999994</ele><time>2026-04-25T10:35:26.457Z</time></trkpt><trkpt lat="41.6832551" lon="2.0573989"><ele>478.0</ele><time>2026-04-25T10:35:28.458Z</time></trkpt><trkpt lat="41.6833418" lon="2.0574944"><ele>478.0</ele><time>2026-04-25T10:35:30.458Z</time></trkpt><trkpt lat="41.6834115" lon="2.0576009"><ele>480.0</ele><time>2026-04-25T10:35:32.458Z</time></trkpt><trkpt lat="41.6834637" lon="2.0577121"><ele>481.99999999999994</ele><time>2026-04-25T10:35:34.458Z</time></trkpt><trkpt lat="41.6835189" lon="2.057839"><ele>483.99999999999994</ele><time>2026-04-25T10:35:36.458Z</time></trkpt><trkpt lat="41.6835574" lon="2.0579769"><ele>486.0</ele><time>2026-04-25T10:35:38.458Z</time></trkpt><trkpt lat="41.683583" lon="2.0580708"><ele>488.0</ele><time>2026-04-25T10:35:40.458Z</time></trkpt><trkpt lat="41.683636" lon="2.0581164"><ele>488.0</ele><time>2026-04-25T10:35:42.458Z</time></trkpt><trkpt lat="41.6837373" lon="2.0581611"><ele>488.0</ele><time>2026-04-25T10:35:44.458Z</time></trkpt><trkpt lat="41.6838503" lon="2.0581864"><ele>488.0</ele><time>2026-04-25T10:35:46.458Z</time></trkpt><trkpt lat="41.6839505" lon="2.0581964"><ele>488.0</ele><time>2026-04-25T10:35:48.458Z</time></trkpt><trkpt lat="41.6840887" lon="2.0581969"><ele>487.99999999999994</ele><time>2026-04-25T10:35:50.458Z</time></trkpt><trkpt lat="41.6841569" lon="2.0581965"><ele>488.0</ele><time>2026-04-25T10:35:51.457Z</time></trkpt><trkpt lat="41.6842809" lon="2.0582206"><ele>488.0</ele><time>2026-04-25T10:35:53.458Z</time></trkpt><trkpt lat="41.6843436" lon="2.0582394"><ele>488.0</ele><time>2026-04-25T10:35:54.458Z</time></trkpt><trkpt lat="41.6844413" lon="2.0582953"><ele>487.99999999999994</ele><time>2026-04-25T10:35:56.458Z</time></trkpt><trkpt lat="41.6844939" lon="2.05837"><ele>488.0</ele><time>2026-04-25T10:35:59.457Z</time></trkpt><trkpt lat="41.6845224" lon="2.0584559"><ele>488.3333333333333</ele><time>2026-04-25T10:36:02.458Z</time></trkpt><trkpt lat="41.6844852" lon="2.0585711"><ele>488.66666666666663</ele><time>2026-04-25T10:36:04.458Z</time></trkpt><trkpt lat="41.6844158" lon="2.0586834"><ele>489.0</ele><time>2026-04-25T10:36:06.458Z</time></trkpt><trkpt lat="41.6843727" lon="2.0587566"><ele>489.33333333333337</ele><time>2026-04-25T10:36:07.458Z</time></trkpt><trkpt lat="41.6843226" lon="2.058838"><ele>489.6666666666667</ele><time>2026-04-25T10:36:08.458Z</time></trkpt><trkpt lat="41.6842728" lon="2.0589092"><ele>490.0</ele><time>2026-04-25T10:36:09.458Z</time></trkpt><trkpt lat="41.6842255" lon="2.058986"><ele>490.6666666666667</ele><time>2026-04-25T10:36:10.458Z</time></trkpt><trkpt lat="41.6841791" lon="2.0590825"><ele>491.33333333333337</ele><time>2026-04-25T10:36:11.458Z</time></trkpt><trkpt lat="41.6841364" lon="2.0591825"><ele>492.0</ele><time>2026-04-25T10:36:12.458Z</time></trkpt><trkpt lat="41.6841053" lon="2.0592696"><ele>492.66666666666663</ele><time>2026-04-25T10:36:13.458Z</time></trkpt><trkpt lat="41.6840811" lon="2.0593531"><ele>493.3333333333333</ele><time>2026-04-25T10:36:14.458Z</time></trkpt><trkpt lat="41.6840638" lon="2.0594363"><ele>494.0</ele><time>2026-04-25T10:36:15.458Z</time></trkpt><trkpt lat="41.6840388" lon="2.0596001"><ele>494.6</ele><time>2026-04-25T10:36:17.458Z</time></trkpt><trkpt lat="41.6840044" lon="2.059752"><ele>495.2</ele><time>2026-04-25T10:36:19.458Z</time></trkpt><trkpt lat="41.6839604" lon="2.059878"><ele>495.80000000000007</ele><time>2026-04-25T10:36:21.458Z</time></trkpt><trkpt lat="41.6839532" lon="2.0600105"><ele>496.40000000000003</ele><time>2026-04-25T10:36:23.457Z</time></trkpt><trkpt lat="41.6839429" lon="2.0601764"><ele>497.0</ele><time>2026-04-25T10:36:25.458Z</time></trkpt><trkpt lat="41.683924" lon="2.06031"><ele>498.3333333333333</ele><time>2026-04-25T10:36:27.457Z</time></trkpt><trkpt lat="41.6839055" lon="2.0604294"><ele>499.66666666666663</ele><time>2026-04-25T10:36:29.457Z</time></trkpt><trkpt lat="41.6839219" lon="2.0605275"><ele>501.0</ele><time>2026-04-25T10:36:31.457Z</time></trkpt><trkpt lat="41.6839" lon="2.0606607"><ele>502.33333333333337</ele><time>2026-04-25T10:36:34.457Z</time></trkpt><trkpt lat="41.6838399" lon="2.0607405"><ele>503.6666666666667</ele><time>2026-04-25T10:36:36.457Z</time></trkpt><trkpt lat="41.6837923" lon="2.0608196"><ele>505.0</ele><time>2026-04-25T10:36:38.457Z</time></trkpt><trkpt lat="41.6837316" lon="2.0608952"><ele>506.00000000000006</ele><time>2026-04-25T10:36:41.457Z</time></trkpt><trkpt lat="41.6836698" lon="2.0609481"><ele>507.0</ele><time>2026-04-25T10:36:44.457Z</time></trkpt><trkpt lat="41.683618" lon="2.0610269"><ele>508.0</ele><time>2026-04-25T10:36:48.457Z</time></trkpt><trkpt lat="41.6835601" lon="2.0610676"><ele>509.0</ele><time>2026-04-25T10:37:15.457Z</time></trkpt><trkpt lat="41.6835866" lon="2.0609729"><ele>510.00000000000006</ele><time>2026-04-25T10:37:18.457Z</time></trkpt><trkpt lat="41.6836767" lon="2.0609187"><ele>511.0</ele><time>2026-04-25T10:37:20.457Z</time></trkpt><trkpt lat="41.6837508" lon="2.06085"><ele>511.2857142857143</ele><time>2026-04-25T10:37:22.457Z</time></trkpt><trkpt lat="41.6838105" lon="2.0608025"><ele>511.57142857142856</ele><time>2026-04-25T10:37:24.457Z</time></trkpt><trkpt lat="41.683821" lon="2.060891"><ele>511.8571428571429</ele><time>2026-04-25T10:38:07.475Z</time></trkpt><trkpt lat="41.6837569" lon="2.0608787"><ele>512.1428571428571</ele><time>2026-04-25T10:40:01.446Z</time></trkpt><trkpt lat="41.6837687" lon="2.0609617"><ele>512.4285714285714</ele><time>2026-04-25T10:40:13.462Z</time></trkpt><trkpt lat="41.6838259" lon="2.0610176"><ele>512.7142857142858</ele><time>2026-04-25T10:40:29.463Z</time></trkpt><trkpt lat="41.6837978" lon="2.0609211"><ele>513.0</ele><time>2026-04-25T10:40:35.462Z</time></trkpt><trkpt lat="41.6837672" lon="2.060845"><ele>513.0000000000001</ele><time>2026-04-25T10:40:40.462Z</time></trkpt><trkpt lat="41.6838266" lon="2.0607884"><ele>513.0</ele><time>2026-04-25T10:40:48.485Z</time></trkpt><trkpt lat="41.6837714" lon="2.0608475"><ele>513.0</ele><time>2026-04-25T10:41:04.461Z</time></trkpt><trkpt lat="41.6837131" lon="2.0609072"><ele>513.0</ele><time>2026-04-25T10:42:39.482Z</time></trkpt><trkpt lat="41.6837109" lon="2.0610075"><ele>513.0</ele><time>2026-04-25T10:42:44.462Z</time></trkpt><trkpt lat="41.6837525" lon="2.0610904"><ele>513.0000000000001</ele><time>2026-04-25T10:42:50.473Z</time></trkpt><trkpt lat="41.6838148" lon="2.0611343"><ele>513.0</ele><time>2026-04-25T10:42:56.462Z</time></trkpt><trkpt lat="41.6838735" lon="2.0611675"><ele>513.0000000000001</ele><time>2026-04-25T10:43:01.466Z</time></trkpt><trkpt lat="41.68392" lon="2.0612285"><ele>513.0</ele><time>2026-04-25T10:43:09.461Z</time></trkpt><trkpt lat="41.6838835" lon="2.0611484"><ele>513.0</ele><time>2026-04-25T10:43:26.476Z</time></trkpt><trkpt lat="41.6838318" lon="2.0610752"><ele>513.0</ele><time>2026-04-25T10:43:31.518Z</time></trkpt><trkpt lat="41.6837577" lon="2.0610643"><ele>513.0</ele><time>2026-04-25T10:43:36.344Z</time></trkpt><trkpt lat="41.6837222" lon="2.0609712"><ele>513.0000000000001</ele><time>2026-04-25T10:43:41.462Z</time></trkpt><trkpt lat="41.6837316" lon="2.0608832"><ele>513.0</ele><time>2026-04-25T10:43:46.462Z</time></trkpt><trkpt lat="41.6837868" lon="2.0608408"><ele>513.0</ele><time>2026-04-25T10:43:51.502Z</time></trkpt><trkpt lat="41.6838496" lon="2.0608189"><ele>513.0</ele><time>2026-04-25T10:43:57.462Z</time></trkpt><trkpt lat="41.6837458" lon="2.0608599"><ele>513.0</ele><time>2026-04-25T10:45:56.467Z</time></trkpt><trkpt lat="41.6836894" lon="2.0609068"><ele>513.0</ele><time>2026-04-25T10:45:57.467Z</time></trkpt><trkpt lat="41.6836288" lon="2.0609753"><ele>513.0</ele><time>2026-04-25T10:45:59.466Z</time></trkpt><trkpt lat="41.6836469" lon="2.0610899"><ele>513.0</ele><time>2026-04-25T10:46:02.467Z</time></trkpt><trkpt lat="41.6837003" lon="2.0611372"><ele>513.0</ele><time>2026-04-25T10:46:04.466Z</time></trkpt><trkpt lat="41.6837042" lon="2.0612242"><ele>513.0</ele><time>2026-04-25T10:46:07.467Z</time></trkpt><trkpt lat="41.6836496" lon="2.0613215"><ele>513.0</ele><time>2026-04-25T10:46:09.467Z</time></trkpt><trkpt lat="41.6835269" lon="2.0613839"><ele>513.0</ele><time>2026-04-25T10:46:11.467Z</time></trkpt><trkpt lat="41.6834653" lon="2.0614173"><ele>513.0</ele><time>2026-04-25T10:46:12.466Z</time></trkpt><trkpt lat="41.683405" lon="2.0615392"><ele>513.4</ele><time>2026-04-25T10:46:14.467Z</time></trkpt><trkpt lat="41.6834396" lon="2.0617001"><ele>513.8</ele><time>2026-04-25T10:46:16.467Z</time></trkpt><trkpt lat="41.683485" lon="2.061779"><ele>514.2</ele><time>2026-04-25T10:46:17.467Z</time></trkpt><trkpt lat="41.6835338" lon="2.0618642"><ele>514.6</ele><time>2026-04-25T10:46:18.467Z</time></trkpt><trkpt lat="41.6835752" lon="2.0619376"><ele>515.0</ele><time>2026-04-25T10:46:19.467Z</time></trkpt><trkpt lat="41.6836392" lon="2.0620549"><ele>515.0</ele><time>2026-04-25T10:46:21.466Z</time></trkpt><trkpt lat="41.6836557" lon="2.062161"><ele>515.0</ele><time>2026-04-25T10:46:23.467Z</time></trkpt><trkpt lat="41.6836074" lon="2.0622769"><ele>515.0</ele><time>2026-04-25T10:46:25.467Z</time></trkpt><trkpt lat="41.6835872" lon="2.0623772"><ele>515.0</ele><time>2026-04-25T10:46:27.467Z</time></trkpt><trkpt lat="41.6836436" lon="2.0624868"><ele>515.0</ele><time>2026-04-25T10:46:29.467Z</time></trkpt><trkpt lat="41.6837015" lon="2.0625559"><ele>515.0</ele><time>2026-04-25T10:46:30.467Z</time></trkpt><trkpt lat="41.6837679" lon="2.0626189"><ele>514.6666666666666</ele><time>2026-04-25T10:46:31.467Z</time></trkpt><trkpt lat="41.6838429" lon="2.0626648"><ele>514.3333333333333</ele><time>2026-04-25T10:46:32.467Z</time></trkpt><trkpt lat="41.6839237" lon="2.0626981"><ele>514.0</ele><time>2026-04-25T10:46:33.467Z</time></trkpt><trkpt lat="41.6840042" lon="2.0627184"><ele>513.6666666666666</ele><time>2026-04-25T10:46:34.467Z</time></trkpt><trkpt lat="41.6840859" lon="2.0627326"><ele>513.3333333333334</ele><time>2026-04-25T10:46:35.467Z</time></trkpt><trkpt lat="41.6841651" lon="2.0627361"><ele>513.0</ele><time>2026-04-25T10:46:36.467Z</time></trkpt><trkpt lat="41.6842886" lon="2.0627439"><ele>513.0</ele><time>2026-04-25T10:46:38.467Z</time></trkpt><trkpt lat="41.6843568" lon="2.0627618"><ele>513.0</ele><time>2026-04-25T10:46:39.467Z</time></trkpt><trkpt lat="41.6844259" lon="2.0627866"><ele>513.0</ele><time>2026-04-25T10:46:40.467Z</time></trkpt><trkpt lat="41.6844906" lon="2.0628055"><ele>513.0</ele><time>2026-04-25T10:46:41.467Z</time></trkpt><trkpt lat="41.6845925" lon="2.0627893"><ele>513.0</ele><time>2026-04-25T10:46:43.467Z</time></trkpt><trkpt lat="41.6845941" lon="2.0626875"><ele>513.0</ele><time>2026-04-25T10:46:45.466Z</time></trkpt><trkpt lat="41.684506" lon="2.062586"><ele>513.2857142857143</ele><time>2026-04-25T10:46:47.466Z</time></trkpt><trkpt lat="41.684433" lon="2.0625394"><ele>513.5714285714286</ele><time>2026-04-25T10:46:49.466Z</time></trkpt><trkpt lat="41.6844096" lon="2.0624459"><ele>513.8571428571429</ele><time>2026-04-25T10:46:51.466Z</time></trkpt><trkpt lat="41.6844397" lon="2.0623472"><ele>514.1428571428571</ele><time>2026-04-25T10:47:06.466Z</time></trkpt><trkpt lat="41.6844164" lon="2.062254"><ele>514.4285714285714</ele><time>2026-04-25T10:47:08.466Z</time></trkpt><trkpt lat="41.6843852" lon="2.0621684"><ele>514.7142857142858</ele><time>2026-04-25T10:47:11.466Z</time></trkpt><trkpt lat="41.6843429" lon="2.0621035"><ele>515.0</ele><time>2026-04-25T10:47:23.466Z</time></trkpt><trkpt lat="41.6842515" lon="2.0620896"><ele>515.0</ele><time>2026-04-25T10:47:26.466Z</time></trkpt><trkpt lat="41.6841853" lon="2.062097"><ele>515.0</ele><time>2026-04-25T10:47:27.466Z</time></trkpt><trkpt lat="41.6840609" lon="2.0621227"><ele>515.0</ele><time>2026-04-25T10:47:29.466Z</time></trkpt><trkpt lat="41.6839782" lon="2.0621556"><ele>515.0</ele><time>2026-04-25T10:47:30.465Z</time></trkpt><trkpt lat="41.6839104" lon="2.0621847"><ele>515.0</ele><time>2026-04-25T10:47:31.465Z</time></trkpt><trkpt lat="41.6838211" lon="2.0622508"><ele>515.0</ele><time>2026-04-25T10:47:33.466Z</time></trkpt><trkpt lat="41.6838407" lon="2.0623335"><ele>515.0</ele><time>2026-04-25T10:47:35.466Z</time></trkpt><trkpt lat="41.6839397" lon="2.0623673"><ele>515.0</ele><time>2026-04-25T10:47:37.466Z</time></trkpt><trkpt lat="41.6840635" lon="2.0623134"><ele>515.0</ele><time>2026-04-25T10:47:39.466Z</time></trkpt><trkpt lat="41.6841345" lon="2.0622706"><ele>515.0</ele><time>2026-04-25T10:47:40.465Z</time></trkpt><trkpt lat="41.6842025" lon="2.0622441"><ele>515.0</ele><time>2026-04-25T10:47:41.466Z</time></trkpt><trkpt lat="41.6843114" lon="2.0622801"><ele>515.0</ele><time>2026-04-25T10:47:43.466Z</time></trkpt><trkpt lat="41.6843313" lon="2.0624171"><ele>515.0</ele><time>2026-04-25T10:47:45.466Z</time></trkpt><trkpt lat="41.6843059" lon="2.0625005"><ele>515.0</ele><time>2026-04-25T10:47:46.465Z</time></trkpt><trkpt lat="41.6842512" lon="2.0625985"><ele>515.0</ele><time>2026-04-25T10:47:48.466Z</time></trkpt><trkpt lat="41.6841711" lon="2.0625234"><ele>515.0</ele><time>2026-04-25T10:47:51.466Z</time></trkpt><trkpt lat="41.6841585" lon="2.0624226"><ele>515.0</ele><time>2026-04-25T10:47:53.466Z</time></trkpt><trkpt lat="41.6840921" lon="2.0624368"><ele>515.0</ele><time>2026-04-25T10:47:55.466Z</time></trkpt><trkpt lat="41.6840091" lon="2.0625327"><ele>515.0</ele><time>2026-04-25T10:47:57.466Z</time></trkpt><trkpt lat="41.6839754" lon="2.0626336"><ele>515.0</ele><time>2026-04-25T10:47:59.466Z</time></trkpt><trkpt lat="41.6838859" lon="2.0625866"><ele>515.0</ele><time>2026-04-25T10:48:01.466Z</time></trkpt><trkpt lat="41.6838318" lon="2.0625178"><ele>515.0</ele><time>2026-04-25T10:48:02.466Z</time></trkpt><trkpt lat="41.6837805" lon="2.0624446"><ele>515.0</ele><time>2026-04-25T10:48:03.466Z</time></trkpt><trkpt lat="41.683714" lon="2.062342"><ele>515.0</ele><time>2026-04-25T10:48:05.466Z</time></trkpt><trkpt lat="41.6837039" lon="2.0622472"><ele>515.0</ele><time>2026-04-25T10:48:07.465Z</time></trkpt><trkpt lat="41.6837444" lon="2.0621555"><ele>515.0</ele><time>2026-04-25T10:48:09.465Z</time></trkpt><trkpt lat="41.6837593" lon="2.0620461"><ele>515.0</ele><time>2026-04-25T10:48:11.466Z</time></trkpt><trkpt lat="41.6837251" lon="2.0619732"><ele>515.0</ele><time>2026-04-25T10:48:12.466Z</time></trkpt><trkpt lat="41.683662" lon="2.0618905"><ele>515.0</ele><time>2026-04-25T10:48:14.466Z</time></trkpt><trkpt lat="41.6835812" lon="2.0617687"><ele>515.0</ele><time>2026-04-25T10:48:16.465Z</time></trkpt><trkpt lat="41.6835212" lon="2.0616628"><ele>515.0</ele><time>2026-04-25T10:48:18.465Z</time></trkpt><trkpt lat="41.6835014" lon="2.0615344"><ele>515.0</ele><time>2026-04-25T10:48:20.466Z</time></trkpt><trkpt lat="41.6836066" lon="2.0615748"><ele>515.0</ele><time>2026-04-25T10:48:22.466Z</time></trkpt><trkpt lat="41.6836697" lon="2.0616498"><ele>515.0</ele><time>2026-04-25T10:48:23.466Z</time></trkpt><trkpt lat="41.6837219" lon="2.0617194"><ele>515.0</ele><time>2026-04-25T10:48:24.466Z</time></trkpt><trkpt lat="41.6837768" lon="2.0617947"><ele>515.0</ele><time>2026-04-25T10:48:25.466Z</time></trkpt><trkpt lat="41.6838231" lon="2.0618667"><ele>515.0</ele><time>2026-04-25T10:48:26.465Z</time></trkpt><trkpt lat="41.6838758" lon="2.0619416"><ele>515.0</ele><time>2026-04-25T10:48:27.466Z</time></trkpt><trkpt lat="41.6839345" lon="2.0620091"><ele>515.0</ele><time>2026-04-25T10:48:28.466Z</time></trkpt><trkpt lat="41.6839957" lon="2.0620327"><ele>515.0</ele><time>2026-04-25T10:48:29.466Z</time></trkpt><trkpt lat="41.6840661" lon="2.0620462"><ele>515.0</ele><time>2026-04-25T10:48:30.466Z</time></trkpt><trkpt lat="41.6841354" lon="2.0620337"><ele>515.0</ele><time>2026-04-25T10:48:31.466Z</time></trkpt><trkpt lat="41.6841998" lon="2.0620036"><ele>515.0</ele><time>2026-04-25T10:48:32.466Z</time></trkpt><trkpt lat="41.6842155" lon="2.0618914"><ele>515.0</ele><time>2026-04-25T10:48:34.465Z</time></trkpt><trkpt lat="41.6841503" lon="2.0618829"><ele>515.0</ele><time>2026-04-25T10:48:55.466Z</time></trkpt><trkpt lat="41.6840767" lon="2.0618937"><ele>515.0</ele><time>2026-04-25T10:48:57.466Z</time></trkpt><trkpt lat="41.6839681" lon="2.0618639"><ele>515.0</ele><time>2026-04-25T10:48:59.466Z</time></trkpt><trkpt lat="41.6839092" lon="2.061816"><ele>515.0</ele><time>2026-04-25T10:49:00.466Z</time></trkpt><trkpt lat="41.6838646" lon="2.0617334"><ele>515.0</ele><time>2026-04-25T10:49:01.466Z</time></trkpt><trkpt lat="41.6838216" lon="2.0616463"><ele>515.0</ele><time>2026-04-25T10:49:02.465Z</time></trkpt><trkpt lat="41.6837806" lon="2.0615753"><ele>515.0</ele><time>2026-04-25T10:49:03.466Z</time></trkpt><trkpt lat="41.6837372" lon="2.0615111"><ele>515.0</ele><time>2026-04-25T10:49:04.466Z</time></trkpt><trkpt lat="41.6836804" lon="2.0614449"><ele>515.0</ele><time>2026-04-25T10:49:05.466Z</time></trkpt><trkpt lat="41.6836327" lon="2.0613832"><ele>515.0</ele><time>2026-04-25T10:49:06.465Z</time></trkpt><trkpt lat="41.6836367" lon="2.0612509"><ele>514.6666666666666</ele><time>2026-04-25T10:49:09.466Z</time></trkpt><trkpt lat="41.6837003" lon="2.0611762"><ele>514.3333333333333</ele><time>2026-04-25T10:49:11.465Z</time></trkpt><trkpt lat="41.6836637" lon="2.0610968"><ele>514.0</ele><time>2026-04-25T10:49:15.465Z</time></trkpt><trkpt lat="41.6835966" lon="2.0610871"><ele>513.6666666666666</ele><time>2026-04-25T10:49:17.466Z</time></trkpt><trkpt lat="41.6834986" lon="2.0611205"><ele>513.3333333333334</ele><time>2026-04-25T10:49:19.466Z</time></trkpt><trkpt lat="41.6834425" lon="2.0611781"><ele>513.0</ele><time>2026-04-25T10:49:20.466Z</time></trkpt><trkpt lat="41.6833752" lon="2.0612621"><ele>512.5</ele><time>2026-04-25T10:49:21.466Z</time></trkpt><trkpt lat="41.6832974" lon="2.0613508"><ele>512.0</ele><time>2026-04-25T10:49:22.466Z</time></trkpt><trkpt lat="41.6832017" lon="2.0614417"><ele>511.5</ele><time>2026-04-25T10:49:23.465Z</time></trkpt><trkpt lat="41.6830893" lon="2.0615396"><ele>511.0</ele><time>2026-04-25T10:49:24.466Z</time></trkpt><trkpt lat="41.6829869" lon="2.0616374"><ele>510.0</ele><time>2026-04-25T10:49:25.466Z</time></trkpt><trkpt lat="41.682889" lon="2.0617382"><ele>509.0</ele><time>2026-04-25T10:49:26.466Z</time></trkpt><trkpt lat="41.6827945" lon="2.0618387"><ele>508.0</ele><time>2026-04-25T10:49:27.465Z</time></trkpt><trkpt lat="41.6826973" lon="2.0619385"><ele>507.0</ele><time>2026-04-25T10:49:28.466Z</time></trkpt><trkpt lat="41.6826017" lon="2.0620249"><ele>506.0</ele><time>2026-04-25T10:49:29.466Z</time></trkpt><trkpt lat="41.6825135" lon="2.0620991"><ele>505.0</ele><time>2026-04-25T10:49:30.466Z</time></trkpt><trkpt lat="41.6824341" lon="2.0621569"><ele>504.0</ele><time>2026-04-25T10:49:31.466Z</time></trkpt><trkpt lat="41.6823593" lon="2.062209"><ele>503.0</ele><time>2026-04-25T10:49:32.466Z</time></trkpt><trkpt lat="41.6823032" lon="2.0622593"><ele>502.0</ele><time>2026-04-25T10:49:33.466Z</time></trkpt><trkpt lat="41.6822218" lon="2.0623001"><ele>501.0</ele><time>2026-04-25T10:49:35.466Z</time></trkpt><trkpt lat="41.6820841" lon="2.0622269"><ele>501.0</ele><time>2026-04-25T10:49:37.466Z</time></trkpt><trkpt lat="41.6819927" lon="2.0621416"><ele>501.0</ele><time>2026-04-25T10:49:38.466Z</time></trkpt><trkpt lat="41.6819002" lon="2.0620539"><ele>501.0</ele><time>2026-04-25T10:49:39.466Z</time></trkpt><trkpt lat="41.6817901" lon="2.0619589"><ele>501.0</ele><time>2026-04-25T10:49:40.466Z</time></trkpt><trkpt lat="41.6816754" lon="2.0618697"><ele>500.25</ele><time>2026-04-25T10:49:41.466Z</time></trkpt><trkpt lat="41.6815642" lon="2.0617872"><ele>499.5</ele><time>2026-04-25T10:49:42.466Z</time></trkpt><trkpt lat="41.6814589" lon="2.0616999"><ele>498.75</ele><time>2026-04-25T10:49:43.465Z</time></trkpt><trkpt lat="41.681358" lon="2.0616229"><ele>498.0</ele><time>2026-04-25T10:49:44.466Z</time></trkpt><trkpt lat="41.6812567" lon="2.0615407"><ele>497.0</ele><time>2026-04-25T10:49:45.466Z</time></trkpt><trkpt lat="41.6811338" lon="2.0614531"><ele>496.0</ele><time>2026-04-25T10:49:46.466Z</time></trkpt><trkpt lat="41.681018" lon="2.0613565"><ele>495.0</ele><time>2026-04-25T10:49:47.466Z</time></trkpt><trkpt lat="41.6809072" lon="2.0612651"><ele>494.0</ele><time>2026-04-25T10:49:48.466Z</time></trkpt><trkpt lat="41.6807941" lon="2.0611788"><ele>494.0</ele><time>2026-04-25T10:49:49.466Z</time></trkpt><trkpt lat="41.680684" lon="2.0610981"><ele>494.0</ele><time>2026-04-25T10:49:50.466Z</time></trkpt><trkpt lat="41.6805682" lon="2.0610135"><ele>494.0</ele><time>2026-04-25T10:49:51.465Z</time></trkpt><trkpt lat="41.6804453" lon="2.0609228"><ele>494.0</ele><time>2026-04-25T10:49:52.466Z</time></trkpt><trkpt lat="41.6803311" lon="2.0608292"><ele>492.99999999999994</ele><time>2026-04-25T10:49:53.466Z</time></trkpt><trkpt lat="41.68024" lon="2.0607488"><ele>492.0</ele><time>2026-04-25T10:49:54.466Z</time></trkpt><trkpt lat="41.6801554" lon="2.0606714"><ele>491.0</ele><time>2026-04-25T10:49:56.466Z</time></trkpt><trkpt lat="41.6800778" lon="2.0606336"><ele>490.0</ele><time>2026-04-25T10:49:59.466Z</time></trkpt><trkpt lat="41.6800145" lon="2.0606538"><ele>488.99999999999994</ele><time>2026-04-25T10:50:01.465Z</time></trkpt><trkpt lat="41.6799966" lon="2.0607714"><ele>488.0</ele><time>2026-04-25T10:50:03.466Z</time></trkpt><trkpt lat="41.6799896" lon="2.0608636"><ele>487.16666666666663</ele><time>2026-04-25T10:50:04.466Z</time></trkpt><trkpt lat="41.6799812" lon="2.0609765"><ele>486.3333333333333</ele><time>2026-04-25T10:50:05.465Z</time></trkpt><trkpt lat="41.6799587" lon="2.0610803"><ele>485.5</ele><time>2026-04-25T10:50:06.466Z</time></trkpt><trkpt lat="41.6799094" lon="2.0611657"><ele>484.66666666666663</ele><time>2026-04-25T10:50:07.466Z</time></trkpt><trkpt lat="41.6798325" lon="2.0612221"><ele>483.8333333333333</ele><time>2026-04-25T10:50:08.466Z</time></trkpt><trkpt lat="41.6797196" lon="2.0612278"><ele>483.0</ele><time>2026-04-25T10:50:09.466Z</time></trkpt><trkpt lat="41.6795983" lon="2.0611987"><ele>483.0</ele><time>2026-04-25T10:50:10.466Z</time></trkpt><trkpt lat="41.6794638" lon="2.0611443"><ele>483.0</ele><time>2026-04-25T10:50:11.465Z</time></trkpt><trkpt lat="41.6793266" lon="2.0610781"><ele>483.0</ele><time>2026-04-25T10:50:12.466Z</time></trkpt><trkpt lat="41.6792044" lon="2.0610042"><ele>483.0</ele><time>2026-04-25T10:50:13.466Z</time></trkpt><trkpt lat="41.6791077" lon="2.0609458"><ele>482.75</ele><time>2026-04-25T10:50:14.465Z</time></trkpt><trkpt lat="41.6789982" lon="2.0609134"><ele>482.5</ele><time>2026-04-25T10:50:15.465Z</time></trkpt><trkpt lat="41.6788861" lon="2.060914"><ele>482.25</ele><time>2026-04-25T10:50:16.466Z</time></trkpt><trkpt lat="41.6787703" lon="2.0609563"><ele>482.0</ele><time>2026-04-25T10:50:17.465Z</time></trkpt><trkpt lat="41.6786634" lon="2.0610487"><ele>482.6</ele><time>2026-04-25T10:50:18.466Z</time></trkpt><trkpt lat="41.6785624" lon="2.061138"><ele>483.20000000000005</ele><time>2026-04-25T10:50:19.466Z</time></trkpt><trkpt lat="41.6784663" lon="2.0612024"><ele>483.8</ele><time>2026-04-25T10:50:20.466Z</time></trkpt><trkpt lat="41.6783762" lon="2.061225"><ele>484.4</ele><time>2026-04-25T10:50:21.466Z</time></trkpt><trkpt lat="41.6782706" lon="2.0612058"><ele>485.0</ele><time>2026-04-25T10:50:22.466Z</time></trkpt><trkpt lat="41.6781729" lon="2.0611666"><ele>485.0</ele><time>2026-04-25T10:50:23.466Z</time></trkpt><trkpt lat="41.6780861" lon="2.0611413"><ele>485.0</ele><time>2026-04-25T10:50:24.465Z</time></trkpt><trkpt lat="41.6779886" lon="2.0611037"><ele>485.0</ele><time>2026-04-25T10:50:26.466Z</time></trkpt><trkpt lat="41.6779156" lon="2.0611863"><ele>485.0</ele><time>2026-04-25T10:50:29.466Z</time></trkpt><trkpt lat="41.6778482" lon="2.0613047"><ele>485.0</ele><time>2026-04-25T10:50:31.466Z</time></trkpt><trkpt lat="41.6778059" lon="2.0613917"><ele>485.8333333333333</ele><time>2026-04-25T10:50:32.466Z</time></trkpt><trkpt lat="41.6777629" lon="2.0614869"><ele>486.66666666666663</ele><time>2026-04-25T10:50:33.465Z</time></trkpt><trkpt lat="41.6777248" lon="2.0615762"><ele>487.5</ele><time>2026-04-25T10:50:34.466Z</time></trkpt><trkpt lat="41.6776836" lon="2.0616658"><ele>488.33333333333337</ele><time>2026-04-25T10:50:35.466Z</time></trkpt><trkpt lat="41.6776443" lon="2.0617593"><ele>489.1666666666667</ele><time>2026-04-25T10:50:36.466Z</time></trkpt><trkpt lat="41.6776004" lon="2.0618523"><ele>490.0</ele><time>2026-04-25T10:50:37.466Z</time></trkpt><trkpt lat="41.6775547" lon="2.0619423"><ele>490.1666666666667</ele><time>2026-04-25T10:50:38.466Z</time></trkpt><trkpt lat="41.6775158" lon="2.0620421"><ele>490.33333333333337</ele><time>2026-04-25T10:50:39.466Z</time></trkpt><trkpt lat="41.6774765" lon="2.0621422"><ele>490.5</ele><time>2026-04-25T10:50:40.466Z</time></trkpt><trkpt lat="41.6774297" lon="2.0622401"><ele>490.66666666666663</ele><time>2026-04-25T10:50:41.466Z</time></trkpt><trkpt lat="41.6773819" lon="2.0623314"><ele>490.8333333333333</ele><time>2026-04-25T10:50:42.465Z</time></trkpt><trkpt lat="41.6773397" lon="2.0624205"><ele>491.0</ele><time>2026-04-25T10:50:43.466Z</time></trkpt><trkpt lat="41.6773046" lon="2.0625078"><ele>491.8</ele><time>2026-04-25T10:50:44.466Z</time></trkpt><trkpt lat="41.6772901" lon="2.0625943"><ele>492.6</ele><time>2026-04-25T10:50:45.465Z</time></trkpt><trkpt lat="41.6772879" lon="2.0627689"><ele>493.4</ele><time>2026-04-25T10:50:47.466Z</time></trkpt><trkpt lat="41.677305" lon="2.0628693"><ele>494.2</ele><time>2026-04-25T10:50:48.466Z</time></trkpt><trkpt lat="41.6773428" lon="2.063001"><ele>495.0</ele><time>2026-04-25T10:50:49.466Z</time></trkpt><trkpt lat="41.6773838" lon="2.0631255"><ele>495.0</ele><time>2026-04-25T10:50:50.466Z</time></trkpt><trkpt lat="41.6774189" lon="2.0632542"><ele>495.0</ele><time>2026-04-25T10:50:51.466Z</time></trkpt><trkpt lat="41.6774501" lon="2.06339"><ele>495.0</ele><time>2026-04-25T10:50:52.466Z</time></trkpt><trkpt lat="41.6774796" lon="2.0635176"><ele>495.0</ele><time>2026-04-25T10:50:53.466Z</time></trkpt><trkpt lat="41.6774998" lon="2.0636253"><ele>495.0</ele><time>2026-04-25T10:50:54.466Z</time></trkpt><trkpt lat="41.6775138" lon="2.0637325"><ele>493.6666666666667</ele><time>2026-04-25T10:50:55.466Z</time></trkpt><trkpt lat="41.6775204" lon="2.0638461"><ele>492.33333333333337</ele><time>2026-04-25T10:50:56.466Z</time></trkpt><trkpt lat="41.6775079" lon="2.0639752"><ele>491.0</ele><time>2026-04-25T10:50:57.465Z</time></trkpt><trkpt lat="41.677486" lon="2.0641086"><ele>489.6666666666667</ele><time>2026-04-25T10:50:58.466Z</time></trkpt><trkpt lat="41.6774645" lon="2.0642224"><ele>488.33333333333337</ele><time>2026-04-25T10:50:59.466Z</time></trkpt><trkpt lat="41.6774372" lon="2.064314"><ele>487.0</ele><time>2026-04-25T10:51:00.466Z</time></trkpt><trkpt lat="41.6773891" lon="2.0644004"><ele>486.00000000000006</ele><time>2026-04-25T10:51:02.466Z</time></trkpt><trkpt lat="41.6772885" lon="2.0644172"><ele>485.0</ele><time>2026-04-25T10:51:04.466Z</time></trkpt><trkpt lat="41.6772248" lon="2.0643922"><ele>484.0</ele><time>2026-04-25T10:51:05.466Z</time></trkpt><trkpt lat="41.6771566" lon="2.0643515"><ele>483.0</ele><time>2026-04-25T10:51:06.466Z</time></trkpt><trkpt lat="41.6770636" lon="2.0643296"><ele>482.00000000000006</ele><time>2026-04-25T10:51:07.466Z</time></trkpt><trkpt lat="41.6769715" lon="2.0643134"><ele>481.0</ele><time>2026-04-25T10:51:08.466Z</time></trkpt><trkpt lat="41.6768794" lon="2.0642933"><ele>480.0</ele><time>2026-04-25T10:51:09.466Z</time></trkpt><trkpt lat="41.6767992" lon="2.0642602"><ele>479.0</ele><time>2026-04-25T10:51:10.466Z</time></trkpt><trkpt lat="41.676712" lon="2.0642078"><ele>478.0</ele><time>2026-04-25T10:51:11.466Z</time></trkpt><trkpt lat="41.6766284" lon="2.0641402"><ele>477.0</ele><time>2026-04-25T10:51:12.465Z</time></trkpt><trkpt lat="41.6765479" lon="2.0640556"><ele>476.0</ele><time>2026-04-25T10:51:13.466Z</time></trkpt><trkpt lat="41.6764837" lon="2.0639666"><ele>475.99999999999994</ele><time>2026-04-25T10:51:14.465Z</time></trkpt><trkpt lat="41.6764328" lon="2.0638725"><ele>476.0</ele><time>2026-04-25T10:51:15.465Z</time></trkpt><trkpt lat="41.6763953" lon="2.0637899"><ele>476.0</ele><time>2026-04-25T10:51:16.466Z</time></trkpt><trkpt lat="41.676371" lon="2.0637008"><ele>476.0</ele><time>2026-04-25T10:51:17.466Z</time></trkpt><trkpt lat="41.6763612" lon="2.0636033"><ele>475.99999999999994</ele><time>2026-04-25T10:51:18.466Z</time></trkpt><trkpt lat="41.6763694" lon="2.0635018"><ele>476.0</ele><time>2026-04-25T10:51:19.466Z</time></trkpt><trkpt lat="41.6763833" lon="2.0633892"><ele>476.16666666666663</ele><time>2026-04-25T10:51:20.466Z</time></trkpt><trkpt lat="41.6763935" lon="2.0632621"><ele>476.3333333333333</ele><time>2026-04-25T10:51:21.466Z</time></trkpt><trkpt lat="41.6763922" lon="2.0631346"><ele>476.5</ele><time>2026-04-25T10:51:22.465Z</time></trkpt><trkpt lat="41.6763806" lon="2.0630329"><ele>476.66666666666663</ele><time>2026-04-25T10:51:23.466Z</time></trkpt><trkpt lat="41.6763698" lon="2.0629471"><ele>476.8333333333333</ele><time>2026-04-25T10:51:24.466Z</time></trkpt><trkpt lat="41.6763344" lon="2.0628159"><ele>477.0</ele><time>2026-04-25T10:51:26.466Z</time></trkpt><trkpt lat="41.6762904" lon="2.0627026"><ele>477.0</ele><time>2026-04-25T10:51:28.466Z</time></trkpt><trkpt lat="41.6762484" lon="2.0625631"><ele>477.00000000000006</ele><time>2026-04-25T10:51:30.465Z</time></trkpt><trkpt lat="41.6762577" lon="2.0623768"><ele>477.00000000000006</ele><time>2026-04-25T10:51:32.466Z</time></trkpt><trkpt lat="41.676286" lon="2.0622651"><ele>477.0</ele><time>2026-04-25T10:51:33.466Z</time></trkpt><trkpt lat="41.6763149" lon="2.0621566"><ele>477.0</ele><time>2026-04-25T10:51:34.466Z</time></trkpt><trkpt lat="41.6763386" lon="2.062057"><ele>476.8333333333333</ele><time>2026-04-25T10:51:35.466Z</time></trkpt><trkpt lat="41.6763661" lon="2.0619654"><ele>476.66666666666663</ele><time>2026-04-25T10:51:36.466Z</time></trkpt><trkpt lat="41.6763941" lon="2.0618671"><ele>476.5</ele><time>2026-04-25T10:51:37.466Z</time></trkpt><trkpt lat="41.6764194" lon="2.0617814"><ele>476.3333333333333</ele><time>2026-04-25T10:51:38.466Z</time></trkpt><trkpt lat="41.6764513" lon="2.0617003"><ele>476.16666666666663</ele><time>2026-04-25T10:51:39.466Z</time></trkpt><trkpt lat="41.6764755" lon="2.0616142"><ele>476.0</ele><time>2026-04-25T10:51:40.465Z</time></trkpt><trkpt lat="41.6765074" lon="2.0614564"><ele>475.99999999999994</ele><time>2026-04-25T10:51:42.465Z</time></trkpt><trkpt lat="41.6765243" lon="2.0613252"><ele>476.0</ele><time>2026-04-25T10:51:44.466Z</time></trkpt><trkpt lat="41.6765243" lon="2.0611988"><ele>476.0</ele><time>2026-04-25T10:51:46.466Z</time></trkpt><trkpt lat="41.6764617" lon="2.0611215"><ele>476.0</ele><time>2026-04-25T10:51:49.47Z</time></trkpt><trkpt lat="41.6763943" lon="2.061109"><ele>475.99999999999994</ele><time>2026-04-25T10:51:50.469Z</time></trkpt><trkpt lat="41.6763216" lon="2.0610847"><ele>476.0</ele><time>2026-04-25T10:51:51.47Z</time></trkpt><trkpt lat="41.6762475" lon="2.0610549"><ele>476.0</ele><time>2026-04-25T10:51:52.47Z</time></trkpt><trkpt lat="41.676184" lon="2.0610152"><ele>476.0</ele><time>2026-04-25T10:51:53.47Z</time></trkpt><trkpt lat="41.6760774" lon="2.0609859"><ele>476.0</ele><time>2026-04-25T10:51:55.47Z</time></trkpt><trkpt lat="41.6759994" lon="2.0610095"><ele>476.0</ele><time>2026-04-25T10:51:57.47Z</time></trkpt><trkpt lat="41.67591" lon="2.0611277"><ele>476.0</ele><time>2026-04-25T10:51:59.47Z</time></trkpt><trkpt lat="41.6758484" lon="2.0612359"><ele>474.5</ele><time>2026-04-25T10:52:00.47Z</time></trkpt><trkpt lat="41.6757908" lon="2.0613594"><ele>473.0</ele><time>2026-04-25T10:52:01.469Z</time></trkpt><trkpt lat="41.6757209" lon="2.0614874"><ele>471.5</ele><time>2026-04-25T10:52:02.47Z</time></trkpt><trkpt lat="41.6756568" lon="2.0616234"><ele>470.0</ele><time>2026-04-25T10:52:03.47Z</time></trkpt><trkpt lat="41.6755925" lon="2.0617644"><ele>470.0</ele><time>2026-04-25T10:52:04.47Z</time></trkpt><trkpt lat="41.6755155" lon="2.0619022"><ele>470.0</ele><time>2026-04-25T10:52:05.469Z</time></trkpt><trkpt lat="41.6754388" lon="2.0620345"><ele>470.0</ele><time>2026-04-25T10:52:06.469Z</time></trkpt><trkpt lat="41.6753665" lon="2.0621659"><ele>470.0</ele><time>2026-04-25T10:52:07.469Z</time></trkpt><trkpt lat="41.6752995" lon="2.0623039"><ele>474.0</ele><time>2026-04-25T10:52:08.47Z</time></trkpt><trkpt lat="41.6752292" lon="2.0624529"><ele>478.0</ele><time>2026-04-25T10:52:09.47Z</time></trkpt><trkpt lat="41.6751551" lon="2.0625923"><ele>482.0</ele><time>2026-04-25T10:52:10.469Z</time></trkpt><trkpt lat="41.6750803" lon="2.0627293"><ele>486.0</ele><time>2026-04-25T10:52:11.47Z</time></trkpt><trkpt lat="41.6750161" lon="2.0628517"><ele>486.0</ele><time>2026-04-25T10:52:12.469Z</time></trkpt><trkpt lat="41.6749532" lon="2.0629688"><ele>486.0</ele><time>2026-04-25T10:52:13.47Z</time></trkpt><trkpt lat="41.6748858" lon="2.0630867"><ele>486.0</ele><time>2026-04-25T10:52:14.47Z</time></trkpt><trkpt lat="41.6748183" lon="2.0632031"><ele>486.0</ele><time>2026-04-25T10:52:15.47Z</time></trkpt><trkpt lat="41.6747565" lon="2.0632935"><ele>486.0</ele><time>2026-04-25T10:52:16.47Z</time></trkpt><trkpt lat="41.6747073" lon="2.0633523"><ele>486.0</ele><time>2026-04-25T10:52:17.47Z</time></trkpt><trkpt lat="41.6746556" lon="2.0634033"><ele>486.0</ele><time>2026-04-25T10:52:18.47Z</time></trkpt><trkpt lat="41.6745763" lon="2.0635174"><ele>486.0</ele><time>2026-04-25T10:52:20.47Z</time></trkpt><trkpt lat="41.6745614" lon="2.0636006"><ele>486.0</ele><time>2026-04-25T10:52:21.47Z</time></trkpt><trkpt lat="41.6745568" lon="2.0637063"><ele>486.0</ele><time>2026-04-25T10:52:22.47Z</time></trkpt><trkpt lat="41.6745623" lon="2.0638022"><ele>486.0</ele><time>2026-04-25T10:52:23.47Z</time></trkpt><trkpt lat="41.6745223" lon="2.0639539"><ele>486.0</ele><time>2026-04-25T10:52:25.47Z</time></trkpt><trkpt lat="41.6744818" lon="2.0640342"><ele>486.0</ele><time>2026-04-25T10:52:26.47Z</time></trkpt><trkpt lat="41.6744434" lon="2.0641033"><ele>486.0</ele><time>2026-04-25T10:52:27.47Z</time></trkpt><trkpt lat="41.6743725" lon="2.0642465"><ele>486.0</ele><time>2026-04-25T10:52:29.47Z</time></trkpt><trkpt lat="41.6743144" lon="2.064395"><ele>486.0</ele><time>2026-04-25T10:52:31.47Z</time></trkpt><trkpt lat="41.6742821" lon="2.0644711"><ele>488.6666666666667</ele><time>2026-04-25T10:52:32.47Z</time></trkpt><trkpt lat="41.6742237" lon="2.064573"><ele>491.33333333333337</ele><time>2026-04-25T10:52:34.469Z</time></trkpt><trkpt lat="41.6741136" lon="2.0646744"><ele>494.0</ele><time>2026-04-25T10:52:36.47Z</time></trkpt><trkpt lat="41.6740456" lon="2.0647205"><ele>496.6666666666667</ele><time>2026-04-25T10:52:37.47Z</time></trkpt><trkpt lat="41.6739804" lon="2.0647575"><ele>499.33333333333337</ele><time>2026-04-25T10:52:38.47Z</time></trkpt><trkpt lat="41.6739168" lon="2.0648011"><ele>502.0</ele><time>2026-04-25T10:52:39.47Z</time></trkpt><trkpt lat="41.6738545" lon="2.0648456"><ele>502.0</ele><time>2026-04-25T10:52:40.47Z</time></trkpt><trkpt lat="41.6737807" lon="2.0648984"><ele>502.00000000000006</ele><time>2026-04-25T10:52:41.47Z</time></trkpt><trkpt lat="41.6736912" lon="2.0649362"><ele>502.00000000000006</ele><time>2026-04-25T10:52:42.47Z</time></trkpt><trkpt lat="41.6735898" lon="2.0649701"><ele>502.0</ele><time>2026-04-25T10:52:43.47Z</time></trkpt><trkpt lat="41.6734992" lon="2.06498"><ele>502.0</ele><time>2026-04-25T10:52:44.47Z</time></trkpt><trkpt lat="41.6734206" lon="2.0649846"><ele>502.00000000000006</ele><time>2026-04-25T10:52:45.47Z</time></trkpt><trkpt lat="41.6733283" lon="2.0649994"><ele>502.0</ele><time>2026-04-25T10:52:47.47Z</time></trkpt><trkpt lat="41.673219" lon="2.0650336"><ele>502.0</ele><time>2026-04-25T10:53:53.47Z</time></trkpt><trkpt lat="41.6731523" lon="2.0650445"><ele>502.0</ele><time>2026-04-25T10:53:54.47Z</time></trkpt><trkpt lat="41.673081" lon="2.0650473"><ele>502.00000000000006</ele><time>2026-04-25T10:53:55.47Z</time></trkpt><trkpt lat="41.6729992" lon="2.0650376"><ele>502.0</ele><time>2026-04-25T10:53:56.47Z</time></trkpt><trkpt lat="41.672912" lon="2.065029"><ele>502.00000000000006</ele><time>2026-04-25T10:53:57.47Z</time></trkpt><trkpt lat="41.6728291" lon="2.0650167"><ele>502.0</ele><time>2026-04-25T10:53:58.47Z</time></trkpt><trkpt lat="41.6727485" lon="2.0650177"><ele>502.0</ele><time>2026-04-25T10:53:59.47Z</time></trkpt><trkpt lat="41.6726752" lon="2.0650364"><ele>502.0</ele><time>2026-04-25T10:54:00.47Z</time></trkpt><trkpt lat="41.6725925" lon="2.065081"><ele>502.00000000000006</ele><time>2026-04-25T10:54:01.47Z</time></trkpt><trkpt lat="41.672498" lon="2.0651323"><ele>502.0</ele><time>2026-04-25T10:54:02.469Z</time></trkpt><trkpt lat="41.6723962" lon="2.065168"><ele>501.83333333333337</ele><time>2026-04-25T10:54:03.47Z</time></trkpt><trkpt lat="41.6723012" lon="2.0651873"><ele>501.6666666666667</ele><time>2026-04-25T10:54:04.47Z</time></trkpt><trkpt lat="41.6722183" lon="2.0651869"><ele>501.5</ele><time>2026-04-25T10:54:05.47Z</time></trkpt><trkpt lat="41.6721507" lon="2.0651856"><ele>501.33333333333337</ele><time>2026-04-25T10:54:06.47Z</time></trkpt><trkpt lat="41.6720601" lon="2.0651964"><ele>501.1666666666667</ele><time>2026-04-25T10:54:08.47Z</time></trkpt><trkpt lat="41.6719964" lon="2.0652751"><ele>501.0</ele><time>2026-04-25T10:54:10.47Z</time></trkpt><trkpt lat="41.6719806" lon="2.0653749"><ele>501.0</ele><time>2026-04-25T10:54:11.47Z</time></trkpt><trkpt lat="41.6719782" lon="2.065506"><ele>501.0</ele><time>2026-04-25T10:54:12.47Z</time></trkpt><trkpt lat="41.6719861" lon="2.065654"><ele>501.0</ele><time>2026-04-25T10:54:13.47Z</time></trkpt><trkpt lat="41.6719814" lon="2.0657935"><ele>501.0</ele><time>2026-04-25T10:54:14.47Z</time></trkpt><trkpt lat="41.6719899" lon="2.0659246"><ele>501.0</ele><time>2026-04-25T10:54:15.47Z</time></trkpt><trkpt lat="41.6719942" lon="2.0660576"><ele>499.75</ele><time>2026-04-25T10:54:16.47Z</time></trkpt><trkpt lat="41.6719889" lon="2.0662014"><ele>498.5</ele><time>2026-04-25T10:54:17.47Z</time></trkpt><trkpt lat="41.6719564" lon="2.0663519"><ele>497.25</ele><time>2026-04-25T10:54:18.469Z</time></trkpt><trkpt lat="41.6719151" lon="2.0665127"><ele>496.0</ele><time>2026-04-25T10:54:19.47Z</time></trkpt><trkpt lat="41.6718743" lon="2.0666611"><ele>496.00000000000006</ele><time>2026-04-25T10:54:20.47Z</time></trkpt><trkpt lat="41.6718409" lon="2.0667848"><ele>496.0</ele><time>2026-04-25T10:54:21.47Z</time></trkpt><trkpt lat="41.6718105" lon="2.0668888"><ele>496.0</ele><time>2026-04-25T10:54:22.47Z</time></trkpt><trkpt lat="41.6717674" lon="2.066971"><ele>496.0</ele><time>2026-04-25T10:54:23.47Z</time></trkpt><trkpt lat="41.6717063" lon="2.0670484"><ele>496.00000000000006</ele><time>2026-04-25T10:54:24.47Z</time></trkpt><trkpt lat="41.6716351" lon="2.0671054"><ele>496.0</ele><time>2026-04-25T10:54:25.47Z</time></trkpt><trkpt lat="41.6715779" lon="2.067149"><ele>496.0</ele><time>2026-04-25T10:54:26.469Z</time></trkpt><trkpt lat="41.6715197" lon="2.0672534"><ele>496.0</ele><time>2026-04-25T10:54:28.469Z</time></trkpt><trkpt lat="41.6715067" lon="2.0674318"><ele>496.0</ele><time>2026-04-25T10:54:30.47Z</time></trkpt><trkpt lat="41.6715261" lon="2.0675549"><ele>496.0</ele><time>2026-04-25T10:54:31.47Z</time></trkpt><trkpt lat="41.6715599" lon="2.0676993"><ele>496.0</ele><time>2026-04-25T10:54:32.47Z</time></trkpt><trkpt lat="41.6715896" lon="2.0678474"><ele>496.20000000000005</ele><time>2026-04-25T10:54:33.47Z</time></trkpt><trkpt lat="41.6716177" lon="2.0680084"><ele>496.40000000000003</ele><time>2026-04-25T10:54:34.47Z</time></trkpt><trkpt lat="41.6716353" lon="2.0681693"><ele>496.6</ele><time>2026-04-25T10:54:35.47Z</time></trkpt><trkpt lat="41.6716499" lon="2.0683012"><ele>496.8</ele><time>2026-04-25T10:54:36.47Z</time></trkpt><trkpt lat="41.6716539" lon="2.0684119"><ele>497.0</ele><time>2026-04-25T10:54:37.47Z</time></trkpt><trkpt lat="41.6716444" lon="2.0685082"><ele>496.99999999999994</ele><time>2026-04-25T10:54:38.47Z</time></trkpt><trkpt lat="41.6716097" lon="2.0685851"><ele>497.0</ele><time>2026-04-25T10:54:39.469Z</time></trkpt><trkpt lat="41.6715551" lon="2.0686304"><ele>497.0</ele><time>2026-04-25T10:54:40.47Z</time></trkpt><trkpt lat="41.6714243" lon="2.0686426"><ele>497.0</ele><time>2026-04-25T10:54:42.47Z</time></trkpt><trkpt lat="41.6713388" lon="2.0685977"><ele>496.99999999999994</ele><time>2026-04-25T10:54:43.469Z</time></trkpt><trkpt lat="41.6712636" lon="2.0685434"><ele>497.0</ele><time>2026-04-25T10:54:44.47Z</time></trkpt><trkpt lat="41.6712041" lon="2.0685004"><ele>495.20000000000005</ele><time>2026-04-25T10:54:45.47Z</time></trkpt><trkpt lat="41.6710894" lon="2.06846"><ele>493.40000000000003</ele><time>2026-04-25T10:54:47.47Z</time></trkpt><trkpt lat="41.6710215" lon="2.0684701"><ele>491.59999999999997</ele><time>2026-04-25T10:54:48.47Z</time></trkpt><trkpt lat="41.6709022" lon="2.0685175"><ele>489.79999999999995</ele><time>2026-04-25T10:54:50.47Z</time></trkpt><trkpt lat="41.6708389" lon="2.0685818"><ele>488.0</ele><time>2026-04-25T10:54:51.47Z</time></trkpt><trkpt lat="41.6707696" lon="2.0686774"><ele>488.0</ele><time>2026-04-25T10:54:52.47Z</time></trkpt><trkpt lat="41.6706996" lon="2.0687814"><ele>487.99999999999994</ele><time>2026-04-25T10:54:53.47Z</time></trkpt><trkpt lat="41.6706268" lon="2.0688899"><ele>487.99999999999994</ele><time>2026-04-25T10:54:54.469Z</time></trkpt><trkpt lat="41.6705647" lon="2.0689952"><ele>488.0</ele><time>2026-04-25T10:54:55.47Z</time></trkpt><trkpt lat="41.6705041" lon="2.0691011"><ele>488.0</ele><time>2026-04-25T10:54:56.469Z</time></trkpt><trkpt lat="41.6704447" lon="2.0692161"><ele>487.0</ele><time>2026-04-25T10:54:57.47Z</time></trkpt><trkpt lat="41.6703958" lon="2.0693531"><ele>486.0</ele><time>2026-04-25T10:54:58.47Z</time></trkpt><trkpt lat="41.6703571" lon="2.0695085"><ele>485.0</ele><time>2026-04-25T10:54:59.47Z</time></trkpt><trkpt lat="41.6703142" lon="2.0696772"><ele>484.0</ele><time>2026-04-25T10:55:00.47Z</time></trkpt><trkpt lat="41.6702681" lon="2.0698407"><ele>484.33333333333337</ele><time>2026-04-25T10:55:01.469Z</time></trkpt><trkpt lat="41.6702344" lon="2.0699961"><ele>484.6666666666667</ele><time>2026-04-25T10:55:02.47Z</time></trkpt><trkpt lat="41.6702093" lon="2.0701216"><ele>485.0</ele><time>2026-04-25T10:55:03.47Z</time></trkpt><trkpt lat="41.6702017" lon="2.0702261"><ele>485.33333333333337</ele><time>2026-04-25T10:55:04.469Z</time></trkpt><trkpt lat="41.6702041" lon="2.0703214"><ele>485.6666666666667</ele><time>2026-04-25T10:55:05.47Z</time></trkpt><trkpt lat="41.6702023" lon="2.0704193"><ele>486.0</ele><time>2026-04-25T10:55:06.47Z</time></trkpt><trkpt lat="41.6701642" lon="2.0705643"><ele>486.0</ele><time>2026-04-25T10:55:08.47Z</time></trkpt><trkpt lat="41.6700403" lon="2.0706351"><ele>486.0</ele><time>2026-04-25T10:55:10.469Z</time></trkpt><trkpt lat="41.669939" lon="2.0706511"><ele>486.0</ele><time>2026-04-25T10:55:11.47Z</time></trkpt><trkpt lat="41.6698114" lon="2.070679"><ele>486.0</ele><time>2026-04-25T10:55:12.47Z</time></trkpt><trkpt lat="41.6696835" lon="2.0707115"><ele>486.0</ele><time>2026-04-25T10:55:13.47Z</time></trkpt><trkpt lat="41.6695592" lon="2.070741"><ele>486.0</ele><time>2026-04-25T10:55:14.47Z</time></trkpt><trkpt lat="41.6694431" lon="2.0707688"><ele>486.0</ele><time>2026-04-25T10:55:15.47Z</time></trkpt><trkpt lat="41.6693367" lon="2.0707929"><ele>486.0</ele><time>2026-04-25T10:55:16.47Z</time></trkpt><trkpt lat="41.6692398" lon="2.0708016"><ele>486.0</ele><time>2026-04-25T10:55:17.47Z</time></trkpt><trkpt lat="41.6691674" lon="2.0708062"><ele>487.0</ele><time>2026-04-25T10:55:18.469Z</time></trkpt><trkpt lat="41.6690985" lon="2.0708154"><ele>488.0</ele><time>2026-04-25T10:55:19.47Z</time></trkpt><trkpt lat="41.6690271" lon="2.0708289"><ele>489.0</ele><time>2026-04-25T10:55:20.469Z</time></trkpt><trkpt lat="41.6689629" lon="2.0708358"><ele>490.0</ele><time>2026-04-25T10:55:21.47Z</time></trkpt><trkpt lat="41.6688493" lon="2.070838"><ele>491.0</ele><time>2026-04-25T10:55:23.47Z</time></trkpt><trkpt lat="41.6687415" lon="2.0708773"><ele>492.0</ele><time>2026-04-25T10:55:25.469Z</time></trkpt><trkpt lat="41.6686615" lon="2.0709965"><ele>492.0</ele><time>2026-04-25T10:55:27.47Z</time></trkpt><trkpt lat="41.6686237" lon="2.0710933"><ele>492.0</ele><time>2026-04-25T10:55:28.47Z</time></trkpt><trkpt lat="41.6686039" lon="2.0711872"><ele>492.0</ele><time>2026-04-25T10:55:29.47Z</time></trkpt><trkpt lat="41.6686042" lon="2.0712814"><ele>492.0</ele><time>2026-04-25T10:55:30.47Z</time></trkpt><trkpt lat="41.6686142" lon="2.0713913"><ele>492.0</ele><time>2026-04-25T10:55:31.469Z</time></trkpt><trkpt lat="41.6686137" lon="2.0715045"><ele>492.0</ele><time>2026-04-25T10:55:32.47Z</time></trkpt><trkpt lat="41.6685957" lon="2.0716119"><ele>494.1666666666667</ele><time>2026-04-25T10:55:33.47Z</time></trkpt><trkpt lat="41.668562" lon="2.0717233"><ele>496.33333333333337</ele><time>2026-04-25T10:55:34.47Z</time></trkpt><trkpt lat="41.6685159" lon="2.0718204"><ele>498.5</ele><time>2026-04-25T10:55:35.469Z</time></trkpt><trkpt lat="41.6684576" lon="2.0719018"><ele>500.6666666666667</ele><time>2026-04-25T10:55:36.47Z</time></trkpt><trkpt lat="41.6684025" lon="2.0719825"><ele>502.83333333333337</ele><time>2026-04-25T10:55:37.47Z</time></trkpt><trkpt lat="41.6683483" lon="2.0720585"><ele>505.0</ele><time>2026-04-25T10:55:38.47Z</time></trkpt><trkpt lat="41.6682967" lon="2.0721399"><ele>505.00000000000006</ele><time>2026-04-25T10:55:39.47Z</time></trkpt><trkpt lat="41.6682512" lon="2.0722236"><ele>505.0</ele><time>2026-04-25T10:55:40.47Z</time></trkpt><trkpt lat="41.6682149" lon="2.0723199"><ele>505.0</ele><time>2026-04-25T10:55:41.47Z</time></trkpt><trkpt lat="41.66819" lon="2.0724276"><ele>505.0</ele><time>2026-04-25T10:55:42.469Z</time></trkpt><trkpt lat="41.6681672" lon="2.0725468"><ele>505.00000000000006</ele><time>2026-04-25T10:55:43.47Z</time></trkpt><trkpt lat="41.6681469" lon="2.0726662"><ele>505.0</ele><time>2026-04-25T10:55:44.47Z</time></trkpt><trkpt lat="41.6681077" lon="2.0727494"><ele>504.33333333333337</ele><time>2026-04-25T10:55:45.47Z</time></trkpt><trkpt lat="41.6680596" lon="2.0728369"><ele>503.6666666666667</ele><time>2026-04-25T10:55:46.47Z</time></trkpt><trkpt lat="41.6680045" lon="2.0729254"><ele>503.0</ele><time>2026-04-25T10:55:47.47Z</time></trkpt><trkpt lat="41.6679544" lon="2.0730119"><ele>502.33333333333337</ele><time>2026-04-25T10:55:48.47Z</time></trkpt><trkpt lat="41.6679056" lon="2.0730876"><ele>501.6666666666667</ele><time>2026-04-25T10:55:49.47Z</time></trkpt><trkpt lat="41.6678586" lon="2.0731723"><ele>501.0</ele><time>2026-04-25T10:55:50.47Z</time></trkpt><trkpt lat="41.6678023" lon="2.0732487"><ele>503.6666666666667</ele><time>2026-04-25T10:55:51.47Z</time></trkpt><trkpt lat="41.6677422" lon="2.0733274"><ele>506.33333333333337</ele><time>2026-04-25T10:55:52.47Z</time></trkpt><trkpt lat="41.6676991" lon="2.0734088"><ele>509.0</ele><time>2026-04-25T10:55:53.47Z</time></trkpt><trkpt lat="41.6676663" lon="2.0735042"><ele>511.6666666666667</ele><time>2026-04-25T10:55:54.469Z</time></trkpt><trkpt lat="41.6676499" lon="2.0736206"><ele>514.3333333333334</ele><time>2026-04-25T10:55:55.469Z</time></trkpt><trkpt lat="41.6676456" lon="2.0737382"><ele>517.0</ele><time>2026-04-25T10:55:56.47Z</time></trkpt><trkpt lat="41.6676561" lon="2.0738439"><ele>517.0</ele><time>2026-04-25T10:55:57.47Z</time></trkpt><trkpt lat="41.6676945" lon="2.0739494"><ele>517.0</ele><time>2026-04-25T10:55:58.469Z</time></trkpt><trkpt lat="41.6677586" lon="2.0740368"><ele>517.0</ele><time>2026-04-25T10:55:59.47Z</time></trkpt><trkpt lat="41.6678332" lon="2.074098"><ele>517.0</ele><time>2026-04-25T10:56:00.47Z</time></trkpt><trkpt lat="41.6679072" lon="2.0741403"><ele>517.0</ele><time>2026-04-25T10:56:01.47Z</time></trkpt><trkpt lat="41.6679591" lon="2.0741977"><ele>517.0</ele><time>2026-04-25T10:56:02.47Z</time></trkpt><trkpt lat="41.6680044" lon="2.074334"><ele>515.0</ele><time>2026-04-25T10:56:04.47Z</time></trkpt><trkpt lat="41.6680148" lon="2.0744308"><ele>513.0</ele><time>2026-04-25T10:56:05.47Z</time></trkpt><trkpt lat="41.6680273" lon="2.074531"><ele>511.0</ele><time>2026-04-25T10:56:06.47Z</time></trkpt><trkpt lat="41.6680542" lon="2.0746183"><ele>509.0</ele><time>2026-04-25T10:56:07.47Z</time></trkpt><trkpt lat="41.6680888" lon="2.0747157"><ele>507.00000000000006</ele><time>2026-04-25T10:56:08.47Z</time></trkpt><trkpt lat="41.6681172" lon="2.0748222"><ele>505.0</ele><time>2026-04-25T10:56:09.47Z</time></trkpt><trkpt lat="41.6681357" lon="2.0749235"><ele>505.6</ele><time>2026-04-25T10:56:10.47Z</time></trkpt><trkpt lat="41.6681436" lon="2.0750821"><ele>506.2</ele><time>2026-04-25T10:56:12.47Z</time></trkpt><trkpt lat="41.668081" lon="2.0751846"><ele>506.79999999999995</ele><time>2026-04-25T10:56:14.47Z</time></trkpt><trkpt lat="41.6679681" lon="2.0752444"><ele>507.4</ele><time>2026-04-25T10:56:16.47Z</time></trkpt><trkpt lat="41.6678919" lon="2.0752544"><ele>508.0</ele><time>2026-04-25T10:56:17.47Z</time></trkpt><trkpt lat="41.6678184" lon="2.0752638"><ele>511.59999999999997</ele><time>2026-04-25T10:56:18.47Z</time></trkpt><trkpt lat="41.6677418" lon="2.0752667"><ele>515.1999999999999</ele><time>2026-04-25T10:56:19.47Z</time></trkpt><trkpt lat="41.6676376" lon="2.0752768"><ele>518.8</ele><time>2026-04-25T10:56:21.47Z</time></trkpt><trkpt lat="41.6675422" lon="2.0753943"><ele>522.4</ele><time>2026-04-25T10:56:23.47Z</time></trkpt><trkpt lat="41.6674931" lon="2.0754776"><ele>526.0</ele><time>2026-04-25T10:56:24.47Z</time></trkpt><trkpt lat="41.6674345" lon="2.0755723"><ele>526.0</ele><time>2026-04-25T10:56:25.47Z</time></trkpt><trkpt lat="41.6673799" lon="2.0756735"><ele>526.0</ele><time>2026-04-25T10:56:26.47Z</time></trkpt><trkpt lat="41.6673332" lon="2.0757735"><ele>526.0</ele><time>2026-04-25T10:56:27.47Z</time></trkpt><trkpt lat="41.6672855" lon="2.0758745"><ele>526.0</ele><time>2026-04-25T10:56:28.47Z</time></trkpt><trkpt lat="41.6672328" lon="2.0759657"><ele>526.0</ele><time>2026-04-25T10:56:29.47Z</time></trkpt><trkpt lat="41.6671641" lon="2.0760402"><ele>526.0</ele><time>2026-04-25T10:56:30.47Z</time></trkpt><trkpt lat="41.6670971" lon="2.0760909"><ele>525.3333333333334</ele><time>2026-04-25T10:56:31.469Z</time></trkpt><trkpt lat="41.6670249" lon="2.0761207"><ele>524.6666666666667</ele><time>2026-04-25T10:56:32.47Z</time></trkpt><trkpt lat="41.6669401" lon="2.0761275"><ele>524.0</ele><time>2026-04-25T10:56:33.47Z</time></trkpt><trkpt lat="41.6668445" lon="2.076132"><ele>523.3333333333334</ele><time>2026-04-25T10:56:34.47Z</time></trkpt><trkpt lat="41.6667578" lon="2.0761482"><ele>522.6666666666666</ele><time>2026-04-25T10:56:35.47Z</time></trkpt><trkpt lat="41.6666708" lon="2.076157"><ele>522.0</ele><time>2026-04-25T10:56:36.47Z</time></trkpt><trkpt lat="41.6665821" lon="2.0761396"><ele>525.2</ele><time>2026-04-25T10:56:37.47Z</time></trkpt><trkpt lat="41.6664855" lon="2.0761144"><ele>528.4000000000001</ele><time>2026-04-25T10:56:38.47Z</time></trkpt><trkpt lat="41.6663833" lon="2.0760725"><ele>531.5999999999999</ele><time>2026-04-25T10:56:39.469Z</time></trkpt><trkpt lat="41.6663001" lon="2.0760372"><ele>534.8</ele><time>2026-04-25T10:56:40.47Z</time></trkpt><trkpt lat="41.6662189" lon="2.0760164"><ele>538.0</ele><time>2026-04-25T10:56:41.47Z</time></trkpt><trkpt lat="41.6661384" lon="2.0760249"><ele>538.3333333333334</ele><time>2026-04-25T10:56:42.469Z</time></trkpt><trkpt lat="41.666062" lon="2.0760501"><ele>538.6666666666667</ele><time>2026-04-25T10:56:43.47Z</time></trkpt><trkpt lat="41.6659892" lon="2.0760839"><ele>539.0</ele><time>2026-04-25T10:56:44.47Z</time></trkpt><trkpt lat="41.6659296" lon="2.0761287"><ele>539.3333333333334</ele><time>2026-04-25T10:56:45.47Z</time></trkpt><trkpt lat="41.6658756" lon="2.0762659"><ele>539.6666666666666</ele><time>2026-04-25T10:56:47.47Z</time></trkpt><trkpt lat="41.6658698" lon="2.076365"><ele>540.0</ele><time>2026-04-25T10:56:48.47Z</time></trkpt><trkpt lat="41.6658637" lon="2.0764787"><ele>540.0</ele><time>2026-04-25T10:56:49.47Z</time></trkpt><trkpt lat="41.6658335" lon="2.0766009"><ele>540.0</ele><time>2026-04-25T10:56:50.47Z</time></trkpt><trkpt lat="41.6657959" lon="2.0767308"><ele>540.0</ele><time>2026-04-25T10:56:51.47Z</time></trkpt><trkpt lat="41.6657608" lon="2.0768362"><ele>540.0</ele><time>2026-04-25T10:56:52.47Z</time></trkpt><trkpt lat="41.6657312" lon="2.0769318"><ele>540.0</ele><time>2026-04-25T10:56:53.47Z</time></trkpt><trkpt lat="41.6657379" lon="2.0770182"><ele>540.0</ele><time>2026-04-25T10:56:54.47Z</time></trkpt><trkpt lat="41.6658047" lon="2.0771238"><ele>539.6666666666666</ele><time>2026-04-25T10:56:56.47Z</time></trkpt><trkpt lat="41.6658823" lon="2.077146"><ele>539.3333333333334</ele><time>2026-04-25T10:56:57.47Z</time></trkpt><trkpt lat="41.6659653" lon="2.0771327"><ele>539.0</ele><time>2026-04-25T10:56:58.47Z</time></trkpt><trkpt lat="41.6660359" lon="2.0771295"><ele>538.6666666666667</ele><time>2026-04-25T10:56:59.47Z</time></trkpt><trkpt lat="41.6661248" lon="2.0771283"><ele>538.3333333333334</ele><time>2026-04-25T10:57:01.469Z</time></trkpt><trkpt lat="41.666154" lon="2.0772183"><ele>538.0</ele><time>2026-04-25T10:57:03.47Z</time></trkpt><trkpt lat="41.6660803" lon="2.0773124"><ele>538.0</ele><time>2026-04-25T10:57:05.468Z</time></trkpt><trkpt lat="41.6659945" lon="2.0773786"><ele>538.0</ele><time>2026-04-25T10:57:07.469Z</time></trkpt><trkpt lat="41.6658959" lon="2.0774519"><ele>538.0</ele><time>2026-04-25T10:57:09.469Z</time></trkpt><trkpt lat="41.6657971" lon="2.0775347"><ele>538.0</ele><time>2026-04-25T10:57:11.469Z</time></trkpt><trkpt lat="41.6656889" lon="2.077586"><ele>538.0</ele><time>2026-04-25T10:57:13.468Z</time></trkpt><trkpt lat="41.6656189" lon="2.0775782"><ele>538.0</ele><time>2026-04-25T10:57:14.469Z</time></trkpt><trkpt lat="41.6655424" lon="2.0775336"><ele>538.0</ele><time>2026-04-25T10:57:15.469Z</time></trkpt><trkpt lat="41.6654739" lon="2.0774856"><ele>538.0</ele><time>2026-04-25T10:57:16.469Z</time></trkpt><trkpt lat="41.6654046" lon="2.0774351"><ele>538.0</ele><time>2026-04-25T10:57:17.469Z</time></trkpt><trkpt lat="41.6653274" lon="2.0774011"><ele>538.0</ele><time>2026-04-25T10:57:18.469Z</time></trkpt><trkpt lat="41.6652571" lon="2.0773687"><ele>538.0</ele><time>2026-04-25T10:57:19.468Z</time></trkpt><trkpt lat="41.6651903" lon="2.0773501"><ele>540.8333333333334</ele><time>2026-04-25T10:57:20.469Z</time></trkpt><trkpt lat="41.6651271" lon="2.0773376"><ele>543.6666666666667</ele><time>2026-04-25T10:57:21.469Z</time></trkpt><trkpt lat="41.6650498" lon="2.0773311"><ele>546.5</ele><time>2026-04-25T10:57:22.469Z</time></trkpt><trkpt lat="41.6649719" lon="2.0773153"><ele>549.3333333333334</ele><time>2026-04-25T10:57:23.469Z</time></trkpt><trkpt lat="41.6648886" lon="2.077312"><ele>552.1666666666666</ele><time>2026-04-25T10:57:24.469Z</time></trkpt><trkpt lat="41.6648046" lon="2.0773281"><ele>555.0</ele><time>2026-04-25T10:57:25.469Z</time></trkpt><trkpt lat="41.664718" lon="2.0773411"><ele>555.0</ele><time>2026-04-25T10:57:26.468Z</time></trkpt><trkpt lat="41.6646337" lon="2.0773441"><ele>555.0</ele><time>2026-04-25T10:57:27.469Z</time></trkpt><trkpt lat="41.6645571" lon="2.0773433"><ele>555.0</ele><time>2026-04-25T10:57:28.469Z</time></trkpt><trkpt lat="41.664481" lon="2.077312"><ele>555.0</ele><time>2026-04-25T10:57:30.469Z</time></trkpt><trkpt lat="41.664558" lon="2.0773659"><ele>555.0</ele><time>2026-04-25T10:57:48.469Z</time></trkpt><trkpt lat="41.6646591" lon="2.0774722"><ele>554.5</ele><time>2026-04-25T10:57:50.469Z</time></trkpt><trkpt lat="41.6647114" lon="2.0775537"><ele>554.0</ele><time>2026-04-25T10:57:51.469Z</time></trkpt><trkpt lat="41.6647525" lon="2.0776408"><ele>553.5</ele><time>2026-04-25T10:57:52.469Z</time></trkpt><trkpt lat="41.6647733" lon="2.0777428"><ele>553.0</ele><time>2026-04-25T10:57:53.469Z</time></trkpt><trkpt lat="41.6647824" lon="2.0778643"><ele>552.5</ele><time>2026-04-25T10:57:54.469Z</time></trkpt><trkpt lat="41.6647848" lon="2.0779942"><ele>552.0</ele><time>2026-04-25T10:57:55.468Z</time></trkpt><trkpt lat="41.6647937" lon="2.0781387"><ele>552.4</ele><time>2026-04-25T10:57:56.469Z</time></trkpt><trkpt lat="41.6648082" lon="2.0782806"><ele>552.8000000000001</ele><time>2026-04-25T10:57:57.469Z</time></trkpt><trkpt lat="41.6648209" lon="2.0784205"><ele>553.2</ele><time>2026-04-25T10:57:58.469Z</time></trkpt><trkpt lat="41.6648378" lon="2.0785662"><ele>553.6</ele><time>2026-04-25T10:57:59.469Z</time></trkpt><trkpt lat="41.6648523" lon="2.0787259"><ele>554.0</ele><time>2026-04-25T10:58:00.468Z</time></trkpt><trkpt lat="41.6648587" lon="2.0788737"><ele>554.0</ele><time>2026-04-25T10:58:01.469Z</time></trkpt><trkpt lat="41.6648577" lon="2.0790096"><ele>554.0</ele><time>2026-04-25T10:58:02.469Z</time></trkpt><trkpt lat="41.6648476" lon="2.0791323"><ele>554.0</ele><time>2026-04-25T10:58:03.469Z</time></trkpt><trkpt lat="41.6648456" lon="2.0792369"><ele>554.0</ele><time>2026-04-25T10:58:04.469Z</time></trkpt><trkpt lat="41.6648548" lon="2.0793457"><ele>554.0</ele><time>2026-04-25T10:58:05.468Z</time></trkpt><trkpt lat="41.6648767" lon="2.0794687"><ele>554.0</ele><time>2026-04-25T10:58:06.469Z</time></trkpt><trkpt lat="41.6649051" lon="2.079569"><ele>554.0</ele><time>2026-04-25T10:58:07.469Z</time></trkpt><trkpt lat="41.6649411" lon="2.0796503"><ele>554.0</ele><time>2026-04-25T10:58:08.469Z</time></trkpt><trkpt lat="41.6650194" lon="2.0797617"><ele>554.0</ele><time>2026-04-25T10:58:10.469Z</time></trkpt><trkpt lat="41.6650765" lon="2.0798059"><ele>554.0</ele><time>2026-04-25T10:58:11.469Z</time></trkpt><trkpt lat="41.6651642" lon="2.07987"><ele>554.0</ele><time>2026-04-25T10:58:12.469Z</time></trkpt><trkpt lat="41.665255" lon="2.0799404"><ele>556.0</ele><time>2026-04-25T10:58:13.468Z</time></trkpt><trkpt lat="41.6653326" lon="2.0799948"><ele>558.0</ele><time>2026-04-25T10:58:14.469Z</time></trkpt><trkpt lat="41.6653887" lon="2.0800534"><ele>560.0</ele><time>2026-04-25T10:58:15.468Z</time></trkpt><trkpt lat="41.6654322" lon="2.0801201"><ele>562.0</ele><time>2026-04-25T10:58:16.469Z</time></trkpt><trkpt lat="41.6654741" lon="2.0801892"><ele>564.0</ele><time>2026-04-25T10:58:17.469Z</time></trkpt><trkpt lat="41.6655007" lon="2.0802678"><ele>566.0</ele><time>2026-04-25T10:58:18.469Z</time></trkpt><trkpt lat="41.6655049" lon="2.0803638"><ele>568.0</ele><time>2026-04-25T10:58:19.469Z</time></trkpt><trkpt lat="41.6654803" lon="2.0804565"><ele>568.0</ele><time>2026-04-25T10:58:20.469Z</time></trkpt><trkpt lat="41.6654309" lon="2.0805527"><ele>568.0</ele><time>2026-04-25T10:58:21.469Z</time></trkpt><trkpt lat="41.6653469" lon="2.0806375"><ele>568.0</ele><time>2026-04-25T10:58:22.469Z</time></trkpt><trkpt lat="41.6652568" lon="2.0807222"><ele>568.0</ele><time>2026-04-25T10:58:23.469Z</time></trkpt><trkpt lat="41.6651812" lon="2.0807935"><ele>568.0</ele><time>2026-04-25T10:58:24.469Z</time></trkpt><trkpt lat="41.6651263" lon="2.080851"><ele>563.6</ele><time>2026-04-25T10:58:25.469Z</time></trkpt><trkpt lat="41.6650496" lon="2.0809644"><ele>559.1999999999999</ele><time>2026-04-25T10:58:27.474Z</time></trkpt><trkpt lat="41.6650459" lon="2.0811151"><ele>554.8</ele><time>2026-04-25T10:58:29.474Z</time></trkpt><trkpt lat="41.665084" lon="2.0812061"><ele>550.4</ele><time>2026-04-25T10:58:30.474Z</time></trkpt><trkpt lat="41.6651305" lon="2.0812956"><ele>546.0</ele><time>2026-04-25T10:58:31.474Z</time></trkpt><trkpt lat="41.6652088" lon="2.0813998"><ele>549.8</ele><time>2026-04-25T10:58:32.473Z</time></trkpt><trkpt lat="41.6652981" lon="2.0815115"><ele>553.6</ele><time>2026-04-25T10:58:33.474Z</time></trkpt><trkpt lat="41.6653822" lon="2.0816247"><ele>557.4</ele><time>2026-04-25T10:58:34.474Z</time></trkpt><trkpt lat="41.6654605" lon="2.0817224"><ele>561.2</ele><time>2026-04-25T10:58:35.474Z</time></trkpt><trkpt lat="41.6655345" lon="2.0817957"><ele>565.0</ele><time>2026-04-25T10:58:36.474Z</time></trkpt><trkpt lat="41.6655859" lon="2.0818637"><ele>565.6</ele><time>2026-04-25T10:58:37.474Z</time></trkpt><trkpt lat="41.6656022" lon="2.0820286"><ele>566.2</ele><time>2026-04-25T10:58:39.474Z</time></trkpt><trkpt lat="41.6655736" lon="2.0821057"><ele>566.8</ele><time>2026-04-25T10:58:40.474Z</time></trkpt><trkpt lat="41.6655177" lon="2.082183"><ele>567.4</ele><time>2026-04-25T10:58:41.474Z</time></trkpt><trkpt lat="41.6654453" lon="2.0822457"><ele>568.0</ele><time>2026-04-25T10:58:42.474Z</time></trkpt><trkpt lat="41.6653476" lon="2.0822783"><ele>563.8</ele><time>2026-04-25T10:58:43.474Z</time></trkpt><trkpt lat="41.6652335" lon="2.0822797"><ele>559.5999999999999</ele><time>2026-04-25T10:58:44.474Z</time></trkpt><trkpt lat="41.6651338" lon="2.0822614"><ele>555.4000000000001</ele><time>2026-04-25T10:58:45.474Z</time></trkpt><trkpt lat="41.6650633" lon="2.0822484"><ele>551.2</ele><time>2026-04-25T10:58:46.474Z</time></trkpt><trkpt lat="41.6649745" lon="2.0823212"><ele>547.0</ele><time>2026-04-25T10:58:48.474Z</time></trkpt><trkpt lat="41.6649318" lon="2.0824298"><ele>548.2</ele><time>2026-04-25T10:58:50.474Z</time></trkpt><trkpt lat="41.665003" lon="2.0825822"><ele>549.4000000000001</ele><time>2026-04-25T10:58:52.474Z</time></trkpt><trkpt lat="41.6650672" lon="2.0826685"><ele>550.5999999999999</ele><time>2026-04-25T10:58:53.474Z</time></trkpt><trkpt lat="41.6651488" lon="2.0827499"><ele>551.8</ele><time>2026-04-25T10:58:54.474Z</time></trkpt><trkpt lat="41.6652308" lon="2.0828263"><ele>553.0</ele><time>2026-04-25T10:58:55.474Z</time></trkpt><trkpt lat="41.6652936" lon="2.0828967"><ele>553.5</ele><time>2026-04-25T10:58:56.474Z</time></trkpt><trkpt lat="41.6653363" lon="2.082974"><ele>554.0</ele><time>2026-04-25T10:58:57.473Z</time></trkpt><trkpt lat="41.6653548" lon="2.0830729"><ele>554.5</ele><time>2026-04-25T10:58:58.474Z</time></trkpt><trkpt lat="41.6653332" lon="2.0831843"><ele>555.0</ele><time>2026-04-25T10:58:59.474Z</time></trkpt><trkpt lat="41.6652922" lon="2.0832885"><ele>555.5</ele><time>2026-04-25T10:59:00.474Z</time></trkpt><trkpt lat="41.6652255" lon="2.0833794"><ele>556.0</ele><time>2026-04-25T10:59:01.474Z</time></trkpt><trkpt lat="41.6651491" lon="2.0834604"><ele>556.0</ele><time>2026-04-25T10:59:02.473Z</time></trkpt><trkpt lat="41.665102" lon="2.0835193"><ele>556.0</ele><time>2026-04-25T10:59:03.474Z</time></trkpt><trkpt lat="41.6650758" lon="2.083596"><ele>556.0</ele><time>2026-04-25T10:59:04.474Z</time></trkpt><trkpt lat="41.6650623" lon="2.083692"><ele>556.0</ele><time>2026-04-25T10:59:05.474Z</time></trkpt><trkpt lat="41.6650555" lon="2.0838249"><ele>556.0</ele><time>2026-04-25T10:59:06.474Z</time></trkpt><trkpt lat="41.6650508" lon="2.0839697"><ele>556.0</ele><time>2026-04-25T10:59:07.474Z</time></trkpt><trkpt lat="41.6650617" lon="2.0841363"><ele>556.6666666666667</ele><time>2026-04-25T10:59:08.474Z</time></trkpt><trkpt lat="41.6650725" lon="2.0842908"><ele>557.3333333333334</ele><time>2026-04-25T10:59:09.474Z</time></trkpt><trkpt lat="41.6650818" lon="2.0844191"><ele>558.0</ele><time>2026-04-25T10:59:10.474Z</time></trkpt><trkpt lat="41.6650856" lon="2.0845236"><ele>558.6666666666666</ele><time>2026-04-25T10:59:11.474Z</time></trkpt><trkpt lat="41.6650643" lon="2.0846033"><ele>559.3333333333333</ele><time>2026-04-25T10:59:12.474Z</time></trkpt><trkpt lat="41.6650248" lon="2.0846706"><ele>560.0</ele><time>2026-04-25T10:59:13.474Z</time></trkpt><trkpt lat="41.6649537" lon="2.0847269"><ele>560.0</ele><time>2026-04-25T10:59:14.474Z</time></trkpt><trkpt lat="41.6648691" lon="2.0847482"><ele>560.0</ele><time>2026-04-25T10:59:15.474Z</time></trkpt><trkpt lat="41.6647886" lon="2.0847147"><ele>560.0</ele><time>2026-04-25T10:59:16.473Z</time></trkpt><trkpt lat="41.6647134" lon="2.0846626"><ele>560.0</ele><time>2026-04-25T10:59:17.474Z</time></trkpt><trkpt lat="41.6646471" lon="2.08461"><ele>560.0</ele><time>2026-04-25T10:59:18.474Z</time></trkpt><trkpt lat="41.6645848" lon="2.0845703"><ele>560.0</ele><time>2026-04-25T10:59:19.474Z</time></trkpt><trkpt lat="41.6644746" lon="2.0845991"><ele>559.0</ele><time>2026-04-25T10:59:21.474Z</time></trkpt><trkpt lat="41.6644138" lon="2.0846761"><ele>558.0</ele><time>2026-04-25T10:59:22.473Z</time></trkpt><trkpt lat="41.6643524" lon="2.0847703"><ele>557.0</ele><time>2026-04-25T10:59:23.474Z</time></trkpt><trkpt lat="41.6642933" lon="2.0848359"><ele>556.0</ele><time>2026-04-25T10:59:24.474Z</time></trkpt><trkpt lat="41.6642272" lon="2.0848607"><ele>555.0</ele><time>2026-04-25T10:59:25.474Z</time></trkpt><trkpt lat="41.6641276" lon="2.0848425"><ele>554.0</ele><time>2026-04-25T10:59:27.474Z</time></trkpt><trkpt lat="41.6640465" lon="2.0848048"><ele>554.0</ele><time>2026-04-25T10:59:30.474Z</time></trkpt><trkpt lat="41.6639828" lon="2.0847591"><ele>554.0</ele><time>2026-04-25T10:59:34.473Z</time></trkpt><trkpt lat="41.6639252" lon="2.0847207"><ele>554.0</ele><time>2026-04-25T10:59:37.474Z</time></trkpt><trkpt lat="41.6638582" lon="2.0846916"><ele>554.0</ele><time>2026-04-25T10:59:39.474Z</time></trkpt><trkpt lat="41.6637615" lon="2.0846629"><ele>554.0</ele><time>2026-04-25T10:59:41.474Z</time></trkpt><trkpt lat="41.6636582" lon="2.084635"><ele>554.0</ele><time>2026-04-25T10:59:43.474Z</time></trkpt><trkpt lat="41.6635738" lon="2.0846219"><ele>555.2</ele><time>2026-04-25T10:59:45.474Z</time></trkpt><trkpt lat="41.6634737" lon="2.0846395"><ele>556.4</ele><time>2026-04-25T10:59:47.474Z</time></trkpt><trkpt lat="41.6633866" lon="2.0846901"><ele>557.6</ele><time>2026-04-25T10:59:49.474Z</time></trkpt><trkpt lat="41.6633343" lon="2.0847907"><ele>558.8</ele><time>2026-04-25T10:59:51.473Z</time></trkpt><trkpt lat="41.6633171" lon="2.0849406"><ele>560.0</ele><time>2026-04-25T10:59:53.474Z</time></trkpt><trkpt lat="41.6633382" lon="2.0851003"><ele>560.0</ele><time>2026-04-25T10:59:55.474Z</time></trkpt><trkpt lat="41.6633814" lon="2.0852404"><ele>560.0</ele><time>2026-04-25T10:59:57.474Z</time></trkpt><trkpt lat="41.6634506" lon="2.0853918"><ele>560.0</ele><time>2026-04-25T10:59:59.474Z</time></trkpt><trkpt lat="41.6634992" lon="2.0854815"><ele>560.0</ele><time>2026-04-25T11:00:00.474Z</time></trkpt><trkpt lat="41.6635493" lon="2.0855781"><ele>560.0</ele><time>2026-04-25T11:00:01.474Z</time></trkpt><trkpt lat="41.6635966" lon="2.0856787"><ele>563.5</ele><time>2026-04-25T11:00:02.474Z</time></trkpt><trkpt lat="41.6636373" lon="2.0857815"><ele>567.0</ele><time>2026-04-25T11:00:03.474Z</time></trkpt><trkpt lat="41.6636681" lon="2.0858719"><ele>570.5</ele><time>2026-04-25T11:00:04.473Z</time></trkpt><trkpt lat="41.6637017" lon="2.0859598"><ele>574.0</ele><time>2026-04-25T11:00:05.474Z</time></trkpt><trkpt lat="41.663735" lon="2.0860628"><ele>577.5</ele><time>2026-04-25T11:00:06.474Z</time></trkpt><trkpt lat="41.6637729" lon="2.0861792"><ele>581.0</ele><time>2026-04-25T11:00:07.474Z</time></trkpt><trkpt lat="41.6637934" lon="2.0862993"><ele>581.0</ele><time>2026-04-25T11:00:08.474Z</time></trkpt><trkpt lat="41.6637963" lon="2.0864182"><ele>581.0</ele><time>2026-04-25T11:00:09.474Z</time></trkpt><trkpt lat="41.6637739" lon="2.0865316"><ele>581.0</ele><time>2026-04-25T11:00:10.474Z</time></trkpt><trkpt lat="41.6637221" lon="2.0866475"><ele>581.0</ele><time>2026-04-25T11:00:11.474Z</time></trkpt><trkpt lat="41.6636564" lon="2.0867538"><ele>581.0</ele><time>2026-04-25T11:00:12.474Z</time></trkpt><trkpt lat="41.6635818" lon="2.086862"><ele>578.0</ele><time>2026-04-25T11:00:13.474Z</time></trkpt><trkpt lat="41.6634867" lon="2.0869563"><ele>575.0</ele><time>2026-04-25T11:00:14.474Z</time></trkpt><trkpt lat="41.663383" lon="2.0870438"><ele>572.0</ele><time>2026-04-25T11:00:15.473Z</time></trkpt><trkpt lat="41.6632793" lon="2.0871338"><ele>569.0</ele><time>2026-04-25T11:00:16.473Z</time></trkpt><trkpt lat="41.6631731" lon="2.0872298"><ele>569.0</ele><time>2026-04-25T11:00:17.474Z</time></trkpt><trkpt lat="41.6630729" lon="2.0873231"><ele>569.0</ele><time>2026-04-25T11:00:18.473Z</time></trkpt><trkpt lat="41.6629837" lon="2.0873883"><ele>569.0</ele><time>2026-04-25T11:00:19.473Z</time></trkpt><trkpt lat="41.6629174" lon="2.0874428"><ele>569.0</ele><time>2026-04-25T11:00:20.473Z</time></trkpt><trkpt lat="41.6628312" lon="2.0875826"><ele>569.0</ele><time>2026-04-25T11:00:22.474Z</time></trkpt><trkpt lat="41.6628009" lon="2.0876838"><ele>569.6666666666666</ele><time>2026-04-25T11:00:23.474Z</time></trkpt><trkpt lat="41.6627799" lon="2.0877905"><ele>570.3333333333333</ele><time>2026-04-25T11:00:24.473Z</time></trkpt><trkpt lat="41.6627647" lon="2.0878908"><ele>571.0</ele><time>2026-04-25T11:00:25.473Z</time></trkpt><trkpt lat="41.6627189" lon="2.0879684"><ele>571.6666666666666</ele><time>2026-04-25T11:00:26.474Z</time></trkpt><trkpt lat="41.6626408" lon="2.0880051"><ele>572.3333333333334</ele><time>2026-04-25T11:00:27.474Z</time></trkpt><trkpt lat="41.662569" lon="2.0880029"><ele>573.0</ele><time>2026-04-25T11:00:28.474Z</time></trkpt><trkpt lat="41.6625031" lon="2.0879488"><ele>573.0</ele><time>2026-04-25T11:00:29.473Z</time></trkpt><trkpt lat="41.6624343" lon="2.0878551"><ele>573.0</ele><time>2026-04-25T11:00:30.473Z</time></trkpt><trkpt lat="41.6623816" lon="2.0877494"><ele>573.0</ele><time>2026-04-25T11:00:31.474Z</time></trkpt><trkpt lat="41.6623389" lon="2.0876675"><ele>573.0</ele><time>2026-04-25T11:00:32.474Z</time></trkpt><trkpt lat="41.6622469" lon="2.087631"><ele>573.0</ele><time>2026-04-25T11:00:34.474Z</time></trkpt><trkpt lat="41.6621246" lon="2.087702"><ele>573.0</ele><time>2026-04-25T11:00:36.474Z</time></trkpt><trkpt lat="41.6620347" lon="2.0877666"><ele>573.0</ele><time>2026-04-25T11:00:37.474Z</time></trkpt><trkpt lat="41.6619398" lon="2.0878244"><ele>573.0</ele><time>2026-04-25T11:00:38.474Z</time></trkpt><trkpt lat="41.6618441" lon="2.0878654"><ele>573.0</ele><time>2026-04-25T11:00:39.474Z</time></trkpt><trkpt lat="41.6617483" lon="2.0878744"><ele>573.0</ele><time>2026-04-25T11:00:40.474Z</time></trkpt><trkpt lat="41.6616638" lon="2.0878657"><ele>573.8333333333334</ele><time>2026-04-25T11:00:41.474Z</time></trkpt><trkpt lat="41.661603" lon="2.0878208"><ele>574.6666666666666</ele><time>2026-04-25T11:00:42.474Z</time></trkpt><trkpt lat="41.6615476" lon="2.0877644"><ele>575.5</ele><time>2026-04-25T11:00:43.474Z</time></trkpt><trkpt lat="41.6614959" lon="2.0876808"><ele>576.3333333333333</ele><time>2026-04-25T11:00:44.473Z</time></trkpt><trkpt lat="41.6614261" lon="2.087576"><ele>577.1666666666666</ele><time>2026-04-25T11:00:45.474Z</time></trkpt><trkpt lat="41.6613387" lon="2.0874883"><ele>578.0</ele><time>2026-04-25T11:00:46.474Z</time></trkpt><trkpt lat="41.6612579" lon="2.0874234"><ele>575.4</ele><time>2026-04-25T11:00:47.474Z</time></trkpt><trkpt lat="41.661179" lon="2.0873846"><ele>572.8</ele><time>2026-04-25T11:00:48.474Z</time></trkpt><trkpt lat="41.6610982" lon="2.087364"><ele>570.2</ele><time>2026-04-25T11:00:49.474Z</time></trkpt><trkpt lat="41.6610059" lon="2.0873562"><ele>567.6</ele><time>2026-04-25T11:00:50.474Z</time></trkpt><trkpt lat="41.6609128" lon="2.0873707"><ele>565.0</ele><time>2026-04-25T11:00:51.473Z</time></trkpt><trkpt lat="41.6607943" lon="2.0874227"><ele>565.0</ele><time>2026-04-25T11:00:52.474Z</time></trkpt><trkpt lat="41.6606815" lon="2.0874657"><ele>565.0</ele><time>2026-04-25T11:00:53.474Z</time></trkpt><trkpt lat="41.6605833" lon="2.0874895"><ele>565.0</ele><time>2026-04-25T11:00:54.474Z</time></trkpt><trkpt lat="41.6605105" lon="2.0874811"><ele>565.0</ele><time>2026-04-25T11:00:55.474Z</time></trkpt><trkpt lat="41.6604347" lon="2.0874528"><ele>565.0</ele><time>2026-04-25T11:00:56.474Z</time></trkpt><trkpt lat="41.6603521" lon="2.0874127"><ele>566.0</ele><time>2026-04-25T11:00:57.473Z</time></trkpt><trkpt lat="41.660275" lon="2.0873772"><ele>567.0</ele><time>2026-04-25T11:00:58.473Z</time></trkpt><trkpt lat="41.6602145" lon="2.0873463"><ele>568.0</ele><time>2026-04-25T11:00:59.474Z</time></trkpt><trkpt lat="41.6600984" lon="2.0873538"><ele>569.0</ele><time>2026-04-25T11:01:01.474Z</time></trkpt><trkpt lat="41.6599978" lon="2.0874661"><ele>570.0</ele><time>2026-04-25T11:01:03.474Z</time></trkpt><trkpt lat="41.6599528" lon="2.0875639"><ele>572.5</ele><time>2026-04-25T11:01:04.474Z</time></trkpt><trkpt lat="41.6599105" lon="2.0876544"><ele>575.0</ele><time>2026-04-25T11:01:05.474Z</time></trkpt><trkpt lat="41.6598562" lon="2.0877416"><ele>577.5</ele><time>2026-04-25T11:01:06.474Z</time></trkpt><trkpt lat="41.6597839" lon="2.0878088"><ele>580.0</ele><time>2026-04-25T11:01:07.474Z</time></trkpt><trkpt lat="41.6597062" lon="2.0878624"><ele>582.5</ele><time>2026-04-25T11:01:08.473Z</time></trkpt><trkpt lat="41.6596231" lon="2.0878882"><ele>585.0</ele><time>2026-04-25T11:01:09.474Z</time></trkpt><trkpt lat="41.6595388" lon="2.0879045"><ele>585.0</ele><time>2026-04-25T11:01:10.473Z</time></trkpt><trkpt lat="41.6594584" lon="2.087902"><ele>585.0</ele><time>2026-04-25T11:01:11.474Z</time></trkpt><trkpt lat="41.6593725" lon="2.0878551"><ele>585.0</ele><time>2026-04-25T11:01:12.474Z</time></trkpt><trkpt lat="41.6592865" lon="2.0877852"><ele>585.0</ele><time>2026-04-25T11:01:13.474Z</time></trkpt><trkpt lat="41.6592059" lon="2.0877147"><ele>585.0</ele><time>2026-04-25T11:01:14.474Z</time></trkpt><trkpt lat="41.6591304" lon="2.0876701"><ele>584.2</ele><time>2026-04-25T11:01:15.474Z</time></trkpt><trkpt lat="41.6590542" lon="2.0876621"><ele>583.4</ele><time>2026-04-25T11:01:16.474Z</time></trkpt><trkpt lat="41.6589819" lon="2.0876801"><ele>582.6</ele><time>2026-04-25T11:01:17.474Z</time></trkpt><trkpt lat="41.6589047" lon="2.087725"><ele>581.8</ele><time>2026-04-25T11:01:18.474Z</time></trkpt><trkpt lat="41.658812" lon="2.0877916"><ele>581.0</ele><time>2026-04-25T11:01:19.473Z</time></trkpt><trkpt lat="41.6587085" lon="2.0878592"><ele>581.0</ele><time>2026-04-25T11:01:20.473Z</time></trkpt><trkpt lat="41.6585936" lon="2.0879162"><ele>581.0</ele><time>2026-04-25T11:01:21.473Z</time></trkpt><trkpt lat="41.6584807" lon="2.0879837"><ele>581.0</ele><time>2026-04-25T11:01:22.474Z</time></trkpt><trkpt lat="41.6583741" lon="2.0880492"><ele>581.0</ele><time>2026-04-25T11:01:23.473Z</time></trkpt><trkpt lat="41.6582792" lon="2.0881089"><ele>581.0</ele><time>2026-04-25T11:01:24.474Z</time></trkpt><trkpt lat="41.6581992" lon="2.0881585"><ele>581.0</ele><time>2026-04-25T11:01:25.474Z</time></trkpt><trkpt lat="41.6581326" lon="2.0882026"><ele>581.0</ele><time>2026-04-25T11:01:26.474Z</time></trkpt><trkpt lat="41.6580133" lon="2.0882285"><ele>581.0</ele><time>2026-04-25T11:01:28.474Z</time></trkpt><trkpt lat="41.6579434" lon="2.0882581"><ele>581.0</ele><time>2026-04-25T11:01:29.474Z</time></trkpt><trkpt lat="41.6578689" lon="2.0883057"><ele>581.0</ele><time>2026-04-25T11:01:30.474Z</time></trkpt><trkpt lat="41.6577927" lon="2.0883685"><ele>582.0</ele><time>2026-04-25T11:01:31.473Z</time></trkpt><trkpt lat="41.6577198" lon="2.0884412"><ele>583.0</ele><time>2026-04-25T11:01:32.474Z</time></trkpt><trkpt lat="41.6576482" lon="2.0885281"><ele>584.0</ele><time>2026-04-25T11:01:33.474Z</time></trkpt><trkpt lat="41.6575722" lon="2.0886367"><ele>585.0</ele><time>2026-04-25T11:01:34.474Z</time></trkpt><trkpt lat="41.6574821" lon="2.0887192"><ele>586.0</ele><time>2026-04-25T11:01:35.474Z</time></trkpt><trkpt lat="41.6574002" lon="2.0887866"><ele>586.0</ele><time>2026-04-25T11:01:36.474Z</time></trkpt><trkpt lat="41.6573183" lon="2.0888444"><ele>586.0</ele><time>2026-04-25T11:01:37.474Z</time></trkpt><trkpt lat="41.6572342" lon="2.0888771"><ele>586.0</ele><time>2026-04-25T11:01:38.474Z</time></trkpt><trkpt lat="41.6571493" lon="2.0888878"><ele>586.0</ele><time>2026-04-25T11:01:39.474Z</time></trkpt><trkpt lat="41.6570786" lon="2.0888665"><ele>586.0</ele><time>2026-04-25T11:01:40.474Z</time></trkpt><trkpt lat="41.6570211" lon="2.0888115"><ele>586.0</ele><time>2026-04-25T11:01:41.474Z</time></trkpt><trkpt lat="41.6569594" lon="2.0887341"><ele>586.4</ele><time>2026-04-25T11:01:42.473Z</time></trkpt><trkpt lat="41.6568837" lon="2.0886629"><ele>586.8</ele><time>2026-04-25T11:01:43.474Z</time></trkpt><trkpt lat="41.6567972" lon="2.088589"><ele>587.1999999999999</ele><time>2026-04-25T11:01:44.474Z</time></trkpt><trkpt lat="41.6567059" lon="2.0885076"><ele>587.6</ele><time>2026-04-25T11:01:45.474Z</time></trkpt><trkpt lat="41.6566296" lon="2.08843"><ele>588.0</ele><time>2026-04-25T11:01:46.474Z</time></trkpt><trkpt lat="41.6565398" lon="2.0883767"><ele>588.0</ele><time>2026-04-25T11:01:47.474Z</time></trkpt><trkpt lat="41.6564434" lon="2.0883259"><ele>588.0</ele><time>2026-04-25T11:01:48.474Z</time></trkpt><trkpt lat="41.656354" lon="2.0882748"><ele>588.0</ele><time>2026-04-25T11:01:49.474Z</time></trkpt><trkpt lat="41.6562868" lon="2.0882166"><ele>588.0</ele><time>2026-04-25T11:01:50.474Z</time></trkpt><trkpt lat="41.6562135" lon="2.0881425"><ele>588.0</ele><time>2026-04-25T11:01:51.474Z</time></trkpt><trkpt lat="41.6561492" lon="2.0880517"><ele>589.1999999999999</ele><time>2026-04-25T11:01:52.474Z</time></trkpt><trkpt lat="41.656103" lon="2.0879516"><ele>590.4</ele><time>2026-04-25T11:01:53.474Z</time></trkpt><trkpt lat="41.656076" lon="2.0878747"><ele>591.5999999999999</ele><time>2026-04-25T11:01:54.474Z</time></trkpt><trkpt lat="41.6560657" lon="2.0877253"><ele>592.8</ele><time>2026-04-25T11:01:56.473Z</time></trkpt><trkpt lat="41.6560173" lon="2.0876044"><ele>594.0</ele><time>2026-04-25T11:01:58.474Z</time></trkpt><trkpt lat="41.6558884" lon="2.0875238"><ele>594.0</ele><time>2026-04-25T11:02:00.474Z</time></trkpt><trkpt lat="41.6558031" lon="2.0874911"><ele>594.0</ele><time>2026-04-25T11:02:01.473Z</time></trkpt><trkpt lat="41.6557146" lon="2.0874546"><ele>594.0</ele><time>2026-04-25T11:02:02.474Z</time></trkpt><trkpt lat="41.6556358" lon="2.0874225"><ele>594.0</ele><time>2026-04-25T11:02:03.473Z</time></trkpt><trkpt lat="41.6555535" lon="2.0873879"><ele>594.0</ele><time>2026-04-25T11:02:04.474Z</time></trkpt><trkpt lat="41.6554689" lon="2.0873454"><ele>594.0</ele><time>2026-04-25T11:02:05.473Z</time></trkpt><trkpt lat="41.6553821" lon="2.0873143"><ele>593.6</ele><time>2026-04-25T11:02:06.474Z</time></trkpt><trkpt lat="41.6552864" lon="2.0873049"><ele>593.2</ele><time>2026-04-25T11:02:07.473Z</time></trkpt><trkpt lat="41.6551916" lon="2.0872977"><ele>592.8000000000001</ele><time>2026-04-25T11:02:08.474Z</time></trkpt><trkpt lat="41.6551016" lon="2.0872894"><ele>592.4</ele><time>2026-04-25T11:02:09.473Z</time></trkpt><trkpt lat="41.6549957" lon="2.0872922"><ele>592.0</ele><time>2026-04-25T11:02:10.474Z</time></trkpt><trkpt lat="41.6548759" lon="2.0873055"><ele>592.0</ele><time>2026-04-25T11:02:11.474Z</time></trkpt><trkpt lat="41.6547581" lon="2.0873106"><ele>592.0</ele><time>2026-04-25T11:02:12.473Z</time></trkpt><trkpt lat="41.6546442" lon="2.0873158"><ele>592.0</ele><time>2026-04-25T11:02:13.474Z</time></trkpt><trkpt lat="41.6545429" lon="2.087309"><ele>592.0</ele><time>2026-04-25T11:02:14.474Z</time></trkpt><trkpt lat="41.6544637" lon="2.0872895"><ele>592.0</ele><time>2026-04-25T11:02:15.473Z</time></trkpt><trkpt lat="41.6543963" lon="2.0872552"><ele>594.8000000000001</ele><time>2026-04-25T11:02:16.474Z</time></trkpt><trkpt lat="41.6543197" lon="2.0872077"><ele>597.6</ele><time>2026-04-25T11:02:17.474Z</time></trkpt><trkpt lat="41.6542367" lon="2.0871433"><ele>600.4000000000001</ele><time>2026-04-25T11:02:18.474Z</time></trkpt><trkpt lat="41.6541523" lon="2.0870718"><ele>603.2</ele><time>2026-04-25T11:02:19.474Z</time></trkpt><trkpt lat="41.6540811" lon="2.0870032"><ele>606.0</ele><time>2026-04-25T11:02:20.474Z</time></trkpt><trkpt lat="41.6540111" lon="2.0869325"><ele>606.0</ele><time>2026-04-25T11:02:21.474Z</time></trkpt><trkpt lat="41.6539306" lon="2.0868571"><ele>606.0</ele><time>2026-04-25T11:02:22.474Z</time></trkpt><trkpt lat="41.6538511" lon="2.0867824"><ele>606.0</ele><time>2026-04-25T11:02:23.473Z</time></trkpt><trkpt lat="41.653764" lon="2.0866862"><ele>606.0</ele><time>2026-04-25T11:02:24.474Z</time></trkpt><trkpt lat="41.6536827" lon="2.0865998"><ele>606.0</ele><time>2026-04-25T11:02:25.474Z</time></trkpt><trkpt lat="41.6535977" lon="2.0865164"><ele>605.6666666666666</ele><time>2026-04-25T11:02:26.474Z</time></trkpt><trkpt lat="41.6535087" lon="2.0864405"><ele>605.3333333333334</ele><time>2026-04-25T11:02:27.474Z</time></trkpt><trkpt lat="41.6534344" lon="2.0863783"><ele>605.0</ele><time>2026-04-25T11:02:28.474Z</time></trkpt><trkpt lat="41.6533634" lon="2.0863309"><ele>604.6666666666667</ele><time>2026-04-25T11:02:29.474Z</time></trkpt><trkpt lat="41.6532877" lon="2.0863044"><ele>604.3333333333334</ele><time>2026-04-25T11:02:30.474Z</time></trkpt><trkpt lat="41.6532044" lon="2.086292"><ele>604.0</ele><time>2026-04-25T11:02:31.474Z</time></trkpt><trkpt lat="41.6531178" lon="2.0863172"><ele>604.0</ele><time>2026-04-25T11:02:32.474Z</time></trkpt><trkpt lat="41.6530187" lon="2.0863704"><ele>604.0</ele><time>2026-04-25T11:02:33.474Z</time></trkpt><trkpt lat="41.652918" lon="2.0864363"><ele>604.0</ele><time>2026-04-25T11:02:34.473Z</time></trkpt><trkpt lat="41.6528259" lon="2.086496"><ele>604.0</ele><time>2026-04-25T11:02:35.473Z</time></trkpt><trkpt lat="41.6527441" lon="2.0865652"><ele>604.0</ele><time>2026-04-25T11:02:36.474Z</time></trkpt><trkpt lat="41.6526655" lon="2.0866353"><ele>605.2</ele><time>2026-04-25T11:02:37.474Z</time></trkpt><trkpt lat="41.652588" lon="2.0866978"><ele>606.4</ele><time>2026-04-25T11:02:38.474Z</time></trkpt><trkpt lat="41.6524913" lon="2.0867629"><ele>607.6</ele><time>2026-04-25T11:02:39.474Z</time></trkpt><trkpt lat="41.6523871" lon="2.0868252"><ele>608.8</ele><time>2026-04-25T11:02:40.474Z</time></trkpt><trkpt lat="41.6522882" lon="2.0868897"><ele>610.0</ele><time>2026-04-25T11:02:41.474Z</time></trkpt><trkpt lat="41.6521893" lon="2.0869561"><ele>610.0</ele><time>2026-04-25T11:02:42.474Z</time></trkpt><trkpt lat="41.6520864" lon="2.0870285"><ele>610.0</ele><time>2026-04-25T11:02:43.474Z</time></trkpt><trkpt lat="41.6519872" lon="2.0871063"><ele>610.0</ele><time>2026-04-25T11:02:44.474Z</time></trkpt><trkpt lat="41.6518836" lon="2.087195"><ele>610.0</ele><time>2026-04-25T11:02:45.473Z</time></trkpt><trkpt lat="41.6517907" lon="2.0872884"><ele>610.0</ele><time>2026-04-25T11:02:46.474Z</time></trkpt><trkpt lat="41.651702" lon="2.0873941"><ele>610.0</ele><time>2026-04-25T11:02:47.474Z</time></trkpt><trkpt lat="41.651635" lon="2.0874897"><ele>610.0</ele><time>2026-04-25T11:02:48.474Z</time></trkpt><trkpt lat="41.6515813" lon="2.0875867"><ele>610.0</ele><time>2026-04-25T11:02:49.474Z</time></trkpt><trkpt lat="41.6515341" lon="2.0876814"><ele>610.0</ele><time>2026-04-25T11:02:50.474Z</time></trkpt><trkpt lat="41.6515019" lon="2.0877986"><ele>608.6</ele><time>2026-04-25T11:02:51.474Z</time></trkpt><trkpt lat="41.6514814" lon="2.0879239"><ele>607.2</ele><time>2026-04-25T11:02:52.473Z</time></trkpt><trkpt lat="41.6514559" lon="2.0880493"><ele>605.8</ele><time>2026-04-25T11:02:53.474Z</time></trkpt><trkpt lat="41.6514371" lon="2.0881679"><ele>604.4</ele><time>2026-04-25T11:02:54.474Z</time></trkpt><trkpt lat="41.6514375" lon="2.0882768"><ele>603.0</ele><time>2026-04-25T11:02:55.474Z</time></trkpt><trkpt lat="41.6514563" lon="2.0883888"><ele>603.0</ele><time>2026-04-25T11:02:56.474Z</time></trkpt><trkpt lat="41.6514858" lon="2.0884976"><ele>603.0</ele><time>2026-04-25T11:02:57.474Z</time></trkpt><trkpt lat="41.6515053" lon="2.0886084"><ele>603.0</ele><time>2026-04-25T11:02:58.474Z</time></trkpt><trkpt lat="41.6515153" lon="2.08871"><ele>603.0</ele><time>2026-04-25T11:02:59.474Z</time></trkpt><trkpt lat="41.6514697" lon="2.0888534"><ele>603.0</ele><time>2026-04-25T11:03:01.474Z</time></trkpt><trkpt lat="41.6514162" lon="2.0889138"><ele>603.0</ele><time>2026-04-25T11:03:02.473Z</time></trkpt><trkpt lat="41.6513463" lon="2.088952"><ele>603.0</ele><time>2026-04-25T11:03:03.474Z</time></trkpt><trkpt lat="41.6512546" lon="2.0889837"><ele>603.0</ele><time>2026-04-25T11:03:04.474Z</time></trkpt><trkpt lat="41.6511527" lon="2.0889882"><ele>603.0</ele><time>2026-04-25T11:03:05.473Z</time></trkpt><trkpt lat="41.6510599" lon="2.0889827"><ele>603.0</ele><time>2026-04-25T11:03:06.474Z</time></trkpt><trkpt lat="41.650985" lon="2.0889691"><ele>603.0</ele><time>2026-04-25T11:03:07.474Z</time></trkpt><trkpt lat="41.6509102" lon="2.0889729"><ele>603.0</ele><time>2026-04-25T11:03:08.474Z</time></trkpt><trkpt lat="41.650827" lon="2.0890038"><ele>602.1999999999999</ele><time>2026-04-25T11:03:09.474Z</time></trkpt><trkpt lat="41.6507432" lon="2.0890515"><ele>601.4</ele><time>2026-04-25T11:03:10.474Z</time></trkpt><trkpt lat="41.6506519" lon="2.0891123"><ele>600.5999999999999</ele><time>2026-04-25T11:03:11.474Z</time></trkpt><trkpt lat="41.6505639" lon="2.0891458"><ele>599.8</ele><time>2026-04-25T11:03:12.473Z</time></trkpt><trkpt lat="41.6504811" lon="2.0891422"><ele>599.0</ele><time>2026-04-25T11:03:13.474Z</time></trkpt><trkpt lat="41.650392" lon="2.0891169"><ele>596.6</ele><time>2026-04-25T11:03:14.474Z</time></trkpt><trkpt lat="41.6502907" lon="2.0890988"><ele>594.2</ele><time>2026-04-25T11:03:15.474Z</time></trkpt><trkpt lat="41.6501985" lon="2.0890832"><ele>591.8000000000001</ele><time>2026-04-25T11:03:16.474Z</time></trkpt><trkpt lat="41.6501146" lon="2.089075"><ele>589.4</ele><time>2026-04-25T11:03:17.474Z</time></trkpt><trkpt lat="41.6500288" lon="2.0890884"><ele>587.0</ele><time>2026-04-25T11:03:18.474Z</time></trkpt><trkpt lat="41.6499287" lon="2.089118"><ele>586.6</ele><time>2026-04-25T11:03:19.474Z</time></trkpt><trkpt lat="41.6498336" lon="2.0891511"><ele>586.2</ele><time>2026-04-25T11:03:20.474Z</time></trkpt><trkpt lat="41.6497339" lon="2.0891594"><ele>585.8</ele><time>2026-04-25T11:03:21.473Z</time></trkpt><trkpt lat="41.6496295" lon="2.0891265"><ele>585.4</ele><time>2026-04-25T11:03:22.474Z</time></trkpt><trkpt lat="41.6495142" lon="2.0890963"><ele>585.0</ele><time>2026-04-25T11:03:23.473Z</time></trkpt><trkpt lat="41.6494056" lon="2.0890729"><ele>585.0</ele><time>2026-04-25T11:03:24.474Z</time></trkpt><trkpt lat="41.6493226" lon="2.0890506"><ele>585.0</ele><time>2026-04-25T11:03:25.474Z</time></trkpt><trkpt lat="41.6492482" lon="2.0890449"><ele>585.0</ele><time>2026-04-25T11:03:26.474Z</time></trkpt><trkpt lat="41.649174" lon="2.0890463"><ele>585.0</ele><time>2026-04-25T11:03:27.473Z</time></trkpt><trkpt lat="41.6490799" lon="2.0890746"><ele>585.0</ele><time>2026-04-25T11:03:28.474Z</time></trkpt><trkpt lat="41.6489839" lon="2.0891095"><ele>585.0</ele><time>2026-04-25T11:03:29.474Z</time></trkpt><trkpt lat="41.6489132" lon="2.089133"><ele>590.2</ele><time>2026-04-25T11:03:30.474Z</time></trkpt><trkpt lat="41.6488276" lon="2.0892278"><ele>595.4</ele><time>2026-04-25T11:03:32.473Z</time></trkpt><trkpt lat="41.6487956" lon="2.0893772"><ele>600.6</ele><time>2026-04-25T11:03:34.474Z</time></trkpt><trkpt lat="41.6487994" lon="2.089478"><ele>605.8</ele><time>2026-04-25T11:03:35.474Z</time></trkpt><trkpt lat="41.6488033" lon="2.0895873"><ele>611.0</ele><time>2026-04-25T11:03:36.474Z</time></trkpt><trkpt lat="41.6487903" lon="2.0896864"><ele>611.0</ele><time>2026-04-25T11:03:37.474Z</time></trkpt><trkpt lat="41.6487529" lon="2.0897747"><ele>611.0</ele><time>2026-04-25T11:03:38.473Z</time></trkpt><trkpt lat="41.6486901" lon="2.0898549"><ele>611.0</ele><time>2026-04-25T11:03:39.474Z</time></trkpt><trkpt lat="41.6486313" lon="2.0899143"><ele>611.0</ele><time>2026-04-25T11:03:40.474Z</time></trkpt><trkpt lat="41.6485658" lon="2.0900194"><ele>611.0</ele><time>2026-04-25T11:03:42.474Z</time></trkpt><trkpt lat="41.6485857" lon="2.0901428"><ele>611.0</ele><time>2026-04-25T11:03:44.474Z</time></trkpt><trkpt lat="41.6486264" lon="2.090211"><ele>611.5</ele><time>2026-04-25T11:03:45.474Z</time></trkpt><trkpt lat="41.6486859" lon="2.0902826"><ele>612.0</ele><time>2026-04-25T11:03:46.474Z</time></trkpt><trkpt lat="41.6487453" lon="2.0903595"><ele>612.5</ele><time>2026-04-25T11:03:47.474Z</time></trkpt><trkpt lat="41.6487919" lon="2.090451"><ele>613.0</ele><time>2026-04-25T11:03:48.474Z</time></trkpt><trkpt lat="41.6488114" lon="2.0905391"><ele>613.5</ele><time>2026-04-25T11:03:49.474Z</time></trkpt><trkpt lat="41.6488171" lon="2.0906558"><ele>614.0</ele><time>2026-04-25T11:03:50.474Z</time></trkpt><trkpt lat="41.6488167" lon="2.0907698"><ele>614.0</ele><time>2026-04-25T11:03:51.473Z</time></trkpt><trkpt lat="41.6488163" lon="2.0908661"><ele>614.0</ele><time>2026-04-25T11:03:52.473Z</time></trkpt><trkpt lat="41.6487874" lon="2.0910283"><ele>614.0</ele><time>2026-04-25T11:03:54.474Z</time></trkpt><trkpt lat="41.6487348" lon="2.0911155"><ele>614.0</ele><time>2026-04-25T11:03:55.473Z</time></trkpt><trkpt lat="41.6486719" lon="2.0912052"><ele>614.0</ele><time>2026-04-25T11:03:56.474Z</time></trkpt><trkpt lat="41.6486191" lon="2.0913155"><ele>610.0</ele><time>2026-04-25T11:03:57.474Z</time></trkpt><trkpt lat="41.6485698" lon="2.0914241"><ele>606.0</ele><time>2026-04-25T11:03:58.474Z</time></trkpt><trkpt lat="41.6485264" lon="2.0915284"><ele>602.0</ele><time>2026-04-25T11:03:59.474Z</time></trkpt><trkpt lat="41.6484787" lon="2.0916241"><ele>598.0</ele><time>2026-04-25T11:04:00.474Z</time></trkpt><trkpt lat="41.6484396" lon="2.0917341"><ele>594.0</ele><time>2026-04-25T11:04:01.474Z</time></trkpt><trkpt lat="41.648404" lon="2.091847"><ele>594.0</ele><time>2026-04-25T11:04:02.474Z</time></trkpt><trkpt lat="41.6483726" lon="2.0919671"><ele>594.0</ele><time>2026-04-25T11:04:03.474Z</time></trkpt><trkpt lat="41.6483443" lon="2.0920943"><ele>594.0</ele><time>2026-04-25T11:04:04.474Z</time></trkpt><trkpt lat="41.6483086" lon="2.0922159"><ele>594.0</ele><time>2026-04-25T11:04:05.474Z</time></trkpt><trkpt lat="41.6482678" lon="2.0923436"><ele>594.0</ele><time>2026-04-25T11:04:06.473Z</time></trkpt><trkpt lat="41.6482204" lon="2.0924579"><ele>593.6</ele><time>2026-04-25T11:04:07.473Z</time></trkpt><trkpt lat="41.6481655" lon="2.0925685"><ele>593.2</ele><time>2026-04-25T11:04:08.473Z</time></trkpt><trkpt lat="41.6481141" lon="2.0926865"><ele>592.8000000000001</ele><time>2026-04-25T11:04:09.474Z</time></trkpt><trkpt lat="41.6480666" lon="2.0928099"><ele>592.4</ele><time>2026-04-25T11:04:10.474Z</time></trkpt><trkpt lat="41.6480318" lon="2.0929394"><ele>592.0</ele><time>2026-04-25T11:04:11.474Z</time></trkpt><trkpt lat="41.6480035" lon="2.0930778"><ele>592.0</ele><time>2026-04-25T11:04:12.474Z</time></trkpt><trkpt lat="41.6479745" lon="2.0932177"><ele>592.0</ele><time>2026-04-25T11:04:13.474Z</time></trkpt><trkpt lat="41.6479479" lon="2.0933663"><ele>592.0</ele><time>2026-04-25T11:04:14.474Z</time></trkpt><trkpt lat="41.6479218" lon="2.0935188"><ele>592.0</ele><time>2026-04-25T11:04:15.474Z</time></trkpt><trkpt lat="41.6478969" lon="2.093667"><ele>590.0</ele><time>2026-04-25T11:04:16.474Z</time></trkpt><trkpt lat="41.64787" lon="2.0938168"><ele>588.0</ele><time>2026-04-25T11:04:17.474Z</time></trkpt><trkpt lat="41.6478368" lon="2.0939651"><ele>586.0</ele><time>2026-04-25T11:04:18.473Z</time></trkpt><trkpt lat="41.647804" lon="2.0941095"><ele>584.0</ele><time>2026-04-25T11:04:19.474Z</time></trkpt><trkpt lat="41.6477564" lon="2.0942371"><ele>580.25</ele><time>2026-04-25T11:04:20.473Z</time></trkpt><trkpt lat="41.6476906" lon="2.0943619"><ele>576.5</ele><time>2026-04-25T11:04:21.473Z</time></trkpt><trkpt lat="41.6476111" lon="2.0944802"><ele>572.75</ele><time>2026-04-25T11:04:22.474Z</time></trkpt><trkpt lat="41.6475112" lon="2.0945751"><ele>569.0</ele><time>2026-04-25T11:04:23.474Z</time></trkpt><trkpt lat="41.6474118" lon="2.0946425"><ele>569.0</ele><time>2026-04-25T11:04:24.474Z</time></trkpt><trkpt lat="41.6473187" lon="2.0947178"><ele>569.0</ele><time>2026-04-25T11:04:25.474Z</time></trkpt><trkpt lat="41.6472324" lon="2.0947931"><ele>569.0</ele><time>2026-04-25T11:04:26.474Z</time></trkpt><trkpt lat="41.6471424" lon="2.0948605"><ele>569.0</ele><time>2026-04-25T11:04:27.474Z</time></trkpt><trkpt lat="41.6470447" lon="2.0949149"><ele>569.0</ele><time>2026-04-25T11:04:28.474Z</time></trkpt><trkpt lat="41.6469475" lon="2.0949461"><ele>570.8</ele><time>2026-04-25T11:04:29.474Z</time></trkpt><trkpt lat="41.6468501" lon="2.094954"><ele>572.5999999999999</ele><time>2026-04-25T11:04:30.474Z</time></trkpt><trkpt lat="41.6467494" lon="2.0949419"><ele>574.4</ele><time>2026-04-25T11:04:31.473Z</time></trkpt><trkpt lat="41.6466641" lon="2.0949273"><ele>576.1999999999999</ele><time>2026-04-25T11:04:32.474Z</time></trkpt><trkpt lat="41.6465953" lon="2.094923"><ele>578.0</ele><time>2026-04-25T11:04:33.474Z</time></trkpt><trkpt lat="41.646496" lon="2.0949425"><ele>578.0</ele><time>2026-04-25T11:04:35.474Z</time></trkpt><trkpt lat="41.6464361" lon="2.0949845"><ele>578.0</ele><time>2026-04-25T11:04:36.474Z</time></trkpt><trkpt lat="41.6463815" lon="2.0950521"><ele>578.0</ele><time>2026-04-25T11:04:37.474Z</time></trkpt><trkpt lat="41.6463218" lon="2.0951295"><ele>578.0</ele><time>2026-04-25T11:04:38.474Z</time></trkpt><trkpt lat="41.6462602" lon="2.0951989"><ele>578.0</ele><time>2026-04-25T11:04:39.473Z</time></trkpt><trkpt lat="41.6461917" lon="2.0952609"><ele>578.0</ele><time>2026-04-25T11:04:40.474Z</time></trkpt><trkpt lat="41.6461151" lon="2.0953187"><ele>576.1999999999999</ele><time>2026-04-25T11:04:41.474Z</time></trkpt><trkpt lat="41.6460377" lon="2.0953682"><ele>574.4</ele><time>2026-04-25T11:04:42.474Z</time></trkpt><trkpt lat="41.6459571" lon="2.0954076"><ele>572.5999999999999</ele><time>2026-04-25T11:04:43.474Z</time></trkpt><trkpt lat="41.6458745" lon="2.0954457"><ele>570.8</ele><time>2026-04-25T11:04:44.474Z</time></trkpt><trkpt lat="41.6457811" lon="2.0954907"><ele>569.0</ele><time>2026-04-25T11:04:45.474Z</time></trkpt><trkpt lat="41.6456784" lon="2.0955351"><ele>569.0</ele><time>2026-04-25T11:04:46.473Z</time></trkpt><trkpt lat="41.6455795" lon="2.0955635"><ele>569.0</ele><time>2026-04-25T11:04:47.474Z</time></trkpt><trkpt lat="41.6455022" lon="2.095561"><ele>569.0</ele><time>2026-04-25T11:04:48.474Z</time></trkpt><trkpt lat="41.6454406" lon="2.0955366"><ele>569.0</ele><time>2026-04-25T11:04:49.474Z</time></trkpt><trkpt lat="41.6453787" lon="2.0954856"><ele>569.0</ele><time>2026-04-25T11:04:50.474Z</time></trkpt><trkpt lat="41.6453236" lon="2.0953913"><ele>569.0</ele><time>2026-04-25T11:04:51.474Z</time></trkpt><trkpt lat="41.6452842" lon="2.0952616"><ele>569.2</ele><time>2026-04-25T11:04:52.474Z</time></trkpt><trkpt lat="41.6452597" lon="2.0951187"><ele>569.4</ele><time>2026-04-25T11:04:53.474Z</time></trkpt><trkpt lat="41.6452454" lon="2.094977"><ele>569.6</ele><time>2026-04-25T11:04:54.474Z</time></trkpt><trkpt lat="41.6452222" lon="2.0948651"><ele>569.8</ele><time>2026-04-25T11:04:55.473Z</time></trkpt><trkpt lat="41.6451954" lon="2.0947731"><ele>570.0</ele><time>2026-04-25T11:04:56.474Z</time></trkpt><trkpt lat="41.645148" lon="2.0946588"><ele>570.0</ele><time>2026-04-25T11:04:58.474Z</time></trkpt><trkpt lat="41.6450864" lon="2.0946041"><ele>570.0</ele><time>2026-04-25T11:05:00.473Z</time></trkpt><trkpt lat="41.6450152" lon="2.094628"><ele>570.0</ele><time>2026-04-25T11:05:02.474Z</time></trkpt><trkpt lat="41.6449178" lon="2.0947739"><ele>570.0</ele><time>2026-04-25T11:05:04.474Z</time></trkpt><trkpt lat="41.6448381" lon="2.0948528"><ele>570.0</ele><time>2026-04-25T11:05:05.474Z</time></trkpt><trkpt lat="41.6447615" lon="2.0949236"><ele>570.0</ele><time>2026-04-25T11:05:06.474Z</time></trkpt><trkpt lat="41.6446817" lon="2.0949976"><ele>570.0</ele><time>2026-04-25T11:05:07.474Z</time></trkpt><trkpt lat="41.6446057" lon="2.0950736"><ele>570.0</ele><time>2026-04-25T11:05:08.48Z</time></trkpt><trkpt lat="41.6445332" lon="2.0951586"><ele>570.0</ele><time>2026-04-25T11:05:09.48Z</time></trkpt><trkpt lat="41.644481" lon="2.0952418"><ele>570.0</ele><time>2026-04-25T11:05:10.48Z</time></trkpt><trkpt lat="41.6444367" lon="2.0953032"><ele>570.0</ele><time>2026-04-25T11:05:11.48Z</time></trkpt><trkpt lat="41.6443415" lon="2.0953181"><ele>570.0</ele><time>2026-04-25T11:05:13.48Z</time></trkpt><trkpt lat="41.6442939" lon="2.0952556"><ele>570.0</ele><time>2026-04-25T11:05:14.48Z</time></trkpt><trkpt lat="41.6442577" lon="2.0951624"><ele>570.0</ele><time>2026-04-25T11:05:15.48Z</time></trkpt><trkpt lat="41.6442198" lon="2.0950585"><ele>570.0</ele><time>2026-04-25T11:05:16.48Z</time></trkpt><trkpt lat="41.6441856" lon="2.0949465"><ele>570.0</ele><time>2026-04-25T11:05:17.48Z</time></trkpt><trkpt lat="41.6441679" lon="2.0948311"><ele>570.0</ele><time>2026-04-25T11:05:18.48Z</time></trkpt><trkpt lat="41.6441573" lon="2.0947082"><ele>567.3333333333334</ele><time>2026-04-25T11:05:19.48Z</time></trkpt><trkpt lat="41.6441435" lon="2.0945952"><ele>564.6666666666666</ele><time>2026-04-25T11:05:20.48Z</time></trkpt><trkpt lat="41.6441246" lon="2.0944808"><ele>562.0</ele><time>2026-04-25T11:05:21.48Z</time></trkpt><trkpt lat="41.6440993" lon="2.0943602"><ele>559.3333333333333</ele><time>2026-04-25T11:05:22.48Z</time></trkpt><trkpt lat="41.6440679" lon="2.0942454"><ele>556.6666666666666</ele><time>2026-04-25T11:05:23.48Z</time></trkpt><trkpt lat="41.6440395" lon="2.0941565"><ele>554.0</ele><time>2026-04-25T11:05:24.48Z</time></trkpt><trkpt lat="41.6440064" lon="2.0940735"><ele>553.1666666666666</ele><time>2026-04-25T11:05:25.48Z</time></trkpt><trkpt lat="41.6439651" lon="2.093995"><ele>552.3333333333333</ele><time>2026-04-25T11:05:26.48Z</time></trkpt><trkpt lat="41.6439184" lon="2.0939185"><ele>551.5</ele><time>2026-04-25T11:05:27.479Z</time></trkpt><trkpt lat="41.6438708" lon="2.0938598"><ele>550.6666666666666</ele><time>2026-04-25T11:05:28.48Z</time></trkpt><trkpt lat="41.6437627" lon="2.0938071"><ele>549.8333333333334</ele><time>2026-04-25T11:05:30.479Z</time></trkpt><trkpt lat="41.6436918" lon="2.0938088"><ele>549.0</ele><time>2026-04-25T11:05:31.48Z</time></trkpt><trkpt lat="41.6436236" lon="2.0938091"><ele>549.0</ele><time>2026-04-25T11:05:32.48Z</time></trkpt><trkpt lat="41.6435317" lon="2.0937381"><ele>549.0</ele><time>2026-04-25T11:05:34.48Z</time></trkpt><trkpt lat="41.6435192" lon="2.0936471"><ele>549.0</ele><time>2026-04-25T11:05:35.48Z</time></trkpt><trkpt lat="41.6435273" lon="2.093515"><ele>549.0</ele><time>2026-04-25T11:05:36.48Z</time></trkpt><trkpt lat="41.6435227" lon="2.0933932"><ele>549.0</ele><time>2026-04-25T11:05:37.48Z</time></trkpt><trkpt lat="41.6435077" lon="2.0932753"><ele>546.6666666666666</ele><time>2026-04-25T11:05:38.48Z</time></trkpt><trkpt lat="41.6434859" lon="2.0931687"><ele>544.3333333333334</ele><time>2026-04-25T11:05:39.48Z</time></trkpt><trkpt lat="41.6434593" lon="2.0930807"><ele>542.0</ele><time>2026-04-25T11:05:40.479Z</time></trkpt><trkpt lat="41.6433955" lon="2.0929735"><ele>539.6666666666667</ele><time>2026-04-25T11:05:42.48Z</time></trkpt><trkpt lat="41.6433357" lon="2.0929333"><ele>537.3333333333334</ele><time>2026-04-25T11:05:43.48Z</time></trkpt><trkpt lat="41.6432283" lon="2.0928616"><ele>535.0</ele><time>2026-04-25T11:05:45.479Z</time></trkpt><trkpt lat="41.6432114" lon="2.0927235"><ele>535.0</ele><time>2026-04-25T11:05:47.48Z</time></trkpt><trkpt lat="41.6432547" lon="2.0926278"><ele>535.0</ele><time>2026-04-25T11:05:48.48Z</time></trkpt><trkpt lat="41.6432871" lon="2.0925435"><ele>535.0</ele><time>2026-04-25T11:05:49.48Z</time></trkpt><trkpt lat="41.6432963" lon="2.092381"><ele>535.0</ele><time>2026-04-25T11:05:51.48Z</time></trkpt><trkpt lat="41.6432778" lon="2.0922932"><ele>535.0</ele><time>2026-04-25T11:05:52.479Z</time></trkpt><trkpt lat="41.6432419" lon="2.0922033"><ele>535.0</ele><time>2026-04-25T11:05:53.479Z</time></trkpt><trkpt lat="41.6431958" lon="2.0921167"><ele>532.1666666666667</ele><time>2026-04-25T11:05:54.48Z</time></trkpt><trkpt lat="41.6431425" lon="2.0920353"><ele>529.3333333333334</ele><time>2026-04-25T11:05:55.48Z</time></trkpt><trkpt lat="41.6430898" lon="2.0919638"><ele>526.5</ele><time>2026-04-25T11:05:56.48Z</time></trkpt><trkpt lat="41.6430403" lon="2.0918889"><ele>523.6666666666666</ele><time>2026-04-25T11:05:57.48Z</time></trkpt><trkpt lat="41.6430286" lon="2.0917826"><ele>520.8333333333333</ele><time>2026-04-25T11:05:58.479Z</time></trkpt><trkpt lat="41.6430203" lon="2.0916757"><ele>518.0</ele><time>2026-04-25T11:05:59.48Z</time></trkpt><trkpt lat="41.6430205" lon="2.0915688"><ele>516.8571428571429</ele><time>2026-04-25T11:06:00.48Z</time></trkpt><trkpt lat="41.6429875" lon="2.0914815"><ele>515.7142857142858</ele><time>2026-04-25T11:06:01.48Z</time></trkpt><trkpt lat="41.6429566" lon="2.0913951"><ele>514.5714285714286</ele><time>2026-04-25T11:06:02.48Z</time></trkpt><trkpt lat="41.6429104" lon="2.0913176"><ele>513.4285714285714</ele><time>2026-04-25T11:06:03.48Z</time></trkpt><trkpt lat="41.6428521" lon="2.0912733"><ele>512.2857142857143</ele><time>2026-04-25T11:06:04.48Z</time></trkpt><trkpt lat="41.6427879" lon="2.091244"><ele>511.14285714285717</ele><time>2026-04-25T11:06:05.48Z</time></trkpt><trkpt lat="41.6427232" lon="2.0912307"><ele>510.0</ele><time>2026-04-25T11:06:06.48Z</time></trkpt><trkpt lat="41.6426597" lon="2.0912261"><ele>510.0</ele><time>2026-04-25T11:06:07.48Z</time></trkpt><trkpt lat="41.642554" lon="2.0911908"><ele>510.0</ele><time>2026-04-25T11:06:09.48Z</time></trkpt><trkpt lat="41.6425343" lon="2.0910252"><ele>510.0</ele><time>2026-04-25T11:06:11.48Z</time></trkpt><trkpt lat="41.6425462" lon="2.090933"><ele>510.0</ele><time>2026-04-25T11:06:12.48Z</time></trkpt><trkpt lat="41.6425413" lon="2.0908471"><ele>510.0</ele><time>2026-04-25T11:06:13.48Z</time></trkpt><trkpt lat="41.6425044" lon="2.0907652"><ele>510.0</ele><time>2026-04-25T11:06:14.48Z</time></trkpt><trkpt lat="41.6424465" lon="2.0906803"><ele>508.0</ele><time>2026-04-25T11:06:15.48Z</time></trkpt><trkpt lat="41.6423891" lon="2.0906167"><ele>506.0</ele><time>2026-04-25T11:06:16.48Z</time></trkpt><trkpt lat="41.6423262" lon="2.0905849"><ele>504.0</ele><time>2026-04-25T11:06:17.48Z</time></trkpt><trkpt lat="41.6422591" lon="2.0905855"><ele>502.0</ele><time>2026-04-25T11:06:18.48Z</time></trkpt><trkpt lat="41.6421822" lon="2.0906135"><ele>500.0</ele><time>2026-04-25T11:06:19.48Z</time></trkpt><trkpt lat="41.6421117" lon="2.0906714"><ele>498.0</ele><time>2026-04-25T11:06:20.48Z</time></trkpt><trkpt lat="41.6420431" lon="2.0907384"><ele>498.3333333333333</ele><time>2026-04-25T11:06:21.48Z</time></trkpt><trkpt lat="41.6419835" lon="2.090785"><ele>498.66666666666663</ele><time>2026-04-25T11:06:22.48Z</time></trkpt><trkpt lat="41.6419186" lon="2.0908107"><ele>499.0</ele><time>2026-04-25T11:06:23.48Z</time></trkpt><trkpt lat="41.6418248" lon="2.0907446"><ele>499.3333333333333</ele><time>2026-04-25T11:06:25.479Z</time></trkpt><trkpt lat="41.6418056" lon="2.0906575"><ele>499.66666666666663</ele><time>2026-04-25T11:06:26.48Z</time></trkpt><trkpt lat="41.6417972" lon="2.0905539"><ele>500.0</ele><time>2026-04-25T11:06:27.48Z</time></trkpt><trkpt lat="41.6417777" lon="2.0904591"><ele>499.99999999999994</ele><time>2026-04-25T11:06:28.48Z</time></trkpt><trkpt lat="41.6417464" lon="2.090373"><ele>500.0</ele><time>2026-04-25T11:06:29.48Z</time></trkpt><trkpt lat="41.6417027" lon="2.0902938"><ele>500.0</ele><time>2026-04-25T11:06:30.48Z</time></trkpt><trkpt lat="41.6416434" lon="2.0902274"><ele>500.0</ele><time>2026-04-25T11:06:31.48Z</time></trkpt><trkpt lat="41.6415641" lon="2.0901733"><ele>499.99999999999994</ele><time>2026-04-25T11:06:32.48Z</time></trkpt><trkpt lat="41.6414819" lon="2.0901464"><ele>500.0</ele><time>2026-04-25T11:06:33.48Z</time></trkpt><trkpt lat="41.641398" lon="2.0901364"><ele>500.0</ele><time>2026-04-25T11:06:34.48Z</time></trkpt><trkpt lat="41.6413081" lon="2.0901428"><ele>500.0</ele><time>2026-04-25T11:06:35.48Z</time></trkpt><trkpt lat="41.6412079" lon="2.0901467"><ele>500.0</ele><time>2026-04-25T11:06:36.479Z</time></trkpt><trkpt lat="41.6411139" lon="2.090125"><ele>500.0</ele><time>2026-04-25T11:06:37.48Z</time></trkpt><trkpt lat="41.6410266" lon="2.0900957"><ele>500.0</ele><time>2026-04-25T11:06:38.48Z</time></trkpt><trkpt lat="41.6409354" lon="2.090039"><ele>500.2</ele><time>2026-04-25T11:06:39.48Z</time></trkpt><trkpt lat="41.6408306" lon="2.0899908"><ele>500.4</ele><time>2026-04-25T11:06:40.48Z</time></trkpt><trkpt lat="41.6407293" lon="2.0899511"><ele>500.6</ele><time>2026-04-25T11:06:41.479Z</time></trkpt><trkpt lat="41.6406312" lon="2.0899256"><ele>500.8</ele><time>2026-04-25T11:06:42.48Z</time></trkpt><trkpt lat="41.640536" lon="2.0899046"><ele>501.0</ele><time>2026-04-25T11:06:43.48Z</time></trkpt><trkpt lat="41.6404415" lon="2.089895"><ele>497.8</ele><time>2026-04-25T11:06:44.48Z</time></trkpt><trkpt lat="41.6403372" lon="2.0898946"><ele>494.6</ele><time>2026-04-25T11:06:45.48Z</time></trkpt><trkpt lat="41.6402288" lon="2.0899001"><ele>491.4</ele><time>2026-04-25T11:06:46.48Z</time></trkpt><trkpt lat="41.6401253" lon="2.0898975"><ele>488.2</ele><time>2026-04-25T11:06:47.48Z</time></trkpt><trkpt lat="41.6400324" lon="2.0898925"><ele>485.0</ele><time>2026-04-25T11:06:48.48Z</time></trkpt><trkpt lat="41.6399537" lon="2.0898892"><ele>484.2</ele><time>2026-04-25T11:06:49.48Z</time></trkpt><trkpt lat="41.6398413" lon="2.0899006"><ele>483.4</ele><time>2026-04-25T11:06:51.48Z</time></trkpt><trkpt lat="41.6397749" lon="2.0899472"><ele>482.6</ele><time>2026-04-25T11:06:52.48Z</time></trkpt><trkpt lat="41.639693" lon="2.0900224"><ele>481.8</ele><time>2026-04-25T11:06:53.48Z</time></trkpt><trkpt lat="41.6396056" lon="2.0901066"><ele>481.0</ele><time>2026-04-25T11:06:54.48Z</time></trkpt><trkpt lat="41.6395202" lon="2.0901863"><ele>481.20000000000005</ele><time>2026-04-25T11:06:55.479Z</time></trkpt><trkpt lat="41.6394199" lon="2.0902488"><ele>481.40000000000003</ele><time>2026-04-25T11:06:56.48Z</time></trkpt><trkpt lat="41.639319" lon="2.0903039"><ele>481.6</ele><time>2026-04-25T11:06:57.48Z</time></trkpt><trkpt lat="41.6392166" lon="2.0903365"><ele>481.8</ele><time>2026-04-25T11:06:58.48Z</time></trkpt><trkpt lat="41.6391347" lon="2.0903685"><ele>482.0</ele><time>2026-04-25T11:06:59.48Z</time></trkpt><trkpt lat="41.6390377" lon="2.0904176"><ele>481.99999999999994</ele><time>2026-04-25T11:07:01.479Z</time></trkpt><trkpt lat="41.6389544" lon="2.0905541"><ele>482.0</ele><time>2026-04-25T11:07:03.48Z</time></trkpt><trkpt lat="41.638906" lon="2.0906418"><ele>482.0</ele><time>2026-04-25T11:07:04.48Z</time></trkpt><trkpt lat="41.6388486" lon="2.0907015"><ele>482.0</ele><time>2026-04-25T11:07:05.48Z</time></trkpt><trkpt lat="41.6387824" lon="2.0907212"><ele>481.99999999999994</ele><time>2026-04-25T11:07:06.48Z</time></trkpt><trkpt lat="41.6387147" lon="2.0907165"><ele>482.0</ele><time>2026-04-25T11:07:07.48Z</time></trkpt><trkpt lat="41.6386365" lon="2.0906964"><ele>481.99999999999994</ele><time>2026-04-25T11:07:08.48Z</time></trkpt><trkpt lat="41.6385568" lon="2.0906891"><ele>482.0</ele><time>2026-04-25T11:07:09.479Z</time></trkpt><trkpt lat="41.6384747" lon="2.0907052"><ele>482.0</ele><time>2026-04-25T11:07:10.48Z</time></trkpt><trkpt lat="41.638385" lon="2.0907322"><ele>482.0</ele><time>2026-04-25T11:07:11.48Z</time></trkpt><trkpt lat="41.6382919" lon="2.090747"><ele>481.99999999999994</ele><time>2026-04-25T11:07:12.48Z</time></trkpt><trkpt lat="41.6381999" lon="2.0907704"><ele>482.0</ele><time>2026-04-25T11:07:13.48Z</time></trkpt><trkpt lat="41.6381056" lon="2.0907837"><ele>482.0</ele><time>2026-04-25T11:07:14.48Z</time></trkpt><trkpt lat="41.6380113" lon="2.0907762"><ele>482.00000000000006</ele><time>2026-04-25T11:07:15.479Z</time></trkpt><trkpt lat="41.6379181" lon="2.090752"><ele>482.00000000000006</ele><time>2026-04-25T11:07:16.48Z</time></trkpt><trkpt lat="41.6378288" lon="2.0907422"><ele>482.0</ele><time>2026-04-25T11:07:17.48Z</time></trkpt><trkpt lat="41.637741" lon="2.0907274"><ele>482.0</ele><time>2026-04-25T11:07:18.48Z</time></trkpt><trkpt lat="41.6376571" lon="2.0907315"><ele>481.66666666666663</ele><time>2026-04-25T11:07:19.479Z</time></trkpt><trkpt lat="41.6375845" lon="2.0907585"><ele>481.3333333333333</ele><time>2026-04-25T11:07:20.479Z</time></trkpt><trkpt lat="41.6375176" lon="2.0907563"><ele>481.0</ele><time>2026-04-25T11:07:21.48Z</time></trkpt><trkpt lat="41.6374427" lon="2.0906781"><ele>480.66666666666663</ele><time>2026-04-25T11:07:23.479Z</time></trkpt><trkpt lat="41.6374289" lon="2.0905768"><ele>480.3333333333333</ele><time>2026-04-25T11:07:24.48Z</time></trkpt><trkpt lat="41.6374398" lon="2.0904736"><ele>480.0</ele><time>2026-04-25T11:07:25.48Z</time></trkpt><trkpt lat="41.6374517" lon="2.090314"><ele>478.2</ele><time>2026-04-25T11:07:27.48Z</time></trkpt><trkpt lat="41.6374059" lon="2.0901714"><ele>476.4</ele><time>2026-04-25T11:07:29.48Z</time></trkpt><trkpt lat="41.6373201" lon="2.0900687"><ele>474.6</ele><time>2026-04-25T11:07:31.48Z</time></trkpt><trkpt lat="41.6372632" lon="2.0900265"><ele>472.8</ele><time>2026-04-25T11:07:32.48Z</time></trkpt><trkpt lat="41.6371926" lon="2.0899923"><ele>471.0</ele><time>2026-04-25T11:07:33.479Z</time></trkpt><trkpt lat="41.6371059" lon="2.0899787"><ele>471.0</ele><time>2026-04-25T11:07:34.48Z</time></trkpt><trkpt lat="41.6370265" lon="2.0899608"><ele>471.0</ele><time>2026-04-25T11:07:35.48Z</time></trkpt><trkpt lat="41.6369491" lon="2.0899406"><ele>471.0</ele><time>2026-04-25T11:07:36.48Z</time></trkpt><trkpt lat="41.6368784" lon="2.0899245"><ele>471.0</ele><time>2026-04-25T11:07:37.48Z</time></trkpt><trkpt lat="41.6367688" lon="2.0899389"><ele>471.0</ele><time>2026-04-25T11:07:39.479Z</time></trkpt><trkpt lat="41.6367092" lon="2.0899693"><ele>471.0</ele><time>2026-04-25T11:07:40.48Z</time></trkpt><trkpt lat="41.6366436" lon="2.0900195"><ele>470.1666666666667</ele><time>2026-04-25T11:07:41.48Z</time></trkpt><trkpt lat="41.6365826" lon="2.0900897"><ele>469.33333333333337</ele><time>2026-04-25T11:07:42.48Z</time></trkpt><trkpt lat="41.636525" lon="2.090167"><ele>468.5</ele><time>2026-04-25T11:07:43.48Z</time></trkpt><trkpt lat="41.6364726" lon="2.0902559"><ele>467.6666666666667</ele><time>2026-04-25T11:07:44.48Z</time></trkpt><trkpt lat="41.6364166" lon="2.0903431"><ele>466.83333333333337</ele><time>2026-04-25T11:07:45.48Z</time></trkpt><trkpt lat="41.6363518" lon="2.0904314"><ele>466.0</ele><time>2026-04-25T11:07:46.48Z</time></trkpt><trkpt lat="41.6362844" lon="2.0905149"><ele>466.00000000000006</ele><time>2026-04-25T11:07:47.48Z</time></trkpt><trkpt lat="41.6362133" lon="2.0905841"><ele>466.0</ele><time>2026-04-25T11:07:48.48Z</time></trkpt><trkpt lat="41.6361423" lon="2.0906523"><ele>466.0</ele><time>2026-04-25T11:07:49.48Z</time></trkpt><trkpt lat="41.6360697" lon="2.0906948"><ele>466.0</ele><time>2026-04-25T11:07:50.48Z</time></trkpt><trkpt lat="41.6359838" lon="2.0907026"><ele>466.00000000000006</ele><time>2026-04-25T11:07:51.48Z</time></trkpt><trkpt lat="41.6358872" lon="2.0906829"><ele>466.0</ele><time>2026-04-25T11:07:52.48Z</time></trkpt><trkpt lat="41.6357891" lon="2.0906517"><ele>464.6</ele><time>2026-04-25T11:07:53.48Z</time></trkpt><trkpt lat="41.6356872" lon="2.0906261"><ele>463.20000000000005</ele><time>2026-04-25T11:07:54.48Z</time></trkpt><trkpt lat="41.635593" lon="2.0906125"><ele>461.79999999999995</ele><time>2026-04-25T11:07:55.48Z</time></trkpt><trkpt lat="41.6354947" lon="2.0906159"><ele>460.4</ele><time>2026-04-25T11:07:56.48Z</time></trkpt><trkpt lat="41.6353943" lon="2.0906305"><ele>459.0</ele><time>2026-04-25T11:07:57.48Z</time></trkpt><trkpt lat="41.6352955" lon="2.0906421"><ele>457.79999999999995</ele><time>2026-04-25T11:07:58.48Z</time></trkpt><trkpt lat="41.63519" lon="2.0906524"><ele>456.59999999999997</ele><time>2026-04-25T11:07:59.48Z</time></trkpt><trkpt lat="41.6350817" lon="2.0906544"><ele>455.4</ele><time>2026-04-25T11:08:00.48Z</time></trkpt><trkpt lat="41.6349758" lon="2.0906555"><ele>454.2</ele><time>2026-04-25T11:08:01.48Z</time></trkpt><trkpt lat="41.6348669" lon="2.0906556"><ele>453.0</ele><time>2026-04-25T11:08:02.48Z</time></trkpt><trkpt lat="41.6347583" lon="2.0906554"><ele>453.0</ele><time>2026-04-25T11:08:03.48Z</time></trkpt><trkpt lat="41.6346549" lon="2.0906619"><ele>452.99999999999994</ele><time>2026-04-25T11:08:04.48Z</time></trkpt><trkpt lat="41.6345601" lon="2.0906788"><ele>452.99999999999994</ele><time>2026-04-25T11:08:05.48Z</time></trkpt><trkpt lat="41.6344704" lon="2.0907097"><ele>453.0</ele><time>2026-04-25T11:08:06.48Z</time></trkpt><trkpt lat="41.6343854" lon="2.0907538"><ele>453.0</ele><time>2026-04-25T11:08:07.48Z</time></trkpt><trkpt lat="41.6343101" lon="2.0908089"><ele>453.5</ele><time>2026-04-25T11:08:08.479Z</time></trkpt><trkpt lat="41.6342412" lon="2.090837"><ele>454.0</ele><time>2026-04-25T11:08:09.48Z</time></trkpt><trkpt lat="41.6341754" lon="2.0908287"><ele>454.5</ele><time>2026-04-25T11:08:10.48Z</time></trkpt><trkpt lat="41.6341206" lon="2.0907814"><ele>455.0</ele><time>2026-04-25T11:08:11.48Z</time></trkpt><trkpt lat="41.6340693" lon="2.090699"><ele>455.5</ele><time>2026-04-25T11:08:12.48Z</time></trkpt><trkpt lat="41.6340023" lon="2.0906184"><ele>456.0</ele><time>2026-04-25T11:08:13.479Z</time></trkpt><trkpt lat="41.6339196" lon="2.0905544"><ele>453.0</ele><time>2026-04-25T11:08:14.48Z</time></trkpt><trkpt lat="41.6338308" lon="2.0904921"><ele>450.0</ele><time>2026-04-25T11:08:15.48Z</time></trkpt><trkpt lat="41.6337451" lon="2.0904138"><ele>447.0</ele><time>2026-04-25T11:08:16.479Z</time></trkpt><trkpt lat="41.6336765" lon="2.0903282"><ele>444.0</ele><time>2026-04-25T11:08:17.48Z</time></trkpt><trkpt lat="41.6336127" lon="2.0902496"><ele>441.0</ele><time>2026-04-25T11:08:18.48Z</time></trkpt><trkpt lat="41.6335333" lon="2.0901985"><ele>440.25</ele><time>2026-04-25T11:08:19.479Z</time></trkpt><trkpt lat="41.6334271" lon="2.0901493"><ele>439.5</ele><time>2026-04-25T11:08:20.48Z</time></trkpt><trkpt lat="41.6333223" lon="2.0900855"><ele>438.75</ele><time>2026-04-25T11:08:21.48Z</time></trkpt><trkpt lat="41.6332149" lon="2.0900233"><ele>438.0</ele><time>2026-04-25T11:08:22.48Z</time></trkpt><trkpt lat="41.6331053" lon="2.0899691"><ele>438.0</ele><time>2026-04-25T11:08:23.48Z</time></trkpt><trkpt lat="41.6329907" lon="2.0899302"><ele>437.99999999999994</ele><time>2026-04-25T11:08:24.48Z</time></trkpt><trkpt lat="41.6328814" lon="2.0898989"><ele>437.99999999999994</ele><time>2026-04-25T11:08:25.48Z</time></trkpt><trkpt lat="41.6327759" lon="2.0898715"><ele>438.0</ele><time>2026-04-25T11:08:26.48Z</time></trkpt><trkpt lat="41.632672" lon="2.089841"><ele>438.0</ele><time>2026-04-25T11:08:27.48Z</time></trkpt><trkpt lat="41.632576" lon="2.0898163"><ele>433.79999999999995</ele><time>2026-04-25T11:08:28.48Z</time></trkpt><trkpt lat="41.6324879" lon="2.0898061"><ele>429.59999999999997</ele><time>2026-04-25T11:08:29.48Z</time></trkpt><trkpt lat="41.6324042" lon="2.0898152"><ele>425.4</ele><time>2026-04-25T11:08:30.48Z</time></trkpt><trkpt lat="41.6323179" lon="2.0898502"><ele>421.20000000000005</ele><time>2026-04-25T11:08:31.48Z</time></trkpt><trkpt lat="41.6322268" lon="2.0898911"><ele>417.0</ele><time>2026-04-25T11:08:32.479Z</time></trkpt><trkpt lat="41.6321355" lon="2.0899066"><ele>417.0</ele><time>2026-04-25T11:08:33.48Z</time></trkpt><trkpt lat="41.6320548" lon="2.089873"><ele>417.0</ele><time>2026-04-25T11:08:34.48Z</time></trkpt><trkpt lat="41.6319798" lon="2.0898131"><ele>417.0</ele><time>2026-04-25T11:08:35.479Z</time></trkpt><trkpt lat="41.6319227" lon="2.0897246"><ele>417.0</ele><time>2026-04-25T11:08:36.48Z</time></trkpt><trkpt lat="41.6318695" lon="2.0896134"><ele>417.0</ele><time>2026-04-25T11:08:37.48Z</time></trkpt><trkpt lat="41.6318122" lon="2.0895234"><ele>417.0</ele><time>2026-04-25T11:08:38.48Z</time></trkpt><trkpt lat="41.6317434" lon="2.0894551"><ele>415.40000000000003</ele><time>2026-04-25T11:08:39.48Z</time></trkpt><trkpt lat="41.6316726" lon="2.0894053"><ele>413.8</ele><time>2026-04-25T11:08:40.48Z</time></trkpt><trkpt lat="41.6315929" lon="2.0893783"><ele>412.2</ele><time>2026-04-25T11:08:41.479Z</time></trkpt><trkpt lat="41.6315028" lon="2.0893904"><ele>410.6</ele><time>2026-04-25T11:08:42.48Z</time></trkpt><trkpt lat="41.6313963" lon="2.0894272"><ele>409.0</ele><time>2026-04-25T11:08:43.48Z</time></trkpt><trkpt lat="41.6312865" lon="2.0894672"><ele>409.0</ele><time>2026-04-25T11:08:44.48Z</time></trkpt><trkpt lat="41.6311719" lon="2.0895168"><ele>409.0</ele><time>2026-04-25T11:08:45.48Z</time></trkpt><trkpt lat="41.6310538" lon="2.0895728"><ele>409.0</ele><time>2026-04-25T11:08:46.479Z</time></trkpt><trkpt lat="41.630934" lon="2.0896434"><ele>409.0</ele><time>2026-04-25T11:08:47.48Z</time></trkpt><trkpt lat="41.6308169" lon="2.0897122"><ele>406.25</ele><time>2026-04-25T11:08:48.48Z</time></trkpt><trkpt lat="41.6306988" lon="2.0897753"><ele>403.5</ele><time>2026-04-25T11:08:49.48Z</time></trkpt><trkpt lat="41.6305751" lon="2.0898225"><ele>400.75</ele><time>2026-04-25T11:08:50.48Z</time></trkpt><trkpt lat="41.630448" lon="2.0898636"><ele>398.0</ele><time>2026-04-25T11:08:51.48Z</time></trkpt><trkpt lat="41.630329" lon="2.089904"><ele>399.0</ele><time>2026-04-25T11:08:52.48Z</time></trkpt><trkpt lat="41.6302115" lon="2.0899455"><ele>400.0</ele><time>2026-04-25T11:08:53.48Z</time></trkpt><trkpt lat="41.6300998" lon="2.0900019"><ele>401.0</ele><time>2026-04-25T11:08:54.479Z</time></trkpt><trkpt lat="41.629998" lon="2.0900576"><ele>402.0</ele><time>2026-04-25T11:08:55.48Z</time></trkpt><trkpt lat="41.629918" lon="2.0901003"><ele>403.0</ele><time>2026-04-25T11:08:56.48Z</time></trkpt><trkpt lat="41.6298485" lon="2.0901129"><ele>403.0</ele><time>2026-04-25T11:08:57.479Z</time></trkpt><trkpt lat="41.6297586" lon="2.0900041"><ele>403.0</ele><time>2026-04-25T11:08:59.48Z</time></trkpt><trkpt lat="41.6297108" lon="2.0899061"><ele>403.0</ele><time>2026-04-25T11:09:00.48Z</time></trkpt><trkpt lat="41.6296511" lon="2.0898085"><ele>403.0</ele><time>2026-04-25T11:09:01.479Z</time></trkpt><trkpt lat="41.6295837" lon="2.0897321"><ele>403.0</ele><time>2026-04-25T11:09:02.48Z</time></trkpt><trkpt lat="41.6295086" lon="2.0896671"><ele>402.79999999999995</ele><time>2026-04-25T11:09:03.48Z</time></trkpt><trkpt lat="41.6294315" lon="2.0896176"><ele>402.6</ele><time>2026-04-25T11:09:04.48Z</time></trkpt><trkpt lat="41.6293451" lon="2.0895748"><ele>402.4</ele><time>2026-04-25T11:09:05.48Z</time></trkpt><trkpt lat="41.6292419" lon="2.0895919"><ele>402.20000000000005</ele><time>2026-04-25T11:09:06.48Z</time></trkpt><trkpt lat="41.6291305" lon="2.089637"><ele>402.0</ele><time>2026-04-25T11:09:07.48Z</time></trkpt><trkpt lat="41.6290245" lon="2.089699"><ele>402.0</ele><time>2026-04-25T11:09:08.48Z</time></trkpt><trkpt lat="41.6289263" lon="2.0897717"><ele>402.0</ele><time>2026-04-25T11:09:09.48Z</time></trkpt><trkpt lat="41.6288265" lon="2.0898384"><ele>402.0</ele><time>2026-04-25T11:09:10.479Z</time></trkpt><trkpt lat="41.6287291" lon="2.0899067"><ele>402.0</ele><time>2026-04-25T11:09:11.48Z</time></trkpt><trkpt lat="41.6286284" lon="2.0899609"><ele>402.0</ele><time>2026-04-25T11:09:12.479Z</time></trkpt><trkpt lat="41.6285263" lon="2.0900008"><ele>400.5</ele><time>2026-04-25T11:09:13.48Z</time></trkpt><trkpt lat="41.6284284" lon="2.0900222"><ele>399.0</ele><time>2026-04-25T11:09:14.479Z</time></trkpt><trkpt lat="41.6283359" lon="2.0900372"><ele>397.5</ele><time>2026-04-25T11:09:15.48Z</time></trkpt><trkpt lat="41.6282561" lon="2.090037"><ele>396.0</ele><time>2026-04-25T11:09:16.48Z</time></trkpt><trkpt lat="41.6281737" lon="2.0900199"><ele>394.5</ele><time>2026-04-25T11:09:17.48Z</time></trkpt><trkpt lat="41.6280878" lon="2.089993"><ele>393.0</ele><time>2026-04-25T11:09:18.48Z</time></trkpt><trkpt lat="41.6279971" lon="2.0899472"><ele>392.4</ele><time>2026-04-25T11:09:19.48Z</time></trkpt><trkpt lat="41.627904" lon="2.0898949"><ele>391.79999999999995</ele><time>2026-04-25T11:09:20.48Z</time></trkpt><trkpt lat="41.6278078" lon="2.089842"><ele>391.2</ele><time>2026-04-25T11:09:21.48Z</time></trkpt><trkpt lat="41.6277021" lon="2.0897976"><ele>390.6</ele><time>2026-04-25T11:09:22.479Z</time></trkpt><trkpt lat="41.62759" lon="2.0897613"><ele>390.0</ele><time>2026-04-25T11:09:23.479Z</time></trkpt><trkpt lat="41.6274892" lon="2.0897265"><ele>390.0</ele><time>2026-04-25T11:09:24.48Z</time></trkpt><trkpt lat="41.6273836" lon="2.0896893"><ele>390.0</ele><time>2026-04-25T11:09:25.48Z</time></trkpt><trkpt lat="41.6272756" lon="2.0896482"><ele>390.0</ele><time>2026-04-25T11:09:26.48Z</time></trkpt><trkpt lat="41.6271727" lon="2.0896198"><ele>390.0</ele><time>2026-04-25T11:09:27.48Z</time></trkpt><trkpt lat="41.6270783" lon="2.089602"><ele>390.0</ele><time>2026-04-25T11:09:28.48Z</time></trkpt><trkpt lat="41.6269827" lon="2.0895993"><ele>388.2</ele><time>2026-04-25T11:09:29.479Z</time></trkpt><trkpt lat="41.626881" lon="2.0896062"><ele>386.4</ele><time>2026-04-25T11:09:30.48Z</time></trkpt><trkpt lat="41.6267803" lon="2.0896259"><ele>384.6</ele><time>2026-04-25T11:09:31.48Z</time></trkpt><trkpt lat="41.6266905" lon="2.089655"><ele>382.8</ele><time>2026-04-25T11:09:32.48Z</time></trkpt><trkpt lat="41.6266067" lon="2.0897049"><ele>381.0</ele><time>2026-04-25T11:09:33.48Z</time></trkpt><trkpt lat="41.6265187" lon="2.0897359"><ele>381.0</ele><time>2026-04-25T11:09:34.48Z</time></trkpt><trkpt lat="41.6264401" lon="2.0897458"><ele>381.0</ele><time>2026-04-25T11:09:35.48Z</time></trkpt><trkpt lat="41.6263622" lon="2.0897193"><ele>381.0</ele><time>2026-04-25T11:09:36.48Z</time></trkpt><trkpt lat="41.6262851" lon="2.0896696"><ele>381.0</ele><time>2026-04-25T11:09:37.48Z</time></trkpt><trkpt lat="41.626208" lon="2.0896284"><ele>381.0</ele><time>2026-04-25T11:09:38.479Z</time></trkpt><trkpt lat="41.6261278" lon="2.0895941"><ele>381.0</ele><time>2026-04-25T11:09:39.48Z</time></trkpt><trkpt lat="41.6260503" lon="2.0895537"><ele>379.1666666666667</ele><time>2026-04-25T11:09:40.48Z</time></trkpt><trkpt lat="41.6259713" lon="2.0895146"><ele>377.3333333333333</ele><time>2026-04-25T11:09:41.48Z</time></trkpt><trkpt lat="41.6259014" lon="2.0894717"><ele>375.5</ele><time>2026-04-25T11:09:42.48Z</time></trkpt><trkpt lat="41.625831" lon="2.0894321"><ele>373.66666666666663</ele><time>2026-04-25T11:09:43.48Z</time></trkpt><trkpt lat="41.6257663" lon="2.0893857"><ele>371.8333333333333</ele><time>2026-04-25T11:09:44.479Z</time></trkpt><trkpt lat="41.6257005" lon="2.0893324"><ele>370.0</ele><time>2026-04-25T11:09:45.48Z</time></trkpt><trkpt lat="41.6256283" lon="2.0892758"><ele>370.0</ele><time>2026-04-25T11:09:46.48Z</time></trkpt><trkpt lat="41.6255602" lon="2.0892287"><ele>370.0</ele><time>2026-04-25T11:09:47.48Z</time></trkpt><trkpt lat="41.6254882" lon="2.0891848"><ele>370.0</ele><time>2026-04-25T11:09:48.48Z</time></trkpt><trkpt lat="41.6254202" lon="2.0891433"><ele>370.0</ele><time>2026-04-25T11:09:49.48Z</time></trkpt><trkpt lat="41.6253525" lon="2.0891011"><ele>370.0</ele><time>2026-04-25T11:09:50.48Z</time></trkpt><trkpt lat="41.6252841" lon="2.0890641"><ele>370.0</ele><time>2026-04-25T11:09:51.479Z</time></trkpt><trkpt lat="41.6252155" lon="2.089019"><ele>369.5</ele><time>2026-04-25T11:09:52.48Z</time></trkpt><trkpt lat="41.6251419" lon="2.0889745"><ele>369.0</ele><time>2026-04-25T11:09:53.48Z</time></trkpt><trkpt lat="41.625064" lon="2.0889254"><ele>368.5</ele><time>2026-04-25T11:09:54.48Z</time></trkpt><trkpt lat="41.6249963" lon="2.0888853"><ele>368.0</ele><time>2026-04-25T11:09:55.48Z</time></trkpt><trkpt lat="41.6249301" lon="2.0888476"><ele>367.5</ele><time>2026-04-25T11:09:56.479Z</time></trkpt><trkpt lat="41.6248643" lon="2.0888108"><ele>367.0</ele><time>2026-04-25T11:09:57.48Z</time></trkpt><trkpt lat="41.6247949" lon="2.0887713"><ele>367.0</ele><time>2026-04-25T11:09:58.48Z</time></trkpt><trkpt lat="41.6247298" lon="2.0887312"><ele>367.0</ele><time>2026-04-25T11:09:59.48Z</time></trkpt><trkpt lat="41.6246655" lon="2.0886851"><ele>367.0</ele><time>2026-04-25T11:10:00.48Z</time></trkpt><trkpt lat="41.6245981" lon="2.0886367"><ele>367.0</ele><time>2026-04-25T11:10:01.48Z</time></trkpt><trkpt lat="41.6245304" lon="2.0885951"><ele>367.0</ele><time>2026-04-25T11:10:02.48Z</time></trkpt><trkpt lat="41.6244664" lon="2.0885608"><ele>367.0</ele><time>2026-04-25T11:10:03.479Z</time></trkpt><trkpt lat="41.6243531" lon="2.0885087"><ele>366.1428571428571</ele><time>2026-04-25T11:10:05.48Z</time></trkpt><trkpt lat="41.6242922" lon="2.0884866"><ele>365.28571428571433</ele><time>2026-04-25T11:10:06.48Z</time></trkpt><trkpt lat="41.6242274" lon="2.0884704"><ele>364.42857142857144</ele><time>2026-04-25T11:10:07.48Z</time></trkpt><trkpt lat="41.6241618" lon="2.0884491"><ele>363.57142857142856</ele><time>2026-04-25T11:10:08.48Z</time></trkpt><trkpt lat="41.6240999" lon="2.088433"><ele>362.71428571428567</ele><time>2026-04-25T11:10:09.48Z</time></trkpt><trkpt lat="41.6240316" lon="2.088428"><ele>361.8571428571429</ele><time>2026-04-25T11:10:10.479Z</time></trkpt><trkpt lat="41.6239136" lon="2.0883966"><ele>361.0</ele><time>2026-04-25T11:10:12.48Z</time></trkpt><trkpt lat="41.623797" lon="2.0883495"><ele>361.0</ele><time>2026-04-25T11:10:14.48Z</time></trkpt><trkpt lat="41.623683" lon="2.088313"><ele>361.0</ele><time>2026-04-25T11:10:16.479Z</time></trkpt><trkpt lat="41.623553" lon="2.0882815"><ele>361.0</ele><time>2026-04-25T11:10:18.48Z</time></trkpt><trkpt lat="41.6234748" lon="2.0882609"><ele>361.0</ele><time>2026-04-25T11:10:19.48Z</time></trkpt><trkpt lat="41.6233891" lon="2.0882375"><ele>361.0</ele><time>2026-04-25T11:10:20.48Z</time></trkpt><trkpt lat="41.6233075" lon="2.0882198"><ele>359.5714285714286</ele><time>2026-04-25T11:10:21.48Z</time></trkpt><trkpt lat="41.6232284" lon="2.0882049"><ele>358.1428571428571</ele><time>2026-04-25T11:10:22.479Z</time></trkpt><trkpt lat="41.6231573" lon="2.0881943"><ele>356.7142857142857</ele><time>2026-04-25T11:10:23.48Z</time></trkpt><trkpt lat="41.6230845" lon="2.0881799"><ele>355.28571428571433</ele><time>2026-04-25T11:10:24.48Z</time></trkpt><trkpt lat="41.6230198" lon="2.0881699"><ele>353.8571428571429</ele><time>2026-04-25T11:10:25.48Z</time></trkpt><trkpt lat="41.6229486" lon="2.0881634"><ele>352.42857142857144</ele><time>2026-04-25T11:10:26.48Z</time></trkpt><trkpt lat="41.6228778" lon="2.0881649"><ele>351.0</ele><time>2026-04-25T11:10:27.48Z</time></trkpt><trkpt lat="41.6228064" lon="2.0881774"><ele>351.42857142857144</ele><time>2026-04-25T11:10:28.48Z</time></trkpt><trkpt lat="41.6227319" lon="2.0881991"><ele>351.8571428571429</ele><time>2026-04-25T11:10:29.48Z</time></trkpt><trkpt lat="41.6226638" lon="2.0882266"><ele>352.28571428571433</ele><time>2026-04-25T11:10:30.48Z</time></trkpt><trkpt lat="41.6226036" lon="2.0882574"><ele>352.7142857142857</ele><time>2026-04-25T11:10:31.48Z</time></trkpt><trkpt lat="41.6225472" lon="2.0883031"><ele>353.1428571428571</ele><time>2026-04-25T11:10:32.48Z</time></trkpt><trkpt lat="41.622485" lon="2.0883536"><ele>353.5714285714286</ele><time>2026-04-25T11:10:33.479Z</time></trkpt><trkpt lat="41.622424" lon="2.0884027"><ele>354.0</ele><time>2026-04-25T11:10:34.48Z</time></trkpt><trkpt lat="41.6223633" lon="2.0884518"><ele>354.0</ele><time>2026-04-25T11:10:35.479Z</time></trkpt><trkpt lat="41.6223066" lon="2.0885082"><ele>354.0</ele><time>2026-04-25T11:10:36.48Z</time></trkpt><trkpt lat="41.6222413" lon="2.0885684"><ele>354.0</ele><time>2026-04-25T11:10:37.48Z</time></trkpt><trkpt lat="41.6221779" lon="2.0886221"><ele>354.0</ele><time>2026-04-25T11:10:38.48Z</time></trkpt><trkpt lat="41.622121" lon="2.0886724"><ele>354.0</ele><time>2026-04-25T11:10:39.48Z</time></trkpt><trkpt lat="41.6220581" lon="2.0887341"><ele>354.0</ele><time>2026-04-25T11:10:40.48Z</time></trkpt><trkpt lat="41.6219866" lon="2.0888076"><ele>355.25</ele><time>2026-04-25T11:10:41.48Z</time></trkpt><trkpt lat="41.621913" lon="2.0888892"><ele>356.5</ele><time>2026-04-25T11:10:42.48Z</time></trkpt><trkpt lat="41.6218159" lon="2.0889929"><ele>357.75</ele><time>2026-04-25T11:10:43.479Z</time></trkpt><trkpt lat="41.6216976" lon="2.0890966"><ele>359.0</ele><time>2026-04-25T11:10:44.48Z</time></trkpt><trkpt lat="41.6215783" lon="2.0892093"><ele>359.0</ele><time>2026-04-25T11:10:45.48Z</time></trkpt><trkpt lat="41.621465" lon="2.0893203"><ele>359.0</ele><time>2026-04-25T11:10:46.48Z</time></trkpt><trkpt lat="41.6213646" lon="2.0894284"><ele>359.0</ele><time>2026-04-25T11:10:47.479Z</time></trkpt><trkpt lat="41.6212792" lon="2.0895184"><ele>359.0</ele><time>2026-04-25T11:10:48.479Z</time></trkpt><trkpt lat="41.621202" lon="2.089614"><ele>359.4</ele><time>2026-04-25T11:10:49.48Z</time></trkpt><trkpt lat="41.6211472" lon="2.0896931"><ele>359.79999999999995</ele><time>2026-04-25T11:10:50.479Z</time></trkpt><trkpt lat="41.621118" lon="2.0897688"><ele>360.20000000000005</ele><time>2026-04-25T11:10:51.48Z</time></trkpt><trkpt lat="41.6210858" lon="2.0899292"><ele>360.6</ele><time>2026-04-25T11:10:53.48Z</time></trkpt><trkpt lat="41.6210038" lon="2.0900495"><ele>361.0</ele><time>2026-04-25T11:10:55.48Z</time></trkpt><trkpt lat="41.6209356" lon="2.0900709"><ele>361.0</ele><time>2026-04-25T11:10:56.48Z</time></trkpt><trkpt lat="41.6208634" lon="2.0900588"><ele>361.0</ele><time>2026-04-25T11:10:57.48Z</time></trkpt><trkpt lat="41.6207806" lon="2.0900184"><ele>361.0</ele><time>2026-04-25T11:10:58.48Z</time></trkpt><trkpt lat="41.6207075" lon="2.0899423"><ele>361.0</ele><time>2026-04-25T11:10:59.48Z</time></trkpt><trkpt lat="41.6206313" lon="2.0898465"><ele>361.0</ele><time>2026-04-25T11:11:00.48Z</time></trkpt><trkpt lat="41.6205691" lon="2.089755"><ele>360.8333333333333</ele><time>2026-04-25T11:11:01.48Z</time></trkpt><trkpt lat="41.6205101" lon="2.0896751"><ele>360.66666666666663</ele><time>2026-04-25T11:11:02.48Z</time></trkpt><trkpt lat="41.620463" lon="2.0896098"><ele>360.5</ele><time>2026-04-25T11:11:03.479Z</time></trkpt><trkpt lat="41.6203923" lon="2.0895244"><ele>360.3333333333333</ele><time>2026-04-25T11:11:05.48Z</time></trkpt><trkpt lat="41.6203097" lon="2.0895126"><ele>360.1666666666667</ele><time>2026-04-25T11:11:07.48Z</time></trkpt><trkpt lat="41.6202415" lon="2.0895204"><ele>360.0</ele><time>2026-04-25T11:11:08.48Z</time></trkpt><trkpt lat="41.62016" lon="2.0895391"><ele>360.0</ele><time>2026-04-25T11:11:09.48Z</time></trkpt><trkpt lat="41.6200791" lon="2.0895615"><ele>360.0</ele><time>2026-04-25T11:11:10.48Z</time></trkpt><trkpt lat="41.6200009" lon="2.0895924"><ele>360.0</ele><time>2026-04-25T11:11:11.479Z</time></trkpt><trkpt lat="41.6199203" lon="2.0896274"><ele>360.0</ele><time>2026-04-25T11:11:12.48Z</time></trkpt><trkpt lat="41.6198291" lon="2.0896557"><ele>360.0</ele><time>2026-04-25T11:11:13.479Z</time></trkpt><trkpt lat="41.6197391" lon="2.0896943"><ele>360.0</ele><time>2026-04-25T11:11:14.48Z</time></trkpt><trkpt lat="41.619657" lon="2.0897331"><ele>360.0</ele><time>2026-04-25T11:11:15.48Z</time></trkpt><trkpt lat="41.6195489" lon="2.0897669"><ele>360.0</ele><time>2026-04-25T11:11:17.48Z</time></trkpt><trkpt lat="41.6194548" lon="2.0897896"><ele>360.0</ele><time>2026-04-25T11:11:19.48Z</time></trkpt><trkpt lat="41.6193757" lon="2.0898344"><ele>360.0</ele><time>2026-04-25T11:11:21.48Z</time></trkpt><trkpt lat="41.6193211" lon="2.0899984"><ele>360.0</ele><time>2026-04-25T11:11:23.48Z</time></trkpt><trkpt lat="41.6192943" lon="2.0900978"><ele>361.0</ele><time>2026-04-25T11:11:25.48Z</time></trkpt><trkpt lat="41.619355" lon="2.0902058"><ele>362.0</ele><time>2026-04-25T11:11:28.48Z</time></trkpt><trkpt lat="41.6194161" lon="2.0902835"><ele>363.0</ele><time>2026-04-25T11:11:29.48Z</time></trkpt><trkpt lat="41.6194783" lon="2.0903628"><ele>364.0</ele><time>2026-04-25T11:11:30.48Z</time></trkpt><trkpt lat="41.6195362" lon="2.0904328"><ele>365.0</ele><time>2026-04-25T11:11:31.48Z</time></trkpt><trkpt lat="41.6195873" lon="2.090492"><ele>366.0</ele><time>2026-04-25T11:11:32.48Z</time></trkpt><trkpt lat="41.6196466" lon="2.0905746"><ele>366.0</ele><time>2026-04-25T11:11:34.48Z</time></trkpt><trkpt lat="41.6197004" lon="2.0906471"><ele>366.0</ele><time>2026-04-25T11:11:35.479Z</time></trkpt><trkpt lat="41.6197628" lon="2.0907417"><ele>366.0</ele><time>2026-04-25T11:11:36.48Z</time></trkpt><trkpt lat="41.619834" lon="2.0908553"><ele>366.0</ele><time>2026-04-25T11:11:37.48Z</time></trkpt><trkpt lat="41.6199064" lon="2.0909872"><ele>366.0</ele><time>2026-04-25T11:11:38.48Z</time></trkpt><trkpt lat="41.6199839" lon="2.0911163"><ele>367.6</ele><time>2026-04-25T11:11:39.48Z</time></trkpt><trkpt lat="41.6200545" lon="2.0912371"><ele>369.20000000000005</ele><time>2026-04-25T11:11:40.48Z</time></trkpt><trkpt lat="41.6201153" lon="2.091338"><ele>370.79999999999995</ele><time>2026-04-25T11:11:41.479Z</time></trkpt><trkpt lat="41.620149" lon="2.0914147"><ele>372.4</ele><time>2026-04-25T11:11:42.48Z</time></trkpt><trkpt lat="41.620153" lon="2.0915743"><ele>374.0</ele><time>2026-04-25T11:11:44.479Z</time></trkpt><trkpt lat="41.6201079" lon="2.0917023"><ele>374.0</ele><time>2026-04-25T11:11:45.48Z</time></trkpt><trkpt lat="41.6200495" lon="2.091834"><ele>374.0</ele><time>2026-04-25T11:11:46.48Z</time></trkpt><trkpt lat="41.6200064" lon="2.0919915"><ele>374.0</ele><time>2026-04-25T11:11:47.48Z</time></trkpt><trkpt lat="41.6199777" lon="2.0921569"><ele>374.0</ele><time>2026-04-25T11:11:48.485Z</time></trkpt><trkpt lat="41.6199679" lon="2.0923364"><ele>374.25</ele><time>2026-04-25T11:11:49.484Z</time></trkpt><trkpt lat="41.6199631" lon="2.0925202"><ele>374.5</ele><time>2026-04-25T11:11:50.485Z</time></trkpt><trkpt lat="41.6199663" lon="2.0927058"><ele>374.75</ele><time>2026-04-25T11:11:51.485Z</time></trkpt><trkpt lat="41.6199646" lon="2.0928871"><ele>375.0</ele><time>2026-04-25T11:11:52.485Z</time></trkpt><trkpt lat="41.6199576" lon="2.0930635"><ele>375.0</ele><time>2026-04-25T11:11:53.485Z</time></trkpt><trkpt lat="41.6199437" lon="2.0932397"><ele>375.0</ele><time>2026-04-25T11:11:54.485Z</time></trkpt><trkpt lat="41.6199198" lon="2.0934127"><ele>375.0</ele><time>2026-04-25T11:11:55.485Z</time></trkpt><trkpt lat="41.6198896" lon="2.0935871"><ele>375.0</ele><time>2026-04-25T11:11:56.485Z</time></trkpt><trkpt lat="41.6198525" lon="2.0937598"><ele>375.0</ele><time>2026-04-25T11:11:57.484Z</time></trkpt><trkpt lat="41.6198094" lon="2.0939289"><ele>375.0</ele><time>2026-04-25T11:11:58.484Z</time></trkpt><trkpt lat="41.6197673" lon="2.0940921"><ele>375.0</ele><time>2026-04-25T11:11:59.484Z</time></trkpt><trkpt lat="41.6197267" lon="2.0942515"><ele>375.0</ele><time>2026-04-25T11:12:00.485Z</time></trkpt><trkpt lat="41.619685" lon="2.0944034"><ele>373.75</ele><time>2026-04-25T11:12:01.484Z</time></trkpt><trkpt lat="41.6196367" lon="2.0945586"><ele>372.5</ele><time>2026-04-25T11:12:02.485Z</time></trkpt><trkpt lat="41.6195796" lon="2.0947069"><ele>371.25</ele><time>2026-04-25T11:12:03.484Z</time></trkpt><trkpt lat="41.6195218" lon="2.0948673"><ele>370.0</ele><time>2026-04-25T11:12:04.485Z</time></trkpt><trkpt lat="41.6194601" lon="2.0950337"><ele>367.25</ele><time>2026-04-25T11:12:05.485Z</time></trkpt><trkpt lat="41.6193939" lon="2.0952096"><ele>364.5</ele><time>2026-04-25T11:12:06.485Z</time></trkpt><trkpt lat="41.6193269" lon="2.0953773"><ele>361.75</ele><time>2026-04-25T11:12:07.485Z</time></trkpt><trkpt lat="41.6192568" lon="2.09553"><ele>359.0</ele><time>2026-04-25T11:12:08.485Z</time></trkpt><trkpt lat="41.6191861" lon="2.0956703"><ele>359.5</ele><time>2026-04-25T11:12:09.485Z</time></trkpt><trkpt lat="41.6191169" lon="2.095805"><ele>360.0</ele><time>2026-04-25T11:12:10.485Z</time></trkpt><trkpt lat="41.6190488" lon="2.0959345"><ele>360.5</ele><time>2026-04-25T11:12:11.484Z</time></trkpt><trkpt lat="41.6189783" lon="2.0960643"><ele>361.0</ele><time>2026-04-25T11:12:12.484Z</time></trkpt><trkpt lat="41.6189094" lon="2.0961945"><ele>361.0</ele><time>2026-04-25T11:12:13.485Z</time></trkpt><trkpt lat="41.6188394" lon="2.0963218"><ele>361.0</ele><time>2026-04-25T11:12:14.485Z</time></trkpt><trkpt lat="41.618772" lon="2.0964343"><ele>361.0</ele><time>2026-04-25T11:12:15.485Z</time></trkpt><trkpt lat="41.618699" lon="2.0965495"><ele>361.0</ele><time>2026-04-25T11:12:16.485Z</time></trkpt><trkpt lat="41.6186173" lon="2.0966659"><ele>359.0</ele><time>2026-04-25T11:12:17.484Z</time></trkpt><trkpt lat="41.6185412" lon="2.0967658"><ele>357.0</ele><time>2026-04-25T11:12:18.485Z</time></trkpt><trkpt lat="41.618476" lon="2.0968524"><ele>355.0</ele><time>2026-04-25T11:12:19.484Z</time></trkpt><trkpt lat="41.6184212" lon="2.096922"><ele>353.0</ele><time>2026-04-25T11:12:20.484Z</time></trkpt><trkpt lat="41.6183595" lon="2.0969757"><ele>351.0</ele><time>2026-04-25T11:12:21.485Z</time></trkpt><trkpt lat="41.618282" lon="2.0970087"><ele>349.0</ele><time>2026-04-25T11:12:22.484Z</time></trkpt><trkpt lat="41.6181941" lon="2.0970276"><ele>349.0</ele><time>2026-04-25T11:12:23.485Z</time></trkpt><trkpt lat="41.6181146" lon="2.0970644"><ele>349.0</ele><time>2026-04-25T11:12:24.485Z</time></trkpt><trkpt lat="41.6180499" lon="2.0971438"><ele>349.0</ele><time>2026-04-25T11:12:25.485Z</time></trkpt><trkpt lat="41.6180109" lon="2.0972569"><ele>349.0</ele><time>2026-04-25T11:12:26.484Z</time></trkpt><trkpt lat="41.6180099" lon="2.0973854"><ele>349.0</ele><time>2026-04-25T11:12:27.485Z</time></trkpt><trkpt lat="41.6180201" lon="2.0975066"><ele>348.4</ele><time>2026-04-25T11:12:28.484Z</time></trkpt><trkpt lat="41.6180168" lon="2.0976299"><ele>347.79999999999995</ele><time>2026-04-25T11:12:29.485Z</time></trkpt><trkpt lat="41.6179856" lon="2.0977611"><ele>347.20000000000005</ele><time>2026-04-25T11:12:30.485Z</time></trkpt><trkpt lat="41.6179536" lon="2.0979053"><ele>346.6</ele><time>2026-04-25T11:12:31.485Z</time></trkpt><trkpt lat="41.6179221" lon="2.0980545"><ele>346.0</ele><time>2026-04-25T11:12:32.485Z</time></trkpt><trkpt lat="41.6178848" lon="2.0982088"><ele>346.25</ele><time>2026-04-25T11:12:33.484Z</time></trkpt><trkpt lat="41.6178486" lon="2.0983695"><ele>346.5</ele><time>2026-04-25T11:12:34.485Z</time></trkpt><trkpt lat="41.6178244" lon="2.0985286"><ele>346.75</ele><time>2026-04-25T11:12:35.485Z</time></trkpt><trkpt lat="41.6178175" lon="2.0986785"><ele>347.0</ele><time>2026-04-25T11:12:36.485Z</time></trkpt><trkpt lat="41.6178398" lon="2.0988474"><ele>347.0</ele><time>2026-04-25T11:12:37.485Z</time></trkpt><trkpt lat="41.6178734" lon="2.0990278"><ele>347.0</ele><time>2026-04-25T11:12:38.485Z</time></trkpt><trkpt lat="41.6179024" lon="2.0992149"><ele>347.0</ele><time>2026-04-25T11:12:39.485Z</time></trkpt><trkpt lat="41.617906" lon="2.0994114"><ele>347.0</ele><time>2026-04-25T11:12:40.485Z</time></trkpt><trkpt lat="41.6179018" lon="2.0996018"><ele>346.75</ele><time>2026-04-25T11:12:41.484Z</time></trkpt><trkpt lat="41.6178845" lon="2.0997834"><ele>346.5</ele><time>2026-04-25T11:12:42.485Z</time></trkpt><trkpt lat="41.6178639" lon="2.0999586"><ele>346.25</ele><time>2026-04-25T11:12:43.485Z</time></trkpt><trkpt lat="41.6178387" lon="2.1001267"><ele>346.0</ele><time>2026-04-25T11:12:44.485Z</time></trkpt><trkpt lat="41.6178061" lon="2.1002776"><ele>350.4</ele><time>2026-04-25T11:12:45.485Z</time></trkpt><trkpt lat="41.6177658" lon="2.1004199"><ele>354.8</ele><time>2026-04-25T11:12:46.485Z</time></trkpt><trkpt lat="41.6177198" lon="2.1005532"><ele>359.2</ele><time>2026-04-25T11:12:47.485Z</time></trkpt><trkpt lat="41.6176693" lon="2.1006737"><ele>363.59999999999997</ele><time>2026-04-25T11:12:48.485Z</time></trkpt><trkpt lat="41.6176143" lon="2.1007893"><ele>368.0</ele><time>2026-04-25T11:12:49.485Z</time></trkpt><trkpt lat="41.617562" lon="2.1008965"><ele>368.0</ele><time>2026-04-25T11:12:50.484Z</time></trkpt><trkpt lat="41.6175049" lon="2.1010034"><ele>368.0</ele><time>2026-04-25T11:12:51.485Z</time></trkpt><trkpt lat="41.6174491" lon="2.1011197"><ele>368.0</ele><time>2026-04-25T11:12:52.485Z</time></trkpt><trkpt lat="41.617393" lon="2.1012288"><ele>368.0</ele><time>2026-04-25T11:12:53.485Z</time></trkpt><trkpt lat="41.6173484" lon="2.1013321"><ele>368.0</ele><time>2026-04-25T11:12:54.485Z</time></trkpt><trkpt lat="41.6173084" lon="2.101416"><ele>368.0</ele><time>2026-04-25T11:12:55.485Z</time></trkpt><trkpt lat="41.6172753" lon="2.1014891"><ele>368.0</ele><time>2026-04-25T11:12:56.485Z</time></trkpt><trkpt lat="41.6172387" lon="2.1016564"><ele>368.0</ele><time>2026-04-25T11:12:58.485Z</time></trkpt><trkpt lat="41.6172298" lon="2.1017569"><ele>368.0</ele><time>2026-04-25T11:12:59.485Z</time></trkpt><trkpt lat="41.617217" lon="2.1018532"><ele>368.0</ele><time>2026-04-25T11:13:00.485Z</time></trkpt><trkpt lat="41.6172008" lon="2.1019624"><ele>368.0</ele><time>2026-04-25T11:13:01.485Z</time></trkpt><trkpt lat="41.6171752" lon="2.1020817"><ele>366.0</ele><time>2026-04-25T11:13:02.485Z</time></trkpt><trkpt lat="41.6171443" lon="2.102202"><ele>364.0</ele><time>2026-04-25T11:13:03.485Z</time></trkpt><trkpt lat="41.6171093" lon="2.1023301"><ele>362.0</ele><time>2026-04-25T11:13:04.485Z</time></trkpt><trkpt lat="41.6170641" lon="2.1024556"><ele>360.0</ele><time>2026-04-25T11:13:05.485Z</time></trkpt><trkpt lat="41.6170154" lon="2.102568"><ele>358.0</ele><time>2026-04-25T11:13:06.484Z</time></trkpt><trkpt lat="41.616961" lon="2.1026772"><ele>357.0</ele><time>2026-04-25T11:13:07.485Z</time></trkpt><trkpt lat="41.6169012" lon="2.1027826"><ele>356.0</ele><time>2026-04-25T11:13:08.485Z</time></trkpt><trkpt lat="41.6168374" lon="2.1028784"><ele>355.0</ele><time>2026-04-25T11:13:09.485Z</time></trkpt><trkpt lat="41.616775" lon="2.1029734"><ele>354.0</ele><time>2026-04-25T11:13:10.485Z</time></trkpt><trkpt lat="41.6167054" lon="2.1030734"><ele>353.0</ele><time>2026-04-25T11:13:11.485Z</time></trkpt><trkpt lat="41.6166358" lon="2.1031832"><ele>352.2</ele><time>2026-04-25T11:13:12.485Z</time></trkpt><trkpt lat="41.6165773" lon="2.1032991"><ele>351.4</ele><time>2026-04-25T11:13:13.484Z</time></trkpt><trkpt lat="41.6165161" lon="2.1034126"><ele>350.59999999999997</ele><time>2026-04-25T11:13:14.485Z</time></trkpt><trkpt lat="41.616467" lon="2.1035359"><ele>349.79999999999995</ele><time>2026-04-25T11:13:15.485Z</time></trkpt><trkpt lat="41.616418" lon="2.1036604"><ele>349.0</ele><time>2026-04-25T11:13:16.485Z</time></trkpt><trkpt lat="41.6163707" lon="2.103788"><ele>349.0</ele><time>2026-04-25T11:13:17.485Z</time></trkpt><trkpt lat="41.6163204" lon="2.1039141"><ele>349.0</ele><time>2026-04-25T11:13:18.485Z</time></trkpt><trkpt lat="41.616273" lon="2.1040464"><ele>349.0</ele><time>2026-04-25T11:13:19.485Z</time></trkpt><trkpt lat="41.6162244" lon="2.1041733"><ele>349.0</ele><time>2026-04-25T11:13:20.485Z</time></trkpt><trkpt lat="41.6161759" lon="2.1043058"><ele>349.0</ele><time>2026-04-25T11:13:21.484Z</time></trkpt><trkpt lat="41.6161279" lon="2.104429"><ele>348.8333333333333</ele><time>2026-04-25T11:13:22.485Z</time></trkpt><trkpt lat="41.616081" lon="2.1045433"><ele>348.66666666666663</ele><time>2026-04-25T11:13:23.485Z</time></trkpt><trkpt lat="41.6160324" lon="2.1046329"><ele>348.5</ele><time>2026-04-25T11:13:24.485Z</time></trkpt><trkpt lat="41.6159907" lon="2.1047113"><ele>348.3333333333333</ele><time>2026-04-25T11:13:25.484Z</time></trkpt><trkpt lat="41.6159506" lon="2.104782"><ele>348.1666666666667</ele><time>2026-04-25T11:13:26.485Z</time></trkpt><trkpt lat="41.6159034" lon="2.1048542"><ele>348.0</ele><time>2026-04-25T11:13:27.485Z</time></trkpt><trkpt lat="41.6158428" lon="2.104923"><ele>348.8333333333333</ele><time>2026-04-25T11:13:28.485Z</time></trkpt><trkpt lat="41.6157827" lon="2.1049972"><ele>349.6666666666667</ele><time>2026-04-25T11:13:29.485Z</time></trkpt><trkpt lat="41.615729" lon="2.1050642"><ele>350.5</ele><time>2026-04-25T11:13:30.485Z</time></trkpt><trkpt lat="41.6156756" lon="2.1051263"><ele>351.33333333333337</ele><time>2026-04-25T11:13:31.485Z</time></trkpt><trkpt lat="41.6156263" lon="2.1051974"><ele>352.1666666666667</ele><time>2026-04-25T11:13:32.485Z</time></trkpt><trkpt lat="41.6155808" lon="2.1052808"><ele>353.0</ele><time>2026-04-25T11:13:33.484Z</time></trkpt><trkpt lat="41.6155395" lon="2.1053772"><ele>353.0</ele><time>2026-04-25T11:13:34.485Z</time></trkpt><trkpt lat="41.6155007" lon="2.1054847"><ele>353.0</ele><time>2026-04-25T11:13:35.485Z</time></trkpt><trkpt lat="41.6154674" lon="2.1056027"><ele>353.0</ele><time>2026-04-25T11:13:36.485Z</time></trkpt><trkpt lat="41.6154349" lon="2.1057195"><ele>353.0</ele><time>2026-04-25T11:13:37.485Z</time></trkpt><trkpt lat="41.6154006" lon="2.1058266"><ele>353.0</ele><time>2026-04-25T11:13:38.485Z</time></trkpt><trkpt lat="41.6153696" lon="2.1059286"><ele>353.0</ele><time>2026-04-25T11:13:39.485Z</time></trkpt><trkpt lat="41.6153437" lon="2.1060311"><ele>352.83333333333337</ele><time>2026-04-25T11:13:40.485Z</time></trkpt><trkpt lat="41.6153176" lon="2.1061299"><ele>352.6666666666667</ele><time>2026-04-25T11:13:41.484Z</time></trkpt><trkpt lat="41.6152909" lon="2.1062241"><ele>352.5</ele><time>2026-04-25T11:13:42.485Z</time></trkpt><trkpt lat="41.615259" lon="2.1063195"><ele>352.3333333333333</ele><time>2026-04-25T11:13:43.485Z</time></trkpt><trkpt lat="41.6152266" lon="2.1064337"><ele>352.16666666666663</ele><time>2026-04-25T11:13:44.485Z</time></trkpt><trkpt lat="41.6151893" lon="2.1065372"><ele>352.0</ele><time>2026-04-25T11:13:45.484Z</time></trkpt><trkpt lat="41.6151452" lon="2.1066262"><ele>351.6</ele><time>2026-04-25T11:13:46.485Z</time></trkpt><trkpt lat="41.6150902" lon="2.1067059"><ele>351.20000000000005</ele><time>2026-04-25T11:13:47.485Z</time></trkpt><trkpt lat="41.6150207" lon="2.1067976"><ele>350.8</ele><time>2026-04-25T11:13:48.485Z</time></trkpt><trkpt lat="41.6149433" lon="2.1068909"><ele>350.4</ele><time>2026-04-25T11:13:49.485Z</time></trkpt><trkpt lat="41.6148765" lon="2.106971"><ele>350.0</ele><time>2026-04-25T11:13:50.485Z</time></trkpt><trkpt lat="41.6148006" lon="2.1070401"><ele>350.0</ele><time>2026-04-25T11:13:51.485Z</time></trkpt><trkpt lat="41.61472" lon="2.1071158"><ele>350.0</ele><time>2026-04-25T11:13:52.485Z</time></trkpt><trkpt lat="41.6146252" lon="2.107195"><ele>350.0</ele><time>2026-04-25T11:13:53.485Z</time></trkpt><trkpt lat="41.6145456" lon="2.1072698"><ele>350.0</ele><time>2026-04-25T11:13:54.485Z</time></trkpt><trkpt lat="41.6144682" lon="2.107343"><ele>350.0</ele><time>2026-04-25T11:13:55.484Z</time></trkpt><trkpt lat="41.6143986" lon="2.1074118"><ele>349.0</ele><time>2026-04-25T11:13:56.484Z</time></trkpt><trkpt lat="41.6143367" lon="2.1074928"><ele>348.0</ele><time>2026-04-25T11:13:57.485Z</time></trkpt><trkpt lat="41.6142807" lon="2.1075767"><ele>347.0</ele><time>2026-04-25T11:13:58.485Z</time></trkpt><trkpt lat="41.6142333" lon="2.1076678"><ele>346.0</ele><time>2026-04-25T11:13:59.485Z</time></trkpt><trkpt lat="41.614189" lon="2.1077548"><ele>345.0</ele><time>2026-04-25T11:14:00.485Z</time></trkpt><trkpt lat="41.6141433" lon="2.1078538"><ele>344.0</ele><time>2026-04-25T11:14:01.485Z</time></trkpt><trkpt lat="41.6140927" lon="2.1079515"><ele>344.0</ele><time>2026-04-25T11:14:02.485Z</time></trkpt><trkpt lat="41.6140409" lon="2.1080507"><ele>344.0</ele><time>2026-04-25T11:14:03.485Z</time></trkpt><trkpt lat="41.6139936" lon="2.1081416"><ele>344.0</ele><time>2026-04-25T11:14:04.485Z</time></trkpt><trkpt lat="41.613952" lon="2.1082244"><ele>344.0</ele><time>2026-04-25T11:14:05.485Z</time></trkpt><trkpt lat="41.6139131" lon="2.1083149"><ele>344.0</ele><time>2026-04-25T11:14:06.485Z</time></trkpt><trkpt lat="41.6138748" lon="2.1084216"><ele>344.0</ele><time>2026-04-25T11:14:07.485Z</time></trkpt><trkpt lat="41.6138409" lon="2.1085251"><ele>344.0</ele><time>2026-04-25T11:14:08.485Z</time></trkpt><trkpt lat="41.6138143" lon="2.1086322"><ele>344.0</ele><time>2026-04-25T11:14:09.485Z</time></trkpt><trkpt lat="41.6138005" lon="2.1087298"><ele>344.0</ele><time>2026-04-25T11:14:10.485Z</time></trkpt><trkpt lat="41.6137867" lon="2.1088213"><ele>344.0</ele><time>2026-04-25T11:14:11.485Z</time></trkpt><trkpt lat="41.6137383" lon="2.1089729"><ele>344.0</ele><time>2026-04-25T11:14:13.485Z</time></trkpt><trkpt lat="41.6136796" lon="2.1090611"><ele>344.0</ele><time>2026-04-25T11:14:14.485Z</time></trkpt><trkpt lat="41.6136098" lon="2.1091734"><ele>342.0</ele><time>2026-04-25T11:14:15.485Z</time></trkpt><trkpt lat="41.6135378" lon="2.1092876"><ele>340.0</ele><time>2026-04-25T11:14:16.485Z</time></trkpt><trkpt lat="41.6134652" lon="2.1094027"><ele>338.0</ele><time>2026-04-25T11:14:17.485Z</time></trkpt><trkpt lat="41.6133942" lon="2.1095102"><ele>336.0</ele><time>2026-04-25T11:14:18.485Z</time></trkpt><trkpt lat="41.6133276" lon="2.1096177"><ele>334.0</ele><time>2026-04-25T11:14:19.485Z</time></trkpt><trkpt lat="41.6132564" lon="2.1097306"><ele>334.0</ele><time>2026-04-25T11:14:20.485Z</time></trkpt><trkpt lat="41.6131794" lon="2.1098571"><ele>334.0</ele><time>2026-04-25T11:14:21.485Z</time></trkpt><trkpt lat="41.6131013" lon="2.1099817"><ele>334.0</ele><time>2026-04-25T11:14:22.485Z</time></trkpt><trkpt lat="41.6130283" lon="2.1101016"><ele>334.0</ele><time>2026-04-25T11:14:23.485Z</time></trkpt><trkpt lat="41.6129646" lon="2.1102041"><ele>332.8333333333333</ele><time>2026-04-25T11:14:24.485Z</time></trkpt><trkpt lat="41.6128986" lon="2.1102917"><ele>331.66666666666663</ele><time>2026-04-25T11:14:25.485Z</time></trkpt><trkpt lat="41.6128241" lon="2.1103641"><ele>330.5</ele><time>2026-04-25T11:14:26.484Z</time></trkpt><trkpt lat="41.6127467" lon="2.1104063"><ele>329.3333333333333</ele><time>2026-04-25T11:14:27.485Z</time></trkpt><trkpt lat="41.6126602" lon="2.1104432"><ele>328.1666666666667</ele><time>2026-04-25T11:14:28.485Z</time></trkpt><trkpt lat="41.6125711" lon="2.1104548"><ele>327.0</ele><time>2026-04-25T11:14:29.485Z</time></trkpt><trkpt lat="41.612461" lon="2.110446"><ele>326.8</ele><time>2026-04-25T11:14:30.485Z</time></trkpt><trkpt lat="41.6123361" lon="2.1104348"><ele>326.6</ele><time>2026-04-25T11:14:31.485Z</time></trkpt><trkpt lat="41.6122291" lon="2.110443"><ele>326.40000000000003</ele><time>2026-04-25T11:14:32.485Z</time></trkpt><trkpt lat="41.6121389" lon="2.1104677"><ele>326.20000000000005</ele><time>2026-04-25T11:14:33.484Z</time></trkpt><trkpt lat="41.6120513" lon="2.1104885"><ele>326.0</ele><time>2026-04-25T11:14:34.485Z</time></trkpt><trkpt lat="41.6119447" lon="2.1104933"><ele>326.5</ele><time>2026-04-25T11:14:35.484Z</time></trkpt><trkpt lat="41.6118184" lon="2.1104965"><ele>327.0</ele><time>2026-04-25T11:14:36.485Z</time></trkpt><trkpt lat="41.6116932" lon="2.110506"><ele>327.5</ele><time>2026-04-25T11:14:37.485Z</time></trkpt><trkpt lat="41.611567" lon="2.1105164"><ele>328.0</ele><time>2026-04-25T11:14:38.485Z</time></trkpt><trkpt lat="41.6114526" lon="2.1105203"><ele>328.0</ele><time>2026-04-25T11:14:39.484Z</time></trkpt><trkpt lat="41.6113444" lon="2.1105321"><ele>328.0</ele><time>2026-04-25T11:14:40.484Z</time></trkpt><trkpt lat="41.6112386" lon="2.1105418"><ele>328.0</ele><time>2026-04-25T11:14:41.484Z</time></trkpt><trkpt lat="41.6111359" lon="2.1105528"><ele>328.0</ele><time>2026-04-25T11:14:42.485Z</time></trkpt><trkpt lat="41.6110336" lon="2.1105594"><ele>328.0</ele><time>2026-04-25T11:14:43.485Z</time></trkpt><trkpt lat="41.6109243" lon="2.1105588"><ele>329.0</ele><time>2026-04-25T11:14:44.484Z</time></trkpt><trkpt lat="41.610815" lon="2.110544"><ele>330.0</ele><time>2026-04-25T11:14:45.485Z</time></trkpt><trkpt lat="41.6106989" lon="2.110518"><ele>331.0</ele><time>2026-04-25T11:14:46.485Z</time></trkpt><trkpt lat="41.6105892" lon="2.1104957"><ele>332.0</ele><time>2026-04-25T11:14:47.485Z</time></trkpt><trkpt lat="41.6104839" lon="2.110464"><ele>333.0</ele><time>2026-04-25T11:14:48.485Z</time></trkpt><trkpt lat="41.6103659" lon="2.1104087"><ele>331.59999999999997</ele><time>2026-04-25T11:14:49.485Z</time></trkpt><trkpt lat="41.6102464" lon="2.1103537"><ele>330.2</ele><time>2026-04-25T11:14:50.485Z</time></trkpt><trkpt lat="41.6101381" lon="2.1103062"><ele>328.8</ele><time>2026-04-25T11:14:51.485Z</time></trkpt><trkpt lat="41.6100485" lon="2.1102808"><ele>327.4</ele><time>2026-04-25T11:14:52.484Z</time></trkpt><trkpt lat="41.6099782" lon="2.1102946"><ele>326.0</ele><time>2026-04-25T11:14:53.485Z</time></trkpt><trkpt lat="41.6099077" lon="2.1103335"><ele>326.0</ele><time>2026-04-25T11:14:54.484Z</time></trkpt><trkpt lat="41.6098294" lon="2.110396"><ele>326.0</ele><time>2026-04-25T11:14:55.485Z</time></trkpt><trkpt lat="41.6097546" lon="2.1104826"><ele>326.0</ele><time>2026-04-25T11:14:56.485Z</time></trkpt><trkpt lat="41.6096766" lon="2.1105913"><ele>326.0</ele><time>2026-04-25T11:14:57.485Z</time></trkpt><trkpt lat="41.6095879" lon="2.1106984"><ele>326.0</ele><time>2026-04-25T11:14:58.485Z</time></trkpt><trkpt lat="41.6094937" lon="2.1107887"><ele>327.0</ele><time>2026-04-25T11:14:59.485Z</time></trkpt><trkpt lat="41.609405" lon="2.1108614"><ele>328.0</ele><time>2026-04-25T11:15:00.485Z</time></trkpt><trkpt lat="41.6093208" lon="2.1109147"><ele>329.0</ele><time>2026-04-25T11:15:01.485Z</time></trkpt><trkpt lat="41.6092304" lon="2.1109469"><ele>330.0</ele><time>2026-04-25T11:15:02.485Z</time></trkpt><trkpt lat="41.6091395" lon="2.1109549"><ele>331.0</ele><time>2026-04-25T11:15:03.485Z</time></trkpt><trkpt lat="41.609053" lon="2.1109335"><ele>331.0</ele><time>2026-04-25T11:15:04.485Z</time></trkpt><trkpt lat="41.6089704" lon="2.1108889"><ele>331.0</ele><time>2026-04-25T11:15:05.485Z</time></trkpt><trkpt lat="41.6088927" lon="2.1108283"><ele>331.0</ele><time>2026-04-25T11:15:06.485Z</time></trkpt><trkpt lat="41.6088238" lon="2.1107858"><ele>331.0</ele><time>2026-04-25T11:15:07.485Z</time></trkpt><trkpt lat="41.6087541" lon="2.1107569"><ele>331.0</ele><time>2026-04-25T11:15:08.485Z</time></trkpt><trkpt lat="41.6086785" lon="2.1107614"><ele>331.0</ele><time>2026-04-25T11:15:09.485Z</time></trkpt><trkpt lat="41.6086073" lon="2.1107902"><ele>331.6</ele><time>2026-04-25T11:15:10.484Z</time></trkpt><trkpt lat="41.6085476" lon="2.1108403"><ele>332.20000000000005</ele><time>2026-04-25T11:15:11.484Z</time></trkpt><trkpt lat="41.6084887" lon="2.1109332"><ele>332.79999999999995</ele><time>2026-04-25T11:15:12.485Z</time></trkpt><trkpt lat="41.6084396" lon="2.1110376"><ele>333.4</ele><time>2026-04-25T11:15:13.485Z</time></trkpt><trkpt lat="41.608385" lon="2.1111608"><ele>334.0</ele><time>2026-04-25T11:15:14.485Z</time></trkpt><trkpt lat="41.608325" lon="2.1113028"><ele>334.0</ele><time>2026-04-25T11:15:15.485Z</time></trkpt><trkpt lat="41.6082597" lon="2.1114288"><ele>334.0</ele><time>2026-04-25T11:15:16.485Z</time></trkpt><trkpt lat="41.6081891" lon="2.1115226"><ele>334.0</ele><time>2026-04-25T11:15:17.485Z</time></trkpt><trkpt lat="41.6081148" lon="2.1115827"><ele>334.0</ele><time>2026-04-25T11:15:18.485Z</time></trkpt><trkpt lat="41.6080301" lon="2.1116078"><ele>334.0</ele><time>2026-04-25T11:15:19.485Z</time></trkpt><trkpt lat="41.6079296" lon="2.1116046"><ele>335.66666666666663</ele><time>2026-04-25T11:15:20.484Z</time></trkpt><trkpt lat="41.6078318" lon="2.1116109"><ele>337.3333333333333</ele><time>2026-04-25T11:15:21.485Z</time></trkpt><trkpt lat="41.607746" lon="2.1116138"><ele>339.0</ele><time>2026-04-25T11:15:22.485Z</time></trkpt><trkpt lat="41.6076708" lon="2.1116296"><ele>340.6666666666667</ele><time>2026-04-25T11:15:23.485Z</time></trkpt><trkpt lat="41.6075896" lon="2.1116544"><ele>342.33333333333337</ele><time>2026-04-25T11:15:24.485Z</time></trkpt><trkpt lat="41.6075077" lon="2.1117067"><ele>344.0</ele><time>2026-04-25T11:15:25.485Z</time></trkpt><trkpt lat="41.6074179" lon="2.1117845"><ele>344.0</ele><time>2026-04-25T11:15:26.484Z</time></trkpt><trkpt lat="41.6073244" lon="2.1118639"><ele>344.0</ele><time>2026-04-25T11:15:27.485Z</time></trkpt><trkpt lat="41.6072292" lon="2.111935"><ele>344.0</ele><time>2026-04-25T11:15:28.485Z</time></trkpt><trkpt lat="41.6071381" lon="2.1119899"><ele>344.0</ele><time>2026-04-25T11:15:29.485Z</time></trkpt><trkpt lat="41.6070706" lon="2.1120241"><ele>344.0</ele><time>2026-04-25T11:15:30.484Z</time></trkpt><trkpt lat="41.6070049" lon="2.1120347"><ele>342.0</ele><time>2026-04-25T11:15:31.485Z</time></trkpt><trkpt lat="41.6069173" lon="2.1120191"><ele>340.0</ele><time>2026-04-25T11:15:32.485Z</time></trkpt><trkpt lat="41.6067966" lon="2.1119969"><ele>338.0</ele><time>2026-04-25T11:15:33.485Z</time></trkpt><trkpt lat="41.6066688" lon="2.1119631"><ele>336.0</ele><time>2026-04-25T11:15:34.485Z</time></trkpt><trkpt lat="41.6065296" lon="2.111919"><ele>336.0</ele><time>2026-04-25T11:15:35.485Z</time></trkpt><trkpt lat="41.6063877" lon="2.1118703"><ele>336.0</ele><time>2026-04-25T11:15:36.485Z</time></trkpt><trkpt lat="41.6062483" lon="2.1118384"><ele>336.0</ele><time>2026-04-25T11:15:37.485Z</time></trkpt><trkpt lat="41.6061065" lon="2.1118221"><ele>336.0</ele><time>2026-04-25T11:15:38.485Z</time></trkpt><trkpt lat="41.6059713" lon="2.1118098"><ele>336.5</ele><time>2026-04-25T11:15:39.485Z</time></trkpt><trkpt lat="41.6058513" lon="2.1118032"><ele>337.0</ele><time>2026-04-25T11:15:40.485Z</time></trkpt><trkpt lat="41.6057353" lon="2.1118142"><ele>337.5</ele><time>2026-04-25T11:15:41.485Z</time></trkpt><trkpt lat="41.6056061" lon="2.1118279"><ele>338.0</ele><time>2026-04-25T11:15:42.485Z</time></trkpt><trkpt lat="41.6054641" lon="2.1118509"><ele>336.33333333333337</ele><time>2026-04-25T11:15:43.484Z</time></trkpt><trkpt lat="41.6053135" lon="2.1118844"><ele>334.6666666666667</ele><time>2026-04-25T11:15:44.485Z</time></trkpt><trkpt lat="41.6051622" lon="2.1119122"><ele>333.0</ele><time>2026-04-25T11:15:45.485Z</time></trkpt><trkpt lat="41.6050037" lon="2.1119431"><ele>333.0</ele><time>2026-04-25T11:15:46.485Z</time></trkpt><trkpt lat="41.6048416" lon="2.1119702"><ele>333.0</ele><time>2026-04-25T11:15:47.485Z</time></trkpt><trkpt lat="41.6046763" lon="2.1119936"><ele>333.0</ele><time>2026-04-25T11:15:48.485Z</time></trkpt><trkpt lat="41.6045247" lon="2.1120106"><ele>332.0</ele><time>2026-04-25T11:15:49.485Z</time></trkpt><trkpt lat="41.6043883" lon="2.1120234"><ele>331.0</ele><time>2026-04-25T11:15:50.484Z</time></trkpt><trkpt lat="41.6042681" lon="2.1120466"><ele>330.0</ele><time>2026-04-25T11:15:51.485Z</time></trkpt><trkpt lat="41.6041516" lon="2.1120762"><ele>329.0</ele><time>2026-04-25T11:15:52.485Z</time></trkpt><trkpt lat="41.6040281" lon="2.112114"><ele>329.0</ele><time>2026-04-25T11:15:53.485Z</time></trkpt><trkpt lat="41.6039031" lon="2.1121582"><ele>329.0</ele><time>2026-04-25T11:15:54.485Z</time></trkpt><trkpt lat="41.6037876" lon="2.1121985"><ele>329.0</ele><time>2026-04-25T11:15:55.485Z</time></trkpt><trkpt lat="41.6036844" lon="2.1122192"><ele>329.0</ele><time>2026-04-25T11:15:56.485Z</time></trkpt><trkpt lat="41.6035782" lon="2.1122167"><ele>328.6</ele><time>2026-04-25T11:15:57.485Z</time></trkpt><trkpt lat="41.6034698" lon="2.1121901"><ele>328.2</ele><time>2026-04-25T11:15:58.485Z</time></trkpt><trkpt lat="41.603378" lon="2.1121655"><ele>327.8</ele><time>2026-04-25T11:15:59.485Z</time></trkpt><trkpt lat="41.6032829" lon="2.1121673"><ele>327.40000000000003</ele><time>2026-04-25T11:16:00.485Z</time></trkpt><trkpt lat="41.6031889" lon="2.1121948"><ele>327.0</ele><time>2026-04-25T11:16:01.485Z</time></trkpt><trkpt lat="41.6030856" lon="2.11223"><ele>327.0</ele><time>2026-04-25T11:16:02.485Z</time></trkpt><trkpt lat="41.602968" lon="2.1122662"><ele>327.0</ele><time>2026-04-25T11:16:03.485Z</time></trkpt><trkpt lat="41.6028535" lon="2.1122963"><ele>327.0</ele><time>2026-04-25T11:16:04.484Z</time></trkpt><trkpt lat="41.6027421" lon="2.1123155"><ele>327.0</ele><time>2026-04-25T11:16:05.485Z</time></trkpt><trkpt lat="41.6026384" lon="2.1123213"><ele>327.6</ele><time>2026-04-25T11:16:06.485Z</time></trkpt><trkpt lat="41.602523" lon="2.1122969"><ele>328.20000000000005</ele><time>2026-04-25T11:16:07.485Z</time></trkpt><trkpt lat="41.6024072" lon="2.1122708"><ele>328.8</ele><time>2026-04-25T11:16:08.485Z</time></trkpt><trkpt lat="41.6022972" lon="2.1122452"><ele>329.4</ele><time>2026-04-25T11:16:09.484Z</time></trkpt><trkpt lat="41.6021965" lon="2.1122239"><ele>330.0</ele><time>2026-04-25T11:16:10.485Z</time></trkpt><trkpt lat="41.6021017" lon="2.1121994"><ele>330.0</ele><time>2026-04-25T11:16:11.485Z</time></trkpt><trkpt lat="41.6020061" lon="2.1121658"><ele>330.0</ele><time>2026-04-25T11:16:12.485Z</time></trkpt><trkpt lat="41.6019052" lon="2.1121141"><ele>330.0</ele><time>2026-04-25T11:16:13.485Z</time></trkpt><trkpt lat="41.6018012" lon="2.1120538"><ele>330.0</ele><time>2026-04-25T11:16:14.485Z</time></trkpt><trkpt lat="41.6016995" lon="2.1119699"><ele>330.0</ele><time>2026-04-25T11:16:15.484Z</time></trkpt><trkpt lat="41.6015824" lon="2.1118732"><ele>329.25</ele><time>2026-04-25T11:16:16.484Z</time></trkpt><trkpt lat="41.6014579" lon="2.1117626"><ele>328.5</ele><time>2026-04-25T11:16:17.483Z</time></trkpt><trkpt lat="41.6013311" lon="2.1116549"><ele>327.75</ele><time>2026-04-25T11:16:18.484Z</time></trkpt><trkpt lat="41.6012207" lon="2.1115486"><ele>327.0</ele><time>2026-04-25T11:16:19.484Z</time></trkpt><trkpt lat="41.6011296" lon="2.1114545"><ele>326.6</ele><time>2026-04-25T11:16:20.484Z</time></trkpt><trkpt lat="41.6010485" lon="2.1113878"><ele>326.20000000000005</ele><time>2026-04-25T11:16:21.483Z</time></trkpt><trkpt lat="41.6009622" lon="2.1113608"><ele>325.8</ele><time>2026-04-25T11:16:22.484Z</time></trkpt><trkpt lat="41.6008631" lon="2.1113524"><ele>325.4</ele><time>2026-04-25T11:16:23.484Z</time></trkpt><trkpt lat="41.6007627" lon="2.1113521"><ele>325.0</ele><time>2026-04-25T11:16:24.484Z</time></trkpt><trkpt lat="41.6006436" lon="2.1113357"><ele>325.0</ele><time>2026-04-25T11:16:25.484Z</time></trkpt><trkpt lat="41.6005223" lon="2.1113078"><ele>325.0</ele><time>2026-04-25T11:16:26.484Z</time></trkpt><trkpt lat="41.6004067" lon="2.1112861"><ele>325.0</ele><time>2026-04-25T11:16:27.484Z</time></trkpt><trkpt lat="41.6002953" lon="2.1112722"><ele>325.0</ele><time>2026-04-25T11:16:28.484Z</time></trkpt><trkpt lat="41.6001768" lon="2.1112614"><ele>324.0</ele><time>2026-04-25T11:16:29.484Z</time></trkpt><trkpt lat="41.6000493" lon="2.1112593"><ele>323.0</ele><time>2026-04-25T11:16:30.483Z</time></trkpt><trkpt lat="41.5999158" lon="2.1112649"><ele>322.0</ele><time>2026-04-25T11:16:31.484Z</time></trkpt><trkpt lat="41.5997751" lon="2.1112826"><ele>321.0</ele><time>2026-04-25T11:16:32.484Z</time></trkpt><trkpt lat="41.5996307" lon="2.1113087"><ele>320.5</ele><time>2026-04-25T11:16:33.484Z</time></trkpt><trkpt lat="41.5994817" lon="2.1113297"><ele>320.0</ele><time>2026-04-25T11:16:34.484Z</time></trkpt><trkpt lat="41.5993309" lon="2.1113451"><ele>319.5</ele><time>2026-04-25T11:16:35.484Z</time></trkpt><trkpt lat="41.59919" lon="2.1113539"><ele>319.0</ele><time>2026-04-25T11:16:36.484Z</time></trkpt><trkpt lat="41.5990558" lon="2.1113666"><ele>319.0</ele><time>2026-04-25T11:16:37.484Z</time></trkpt><trkpt lat="41.5989308" lon="2.1113774"><ele>319.0</ele><time>2026-04-25T11:16:38.484Z</time></trkpt><trkpt lat="41.5988148" lon="2.1113976"><ele>319.0</ele><time>2026-04-25T11:16:39.484Z</time></trkpt><trkpt lat="41.598706" lon="2.1114129"><ele>319.0</ele><time>2026-04-25T11:16:40.484Z</time></trkpt><trkpt lat="41.5986042" lon="2.1114272"><ele>318.2</ele><time>2026-04-25T11:16:41.483Z</time></trkpt><trkpt lat="41.5985061" lon="2.1114442"><ele>317.4</ele><time>2026-04-25T11:16:42.484Z</time></trkpt><trkpt lat="41.5984096" lon="2.1114621"><ele>316.6</ele><time>2026-04-25T11:16:43.484Z</time></trkpt><trkpt lat="41.5983102" lon="2.1114813"><ele>315.8</ele><time>2026-04-25T11:16:44.484Z</time></trkpt><trkpt lat="41.5982121" lon="2.1115093"><ele>315.0</ele><time>2026-04-25T11:16:45.483Z</time></trkpt><trkpt lat="41.5981099" lon="2.111533"><ele>315.0</ele><time>2026-04-25T11:16:46.484Z</time></trkpt><trkpt lat="41.5980008" lon="2.1115633"><ele>315.0</ele><time>2026-04-25T11:16:47.483Z</time></trkpt><trkpt lat="41.5978927" lon="2.1115986"><ele>315.0</ele><time>2026-04-25T11:16:48.484Z</time></trkpt><trkpt lat="41.5977828" lon="2.1116317"><ele>315.0</ele><time>2026-04-25T11:16:49.484Z</time></trkpt><trkpt lat="41.5976762" lon="2.1116684"><ele>315.0</ele><time>2026-04-25T11:16:50.484Z</time></trkpt><trkpt lat="41.5975689" lon="2.1116991"><ele>315.2</ele><time>2026-04-25T11:16:51.484Z</time></trkpt><trkpt lat="41.5974615" lon="2.1117166"><ele>315.4</ele><time>2026-04-25T11:16:52.484Z</time></trkpt><trkpt lat="41.5973617" lon="2.1117343"><ele>315.6</ele><time>2026-04-25T11:16:53.484Z</time></trkpt><trkpt lat="41.5972615" lon="2.11173"><ele>315.8</ele><time>2026-04-25T11:16:54.483Z</time></trkpt><trkpt lat="41.597147" lon="2.1117233"><ele>316.0</ele><time>2026-04-25T11:16:55.483Z</time></trkpt><trkpt lat="41.5970423" lon="2.1117191"><ele>315.2</ele><time>2026-04-25T11:16:56.484Z</time></trkpt><trkpt lat="41.596943" lon="2.1117057"><ele>314.40000000000003</ele><time>2026-04-25T11:16:57.483Z</time></trkpt><trkpt lat="41.5968422" lon="2.1116833"><ele>313.6</ele><time>2026-04-25T11:16:58.484Z</time></trkpt><trkpt lat="41.596747" lon="2.1116559"><ele>312.8</ele><time>2026-04-25T11:16:59.484Z</time></trkpt><trkpt lat="41.5966584" lon="2.1116146"><ele>312.0</ele><time>2026-04-25T11:17:00.484Z</time></trkpt><trkpt lat="41.5965669" lon="2.1115728"><ele>310.0</ele><time>2026-04-25T11:17:01.484Z</time></trkpt><trkpt lat="41.5964677" lon="2.1115267"><ele>308.0</ele><time>2026-04-25T11:17:02.484Z</time></trkpt><trkpt lat="41.5963672" lon="2.1114747"><ele>306.0</ele><time>2026-04-25T11:17:03.484Z</time></trkpt><trkpt lat="41.5962814" lon="2.1114231"><ele>304.0</ele><time>2026-04-25T11:17:04.484Z</time></trkpt><trkpt lat="41.5962084" lon="2.1113878"><ele>302.0</ele><time>2026-04-25T11:17:05.484Z</time></trkpt><trkpt lat="41.5961002" lon="2.1113859"><ele>301.6</ele><time>2026-04-25T11:17:07.483Z</time></trkpt><trkpt lat="41.5960359" lon="2.111422"><ele>301.2</ele><time>2026-04-25T11:17:08.484Z</time></trkpt><trkpt lat="41.5959525" lon="2.1114779"><ele>300.8</ele><time>2026-04-25T11:17:09.484Z</time></trkpt><trkpt lat="41.59587" lon="2.1115382"><ele>300.4</ele><time>2026-04-25T11:17:10.484Z</time></trkpt><trkpt lat="41.595778" lon="2.1115618"><ele>300.0</ele><time>2026-04-25T11:17:11.484Z</time></trkpt><trkpt lat="41.5956615" lon="2.1115533"><ele>300.0</ele><time>2026-04-25T11:17:12.484Z</time></trkpt><trkpt lat="41.5955346" lon="2.1115236"><ele>300.0</ele><time>2026-04-25T11:17:13.484Z</time></trkpt><trkpt lat="41.5954145" lon="2.1114819"><ele>300.0</ele><time>2026-04-25T11:17:14.484Z</time></trkpt><trkpt lat="41.5952916" lon="2.1114447"><ele>300.0</ele><time>2026-04-25T11:17:15.484Z</time></trkpt><trkpt lat="41.5951721" lon="2.1114163"><ele>300.0</ele><time>2026-04-25T11:17:16.484Z</time></trkpt><trkpt lat="41.5950473" lon="2.1113964"><ele>300.0</ele><time>2026-04-25T11:17:17.484Z</time></trkpt><trkpt lat="41.5949233" lon="2.1113865"><ele>300.0</ele><time>2026-04-25T11:17:18.484Z</time></trkpt><trkpt lat="41.5947987" lon="2.111393"><ele>300.0</ele><time>2026-04-25T11:17:19.483Z</time></trkpt><trkpt lat="41.5946709" lon="2.1114038"><ele>300.0</ele><time>2026-04-25T11:17:20.484Z</time></trkpt><trkpt lat="41.5945503" lon="2.1114133"><ele>300.0</ele><time>2026-04-25T11:17:21.484Z</time></trkpt><trkpt lat="41.5944317" lon="2.1114313"><ele>300.0</ele><time>2026-04-25T11:17:22.483Z</time></trkpt><trkpt lat="41.5943065" lon="2.1114554"><ele>300.0</ele><time>2026-04-25T11:17:23.484Z</time></trkpt><trkpt lat="41.5941727" lon="2.1114678"><ele>300.5</ele><time>2026-04-25T11:17:24.484Z</time></trkpt><trkpt lat="41.5940453" lon="2.1114705"><ele>301.0</ele><time>2026-04-25T11:17:25.484Z</time></trkpt><trkpt lat="41.5939197" lon="2.1114856"><ele>301.5</ele><time>2026-04-25T11:17:26.483Z</time></trkpt><trkpt lat="41.5937977" lon="2.1115203"><ele>302.0</ele><time>2026-04-25T11:17:27.484Z</time></trkpt><trkpt lat="41.5936791" lon="2.1115606"><ele>301.8</ele><time>2026-04-25T11:17:28.484Z</time></trkpt><trkpt lat="41.5935798" lon="2.1115969"><ele>301.6</ele><time>2026-04-25T11:17:29.483Z</time></trkpt><trkpt lat="41.5934873" lon="2.1116239"><ele>301.40000000000003</ele><time>2026-04-25T11:17:30.484Z</time></trkpt><trkpt lat="41.5933915" lon="2.1116382"><ele>301.2</ele><time>2026-04-25T11:17:31.484Z</time></trkpt><trkpt lat="41.5932884" lon="2.1116318"><ele>301.0</ele><time>2026-04-25T11:17:32.483Z</time></trkpt><trkpt lat="41.5931713" lon="2.1116349"><ele>301.0</ele><time>2026-04-25T11:17:33.484Z</time></trkpt><trkpt lat="41.5930553" lon="2.1116454"><ele>301.0</ele><time>2026-04-25T11:17:34.484Z</time></trkpt><trkpt lat="41.5929362" lon="2.1116729"><ele>301.0</ele><time>2026-04-25T11:17:35.484Z</time></trkpt><trkpt lat="41.5927967" lon="2.1117224"><ele>301.0</ele><time>2026-04-25T11:17:36.484Z</time></trkpt><trkpt lat="41.5926563" lon="2.1117765"><ele>300.5</ele><time>2026-04-25T11:17:37.484Z</time></trkpt><trkpt lat="41.5925248" lon="2.1118417"><ele>300.0</ele><time>2026-04-25T11:17:38.484Z</time></trkpt><trkpt lat="41.592396" lon="2.111909"><ele>299.5</ele><time>2026-04-25T11:17:39.484Z</time></trkpt><trkpt lat="41.5922743" lon="2.1119745"><ele>299.0</ele><time>2026-04-25T11:17:40.484Z</time></trkpt><trkpt lat="41.592154" lon="2.1120406"><ele>299.0</ele><time>2026-04-25T11:17:41.484Z</time></trkpt><trkpt lat="41.5920353" lon="2.1121048"><ele>299.0</ele><time>2026-04-25T11:17:42.484Z</time></trkpt><trkpt lat="41.5919302" lon="2.1121485"><ele>299.0</ele><time>2026-04-25T11:17:43.484Z</time></trkpt><trkpt lat="41.5918309" lon="2.1121648"><ele>299.0</ele><time>2026-04-25T11:17:44.484Z</time></trkpt><trkpt lat="41.5917264" lon="2.1121582"><ele>299.0</ele><time>2026-04-25T11:17:45.483Z</time></trkpt><trkpt lat="41.5916167" lon="2.1121259"><ele>298.4</ele><time>2026-04-25T11:17:46.484Z</time></trkpt><trkpt lat="41.5915248" lon="2.1120891"><ele>297.79999999999995</ele><time>2026-04-25T11:17:47.484Z</time></trkpt><trkpt lat="41.5914205" lon="2.1120791"><ele>297.20000000000005</ele><time>2026-04-25T11:17:48.484Z</time></trkpt><trkpt lat="41.5913101" lon="2.1120977"><ele>296.6</ele><time>2026-04-25T11:17:49.484Z</time></trkpt><trkpt lat="41.5911862" lon="2.1121451"><ele>296.0</ele><time>2026-04-25T11:17:50.484Z</time></trkpt><trkpt lat="41.5910648" lon="2.1121986"><ele>296.0</ele><time>2026-04-25T11:17:51.484Z</time></trkpt><trkpt lat="41.590944" lon="2.1122443"><ele>296.0</ele><time>2026-04-25T11:17:52.484Z</time></trkpt><trkpt lat="41.5908333" lon="2.1122763"><ele>296.0</ele><time>2026-04-25T11:17:53.484Z</time></trkpt><trkpt lat="41.5907092" lon="2.1122917"><ele>296.0</ele><time>2026-04-25T11:17:54.484Z</time></trkpt><trkpt lat="41.59058" lon="2.112293"><ele>296.0</ele><time>2026-04-25T11:17:55.484Z</time></trkpt><trkpt lat="41.5904618" lon="2.1122796"><ele>296.0</ele><time>2026-04-25T11:17:56.484Z</time></trkpt><trkpt lat="41.5903495" lon="2.1122362"><ele>296.0</ele><time>2026-04-25T11:17:57.483Z</time></trkpt><trkpt lat="41.5902494" lon="2.1121759"><ele>296.0</ele><time>2026-04-25T11:17:58.484Z</time></trkpt><trkpt lat="41.5901582" lon="2.1120938"><ele>294.83333333333337</ele><time>2026-04-25T11:17:59.484Z</time></trkpt><trkpt lat="41.5900855" lon="2.1120147"><ele>293.6666666666667</ele><time>2026-04-25T11:18:00.484Z</time></trkpt><trkpt lat="41.5900252" lon="2.1119508"><ele>292.5</ele><time>2026-04-25T11:18:01.483Z</time></trkpt><trkpt lat="41.5899528" lon="2.1119127"><ele>291.3333333333333</ele><time>2026-04-25T11:18:02.484Z</time></trkpt><trkpt lat="41.5898555" lon="2.1118954"><ele>290.16666666666663</ele><time>2026-04-25T11:18:03.484Z</time></trkpt><trkpt lat="41.5897594" lon="2.1119102"><ele>289.0</ele><time>2026-04-25T11:18:04.484Z</time></trkpt><trkpt lat="41.5896647" lon="2.1119282"><ele>289.0</ele><time>2026-04-25T11:18:05.484Z</time></trkpt><trkpt lat="41.5895842" lon="2.1119212"><ele>289.0</ele><time>2026-04-25T11:18:06.484Z</time></trkpt><trkpt lat="41.5894922" lon="2.1119015"><ele>289.0</ele><time>2026-04-25T11:18:07.484Z</time></trkpt><trkpt lat="41.5893953" lon="2.1118497"><ele>289.0</ele><time>2026-04-25T11:18:08.484Z</time></trkpt><trkpt lat="41.5892844" lon="2.1117886"><ele>289.0</ele><time>2026-04-25T11:18:09.484Z</time></trkpt><trkpt lat="41.5891551" lon="2.1117314"><ele>288.75</ele><time>2026-04-25T11:18:10.484Z</time></trkpt><trkpt lat="41.5890229" lon="2.1116768"><ele>288.5</ele><time>2026-04-25T11:18:11.484Z</time></trkpt><trkpt lat="41.5888983" lon="2.1116173"><ele>288.25</ele><time>2026-04-25T11:18:12.484Z</time></trkpt><trkpt lat="41.5887759" lon="2.1115697"><ele>288.0</ele><time>2026-04-25T11:18:13.484Z</time></trkpt><trkpt lat="41.5886625" lon="2.1115285"><ele>286.4</ele><time>2026-04-25T11:18:14.484Z</time></trkpt><trkpt lat="41.5885557" lon="2.1114955"><ele>284.8</ele><time>2026-04-25T11:18:15.484Z</time></trkpt><trkpt lat="41.5884526" lon="2.1114784"><ele>283.2</ele><time>2026-04-25T11:18:16.484Z</time></trkpt><trkpt lat="41.5883546" lon="2.1114665"><ele>281.6</ele><time>2026-04-25T11:18:17.483Z</time></trkpt><trkpt lat="41.5882468" lon="2.1114532"><ele>280.0</ele><time>2026-04-25T11:18:18.483Z</time></trkpt><trkpt lat="41.5881286" lon="2.1114384"><ele>280.0</ele><time>2026-04-25T11:18:19.484Z</time></trkpt><trkpt lat="41.5879964" lon="2.1114352"><ele>280.0</ele><time>2026-04-25T11:18:20.484Z</time></trkpt><trkpt lat="41.5878568" lon="2.1114377"><ele>280.0</ele><time>2026-04-25T11:18:21.484Z</time></trkpt><trkpt lat="41.5877023" lon="2.1114421"><ele>280.0</ele><time>2026-04-25T11:18:22.484Z</time></trkpt><trkpt lat="41.5875497" lon="2.1114497"><ele>278.3333333333333</ele><time>2026-04-25T11:18:23.484Z</time></trkpt><trkpt lat="41.5873981" lon="2.1114586"><ele>276.6666666666667</ele><time>2026-04-25T11:18:24.484Z</time></trkpt><trkpt lat="41.5872363" lon="2.1114685"><ele>275.0</ele><time>2026-04-25T11:18:25.484Z</time></trkpt><trkpt lat="41.5870726" lon="2.1114701"><ele>272.6666666666667</ele><time>2026-04-25T11:18:26.484Z</time></trkpt><trkpt lat="41.5869103" lon="2.1114659"><ele>270.3333333333333</ele><time>2026-04-25T11:18:27.484Z</time></trkpt><trkpt lat="41.5867545" lon="2.1114695"><ele>268.0</ele><time>2026-04-25T11:18:28.484Z</time></trkpt><trkpt lat="41.5866114" lon="2.1114857"><ele>268.0</ele><time>2026-04-25T11:18:29.489Z</time></trkpt><trkpt lat="41.586471" lon="2.1115074"><ele>268.0</ele><time>2026-04-25T11:18:30.489Z</time></trkpt><trkpt lat="41.5863324" lon="2.111535"><ele>268.0</ele><time>2026-04-25T11:18:31.489Z</time></trkpt><trkpt lat="41.5861847" lon="2.1115715"><ele>268.0</ele><time>2026-04-25T11:18:32.489Z</time></trkpt><trkpt lat="41.586042" lon="2.1115992"><ele>268.0</ele><time>2026-04-25T11:18:33.489Z</time></trkpt><trkpt lat="41.5859069" lon="2.1116112"><ele>268.0</ele><time>2026-04-25T11:18:34.489Z</time></trkpt><trkpt lat="41.5857848" lon="2.1116174"><ele>268.0</ele><time>2026-04-25T11:18:35.489Z</time></trkpt><trkpt lat="41.5856672" lon="2.1116016"><ele>268.0</ele><time>2026-04-25T11:18:36.489Z</time></trkpt><trkpt lat="41.5855477" lon="2.1115796"><ele>267.0</ele><time>2026-04-25T11:18:37.489Z</time></trkpt><trkpt lat="41.585429" lon="2.1115577"><ele>266.0</ele><time>2026-04-25T11:18:38.489Z</time></trkpt><trkpt lat="41.5853243" lon="2.1115452"><ele>265.0</ele><time>2026-04-25T11:18:39.489Z</time></trkpt><trkpt lat="41.5852174" lon="2.1115417"><ele>264.0</ele><time>2026-04-25T11:18:40.489Z</time></trkpt><trkpt lat="41.5851046" lon="2.1115561"><ele>263.0</ele><time>2026-04-25T11:18:41.488Z</time></trkpt><trkpt lat="41.5849795" lon="2.1115816"><ele>263.0</ele><time>2026-04-25T11:18:42.489Z</time></trkpt><trkpt lat="41.5848513" lon="2.111616"><ele>263.0</ele><time>2026-04-25T11:18:43.489Z</time></trkpt><trkpt lat="41.5847232" lon="2.1116569"><ele>263.0</ele><time>2026-04-25T11:18:44.489Z</time></trkpt><trkpt lat="41.5845891" lon="2.1116957"><ele>263.0</ele><time>2026-04-25T11:18:45.489Z</time></trkpt><trkpt lat="41.5844556" lon="2.1117364"><ele>262.25</ele><time>2026-04-25T11:18:46.489Z</time></trkpt><trkpt lat="41.5843172" lon="2.1117885"><ele>261.5</ele><time>2026-04-25T11:18:47.489Z</time></trkpt><trkpt lat="41.5841788" lon="2.1118627"><ele>260.75</ele><time>2026-04-25T11:18:48.489Z</time></trkpt><trkpt lat="41.5840336" lon="2.1119306"><ele>260.0</ele><time>2026-04-25T11:18:49.489Z</time></trkpt><trkpt lat="41.5838895" lon="2.1120002"><ele>260.0</ele><time>2026-04-25T11:18:50.489Z</time></trkpt><trkpt lat="41.5837594" lon="2.1120633"><ele>260.0</ele><time>2026-04-25T11:18:51.489Z</time></trkpt><trkpt lat="41.5836366" lon="2.1121251"><ele>260.0</ele><time>2026-04-25T11:18:52.488Z</time></trkpt><trkpt lat="41.5835153" lon="2.1121856"><ele>260.0</ele><time>2026-04-25T11:18:53.489Z</time></trkpt><trkpt lat="41.5834079" lon="2.1122353"><ele>260.0</ele><time>2026-04-25T11:18:54.489Z</time></trkpt><trkpt lat="41.5832976" lon="2.1122798"><ele>260.0</ele><time>2026-04-25T11:18:55.489Z</time></trkpt><trkpt lat="41.5831824" lon="2.1123287"><ele>260.0</ele><time>2026-04-25T11:18:56.489Z</time></trkpt><trkpt lat="41.583063" lon="2.1123842"><ele>260.0</ele><time>2026-04-25T11:18:57.489Z</time></trkpt><trkpt lat="41.5829403" lon="2.1124567"><ele>259.25</ele><time>2026-04-25T11:18:58.489Z</time></trkpt><trkpt lat="41.582807" lon="2.1125328"><ele>258.5</ele><time>2026-04-25T11:18:59.489Z</time></trkpt><trkpt lat="41.5826749" lon="2.1125957"><ele>257.75</ele><time>2026-04-25T11:19:00.489Z</time></trkpt><trkpt lat="41.5825497" lon="2.1126675"><ele>257.0</ele><time>2026-04-25T11:19:01.489Z</time></trkpt><trkpt lat="41.5824278" lon="2.112732"><ele>257.0</ele><time>2026-04-25T11:19:02.489Z</time></trkpt><trkpt lat="41.5823024" lon="2.1127965"><ele>257.0</ele><time>2026-04-25T11:19:03.489Z</time></trkpt><trkpt lat="41.5821732" lon="2.1128597"><ele>257.0</ele><time>2026-04-25T11:19:04.489Z</time></trkpt><trkpt lat="41.5820428" lon="2.1129146"><ele>257.0</ele><time>2026-04-25T11:19:05.488Z</time></trkpt><trkpt lat="41.5819273" lon="2.1129568"><ele>256.2</ele><time>2026-04-25T11:19:06.489Z</time></trkpt><trkpt lat="41.5818165" lon="2.1130069"><ele>255.39999999999998</ele><time>2026-04-25T11:19:07.488Z</time></trkpt><trkpt lat="41.5817154" lon="2.1130557"><ele>254.60000000000002</ele><time>2026-04-25T11:19:08.488Z</time></trkpt><trkpt lat="41.581628" lon="2.1130894"><ele>253.8</ele><time>2026-04-25T11:19:09.488Z</time></trkpt><trkpt lat="41.5815404" lon="2.1131215"><ele>253.0</ele><time>2026-04-25T11:19:10.489Z</time></trkpt><trkpt lat="41.5814453" lon="2.1131316"><ele>253.0</ele><time>2026-04-25T11:19:11.489Z</time></trkpt><trkpt lat="41.5813555" lon="2.1131583"><ele>253.0</ele><time>2026-04-25T11:19:12.489Z</time></trkpt><trkpt lat="41.5812657" lon="2.1132005"><ele>253.0</ele><time>2026-04-25T11:19:13.488Z</time></trkpt><trkpt lat="41.5811675" lon="2.1132666"><ele>253.0</ele><time>2026-04-25T11:19:14.489Z</time></trkpt><trkpt lat="41.5810431" lon="2.1133608"><ele>253.0</ele><time>2026-04-25T11:19:15.489Z</time></trkpt><trkpt lat="41.580924" lon="2.1134585"><ele>252.0</ele><time>2026-04-25T11:19:16.489Z</time></trkpt><trkpt lat="41.5807952" lon="2.1135333"><ele>251.0</ele><time>2026-04-25T11:19:17.489Z</time></trkpt><trkpt lat="41.580668" lon="2.1135958"><ele>250.0</ele><time>2026-04-25T11:19:18.489Z</time></trkpt><trkpt lat="41.5805378" lon="2.1136581"><ele>249.0</ele><time>2026-04-25T11:19:19.489Z</time></trkpt><trkpt lat="41.5804057" lon="2.1137089"><ele>247.5</ele><time>2026-04-25T11:19:20.489Z</time></trkpt><trkpt lat="41.5802815" lon="2.113753"><ele>246.0</ele><time>2026-04-25T11:19:21.489Z</time></trkpt><trkpt lat="41.5801612" lon="2.113796"><ele>244.5</ele><time>2026-04-25T11:19:22.489Z</time></trkpt><trkpt lat="41.5800432" lon="2.1138229"><ele>243.0</ele><time>2026-04-25T11:19:23.489Z</time></trkpt><trkpt lat="41.5799284" lon="2.1138416"><ele>243.0</ele><time>2026-04-25T11:19:24.488Z</time></trkpt><trkpt lat="41.5798023" lon="2.1138711"><ele>243.0</ele><time>2026-04-25T11:19:25.489Z</time></trkpt><trkpt lat="41.5796789" lon="2.1139117"><ele>243.0</ele><time>2026-04-25T11:19:26.488Z</time></trkpt><trkpt lat="41.5795519" lon="2.1139622"><ele>243.0</ele><time>2026-04-25T11:19:27.489Z</time></trkpt><trkpt lat="41.5794256" lon="2.1140024"><ele>242.0</ele><time>2026-04-25T11:19:28.489Z</time></trkpt><trkpt lat="41.5793032" lon="2.1140559"><ele>241.0</ele><time>2026-04-25T11:19:29.489Z</time></trkpt><trkpt lat="41.5791889" lon="2.1141159"><ele>240.0</ele><time>2026-04-25T11:19:30.489Z</time></trkpt><trkpt lat="41.5790946" lon="2.1141794"><ele>239.0</ele><time>2026-04-25T11:19:31.489Z</time></trkpt><trkpt lat="41.5790198" lon="2.114224"><ele>238.0</ele><time>2026-04-25T11:19:32.489Z</time></trkpt><trkpt lat="41.5789417" lon="2.1142677"><ele>237.2</ele><time>2026-04-25T11:19:33.489Z</time></trkpt><trkpt lat="41.5788636" lon="2.114285"><ele>236.4</ele><time>2026-04-25T11:19:34.489Z</time></trkpt><trkpt lat="41.5787629" lon="2.1142825"><ele>235.59999999999997</ele><time>2026-04-25T11:19:35.489Z</time></trkpt><trkpt lat="41.5786526" lon="2.1142633"><ele>234.79999999999998</ele><time>2026-04-25T11:19:36.488Z</time></trkpt><trkpt lat="41.5785462" lon="2.1142433"><ele>234.0</ele><time>2026-04-25T11:19:37.489Z</time></trkpt><trkpt lat="41.5784379" lon="2.1142368"><ele>234.0</ele><time>2026-04-25T11:19:38.489Z</time></trkpt><trkpt lat="41.5783344" lon="2.1142575"><ele>233.99999999999997</ele><time>2026-04-25T11:19:39.489Z</time></trkpt><trkpt lat="41.578242" lon="2.1143103"><ele>233.99999999999997</ele><time>2026-04-25T11:19:40.489Z</time></trkpt><trkpt lat="41.5781532" lon="2.1143854"><ele>234.0</ele><time>2026-04-25T11:19:41.489Z</time></trkpt><trkpt lat="41.5780689" lon="2.114504"><ele>234.0</ele><time>2026-04-25T11:19:42.489Z</time></trkpt><trkpt lat="41.5779819" lon="2.1146299"><ele>234.0</ele><time>2026-04-25T11:19:43.489Z</time></trkpt><trkpt lat="41.5778995" lon="2.1147145"><ele>234.0</ele><time>2026-04-25T11:19:44.489Z</time></trkpt><trkpt lat="41.5777931" lon="2.1147794"><ele>234.0</ele><time>2026-04-25T11:19:45.489Z</time></trkpt><trkpt lat="41.5776616" lon="2.1148329"><ele>234.0</ele><time>2026-04-25T11:19:46.489Z</time></trkpt><trkpt lat="41.5775141" lon="2.1148726"><ele>234.0</ele><time>2026-04-25T11:19:47.489Z</time></trkpt><trkpt lat="41.5773759" lon="2.1149102"><ele>234.0</ele><time>2026-04-25T11:19:48.489Z</time></trkpt><trkpt lat="41.5772485" lon="2.1149478"><ele>234.0</ele><time>2026-04-25T11:19:49.489Z</time></trkpt><trkpt lat="41.577127" lon="2.1149827"><ele>234.0</ele><time>2026-04-25T11:19:50.489Z</time></trkpt><trkpt lat="41.5770196" lon="2.1150213"><ele>233.5</ele><time>2026-04-25T11:19:51.489Z</time></trkpt><trkpt lat="41.5769065" lon="2.1150671"><ele>233.0</ele><time>2026-04-25T11:19:52.489Z</time></trkpt><trkpt lat="41.5767964" lon="2.1151304"><ele>232.5</ele><time>2026-04-25T11:19:53.489Z</time></trkpt><trkpt lat="41.5766749" lon="2.1151925"><ele>232.0</ele><time>2026-04-25T11:19:54.489Z</time></trkpt><trkpt lat="41.5765591" lon="2.1152552"><ele>232.0</ele><time>2026-04-25T11:19:55.489Z</time></trkpt><trkpt lat="41.5764536" lon="2.115292"><ele>232.0</ele><time>2026-04-25T11:19:56.489Z</time></trkpt><trkpt lat="41.5763404" lon="2.1153199"><ele>232.0</ele><time>2026-04-25T11:19:57.489Z</time></trkpt><trkpt lat="41.5762213" lon="2.1153373"><ele>232.0</ele><time>2026-04-25T11:19:58.489Z</time></trkpt><trkpt lat="41.5760885" lon="2.1153438"><ele>232.5</ele><time>2026-04-25T11:19:59.489Z</time></trkpt><trkpt lat="41.5759517" lon="2.1153597"><ele>233.0</ele><time>2026-04-25T11:20:00.488Z</time></trkpt><trkpt lat="41.5758135" lon="2.1153868"><ele>233.5</ele><time>2026-04-25T11:20:01.489Z</time></trkpt><trkpt lat="41.5756762" lon="2.1154153"><ele>234.0</ele><time>2026-04-25T11:20:02.488Z</time></trkpt><trkpt lat="41.5755413" lon="2.1154483"><ele>234.0</ele><time>2026-04-25T11:20:03.489Z</time></trkpt><trkpt lat="41.5754214" lon="2.1154865"><ele>233.99999999999997</ele><time>2026-04-25T11:20:04.489Z</time></trkpt><trkpt lat="41.5753171" lon="2.1155112"><ele>233.99999999999997</ele><time>2026-04-25T11:20:05.489Z</time></trkpt><trkpt lat="41.5752215" lon="2.1155399"><ele>234.0</ele><time>2026-04-25T11:20:06.489Z</time></trkpt><trkpt lat="41.5751302" lon="2.115573"><ele>234.0</ele><time>2026-04-25T11:20:07.489Z</time></trkpt><trkpt lat="41.5750166" lon="2.115594"><ele>233.75</ele><time>2026-04-25T11:20:08.489Z</time></trkpt><trkpt lat="41.5748854" lon="2.1155967"><ele>233.5</ele><time>2026-04-25T11:20:09.489Z</time></trkpt><trkpt lat="41.5747457" lon="2.115604"><ele>233.25</ele><time>2026-04-25T11:20:10.489Z</time></trkpt><trkpt lat="41.5746149" lon="2.1156118"><ele>233.0</ele><time>2026-04-25T11:20:11.489Z</time></trkpt><trkpt lat="41.5744985" lon="2.115634"><ele>232.66666666666669</ele><time>2026-04-25T11:20:12.489Z</time></trkpt><trkpt lat="41.5744013" lon="2.1156438"><ele>232.33333333333334</ele><time>2026-04-25T11:20:13.489Z</time></trkpt><trkpt lat="41.5743131" lon="2.1156629"><ele>232.0</ele><time>2026-04-25T11:20:14.489Z</time></trkpt><trkpt lat="41.57423" lon="2.1156795"><ele>231.66666666666669</ele><time>2026-04-25T11:20:15.488Z</time></trkpt><trkpt lat="41.5741549" lon="2.1156964"><ele>231.33333333333334</ele><time>2026-04-25T11:20:16.489Z</time></trkpt><trkpt lat="41.5740927" lon="2.1157115"><ele>231.0</ele><time>2026-04-25T11:20:17.489Z</time></trkpt><trkpt lat="41.5739941" lon="2.1157546"><ele>231.0</ele><time>2026-04-25T11:20:19.489Z</time></trkpt><trkpt lat="41.5739009" lon="2.1158033"><ele>231.00000000000003</ele><time>2026-04-25T11:20:21.488Z</time></trkpt><trkpt lat="41.5737939" lon="2.1158604"><ele>231.00000000000003</ele><time>2026-04-25T11:20:23.489Z</time></trkpt><trkpt lat="41.5737281" lon="2.1159056"><ele>231.0</ele><time>2026-04-25T11:20:24.489Z</time></trkpt><trkpt lat="41.5736457" lon="2.115965"><ele>231.0</ele><time>2026-04-25T11:20:25.489Z</time></trkpt><trkpt lat="41.57354" lon="2.1160275"><ele>231.0</ele><time>2026-04-25T11:20:26.489Z</time></trkpt><trkpt lat="41.5734189" lon="2.116089"><ele>231.0</ele><time>2026-04-25T11:20:27.489Z</time></trkpt><trkpt lat="41.5732906" lon="2.1161482"><ele>231.0</ele><time>2026-04-25T11:20:28.489Z</time></trkpt><trkpt lat="41.5731508" lon="2.1162075"><ele>231.0</ele><time>2026-04-25T11:20:29.489Z</time></trkpt><trkpt lat="41.5729956" lon="2.1162745"><ele>231.0</ele><time>2026-04-25T11:20:30.489Z</time></trkpt><trkpt lat="41.5728585" lon="2.1163383"><ele>231.0</ele><time>2026-04-25T11:20:31.489Z</time></trkpt><trkpt lat="41.5727348" lon="2.116391"><ele>231.0</ele><time>2026-04-25T11:20:32.488Z</time></trkpt><trkpt lat="41.5726171" lon="2.1164268"><ele>231.0</ele><time>2026-04-25T11:20:33.489Z</time></trkpt><trkpt lat="41.5724952" lon="2.1164603"><ele>231.0</ele><time>2026-04-25T11:20:34.489Z</time></trkpt><trkpt lat="41.5723642" lon="2.1165109"><ele>231.0</ele><time>2026-04-25T11:20:35.489Z</time></trkpt><trkpt lat="41.5722222" lon="2.1165772"><ele>231.0</ele><time>2026-04-25T11:20:36.489Z</time></trkpt><trkpt lat="41.5720858" lon="2.1166448"><ele>231.0</ele><time>2026-04-25T11:20:37.488Z</time></trkpt><trkpt lat="41.5719678" lon="2.1166942"><ele>231.25</ele><time>2026-04-25T11:20:38.489Z</time></trkpt><trkpt lat="41.5718508" lon="2.1167545"><ele>231.5</ele><time>2026-04-25T11:20:39.489Z</time></trkpt><trkpt lat="41.5717287" lon="2.1168113"><ele>231.75</ele><time>2026-04-25T11:20:40.489Z</time></trkpt><trkpt lat="41.5716065" lon="2.1168762"><ele>232.0</ele><time>2026-04-25T11:20:41.489Z</time></trkpt><trkpt lat="41.5714896" lon="2.1169462"><ele>232.0</ele><time>2026-04-25T11:20:42.489Z</time></trkpt><trkpt lat="41.5713789" lon="2.1170242"><ele>232.0</ele><time>2026-04-25T11:20:43.489Z</time></trkpt><trkpt lat="41.5712696" lon="2.1171041"><ele>232.0</ele><time>2026-04-25T11:20:44.489Z</time></trkpt><trkpt lat="41.5711608" lon="2.1171847"><ele>232.0</ele><time>2026-04-25T11:20:45.488Z</time></trkpt><trkpt lat="41.5710569" lon="2.1172593"><ele>232.0</ele><time>2026-04-25T11:20:46.489Z</time></trkpt><trkpt lat="41.5709584" lon="2.1173372"><ele>232.0</ele><time>2026-04-25T11:20:47.489Z</time></trkpt><trkpt lat="41.5708612" lon="2.1174122"><ele>232.0</ele><time>2026-04-25T11:20:48.489Z</time></trkpt><trkpt lat="41.5707642" lon="2.1174876"><ele>232.0</ele><time>2026-04-25T11:20:49.489Z</time></trkpt><trkpt lat="41.5706723" lon="2.1175562"><ele>232.0</ele><time>2026-04-25T11:20:50.489Z</time></trkpt><trkpt lat="41.5705835" lon="2.1176292"><ele>231.99999999999997</ele><time>2026-04-25T11:20:51.489Z</time></trkpt><trkpt lat="41.5705001" lon="2.1176949"><ele>232.0</ele><time>2026-04-25T11:20:52.489Z</time></trkpt><trkpt lat="41.570423" lon="2.1177564"><ele>232.0</ele><time>2026-04-25T11:20:53.489Z</time></trkpt><trkpt lat="41.5703537" lon="2.1178168"><ele>232.0</ele><time>2026-04-25T11:20:54.489Z</time></trkpt><trkpt lat="41.570288" lon="2.1178677"><ele>231.99999999999997</ele><time>2026-04-25T11:20:55.489Z</time></trkpt><trkpt lat="41.5702269" lon="2.117919"><ele>232.0</ele><time>2026-04-25T11:20:56.489Z</time></trkpt><trkpt lat="41.5701648" lon="2.1179747"><ele>231.25</ele><time>2026-04-25T11:20:57.489Z</time></trkpt><trkpt lat="41.5700891" lon="2.1180385"><ele>230.5</ele><time>2026-04-25T11:20:58.489Z</time></trkpt><trkpt lat="41.5699964" lon="2.1181223"><ele>229.75</ele><time>2026-04-25T11:20:59.489Z</time></trkpt><trkpt lat="41.569883" lon="2.1182212"><ele>229.0</ele><time>2026-04-25T11:21:00.488Z</time></trkpt><trkpt lat="41.5697596" lon="2.1183289"><ele>229.0</ele><time>2026-04-25T11:21:01.489Z</time></trkpt><trkpt lat="41.5696262" lon="2.118443"><ele>229.0</ele><time>2026-04-25T11:21:02.489Z</time></trkpt><trkpt lat="41.5694877" lon="2.1185655"><ele>229.0</ele><time>2026-04-25T11:21:03.489Z</time></trkpt><trkpt lat="41.5693659" lon="2.1186755"><ele>230.0</ele><time>2026-04-25T11:21:04.489Z</time></trkpt><trkpt lat="41.5692636" lon="2.118766"><ele>231.0</ele><time>2026-04-25T11:21:05.489Z</time></trkpt><trkpt lat="41.5691628" lon="2.1188497"><ele>232.0</ele><time>2026-04-25T11:21:06.489Z</time></trkpt><trkpt lat="41.5690657" lon="2.1189321"><ele>233.0</ele><time>2026-04-25T11:21:07.489Z</time></trkpt><trkpt lat="41.5689655" lon="2.1190108"><ele>232.75</ele><time>2026-04-25T11:21:08.489Z</time></trkpt><trkpt lat="41.5688609" lon="2.1190879"><ele>232.5</ele><time>2026-04-25T11:21:09.489Z</time></trkpt><trkpt lat="41.5687556" lon="2.119178"><ele>232.25</ele><time>2026-04-25T11:21:10.489Z</time></trkpt><trkpt lat="41.5686511" lon="2.1192769"><ele>232.0</ele><time>2026-04-25T11:21:11.488Z</time></trkpt><trkpt lat="41.5685534" lon="2.11937"><ele>232.0</ele><time>2026-04-25T11:21:12.489Z</time></trkpt><trkpt lat="41.568465" lon="2.1194594"><ele>232.0</ele><time>2026-04-25T11:21:13.488Z</time></trkpt><trkpt lat="41.5683829" lon="2.1195404"><ele>232.0</ele><time>2026-04-25T11:21:14.488Z</time></trkpt><trkpt lat="41.5683076" lon="2.11962"><ele>232.0</ele><time>2026-04-25T11:21:15.489Z</time></trkpt><trkpt lat="41.5682299" lon="2.1196956"><ele>232.0</ele><time>2026-04-25T11:21:16.489Z</time></trkpt><trkpt lat="41.5681575" lon="2.1197696"><ele>231.99999999999997</ele><time>2026-04-25T11:21:17.489Z</time></trkpt><trkpt lat="41.5680818" lon="2.1198497"><ele>232.0</ele><time>2026-04-25T11:21:18.488Z</time></trkpt><trkpt lat="41.5680134" lon="2.1199237"><ele>232.0</ele><time>2026-04-25T11:21:19.489Z</time></trkpt><trkpt lat="41.5679489" lon="2.1199918"><ele>232.0</ele><time>2026-04-25T11:21:20.489Z</time></trkpt><trkpt lat="41.5678861" lon="2.1200546"><ele>231.99999999999997</ele><time>2026-04-25T11:21:21.489Z</time></trkpt><trkpt lat="41.5678284" lon="2.1201153"><ele>232.0</ele><time>2026-04-25T11:21:22.489Z</time></trkpt><trkpt lat="41.5677699" lon="2.1201695"><ele>231.83333333333331</ele><time>2026-04-25T11:21:23.489Z</time></trkpt><trkpt lat="41.5677113" lon="2.1202249"><ele>231.66666666666666</ele><time>2026-04-25T11:21:24.489Z</time></trkpt><trkpt lat="41.5676482" lon="2.1202797"><ele>231.5</ele><time>2026-04-25T11:21:25.489Z</time></trkpt><trkpt lat="41.5675684" lon="2.1203279"><ele>231.33333333333331</ele><time>2026-04-25T11:21:26.489Z</time></trkpt><trkpt lat="41.5674892" lon="2.120377"><ele>231.16666666666666</ele><time>2026-04-25T11:21:27.489Z</time></trkpt><trkpt lat="41.5674025" lon="2.1204282"><ele>231.0</ele><time>2026-04-25T11:21:28.489Z</time></trkpt><trkpt lat="41.5673198" lon="2.1204731"><ele>231.0</ele><time>2026-04-25T11:21:29.489Z</time></trkpt><trkpt lat="41.5672326" lon="2.1205036"><ele>231.00000000000003</ele><time>2026-04-25T11:21:30.489Z</time></trkpt><trkpt lat="41.5671419" lon="2.1205362"><ele>231.00000000000003</ele><time>2026-04-25T11:21:31.488Z</time></trkpt><trkpt lat="41.567047" lon="2.1205629"><ele>231.0</ele><time>2026-04-25T11:21:32.489Z</time></trkpt><trkpt lat="41.5669567" lon="2.1205981"><ele>231.0</ele><time>2026-04-25T11:21:33.489Z</time></trkpt><trkpt lat="41.5668702" lon="2.1206354"><ele>229.60000000000002</ele><time>2026-04-25T11:21:34.488Z</time></trkpt><trkpt lat="41.5667873" lon="2.1206841"><ele>228.20000000000002</ele><time>2026-04-25T11:21:35.489Z</time></trkpt><trkpt lat="41.5667052" lon="2.1207494"><ele>226.79999999999998</ele><time>2026-04-25T11:21:36.489Z</time></trkpt><trkpt lat="41.5666319" lon="2.1208199"><ele>225.39999999999998</ele><time>2026-04-25T11:21:37.489Z</time></trkpt><trkpt lat="41.5665567" lon="2.1208791"><ele>224.0</ele><time>2026-04-25T11:21:38.489Z</time></trkpt><trkpt lat="41.566479" lon="2.1209496"><ele>223.6</ele><time>2026-04-25T11:21:39.489Z</time></trkpt><trkpt lat="41.5663916" lon="2.1210221"><ele>223.2</ele><time>2026-04-25T11:21:40.488Z</time></trkpt><trkpt lat="41.5663098" lon="2.1210916"><ele>222.79999999999998</ele><time>2026-04-25T11:21:41.489Z</time></trkpt><trkpt lat="41.5662221" lon="2.1211595"><ele>222.39999999999998</ele><time>2026-04-25T11:21:42.489Z</time></trkpt><trkpt lat="41.5661333" lon="2.1212247"><ele>222.0</ele><time>2026-04-25T11:21:43.489Z</time></trkpt><trkpt lat="41.5660387" lon="2.1212904"><ele>222.83333333333334</ele><time>2026-04-25T11:21:44.489Z</time></trkpt><trkpt lat="41.5659518" lon="2.1213462"><ele>223.66666666666669</ele><time>2026-04-25T11:21:45.488Z</time></trkpt><trkpt lat="41.5658746" lon="2.1213896"><ele>224.5</ele><time>2026-04-25T11:21:46.489Z</time></trkpt><trkpt lat="41.565797" lon="2.1214269"><ele>225.33333333333334</ele><time>2026-04-25T11:21:47.489Z</time></trkpt><trkpt lat="41.565717" lon="2.1214633"><ele>226.16666666666669</ele><time>2026-04-25T11:21:48.489Z</time></trkpt><trkpt lat="41.5656487" lon="2.1214863"><ele>227.0</ele><time>2026-04-25T11:21:49.489Z</time></trkpt><trkpt lat="41.565576" lon="2.1215128"><ele>227.00000000000003</ele><time>2026-04-25T11:21:50.489Z</time></trkpt><trkpt lat="41.5655065" lon="2.1215403"><ele>227.0</ele><time>2026-04-25T11:21:51.488Z</time></trkpt><trkpt lat="41.5654295" lon="2.1215737"><ele>227.0</ele><time>2026-04-25T11:21:52.489Z</time></trkpt><trkpt lat="41.5653591" lon="2.121604"><ele>227.0</ele><time>2026-04-25T11:21:53.488Z</time></trkpt><trkpt lat="41.5652718" lon="2.1216422"><ele>227.00000000000003</ele><time>2026-04-25T11:21:55.488Z</time></trkpt><trkpt lat="41.5652" lon="2.1216645"><ele>227.0</ele><time>2026-04-25T11:21:57.489Z</time></trkpt><trkpt lat="41.5651346" lon="2.1216692"><ele>226.8</ele><time>2026-04-25T11:21:58.489Z</time></trkpt><trkpt lat="41.565055" lon="2.1216554"><ele>226.6</ele><time>2026-04-25T11:21:59.489Z</time></trkpt><trkpt lat="41.5649668" lon="2.1216394"><ele>226.40000000000003</ele><time>2026-04-25T11:22:00.489Z</time></trkpt><trkpt lat="41.5648591" lon="2.1216185"><ele>226.20000000000002</ele><time>2026-04-25T11:22:01.489Z</time></trkpt><trkpt lat="41.5647464" lon="2.1215933"><ele>226.0</ele><time>2026-04-25T11:22:02.489Z</time></trkpt><trkpt lat="41.5646188" lon="2.1215686"><ele>223.5</ele><time>2026-04-25T11:22:03.489Z</time></trkpt><trkpt lat="41.5644872" lon="2.1215446"><ele>221.0</ele><time>2026-04-25T11:22:04.489Z</time></trkpt><trkpt lat="41.5643475" lon="2.1215183"><ele>218.5</ele><time>2026-04-25T11:22:05.489Z</time></trkpt><trkpt lat="41.5642084" lon="2.1214883"><ele>216.0</ele><time>2026-04-25T11:22:06.489Z</time></trkpt><trkpt lat="41.5640683" lon="2.1214677"><ele>216.0</ele><time>2026-04-25T11:22:07.488Z</time></trkpt><trkpt lat="41.5639273" lon="2.1214366"><ele>216.0</ele><time>2026-04-25T11:22:08.489Z</time></trkpt><trkpt lat="41.5637925" lon="2.1214143"><ele>216.0</ele><time>2026-04-25T11:22:09.488Z</time></trkpt><trkpt lat="41.5636568" lon="2.121393"><ele>216.0</ele><time>2026-04-25T11:22:10.489Z</time></trkpt><trkpt lat="41.5635197" lon="2.1213692"><ele>216.0</ele><time>2026-04-25T11:22:11.489Z</time></trkpt><trkpt lat="41.5633782" lon="2.1213361"><ele>216.0</ele><time>2026-04-25T11:22:12.488Z</time></trkpt><trkpt lat="41.5632262" lon="2.1213081"><ele>216.0</ele><time>2026-04-25T11:22:13.489Z</time></trkpt><trkpt lat="41.5630751" lon="2.1212838"><ele>216.0</ele><time>2026-04-25T11:22:14.489Z</time></trkpt><trkpt lat="41.5629319" lon="2.1212546"><ele>215.75</ele><time>2026-04-25T11:22:15.488Z</time></trkpt><trkpt lat="41.5627882" lon="2.1212259"><ele>215.5</ele><time>2026-04-25T11:22:16.489Z</time></trkpt><trkpt lat="41.5626432" lon="2.1211967"><ele>215.25</ele><time>2026-04-25T11:22:17.489Z</time></trkpt><trkpt lat="41.5625078" lon="2.1211721"><ele>215.0</ele><time>2026-04-25T11:22:18.489Z</time></trkpt><trkpt lat="41.5623713" lon="2.1211504"><ele>215.0</ele><time>2026-04-25T11:22:19.489Z</time></trkpt><trkpt lat="41.5622354" lon="2.1211329"><ele>215.0</ele><time>2026-04-25T11:22:20.489Z</time></trkpt><trkpt lat="41.5621" lon="2.1211298"><ele>215.0</ele><time>2026-04-25T11:22:21.489Z</time></trkpt><trkpt lat="41.5619615" lon="2.1211539"><ele>215.0</ele><time>2026-04-25T11:22:22.489Z</time></trkpt><trkpt lat="41.5618239" lon="2.1211913"><ele>214.0</ele><time>2026-04-25T11:22:23.488Z</time></trkpt><trkpt lat="41.5616875" lon="2.121251"><ele>213.0</ele><time>2026-04-25T11:22:24.489Z</time></trkpt><trkpt lat="41.56156" lon="2.1213188"><ele>212.0</ele><time>2026-04-25T11:22:25.489Z</time></trkpt><trkpt lat="41.5614399" lon="2.1213921"><ele>211.0</ele><time>2026-04-25T11:22:26.489Z</time></trkpt><trkpt lat="41.5613322" lon="2.1214686"><ele>211.0</ele><time>2026-04-25T11:22:27.489Z</time></trkpt><trkpt lat="41.5612292" lon="2.121533"><ele>211.0</ele><time>2026-04-25T11:22:28.489Z</time></trkpt><trkpt lat="41.5611171" lon="2.1215587"><ele>211.0</ele><time>2026-04-25T11:22:29.489Z</time></trkpt><trkpt lat="41.5610094" lon="2.1215433"><ele>211.0</ele><time>2026-04-25T11:22:30.488Z</time></trkpt><trkpt lat="41.5609227" lon="2.1214634"><ele>211.0</ele><time>2026-04-25T11:22:31.488Z</time></trkpt><trkpt lat="41.5608659" lon="2.1213646"><ele>209.0</ele><time>2026-04-25T11:22:32.489Z</time></trkpt><trkpt lat="41.5608458" lon="2.1212323"><ele>207.0</ele><time>2026-04-25T11:22:33.489Z</time></trkpt><trkpt lat="41.5608544" lon="2.1210889"><ele>205.0</ele><time>2026-04-25T11:22:34.489Z</time></trkpt><trkpt lat="41.5609015" lon="2.1209393"><ele>203.0</ele><time>2026-04-25T11:22:35.489Z</time></trkpt><trkpt lat="41.5609688" lon="2.1207839"><ele>203.25</ele><time>2026-04-25T11:22:36.489Z</time></trkpt><trkpt lat="41.5610423" lon="2.120637"><ele>203.5</ele><time>2026-04-25T11:22:37.488Z</time></trkpt><trkpt lat="41.5611089" lon="2.1204839"><ele>203.75</ele><time>2026-04-25T11:22:38.489Z</time></trkpt><trkpt lat="41.561176" lon="2.1203213"><ele>204.0</ele><time>2026-04-25T11:22:39.489Z</time></trkpt><trkpt lat="41.5612374" lon="2.1201496"><ele>204.0</ele><time>2026-04-25T11:22:40.489Z</time></trkpt><trkpt lat="41.5612852" lon="2.1199722"><ele>204.0</ele><time>2026-04-25T11:22:41.489Z</time></trkpt><trkpt lat="41.5613169" lon="2.1197964"><ele>204.0</ele><time>2026-04-25T11:22:42.489Z</time></trkpt><trkpt lat="41.5613301" lon="2.1196185"><ele>204.0</ele><time>2026-04-25T11:22:43.489Z</time></trkpt><trkpt lat="41.5613263" lon="2.1194316"><ele>201.33333333333331</ele><time>2026-04-25T11:22:44.489Z</time></trkpt><trkpt lat="41.5612948" lon="2.1192309"><ele>198.66666666666666</ele><time>2026-04-25T11:22:45.489Z</time></trkpt><trkpt lat="41.5612386" lon="2.1190389"><ele>196.0</ele><time>2026-04-25T11:22:46.489Z</time></trkpt><trkpt lat="41.5611658" lon="2.1188648"><ele>192.75</ele><time>2026-04-25T11:22:47.489Z</time></trkpt><trkpt lat="41.561069" lon="2.1187104"><ele>189.5</ele><time>2026-04-25T11:22:48.489Z</time></trkpt><trkpt lat="41.5609575" lon="2.11858"><ele>186.25</ele><time>2026-04-25T11:22:49.489Z</time></trkpt><trkpt lat="41.5608357" lon="2.1184819"><ele>183.0</ele><time>2026-04-25T11:22:50.489Z</time></trkpt><trkpt lat="41.5607113" lon="2.1184119"><ele>183.0</ele><time>2026-04-25T11:22:51.489Z</time></trkpt><trkpt lat="41.560574" lon="2.1183689"><ele>183.0</ele><time>2026-04-25T11:22:52.488Z</time></trkpt><trkpt lat="41.5604274" lon="2.1183551"><ele>183.0</ele><time>2026-04-25T11:22:53.489Z</time></trkpt><trkpt lat="41.5602773" lon="2.118347"><ele>183.0</ele><time>2026-04-25T11:22:54.489Z</time></trkpt><trkpt lat="41.5601166" lon="2.1183546"><ele>180.0</ele><time>2026-04-25T11:22:55.489Z</time></trkpt><trkpt lat="41.5599602" lon="2.1183681"><ele>177.0</ele><time>2026-04-25T11:22:56.489Z</time></trkpt><trkpt lat="41.55981" lon="2.1183715"><ele>174.0</ele><time>2026-04-25T11:22:57.489Z</time></trkpt><trkpt lat="41.5596643" lon="2.1183572"><ele>174.0</ele><time>2026-04-25T11:22:58.489Z</time></trkpt><trkpt lat="41.5595256" lon="2.1183033"><ele>174.0</ele><time>2026-04-25T11:22:59.488Z</time></trkpt><trkpt lat="41.5593833" lon="2.1182051"><ele>174.0</ele><time>2026-04-25T11:23:00.489Z</time></trkpt><trkpt lat="41.5592419" lon="2.1180803"><ele>171.25</ele><time>2026-04-25T11:23:01.489Z</time></trkpt><trkpt lat="41.5591099" lon="2.1179675"><ele>168.5</ele><time>2026-04-25T11:23:02.489Z</time></trkpt><trkpt lat="41.5589834" lon="2.1178662"><ele>165.75</ele><time>2026-04-25T11:23:03.489Z</time></trkpt><trkpt lat="41.5588618" lon="2.1177879"><ele>163.0</ele><time>2026-04-25T11:23:04.489Z</time></trkpt><trkpt lat="41.5587271" lon="2.1177318"><ele>161.25</ele><time>2026-04-25T11:23:05.489Z</time></trkpt><trkpt lat="41.5585865" lon="2.1177059"><ele>159.5</ele><time>2026-04-25T11:23:06.489Z</time></trkpt><trkpt lat="41.5584482" lon="2.1177064"><ele>157.75</ele><time>2026-04-25T11:23:07.489Z</time></trkpt><trkpt lat="41.5583106" lon="2.1177394"><ele>156.0</ele><time>2026-04-25T11:23:08.489Z</time></trkpt><trkpt lat="41.5581721" lon="2.117787"><ele>156.0</ele><time>2026-04-25T11:23:09.489Z</time></trkpt><trkpt lat="41.5580262" lon="2.1178273"><ele>156.0</ele><time>2026-04-25T11:23:10.489Z</time></trkpt><trkpt lat="41.5578797" lon="2.1178401"><ele>156.0</ele><time>2026-04-25T11:23:11.489Z</time></trkpt><trkpt lat="41.5577281" lon="2.1178241"><ele>156.0</ele><time>2026-04-25T11:23:12.489Z</time></trkpt><trkpt lat="41.5575781" lon="2.117778"><ele>155.33333333333334</ele><time>2026-04-25T11:23:13.488Z</time></trkpt><trkpt lat="41.5574335" lon="2.1176965"><ele>154.66666666666669</ele><time>2026-04-25T11:23:14.489Z</time></trkpt><trkpt lat="41.5572991" lon="2.1175893"><ele>154.0</ele><time>2026-04-25T11:23:15.489Z</time></trkpt><trkpt lat="41.5571707" lon="2.1174786"><ele>152.5</ele><time>2026-04-25T11:23:16.489Z</time></trkpt><trkpt lat="41.5570494" lon="2.1173851"><ele>151.0</ele><time>2026-04-25T11:23:17.489Z</time></trkpt><trkpt lat="41.5569347" lon="2.1172993"><ele>149.5</ele><time>2026-04-25T11:23:18.488Z</time></trkpt><trkpt lat="41.5568237" lon="2.1172144"><ele>148.0</ele><time>2026-04-25T11:23:19.489Z</time></trkpt><trkpt lat="41.5567108" lon="2.1171298"><ele>147.0</ele><time>2026-04-25T11:23:20.489Z</time></trkpt><trkpt lat="41.5565987" lon="2.1170413"><ele>146.0</ele><time>2026-04-25T11:23:21.488Z</time></trkpt><trkpt lat="41.5564921" lon="2.1169518"><ele>145.0</ele><time>2026-04-25T11:23:22.489Z</time></trkpt><trkpt lat="41.5563846" lon="2.1168631"><ele>144.0</ele><time>2026-04-25T11:23:23.489Z</time></trkpt><trkpt lat="41.556274" lon="2.1167718"><ele>146.0</ele><time>2026-04-25T11:23:24.489Z</time></trkpt><trkpt lat="41.556165" lon="2.1166771"><ele>148.0</ele><time>2026-04-25T11:23:25.489Z</time></trkpt><trkpt lat="41.5560614" lon="2.1165946"><ele>150.0</ele><time>2026-04-25T11:23:26.489Z</time></trkpt><trkpt lat="41.5559603" lon="2.1165186"><ele>152.0</ele><time>2026-04-25T11:23:27.489Z</time></trkpt><trkpt lat="41.5558665" lon="2.1164427"><ele>153.2</ele><time>2026-04-25T11:23:28.488Z</time></trkpt><trkpt lat="41.5557721" lon="2.116372"><ele>154.39999999999998</ele><time>2026-04-25T11:23:29.489Z</time></trkpt><trkpt lat="41.5556797" lon="2.1162968"><ele>155.60000000000002</ele><time>2026-04-25T11:23:30.489Z</time></trkpt><trkpt lat="41.5555895" lon="2.1162226"><ele>156.8</ele><time>2026-04-25T11:23:31.489Z</time></trkpt><trkpt lat="41.5555009" lon="2.1161482"><ele>158.0</ele><time>2026-04-25T11:23:32.489Z</time></trkpt><trkpt lat="41.5554214" lon="2.1160831"><ele>159.4</ele><time>2026-04-25T11:23:33.489Z</time></trkpt><trkpt lat="41.5553388" lon="2.1160232"><ele>160.8</ele><time>2026-04-25T11:23:34.489Z</time></trkpt><trkpt lat="41.5552579" lon="2.1159535"><ele>162.2</ele><time>2026-04-25T11:23:35.489Z</time></trkpt><trkpt lat="41.555174" lon="2.1158861"><ele>163.6</ele><time>2026-04-25T11:23:36.489Z</time></trkpt><trkpt lat="41.5550864" lon="2.1158172"><ele>165.0</ele><time>2026-04-25T11:23:37.489Z</time></trkpt><trkpt lat="41.5550069" lon="2.1157577"><ele>167.2</ele><time>2026-04-25T11:23:38.489Z</time></trkpt><trkpt lat="41.5549406" lon="2.1157089"><ele>169.4</ele><time>2026-04-25T11:23:39.489Z</time></trkpt><trkpt lat="41.5548473" lon="2.1156342"><ele>171.60000000000002</ele><time>2026-04-25T11:23:41.489Z</time></trkpt><trkpt lat="41.5547632" lon="2.1155697"><ele>173.8</ele><time>2026-04-25T11:23:44.489Z</time></trkpt><trkpt lat="41.5546598" lon="2.1155062"><ele>176.0</ele><time>2026-04-25T11:23:46.489Z</time></trkpt><trkpt lat="41.5545843" lon="2.1154578"><ele>176.33333333333331</ele><time>2026-04-25T11:23:47.489Z</time></trkpt><trkpt lat="41.5545066" lon="2.1153924"><ele>176.66666666666666</ele><time>2026-04-25T11:23:48.489Z</time></trkpt><trkpt lat="41.5544369" lon="2.1153397"><ele>177.0</ele><time>2026-04-25T11:23:49.489Z</time></trkpt><trkpt lat="41.5543338" lon="2.1152727"><ele>177.33333333333334</ele><time>2026-04-25T11:23:51.489Z</time></trkpt><trkpt lat="41.5542603" lon="2.1152531"><ele>177.66666666666669</ele><time>2026-04-25T11:23:52.488Z</time></trkpt><trkpt lat="41.5541771" lon="2.1152438"><ele>178.0</ele><time>2026-04-25T11:23:53.489Z</time></trkpt><trkpt lat="41.5540892" lon="2.1152745"><ele>178.0</ele><time>2026-04-25T11:23:54.488Z</time></trkpt><trkpt lat="41.5539896" lon="2.1153507"><ele>178.0</ele><time>2026-04-25T11:23:55.488Z</time></trkpt><trkpt lat="41.5538843" lon="2.1154695"><ele>178.0</ele><time>2026-04-25T11:23:56.489Z</time></trkpt><trkpt lat="41.55378" lon="2.115594"><ele>178.0</ele><time>2026-04-25T11:23:57.489Z</time></trkpt><trkpt lat="41.5536859" lon="2.115717"><ele>176.8</ele><time>2026-04-25T11:23:58.488Z</time></trkpt><trkpt lat="41.5536046" lon="2.1158094"><ele>175.60000000000002</ele><time>2026-04-25T11:23:59.489Z</time></trkpt><trkpt lat="41.5535313" lon="2.1158713"><ele>174.39999999999998</ele><time>2026-04-25T11:24:00.489Z</time></trkpt><trkpt lat="41.5534451" lon="2.1159007"><ele>173.2</ele><time>2026-04-25T11:24:01.489Z</time></trkpt><trkpt lat="41.5533589" lon="2.1158636"><ele>172.0</ele><time>2026-04-25T11:24:02.488Z</time></trkpt><trkpt lat="41.5532878" lon="2.1157753"><ele>175.6</ele><time>2026-04-25T11:24:03.489Z</time></trkpt><trkpt lat="41.5532623" lon="2.1156546"><ele>179.2</ele><time>2026-04-25T11:24:04.489Z</time></trkpt><trkpt lat="41.5532685" lon="2.1155313"><ele>182.8</ele><time>2026-04-25T11:24:05.489Z</time></trkpt><trkpt lat="41.5533159" lon="2.1154125"><ele>186.4</ele><time>2026-04-25T11:24:06.489Z</time></trkpt><trkpt lat="41.5534176" lon="2.1152965"><ele>190.0</ele><time>2026-04-25T11:24:07.489Z</time></trkpt><trkpt lat="41.5535001" lon="2.1151967"><ele>190.0</ele><time>2026-04-25T11:24:08.489Z</time></trkpt><trkpt lat="41.5535815" lon="2.1150979"><ele>190.0</ele><time>2026-04-25T11:24:09.489Z</time></trkpt><trkpt lat="41.553653" lon="2.1150106"><ele>190.0</ele><time>2026-04-25T11:24:10.488Z</time></trkpt><trkpt lat="41.5537174" lon="2.1149309"><ele>190.0</ele><time>2026-04-25T11:24:11.489Z</time></trkpt><trkpt lat="41.5537741" lon="2.1148624"><ele>190.0</ele><time>2026-04-25T11:24:12.489Z</time></trkpt><trkpt lat="41.5538264" lon="2.1147959"><ele>190.0</ele><time>2026-04-25T11:24:13.489Z</time></trkpt><trkpt lat="41.5538803" lon="2.1147231"><ele>190.2</ele><time>2026-04-25T11:24:14.489Z</time></trkpt><trkpt lat="41.5539334" lon="2.1146494"><ele>190.4</ele><time>2026-04-25T11:24:15.489Z</time></trkpt><trkpt lat="41.5540093" lon="2.1145385"><ele>190.60000000000002</ele><time>2026-04-25T11:24:17.489Z</time></trkpt><trkpt lat="41.5540822" lon="2.1144235"><ele>190.8</ele><time>2026-04-25T11:24:19.489Z</time></trkpt><trkpt lat="41.5541445" lon="2.114315"><ele>191.0</ele><time>2026-04-25T11:24:21.489Z</time></trkpt><trkpt lat="41.5541867" lon="2.1142249"><ele>191.0</ele><time>2026-04-25T11:24:23.489Z</time></trkpt><trkpt lat="41.5542113" lon="2.1140897"><ele>191.0</ele><time>2026-04-25T11:24:25.488Z</time></trkpt><trkpt lat="41.5541955" lon="2.1139596"><ele>191.0</ele><time>2026-04-25T11:24:27.489Z</time></trkpt><trkpt lat="41.5541557" lon="2.1138324"><ele>191.0</ele><time>2026-04-25T11:24:29.488Z</time></trkpt><trkpt lat="41.5541228" lon="2.113683"><ele>191.0</ele><time>2026-04-25T11:24:31.489Z</time></trkpt><trkpt lat="41.554108" lon="2.113596"><ele>192.16666666666666</ele><time>2026-04-25T11:24:32.488Z</time></trkpt><trkpt lat="41.5540887" lon="2.1135071"><ele>193.33333333333331</ele><time>2026-04-25T11:24:33.489Z</time></trkpt><trkpt lat="41.5540634" lon="2.1134187"><ele>194.5</ele><time>2026-04-25T11:24:34.489Z</time></trkpt><trkpt lat="41.5540417" lon="2.113329"><ele>195.66666666666666</ele><time>2026-04-25T11:24:35.489Z</time></trkpt><trkpt lat="41.5540183" lon="2.1132466"><ele>196.83333333333334</ele><time>2026-04-25T11:24:36.489Z</time></trkpt><trkpt lat="41.5539774" lon="2.1130961"><ele>198.0</ele><time>2026-04-25T11:24:38.489Z</time></trkpt><trkpt lat="41.5539516" lon="2.1130044"><ele>198.5</ele><time>2026-04-25T11:24:40.489Z</time></trkpt><trkpt lat="41.5539035" lon="2.1128661"><ele>199.0</ele><time>2026-04-25T11:24:43.489Z</time></trkpt><trkpt lat="41.5538756" lon="2.1127872"><ele>199.5</ele><time>2026-04-25T11:24:44.489Z</time></trkpt><trkpt lat="41.5538625" lon="2.1126908"><ele>200.0</ele><time>2026-04-25T11:24:46.489Z</time></trkpt><trkpt lat="41.5538458" lon="2.1126035"><ele>200.5</ele><time>2026-04-25T11:25:02.489Z</time></trkpt><trkpt lat="41.5538344" lon="2.1124357"><ele>201.0</ele><time>2026-04-25T11:25:04.489Z</time></trkpt><trkpt lat="41.553826" lon="2.1123455"><ele>201.0</ele><time>2026-04-25T11:25:05.488Z</time></trkpt><trkpt lat="41.5537687" lon="2.1121929"><ele>201.0</ele><time>2026-04-25T11:25:07.489Z</time></trkpt><trkpt lat="41.5537205" lon="2.1120913"><ele>201.0</ele><time>2026-04-25T11:25:08.489Z</time></trkpt><trkpt lat="41.5536821" lon="2.1119627"><ele>201.0</ele><time>2026-04-25T11:25:09.493Z</time></trkpt><trkpt lat="41.5536505" lon="2.1118494"><ele>201.0</ele><time>2026-04-25T11:25:10.493Z</time></trkpt><trkpt lat="41.5536316" lon="2.1117558"><ele>201.0</ele><time>2026-04-25T11:25:11.493Z</time></trkpt><trkpt lat="41.5536022" lon="2.1116133"><ele>201.0</ele><time>2026-04-25T11:25:13.493Z</time></trkpt><trkpt lat="41.553569" lon="2.1114962"><ele>201.0</ele><time>2026-04-25T11:25:15.493Z</time></trkpt><trkpt lat="41.5535296" lon="2.1113722"><ele>201.0</ele><time>2026-04-25T11:25:17.493Z</time></trkpt><trkpt lat="41.5534841" lon="2.1112166"><ele>201.0</ele><time>2026-04-25T11:25:19.493Z</time></trkpt><trkpt lat="41.553462" lon="2.1111261"><ele>201.16666666666666</ele><time>2026-04-25T11:25:20.493Z</time></trkpt><trkpt lat="41.5534392" lon="2.1110288"><ele>201.33333333333331</ele><time>2026-04-25T11:25:21.493Z</time></trkpt><trkpt lat="41.5534157" lon="2.1109288"><ele>201.5</ele><time>2026-04-25T11:25:22.493Z</time></trkpt><trkpt lat="41.5533914" lon="2.1108266"><ele>201.66666666666666</ele><time>2026-04-25T11:25:23.492Z</time></trkpt><trkpt lat="41.5533607" lon="2.1107201"><ele>201.83333333333331</ele><time>2026-04-25T11:25:24.493Z</time></trkpt><trkpt lat="41.5533248" lon="2.1106112"><ele>202.0</ele><time>2026-04-25T11:25:25.493Z</time></trkpt><trkpt lat="41.5532835" lon="2.1105055"><ele>201.99999999999997</ele><time>2026-04-25T11:25:26.493Z</time></trkpt><trkpt lat="41.5532493" lon="2.1104089"><ele>202.0</ele><time>2026-04-25T11:25:27.493Z</time></trkpt><trkpt lat="41.5532168" lon="2.1103149"><ele>202.0</ele><time>2026-04-25T11:25:28.493Z</time></trkpt><trkpt lat="41.5531873" lon="2.1102156"><ele>202.0</ele><time>2026-04-25T11:25:29.493Z</time></trkpt><trkpt lat="41.5531562" lon="2.1101139"><ele>201.99999999999997</ele><time>2026-04-25T11:25:30.493Z</time></trkpt><trkpt lat="41.5531268" lon="2.110014"><ele>202.0</ele><time>2026-04-25T11:25:31.493Z</time></trkpt><trkpt lat="41.5530996" lon="2.1099057"><ele>202.2</ele><time>2026-04-25T11:25:32.493Z</time></trkpt><trkpt lat="41.5530727" lon="2.1097985"><ele>202.39999999999998</ele><time>2026-04-25T11:25:33.493Z</time></trkpt><trkpt lat="41.5530484" lon="2.1096819"><ele>202.60000000000002</ele><time>2026-04-25T11:25:34.493Z</time></trkpt><trkpt lat="41.553017" lon="2.1095539"><ele>202.8</ele><time>2026-04-25T11:25:35.493Z</time></trkpt><trkpt lat="41.5529833" lon="2.1094307"><ele>203.0</ele><time>2026-04-25T11:25:36.492Z</time></trkpt><trkpt lat="41.55295" lon="2.1093045"><ele>203.0</ele><time>2026-04-25T11:25:37.493Z</time></trkpt><trkpt lat="41.5529163" lon="2.1091917"><ele>203.0</ele><time>2026-04-25T11:25:38.493Z</time></trkpt><trkpt lat="41.552888" lon="2.1090737"><ele>203.0</ele><time>2026-04-25T11:25:39.492Z</time></trkpt><trkpt lat="41.5528544" lon="2.108952"><ele>203.0</ele><time>2026-04-25T11:25:40.493Z</time></trkpt><trkpt lat="41.5528167" lon="2.1088239"><ele>203.0</ele><time>2026-04-25T11:25:41.493Z</time></trkpt><trkpt lat="41.5527837" lon="2.1086922"><ele>202.4</ele><time>2026-04-25T11:25:42.493Z</time></trkpt><trkpt lat="41.5527488" lon="2.108566"><ele>201.8</ele><time>2026-04-25T11:25:43.492Z</time></trkpt><trkpt lat="41.5527098" lon="2.1084406"><ele>201.2</ele><time>2026-04-25T11:25:44.493Z</time></trkpt><trkpt lat="41.5526782" lon="2.1083331"><ele>200.6</ele><time>2026-04-25T11:25:45.493Z</time></trkpt><trkpt lat="41.5526458" lon="2.1082311"><ele>200.0</ele><time>2026-04-25T11:25:46.493Z</time></trkpt><trkpt lat="41.5526163" lon="2.1081286"><ele>199.8</ele><time>2026-04-25T11:25:47.493Z</time></trkpt><trkpt lat="41.5525855" lon="2.1080124"><ele>199.6</ele><time>2026-04-25T11:25:48.493Z</time></trkpt><trkpt lat="41.5525495" lon="2.1078924"><ele>199.39999999999998</ele><time>2026-04-25T11:25:49.493Z</time></trkpt><trkpt lat="41.5525153" lon="2.1077769"><ele>199.2</ele><time>2026-04-25T11:25:50.493Z</time></trkpt><trkpt lat="41.5524838" lon="2.1076689"><ele>199.0</ele><time>2026-04-25T11:25:51.493Z</time></trkpt><trkpt lat="41.5524525" lon="2.107562"><ele>199.0</ele><time>2026-04-25T11:25:52.493Z</time></trkpt><trkpt lat="41.5524209" lon="2.1074395"><ele>199.0</ele><time>2026-04-25T11:25:53.493Z</time></trkpt><trkpt lat="41.552391" lon="2.1073164"><ele>199.0</ele><time>2026-04-25T11:25:54.493Z</time></trkpt><trkpt lat="41.5523678" lon="2.1072002"><ele>199.0</ele><time>2026-04-25T11:25:55.493Z</time></trkpt><trkpt lat="41.5523422" lon="2.1070916"><ele>199.0</ele><time>2026-04-25T11:25:56.493Z</time></trkpt><trkpt lat="41.5523129" lon="2.10699"><ele>198.99999999999997</ele><time>2026-04-25T11:25:57.493Z</time></trkpt><trkpt lat="41.5522876" lon="2.1068981"><ele>199.0</ele><time>2026-04-25T11:25:58.493Z</time></trkpt><trkpt lat="41.5522662" lon="2.1068115"><ele>199.0</ele><time>2026-04-25T11:26:00.493Z</time></trkpt><trkpt lat="41.5522255" lon="2.106739"><ele>199.0</ele><time>2026-04-25T11:26:14.493Z</time></trkpt><trkpt lat="41.5521823" lon="2.106594"><ele>198.99999999999997</ele><time>2026-04-25T11:26:16.493Z</time></trkpt><trkpt lat="41.552153" lon="2.106481"><ele>199.0</ele><time>2026-04-25T11:26:18.493Z</time></trkpt><trkpt lat="41.5521355" lon="2.1063934"><ele>199.16666666666666</ele><time>2026-04-25T11:26:41.492Z</time></trkpt><trkpt lat="41.5521017" lon="2.1063126"><ele>199.33333333333331</ele><time>2026-04-25T11:26:42.493Z</time></trkpt><trkpt lat="41.5520693" lon="2.1062227"><ele>199.5</ele><time>2026-04-25T11:26:43.493Z</time></trkpt><trkpt lat="41.5520396" lon="2.1061287"><ele>199.66666666666669</ele><time>2026-04-25T11:26:44.493Z</time></trkpt><trkpt lat="41.5520071" lon="2.1060172"><ele>199.83333333333334</ele><time>2026-04-25T11:26:45.493Z</time></trkpt><trkpt lat="41.5519797" lon="2.1059056"><ele>200.0</ele><time>2026-04-25T11:26:46.493Z</time></trkpt><trkpt lat="41.5519435" lon="2.105777"><ele>199.8</ele><time>2026-04-25T11:26:47.493Z</time></trkpt><trkpt lat="41.5519019" lon="2.1056399"><ele>199.6</ele><time>2026-04-25T11:26:48.493Z</time></trkpt><trkpt lat="41.5518631" lon="2.1055167"><ele>199.39999999999998</ele><time>2026-04-25T11:26:49.493Z</time></trkpt><trkpt lat="41.5518264" lon="2.1054009"><ele>199.2</ele><time>2026-04-25T11:26:50.493Z</time></trkpt><trkpt lat="41.5517946" lon="2.1052944"><ele>199.0</ele><time>2026-04-25T11:26:51.492Z</time></trkpt><trkpt lat="41.5517689" lon="2.1051865"><ele>199.0</ele><time>2026-04-25T11:26:52.493Z</time></trkpt><trkpt lat="41.5517406" lon="2.1050707"><ele>199.0</ele><time>2026-04-25T11:26:53.492Z</time></trkpt><trkpt lat="41.5517115" lon="2.1049609"><ele>199.0</ele><time>2026-04-25T11:26:54.493Z</time></trkpt><trkpt lat="41.5516772" lon="2.1048439"><ele>199.0</ele><time>2026-04-25T11:26:55.493Z</time></trkpt><trkpt lat="41.5516443" lon="2.1047289"><ele>199.0</ele><time>2026-04-25T11:26:56.493Z</time></trkpt><trkpt lat="41.5516112" lon="2.1046133"><ele>198.83333333333331</ele><time>2026-04-25T11:26:57.493Z</time></trkpt><trkpt lat="41.5515835" lon="2.1044881"><ele>198.66666666666666</ele><time>2026-04-25T11:26:58.493Z</time></trkpt><trkpt lat="41.5515585" lon="2.1043728"><ele>198.5</ele><time>2026-04-25T11:26:59.492Z</time></trkpt><trkpt lat="41.5515329" lon="2.10427"><ele>198.33333333333331</ele><time>2026-04-25T11:27:00.493Z</time></trkpt><trkpt lat="41.5515143" lon="2.1041784"><ele>198.16666666666666</ele><time>2026-04-25T11:27:01.493Z</time></trkpt><trkpt lat="41.5514899" lon="2.1040868"><ele>198.0</ele><time>2026-04-25T11:27:02.492Z</time></trkpt><trkpt lat="41.551464" lon="2.1039983"><ele>198.0</ele><time>2026-04-25T11:27:03.493Z</time></trkpt><trkpt lat="41.5514363" lon="2.103888"><ele>198.0</ele><time>2026-04-25T11:27:04.493Z</time></trkpt><trkpt lat="41.5514106" lon="2.1037625"><ele>198.0</ele><time>2026-04-25T11:27:05.493Z</time></trkpt><trkpt lat="41.5513796" lon="2.1036461"><ele>198.0</ele><time>2026-04-25T11:27:06.492Z</time></trkpt><trkpt lat="41.5513581" lon="2.1035422"><ele>198.0</ele><time>2026-04-25T11:27:07.493Z</time></trkpt><trkpt lat="41.5513416" lon="2.1034503"><ele>198.0</ele><time>2026-04-25T11:27:08.493Z</time></trkpt><trkpt lat="41.5513185" lon="2.1033558"><ele>198.0</ele><time>2026-04-25T11:27:09.493Z</time></trkpt><trkpt lat="41.551297" lon="2.1032618"><ele>198.0</ele><time>2026-04-25T11:27:10.493Z</time></trkpt><trkpt lat="41.5512722" lon="2.1031678"><ele>198.0</ele><time>2026-04-25T11:27:11.493Z</time></trkpt><trkpt lat="41.5512508" lon="2.1030562"><ele>198.0</ele><time>2026-04-25T11:27:12.493Z</time></trkpt><trkpt lat="41.5512293" lon="2.1029279"><ele>198.0</ele><time>2026-04-25T11:27:13.493Z</time></trkpt><trkpt lat="41.5511979" lon="2.1027732"><ele>198.0</ele><time>2026-04-25T11:27:14.493Z</time></trkpt><trkpt lat="41.5511638" lon="2.1026038"><ele>198.0</ele><time>2026-04-25T11:27:15.493Z</time></trkpt><trkpt lat="41.5511226" lon="2.1024468"><ele>198.0</ele><time>2026-04-25T11:27:16.493Z</time></trkpt><trkpt lat="41.551084" lon="2.1022977"><ele>198.0</ele><time>2026-04-25T11:27:17.493Z</time></trkpt><trkpt lat="41.5510459" lon="2.1021655"><ele>198.0</ele><time>2026-04-25T11:27:18.493Z</time></trkpt><trkpt lat="41.5510175" lon="2.1020402"><ele>198.0</ele><time>2026-04-25T11:27:19.493Z</time></trkpt><trkpt lat="41.5509949" lon="2.1019491"><ele>198.0</ele><time>2026-04-25T11:27:20.493Z</time></trkpt><trkpt lat="41.5509635" lon="2.1018297"><ele>198.0</ele><time>2026-04-25T11:27:22.493Z</time></trkpt><trkpt lat="41.5509329" lon="2.1016902"><ele>198.0</ele><time>2026-04-25T11:27:24.492Z</time></trkpt><trkpt lat="41.5509057" lon="2.1015981"><ele>198.0</ele><time>2026-04-25T11:27:25.493Z</time></trkpt><trkpt lat="41.5508774" lon="2.1014988"><ele>198.33333333333334</ele><time>2026-04-25T11:27:26.493Z</time></trkpt><trkpt lat="41.5508448" lon="2.1013983"><ele>198.66666666666669</ele><time>2026-04-25T11:27:27.493Z</time></trkpt><trkpt lat="41.5508215" lon="2.1013017"><ele>199.0</ele><time>2026-04-25T11:27:28.493Z</time></trkpt><trkpt lat="41.5507965" lon="2.1012049"><ele>199.33333333333334</ele><time>2026-04-25T11:27:29.493Z</time></trkpt><trkpt lat="41.5507747" lon="2.1011008"><ele>199.66666666666669</ele><time>2026-04-25T11:27:30.493Z</time></trkpt><trkpt lat="41.5507468" lon="2.1009826"><ele>200.0</ele><time>2026-04-25T11:27:31.492Z</time></trkpt><trkpt lat="41.5507175" lon="2.1008499"><ele>200.2</ele><time>2026-04-25T11:27:32.493Z</time></trkpt><trkpt lat="41.5506872" lon="2.1007224"><ele>200.4</ele><time>2026-04-25T11:27:33.492Z</time></trkpt><trkpt lat="41.5506572" lon="2.1005859"><ele>200.60000000000002</ele><time>2026-04-25T11:27:34.493Z</time></trkpt><trkpt lat="41.5506226" lon="2.1004399"><ele>200.8</ele><time>2026-04-25T11:27:35.493Z</time></trkpt><trkpt lat="41.550587" lon="2.1002763"><ele>201.0</ele><time>2026-04-25T11:27:36.493Z</time></trkpt><trkpt lat="41.5505508" lon="2.1001127"><ele>201.0</ele><time>2026-04-25T11:27:37.493Z</time></trkpt><trkpt lat="41.5505146" lon="2.0999573"><ele>201.0</ele><time>2026-04-25T11:27:38.493Z</time></trkpt><trkpt lat="41.5504817" lon="2.0998152"><ele>201.0</ele><time>2026-04-25T11:27:39.492Z</time></trkpt><trkpt lat="41.5504499" lon="2.0996796"><ele>201.0</ele><time>2026-04-25T11:27:40.493Z</time></trkpt><trkpt lat="41.5504205" lon="2.0995496"><ele>201.0</ele><time>2026-04-25T11:27:41.493Z</time></trkpt><trkpt lat="41.5503953" lon="2.0994253"><ele>200.16666666666666</ele><time>2026-04-25T11:27:42.493Z</time></trkpt><trkpt lat="41.5503645" lon="2.0992996"><ele>199.33333333333331</ele><time>2026-04-25T11:27:43.493Z</time></trkpt><trkpt lat="41.5503237" lon="2.0991922"><ele>198.5</ele><time>2026-04-25T11:27:44.493Z</time></trkpt><trkpt lat="41.5502929" lon="2.0991007"><ele>197.66666666666666</ele><time>2026-04-25T11:27:45.492Z</time></trkpt><trkpt lat="41.5502938" lon="2.0989508"><ele>196.83333333333331</ele><time>2026-04-25T11:28:39.493Z</time></trkpt><trkpt lat="41.5502909" lon="2.0988561"><ele>196.0</ele><time>2026-04-25T11:28:40.493Z</time></trkpt><trkpt lat="41.5503008" lon="2.0987462"><ele>196.0</ele><time>2026-04-25T11:28:41.493Z</time></trkpt><trkpt lat="41.5503204" lon="2.0986247"><ele>196.0</ele><time>2026-04-25T11:28:42.493Z</time></trkpt><trkpt lat="41.5503573" lon="2.0984816"><ele>196.0</ele><time>2026-04-25T11:28:43.492Z</time></trkpt><trkpt lat="41.5503735" lon="2.0983293"><ele>196.0</ele><time>2026-04-25T11:28:44.493Z</time></trkpt><trkpt lat="41.5503616" lon="2.0981732"><ele>196.0</ele><time>2026-04-25T11:28:45.493Z</time></trkpt><trkpt lat="41.5503319" lon="2.0980334"><ele>196.0</ele><time>2026-04-25T11:28:46.493Z</time></trkpt><trkpt lat="41.55029" lon="2.097887"><ele>196.0</ele><time>2026-04-25T11:28:47.493Z</time></trkpt><trkpt lat="41.5502609" lon="2.0977413"><ele>196.0</ele><time>2026-04-25T11:28:48.492Z</time></trkpt><trkpt lat="41.5502511" lon="2.0975943"><ele>196.0</ele><time>2026-04-25T11:28:49.492Z</time></trkpt><trkpt lat="41.5502591" lon="2.0974347"><ele>196.25</ele><time>2026-04-25T11:28:50.493Z</time></trkpt><trkpt lat="41.5502805" lon="2.0972622"><ele>196.5</ele><time>2026-04-25T11:28:51.493Z</time></trkpt><trkpt lat="41.5503167" lon="2.0970685"><ele>196.75</ele><time>2026-04-25T11:28:52.493Z</time></trkpt><trkpt lat="41.5503598" lon="2.0968789"><ele>197.0</ele><time>2026-04-25T11:28:53.493Z</time></trkpt><trkpt lat="41.5504024" lon="2.0966818"><ele>196.75</ele><time>2026-04-25T11:28:54.492Z</time></trkpt><trkpt lat="41.5504418" lon="2.0965019"><ele>196.5</ele><time>2026-04-25T11:28:55.493Z</time></trkpt><trkpt lat="41.5504793" lon="2.0963371"><ele>196.25</ele><time>2026-04-25T11:28:56.492Z</time></trkpt><trkpt lat="41.5505036" lon="2.0961814"><ele>196.0</ele><time>2026-04-25T11:28:57.492Z</time></trkpt><trkpt lat="41.5505308" lon="2.0960403"><ele>196.0</ele><time>2026-04-25T11:28:58.493Z</time></trkpt><trkpt lat="41.5505567" lon="2.0959117"><ele>196.0</ele><time>2026-04-25T11:28:59.493Z</time></trkpt><trkpt lat="41.5505802" lon="2.0957806"><ele>196.0</ele><time>2026-04-25T11:29:00.493Z</time></trkpt><trkpt lat="41.5506032" lon="2.0956579"><ele>196.0</ele><time>2026-04-25T11:29:01.493Z</time></trkpt><trkpt lat="41.5506211" lon="2.0955528"><ele>196.0</ele><time>2026-04-25T11:29:02.493Z</time></trkpt><trkpt lat="41.5506458" lon="2.0954423"><ele>196.66666666666666</ele><time>2026-04-25T11:29:03.493Z</time></trkpt><trkpt lat="41.550669" lon="2.0953267"><ele>197.33333333333331</ele><time>2026-04-25T11:29:04.493Z</time></trkpt><trkpt lat="41.5506787" lon="2.095231"><ele>198.0</ele><time>2026-04-25T11:29:05.493Z</time></trkpt><trkpt lat="41.550668" lon="2.0950851"><ele>198.66666666666669</ele><time>2026-04-25T11:29:07.493Z</time></trkpt><trkpt lat="41.5505862" lon="2.0950233"><ele>199.33333333333334</ele><time>2026-04-25T11:29:09.493Z</time></trkpt><trkpt lat="41.5505201" lon="2.0950358"><ele>200.0</ele><time>2026-04-25T11:29:10.493Z</time></trkpt><trkpt lat="41.550438" lon="2.0950699"><ele>200.00000000000003</ele><time>2026-04-25T11:29:11.493Z</time></trkpt><trkpt lat="41.5503481" lon="2.0950926"><ele>200.0</ele><time>2026-04-25T11:29:12.493Z</time></trkpt><trkpt lat="41.5502566" lon="2.0950946"><ele>200.0</ele><time>2026-04-25T11:29:13.493Z</time></trkpt><trkpt lat="41.55017" lon="2.0950883"><ele>200.0</ele><time>2026-04-25T11:29:14.493Z</time></trkpt><trkpt lat="41.5500812" lon="2.0950746"><ele>200.00000000000003</ele><time>2026-04-25T11:29:15.492Z</time></trkpt><trkpt lat="41.5499957" lon="2.0950529"><ele>200.0</ele><time>2026-04-25T11:29:16.493Z</time></trkpt><trkpt lat="41.5499179" lon="2.0950357"><ele>200.00000000000003</ele><time>2026-04-25T11:29:17.493Z</time></trkpt><trkpt lat="41.5498398" lon="2.0950219"><ele>200.0</ele><time>2026-04-25T11:29:18.493Z</time></trkpt><trkpt lat="41.5497552" lon="2.0950114"><ele>200.0</ele><time>2026-04-25T11:29:19.493Z</time></trkpt><trkpt lat="41.5496688" lon="2.0949979"><ele>200.0</ele><time>2026-04-25T11:29:20.493Z</time></trkpt><trkpt lat="41.5495815" lon="2.0949824"><ele>200.00000000000003</ele><time>2026-04-25T11:29:21.493Z</time></trkpt><trkpt lat="41.5494965" lon="2.0949699"><ele>200.0</ele><time>2026-04-25T11:29:22.493Z</time></trkpt><trkpt lat="41.5494213" lon="2.0949548"><ele>199.8</ele><time>2026-04-25T11:29:23.493Z</time></trkpt><trkpt lat="41.5493543" lon="2.0949395"><ele>199.6</ele><time>2026-04-25T11:29:24.493Z</time></trkpt><trkpt lat="41.5492909" lon="2.0949238"><ele>199.39999999999998</ele><time>2026-04-25T11:29:25.493Z</time></trkpt><trkpt lat="41.5491726" lon="2.0949059"><ele>199.2</ele><time>2026-04-25T11:29:27.493Z</time></trkpt><trkpt lat="41.5490585" lon="2.0948911"><ele>199.0</ele><time>2026-04-25T11:29:29.493Z</time></trkpt><trkpt lat="41.5489675" lon="2.0948799"><ele>198.83333333333331</ele><time>2026-04-25T11:29:31.493Z</time></trkpt><trkpt lat="41.5488805" lon="2.0948776"><ele>198.66666666666666</ele><time>2026-04-25T11:29:33.493Z</time></trkpt><trkpt lat="41.5487657" lon="2.094857"><ele>198.5</ele><time>2026-04-25T11:29:35.493Z</time></trkpt><trkpt lat="41.5487011" lon="2.0948411"><ele>198.33333333333331</ele><time>2026-04-25T11:29:36.493Z</time></trkpt><trkpt lat="41.5485866" lon="2.0948258"><ele>198.16666666666666</ele><time>2026-04-25T11:29:38.493Z</time></trkpt><trkpt lat="41.5485233" lon="2.0948062"><ele>198.0</ele><time>2026-04-25T11:29:40.493Z</time></trkpt><trkpt lat="41.5484598" lon="2.09478"><ele>198.0</ele><time>2026-04-25T11:29:53.493Z</time></trkpt><trkpt lat="41.5483924" lon="2.0947603"><ele>198.0</ele><time>2026-04-25T11:29:54.493Z</time></trkpt><trkpt lat="41.5483183" lon="2.0947419"><ele>198.0</ele><time>2026-04-25T11:29:55.493Z</time></trkpt><trkpt lat="41.5482293" lon="2.0947392"><ele>198.0</ele><time>2026-04-25T11:29:56.493Z</time></trkpt><trkpt lat="41.5481177" lon="2.0947257"><ele>198.0</ele><time>2026-04-25T11:29:57.493Z</time></trkpt><trkpt lat="41.5480032" lon="2.0947083"><ele>198.0</ele><time>2026-04-25T11:29:58.493Z</time></trkpt><trkpt lat="41.5478807" lon="2.0946913"><ele>198.0</ele><time>2026-04-25T11:29:59.493Z</time></trkpt><trkpt lat="41.5477526" lon="2.0946684"><ele>198.0</ele><time>2026-04-25T11:30:00.493Z</time></trkpt><trkpt lat="41.5476193" lon="2.094646"><ele>198.0</ele><time>2026-04-25T11:30:01.493Z</time></trkpt><trkpt lat="41.5474912" lon="2.0946287"><ele>198.2</ele><time>2026-04-25T11:30:02.493Z</time></trkpt><trkpt lat="41.5473716" lon="2.0946169"><ele>198.4</ele><time>2026-04-25T11:30:03.493Z</time></trkpt><trkpt lat="41.5472623" lon="2.0945932"><ele>198.6</ele><time>2026-04-25T11:30:04.493Z</time></trkpt><trkpt lat="41.5471696" lon="2.0945737"><ele>198.79999999999998</ele><time>2026-04-25T11:30:05.493Z</time></trkpt><trkpt lat="41.5470777" lon="2.0945576"><ele>199.0</ele><time>2026-04-25T11:30:06.492Z</time></trkpt><trkpt lat="41.5469987" lon="2.0945408"><ele>199.16666666666666</ele><time>2026-04-25T11:30:07.493Z</time></trkpt><trkpt lat="41.5469244" lon="2.0945263"><ele>199.33333333333331</ele><time>2026-04-25T11:30:08.492Z</time></trkpt><trkpt lat="41.546855" lon="2.0945136"><ele>199.5</ele><time>2026-04-25T11:30:09.493Z</time></trkpt><trkpt lat="41.5467882" lon="2.0945026"><ele>199.66666666666669</ele><time>2026-04-25T11:30:10.493Z</time></trkpt><trkpt lat="41.5466912" lon="2.0945296"><ele>199.83333333333334</ele><time>2026-04-25T11:30:12.493Z</time></trkpt><trkpt lat="41.5466701" lon="2.0946109"><ele>200.0</ele><time>2026-04-25T11:30:14.493Z</time></trkpt><trkpt lat="41.5466577" lon="2.0947118"><ele>200.00000000000003</ele><time>2026-04-25T11:30:17.493Z</time></trkpt><trkpt lat="41.5466778" lon="2.0948215"><ele>200.0</ele><time>2026-04-25T11:30:20.493Z</time></trkpt><trkpt lat="41.5467401" lon="2.0948653"><ele>200.0</ele><time>2026-04-25T11:30:23.493Z</time></trkpt><trkpt lat="41.5467372" lon="2.0947577"><ele>200.0</ele><time>2026-04-25T11:30:26.493Z</time></trkpt><trkpt lat="41.5466586" lon="2.0947419"><ele>200.00000000000003</ele><time>2026-04-25T11:30:28.493Z</time></trkpt><trkpt lat="41.5466367" lon="2.0946444"><ele>200.0</ele><time>2026-04-25T11:30:31.493Z</time></trkpt><trkpt lat="41.5466688" lon="2.0945503"><ele>200.0</ele><time>2026-04-25T11:30:33.493Z</time></trkpt><trkpt lat="41.5467854" lon="2.094546"><ele>200.0</ele><time>2026-04-25T11:30:35.493Z</time></trkpt><trkpt lat="41.5468752" lon="2.0945555"><ele>200.0</ele><time>2026-04-25T11:30:36.493Z</time></trkpt><trkpt lat="41.546989" lon="2.0945647"><ele>200.0</ele><time>2026-04-25T11:30:37.493Z</time></trkpt><trkpt lat="41.5471266" lon="2.094579"><ele>199.66666666666669</ele><time>2026-04-25T11:30:38.493Z</time></trkpt><trkpt lat="41.5472745" lon="2.0945975"><ele>199.33333333333331</ele><time>2026-04-25T11:30:39.493Z</time></trkpt><trkpt lat="41.5474333" lon="2.0946342"><ele>199.0</ele><time>2026-04-25T11:30:40.492Z</time></trkpt><trkpt lat="41.5476019" lon="2.0946671"><ele>199.0</ele><time>2026-04-25T11:30:41.493Z</time></trkpt><trkpt lat="41.5477727" lon="2.0947026"><ele>199.0</ele><time>2026-04-25T11:30:42.493Z</time></trkpt><trkpt lat="41.5479408" lon="2.0947348"><ele>199.0</ele><time>2026-04-25T11:30:43.493Z</time></trkpt><trkpt lat="41.5481019" lon="2.0947582"><ele>198.66666666666666</ele><time>2026-04-25T11:30:44.493Z</time></trkpt><trkpt lat="41.5482658" lon="2.0947828"><ele>198.33333333333331</ele><time>2026-04-25T11:30:45.493Z</time></trkpt><trkpt lat="41.5484275" lon="2.0948114"><ele>198.0</ele><time>2026-04-25T11:30:46.493Z</time></trkpt><trkpt lat="41.5485918" lon="2.0948354"><ele>200.33333333333331</ele><time>2026-04-25T11:30:47.493Z</time></trkpt><trkpt lat="41.5487529" lon="2.0948614"><ele>202.66666666666666</ele><time>2026-04-25T11:30:48.493Z</time></trkpt><trkpt lat="41.5489145" lon="2.0948901"><ele>205.0</ele><time>2026-04-25T11:30:49.492Z</time></trkpt><trkpt lat="41.549076" lon="2.0949198"><ele>203.33333333333331</ele><time>2026-04-25T11:30:50.493Z</time></trkpt><trkpt lat="41.5492363" lon="2.0949482"><ele>201.66666666666669</ele><time>2026-04-25T11:30:51.493Z</time></trkpt><trkpt lat="41.5493932" lon="2.0949733"><ele>200.0</ele><time>2026-04-25T11:30:52.493Z</time></trkpt><trkpt lat="41.5495453" lon="2.0949944"><ele>200.0</ele><time>2026-04-25T11:30:53.493Z</time></trkpt><trkpt lat="41.5496959" lon="2.0950172"><ele>200.0</ele><time>2026-04-25T11:30:54.493Z</time></trkpt><trkpt lat="41.5498434" lon="2.0950279"><ele>200.0</ele><time>2026-04-25T11:30:55.493Z</time></trkpt><trkpt lat="41.5499797" lon="2.0950499"><ele>200.0</ele><time>2026-04-25T11:30:56.492Z</time></trkpt><trkpt lat="41.5500992" lon="2.095072"><ele>200.0</ele><time>2026-04-25T11:30:57.493Z</time></trkpt><trkpt lat="41.5502064" lon="2.09509"><ele>200.0</ele><time>2026-04-25T11:30:58.493Z</time></trkpt><trkpt lat="41.5502916" lon="2.0951072"><ele>200.0</ele><time>2026-04-25T11:30:59.492Z</time></trkpt><trkpt lat="41.5503937" lon="2.0951398"><ele>200.0</ele><time>2026-04-25T11:31:01.493Z</time></trkpt><trkpt lat="41.5504751" lon="2.0952082"><ele>200.0</ele><time>2026-04-25T11:31:03.493Z</time></trkpt><trkpt lat="41.5505756" lon="2.0952441"><ele>200.0</ele><time>2026-04-25T11:31:05.493Z</time></trkpt><trkpt lat="41.5506616" lon="2.0951263"><ele>200.0</ele><time>2026-04-25T11:31:07.493Z</time></trkpt><trkpt lat="41.5506919" lon="2.0950043"><ele>200.0</ele><time>2026-04-25T11:31:08.493Z</time></trkpt><trkpt lat="41.5507106" lon="2.0948581"><ele>200.0</ele><time>2026-04-25T11:31:09.493Z</time></trkpt><trkpt lat="41.5507239" lon="2.094709"><ele>200.0</ele><time>2026-04-25T11:31:10.493Z</time></trkpt><trkpt lat="41.5507339" lon="2.0945412"><ele>202.0</ele><time>2026-04-25T11:31:11.492Z</time></trkpt><trkpt lat="41.5507345" lon="2.0943612"><ele>204.0</ele><time>2026-04-25T11:31:12.493Z</time></trkpt><trkpt lat="41.5507337" lon="2.094169"><ele>206.0</ele><time>2026-04-25T11:31:13.493Z</time></trkpt><trkpt lat="41.5507222" lon="2.0939602"><ele>208.0</ele><time>2026-04-25T11:31:14.493Z</time></trkpt><trkpt lat="41.550701" lon="2.0937731"><ele>209.0</ele><time>2026-04-25T11:31:15.493Z</time></trkpt><trkpt lat="41.5506695" lon="2.0935915"><ele>210.0</ele><time>2026-04-25T11:31:16.493Z</time></trkpt><trkpt lat="41.5506233" lon="2.0934055"><ele>211.0</ele><time>2026-04-25T11:31:17.493Z</time></trkpt><trkpt lat="41.5505705" lon="2.0932244"><ele>212.0</ele><time>2026-04-25T11:31:18.493Z</time></trkpt><trkpt lat="41.550515" lon="2.0930513"><ele>212.0</ele><time>2026-04-25T11:31:19.493Z</time></trkpt><trkpt lat="41.5504547" lon="2.0928909"><ele>212.0</ele><time>2026-04-25T11:31:20.493Z</time></trkpt><trkpt lat="41.5503923" lon="2.0927336"><ele>212.0</ele><time>2026-04-25T11:31:21.493Z</time></trkpt><trkpt lat="41.5503274" lon="2.0925954"><ele>212.0</ele><time>2026-04-25T11:31:22.493Z</time></trkpt><trkpt lat="41.5502561" lon="2.0924695"><ele>211.25</ele><time>2026-04-25T11:31:23.493Z</time></trkpt><trkpt lat="41.5501701" lon="2.0923397"><ele>210.5</ele><time>2026-04-25T11:31:24.493Z</time></trkpt><trkpt lat="41.5500729" lon="2.0921977"><ele>209.75</ele><time>2026-04-25T11:31:25.493Z</time></trkpt><trkpt lat="41.5499612" lon="2.0920496"><ele>209.0</ele><time>2026-04-25T11:31:26.493Z</time></trkpt><trkpt lat="41.5498392" lon="2.0919106"><ele>209.0</ele><time>2026-04-25T11:31:27.493Z</time></trkpt><trkpt lat="41.5497248" lon="2.0917776"><ele>209.0</ele><time>2026-04-25T11:31:28.493Z</time></trkpt><trkpt lat="41.549622" lon="2.0916376"><ele>209.0</ele><time>2026-04-25T11:31:29.493Z</time></trkpt><trkpt lat="41.5495329" lon="2.0914734"><ele>207.0</ele><time>2026-04-25T11:31:30.492Z</time></trkpt><trkpt lat="41.5494534" lon="2.0912996"><ele>205.0</ele><time>2026-04-25T11:31:31.493Z</time></trkpt><trkpt lat="41.5493862" lon="2.0911177"><ele>203.0</ele><time>2026-04-25T11:31:32.493Z</time></trkpt><trkpt lat="41.549333" lon="2.0909501"><ele>201.0</ele><time>2026-04-25T11:31:33.492Z</time></trkpt><trkpt lat="41.54929" lon="2.0907907"><ele>200.60000000000002</ele><time>2026-04-25T11:31:34.493Z</time></trkpt><trkpt lat="41.5492666" lon="2.0906466"><ele>200.2</ele><time>2026-04-25T11:31:35.493Z</time></trkpt><trkpt lat="41.5492627" lon="2.0904999"><ele>199.8</ele><time>2026-04-25T11:31:36.493Z</time></trkpt><trkpt lat="41.5492632" lon="2.0903539"><ele>199.39999999999998</ele><time>2026-04-25T11:31:37.493Z</time></trkpt><trkpt lat="41.5492796" lon="2.090226"><ele>199.0</ele><time>2026-04-25T11:31:38.492Z</time></trkpt><trkpt lat="41.5493057" lon="2.0900996"><ele>198.99999999999997</ele><time>2026-04-25T11:31:39.491Z</time></trkpt><trkpt lat="41.5493382" lon="2.0899916"><ele>199.0</ele><time>2026-04-25T11:31:40.492Z</time></trkpt><trkpt lat="41.5493799" lon="2.0898991"><ele>199.0</ele><time>2026-04-25T11:31:41.492Z</time></trkpt><trkpt lat="41.5494207" lon="2.0898247"><ele>199.0</ele><time>2026-04-25T11:31:42.492Z</time></trkpt><trkpt lat="41.5494849" lon="2.0897421"><ele>198.99999999999997</ele><time>2026-04-25T11:31:44.492Z</time></trkpt><trkpt lat="41.5495617" lon="2.0896392"><ele>199.0</ele><time>2026-04-25T11:32:09.497Z</time></trkpt><trkpt lat="41.5496131" lon="2.0895766"><ele>198.33333333333331</ele><time>2026-04-25T11:32:10.498Z</time></trkpt><trkpt lat="41.5498064" lon="2.0894236"><ele>197.66666666666669</ele><time>2026-04-25T11:32:13.498Z</time></trkpt><trkpt lat="41.549922" lon="2.0893946"><ele>197.0</ele><time>2026-04-25T11:32:15.498Z</time></trkpt><trkpt lat="41.5500743" lon="2.0893629"><ele>197.0</ele><time>2026-04-25T11:32:17.498Z</time></trkpt><trkpt lat="41.5501791" lon="2.0893712"><ele>197.0</ele><time>2026-04-25T11:32:18.498Z</time></trkpt><trkpt lat="41.550286" lon="2.0893931"><ele>197.0</ele><time>2026-04-25T11:32:19.498Z</time></trkpt><trkpt lat="41.5504047" lon="2.0894359"><ele>197.0</ele><time>2026-04-25T11:32:20.498Z</time></trkpt><trkpt lat="41.5505254" lon="2.0894936"><ele>197.39999999999998</ele><time>2026-04-25T11:32:21.497Z</time></trkpt><trkpt lat="41.5506374" lon="2.0895348"><ele>197.79999999999998</ele><time>2026-04-25T11:32:22.498Z</time></trkpt><trkpt lat="41.550743" lon="2.0895678"><ele>198.2</ele><time>2026-04-25T11:32:23.497Z</time></trkpt><trkpt lat="41.5508506" lon="2.0895793"><ele>198.6</ele><time>2026-04-25T11:32:24.498Z</time></trkpt><trkpt lat="41.5509545" lon="2.0895772"><ele>199.0</ele><time>2026-04-25T11:32:25.497Z</time></trkpt><trkpt lat="41.5510645" lon="2.0895645"><ele>199.0</ele><time>2026-04-25T11:32:26.497Z</time></trkpt><trkpt lat="41.5511855" lon="2.0895375"><ele>199.0</ele><time>2026-04-25T11:32:27.497Z</time></trkpt><trkpt lat="41.5513121" lon="2.0895063"><ele>199.0</ele><time>2026-04-25T11:32:28.497Z</time></trkpt><trkpt lat="41.5514464" lon="2.0894666"><ele>199.0</ele><time>2026-04-25T11:32:29.497Z</time></trkpt><trkpt lat="41.5515865" lon="2.0894324"><ele>199.75</ele><time>2026-04-25T11:32:30.497Z</time></trkpt><trkpt lat="41.5517274" lon="2.0894241"><ele>200.5</ele><time>2026-04-25T11:32:31.497Z</time></trkpt><trkpt lat="41.5518718" lon="2.0894338"><ele>201.25</ele><time>2026-04-25T11:32:32.497Z</time></trkpt><trkpt lat="41.5520215" lon="2.0894596"><ele>202.0</ele><time>2026-04-25T11:32:33.496Z</time></trkpt><trkpt lat="41.552179" lon="2.0894904"><ele>202.5</ele><time>2026-04-25T11:32:34.497Z</time></trkpt><trkpt lat="41.5523301" lon="2.0895256"><ele>203.0</ele><time>2026-04-25T11:32:35.497Z</time></trkpt><trkpt lat="41.5524674" lon="2.0895546"><ele>203.5</ele><time>2026-04-25T11:32:36.497Z</time></trkpt><trkpt lat="41.5525911" lon="2.089571"><ele>204.0</ele><time>2026-04-25T11:32:37.497Z</time></trkpt><trkpt lat="41.5527101" lon="2.08957"><ele>204.0</ele><time>2026-04-25T11:32:38.497Z</time></trkpt><trkpt lat="41.5528162" lon="2.0895589"><ele>204.0</ele><time>2026-04-25T11:32:39.497Z</time></trkpt><trkpt lat="41.5529118" lon="2.089541"><ele>204.0</ele><time>2026-04-25T11:32:40.497Z</time></trkpt><trkpt lat="41.5530004" lon="2.0895346"><ele>204.0</ele><time>2026-04-25T11:32:41.497Z</time></trkpt><trkpt lat="41.5530776" lon="2.0895251"><ele>204.0</ele><time>2026-04-25T11:32:42.497Z</time></trkpt><trkpt lat="41.5531446" lon="2.0894838"><ele>204.0</ele><time>2026-04-25T11:32:43.497Z</time></trkpt><trkpt lat="41.5531921" lon="2.0893954"><ele>205.2</ele><time>2026-04-25T11:32:44.497Z</time></trkpt><trkpt lat="41.5531876" lon="2.089287"><ele>206.39999999999998</ele><time>2026-04-25T11:32:45.497Z</time></trkpt><trkpt lat="41.5531506" lon="2.0891853"><ele>207.6</ele><time>2026-04-25T11:32:46.497Z</time></trkpt><trkpt lat="41.5530741" lon="2.0891052"><ele>208.8</ele><time>2026-04-25T11:32:47.497Z</time></trkpt><trkpt lat="41.5529896" lon="2.0890185"><ele>210.0</ele><time>2026-04-25T11:32:48.497Z</time></trkpt><trkpt lat="41.5529331" lon="2.0889028"><ele>210.0</ele><time>2026-04-25T11:32:49.497Z</time></trkpt><trkpt lat="41.5528874" lon="2.088747"><ele>210.0</ele><time>2026-04-25T11:32:50.497Z</time></trkpt><trkpt lat="41.5528622" lon="2.0885818"><ele>210.0</ele><time>2026-04-25T11:32:51.496Z</time></trkpt><trkpt lat="41.5528595" lon="2.0884062"><ele>210.0</ele><time>2026-04-25T11:32:52.497Z</time></trkpt><trkpt lat="41.5528707" lon="2.0882084"><ele>211.0</ele><time>2026-04-25T11:32:53.497Z</time></trkpt><trkpt lat="41.5528889" lon="2.0880051"><ele>212.0</ele><time>2026-04-25T11:32:54.497Z</time></trkpt><trkpt lat="41.5528997" lon="2.0877982"><ele>213.0</ele><time>2026-04-25T11:32:55.497Z</time></trkpt><trkpt lat="41.5529132" lon="2.0875878"><ele>212.5</ele><time>2026-04-25T11:32:56.497Z</time></trkpt><trkpt lat="41.5529256" lon="2.0873899"><ele>212.0</ele><time>2026-04-25T11:32:57.497Z</time></trkpt><trkpt lat="41.5529369" lon="2.0872008"><ele>211.5</ele><time>2026-04-25T11:32:58.497Z</time></trkpt><trkpt lat="41.552952" lon="2.0870236"><ele>211.0</ele><time>2026-04-25T11:32:59.497Z</time></trkpt><trkpt lat="41.5529681" lon="2.0868603"><ele>210.99999999999997</ele><time>2026-04-25T11:33:00.496Z</time></trkpt><trkpt lat="41.5529787" lon="2.0867176"><ele>211.0</ele><time>2026-04-25T11:33:01.497Z</time></trkpt><trkpt lat="41.552993" lon="2.0865976"><ele>211.0</ele><time>2026-04-25T11:33:02.497Z</time></trkpt><trkpt lat="41.5530083" lon="2.086501"><ele>211.0</ele><time>2026-04-25T11:33:03.497Z</time></trkpt><trkpt lat="41.5530437" lon="2.0864205"><ele>210.99999999999997</ele><time>2026-04-25T11:33:04.497Z</time></trkpt><trkpt lat="41.5531033" lon="2.0863357"><ele>211.0</ele><time>2026-04-25T11:33:05.497Z</time></trkpt><trkpt lat="41.5531833" lon="2.0862619"><ele>210.66666666666666</ele><time>2026-04-25T11:33:06.496Z</time></trkpt><trkpt lat="41.5532548" lon="2.0861913"><ele>210.33333333333331</ele><time>2026-04-25T11:33:07.497Z</time></trkpt><trkpt lat="41.5533098" lon="2.0861265"><ele>210.0</ele><time>2026-04-25T11:33:08.497Z</time></trkpt><trkpt lat="41.5533625" lon="2.0860672"><ele>209.66666666666669</ele><time>2026-04-25T11:33:09.497Z</time></trkpt><trkpt lat="41.5534695" lon="2.086027"><ele>209.33333333333334</ele><time>2026-04-25T11:33:11.497Z</time></trkpt><trkpt lat="41.5535269" lon="2.0860741"><ele>209.0</ele><time>2026-04-25T11:33:12.496Z</time></trkpt><trkpt lat="41.5535734" lon="2.0861609"><ele>209.00000000000003</ele><time>2026-04-25T11:33:13.497Z</time></trkpt><trkpt lat="41.5536034" lon="2.0862629"><ele>209.0</ele><time>2026-04-25T11:33:14.497Z</time></trkpt><trkpt lat="41.5536411" lon="2.086376"><ele>209.0</ele><time>2026-04-25T11:33:15.497Z</time></trkpt><trkpt lat="41.5536829" lon="2.0864792"><ele>209.0</ele><time>2026-04-25T11:33:16.497Z</time></trkpt><trkpt lat="41.5537163" lon="2.0865704"><ele>209.00000000000003</ele><time>2026-04-25T11:33:17.497Z</time></trkpt><trkpt lat="41.5537513" lon="2.0866513"><ele>209.0</ele><time>2026-04-25T11:33:18.497Z</time></trkpt><trkpt lat="41.5537788" lon="2.0867481"><ele>210.6</ele><time>2026-04-25T11:33:19.497Z</time></trkpt><trkpt lat="41.553813" lon="2.086846"><ele>212.2</ele><time>2026-04-25T11:33:20.496Z</time></trkpt><trkpt lat="41.553851" lon="2.0869635"><ele>213.79999999999998</ele><time>2026-04-25T11:33:21.497Z</time></trkpt><trkpt lat="41.5538917" lon="2.0870794"><ele>215.39999999999998</ele><time>2026-04-25T11:33:22.497Z</time></trkpt><trkpt lat="41.5539318" lon="2.0871987"><ele>217.0</ele><time>2026-04-25T11:33:23.497Z</time></trkpt><trkpt lat="41.5539701" lon="2.087303"><ele>216.99999999999997</ele><time>2026-04-25T11:33:24.497Z</time></trkpt><trkpt lat="41.5540059" lon="2.0873832"><ele>217.0</ele><time>2026-04-25T11:33:25.496Z</time></trkpt><trkpt lat="41.5540093" lon="2.0874942"><ele>217.0</ele><time>2026-04-25T11:33:27.497Z</time></trkpt><trkpt lat="41.5539108" lon="2.0875313"><ele>217.0</ele><time>2026-04-25T11:33:30.496Z</time></trkpt><trkpt lat="41.5538403" lon="2.0874722"><ele>216.99999999999997</ele><time>2026-04-25T11:33:32.496Z</time></trkpt><trkpt lat="41.5538024" lon="2.0873717"><ele>217.0</ele><time>2026-04-25T11:33:34.497Z</time></trkpt><trkpt lat="41.5537633" lon="2.0872762"><ele>209.0</ele><time>2026-04-25T11:33:36.497Z</time></trkpt><trkpt lat="41.5533908" lon="2.0864371"><ele>209.0</ele><time>2026-04-25T11:35:10.521Z</time></trkpt></trkseg></trk></gpx>